<?xml version='1.0' encoding='UTF-8'?><gpx version="1.1" creator="JPX - https://github.com/jenetics/jpx" xmlns="http://www.topografix.com/GPX/1/1"><trk><trkseg><trkpt lat="45.0231014" lon="9.679117"><ele>71.0</ele><time>2026-04-18T06:18:42.405Z</time></trkpt><trkpt lat="45.0230027" lon="9.6790595"><ele>71.0</ele><time>2026-04-18T06:18:44.301Z</time></trkpt><trkpt lat="45.0229044" lon="9.6790667"><ele>71.0</ele><time>2026-04-18T06:18:46.301Z</time></trkpt><trkpt lat="45.0228026" lon="9.6790306"><ele>71.0</ele><time>2026-04-18T06:18:48.301Z</time></trkpt><trkpt lat="45.0226994" lon="9.6789995"><ele>71.0</ele><time>2026-04-18T06:18:50.301Z</time></trkpt><trkpt lat="45.0225959" lon="9.6789722"><ele>71.0</ele><time>2026-04-18T06:18:52.301Z</time></trkpt><trkpt lat="45.0225125" lon="9.6789505"><ele>71.0</ele><time>2026-04-18T06:18:54.301Z</time></trkpt><trkpt lat="45.0224247" lon="9.6789249"><ele>71.0</ele><time>2026-04-18T06:18:56.301Z</time></trkpt><trkpt lat="45.0223467" lon="9.6788861"><ele>71.0</ele><time>2026-04-18T06:18:58.301Z</time></trkpt><trkpt lat="45.0222685" lon="9.678847"><ele>71.0</ele><time>2026-04-18T06:19:00.301Z</time></trkpt><trkpt lat="45.0221876" lon="9.6788091"><ele>71.0</ele><time>2026-04-18T06:19:02.301Z</time></trkpt><trkpt lat="45.0221212" lon="9.6787764"><ele>71.0</ele><time>2026-04-18T06:19:04.301Z</time></trkpt><trkpt lat="45.0220528" lon="9.6787417"><ele>71.0</ele><time>2026-04-18T06:19:06.301Z</time></trkpt><trkpt lat="45.0219707" lon="9.6786981"><ele>71.0</ele><time>2026-04-18T06:19:08.301Z</time></trkpt><trkpt lat="45.0218575" lon="9.6786384"><ele>71.0</ele><time>2026-04-18T06:19:10.301Z</time></trkpt><trkpt lat="45.0217817" lon="9.6785979"><ele>71.0</ele><time>2026-04-18T06:19:11.301Z</time></trkpt><trkpt lat="45.0216989" lon="9.6785521"><ele>71.16666666666667</ele><time>2026-04-18T06:19:12.301Z</time></trkpt><trkpt lat="45.0216182" lon="9.6785072"><ele>71.33333333333334</ele><time>2026-04-18T06:19:13.301Z</time></trkpt><trkpt lat="45.0215336" lon="9.6784622"><ele>71.5</ele><time>2026-04-18T06:19:14.301Z</time></trkpt><trkpt lat="45.0214524" lon="9.6784171"><ele>71.66666666666667</ele><time>2026-04-18T06:19:15.301Z</time></trkpt><trkpt lat="45.0213771" lon="9.6783741"><ele>71.83333333333333</ele><time>2026-04-18T06:19:16.301Z</time></trkpt><trkpt lat="45.021303" lon="9.678334"><ele>72.0</ele><time>2026-04-18T06:19:17.3Z</time></trkpt><trkpt lat="45.0212302" lon="9.6782934"><ele>72.00000000000001</ele><time>2026-04-18T06:19:18.301Z</time></trkpt><trkpt lat="45.021159" lon="9.6782512"><ele>72.0</ele><time>2026-04-18T06:19:19.301Z</time></trkpt><trkpt lat="45.0210918" lon="9.6782129"><ele>72.0</ele><time>2026-04-18T06:19:20.301Z</time></trkpt><trkpt lat="45.0210264" lon="9.6781777"><ele>72.0</ele><time>2026-04-18T06:19:21.301Z</time></trkpt><trkpt lat="45.0209608" lon="9.6781397"><ele>72.0</ele><time>2026-04-18T06:19:22.301Z</time></trkpt><trkpt lat="45.0208988" lon="9.6781042"><ele>72.00000000000001</ele><time>2026-04-18T06:19:23.3Z</time></trkpt><trkpt lat="45.0208324" lon="9.6780689"><ele>72.0</ele><time>2026-04-18T06:19:24.301Z</time></trkpt><trkpt lat="45.0207703" lon="9.6780341"><ele>72.00000000000001</ele><time>2026-04-18T06:19:25.301Z</time></trkpt><trkpt lat="45.0207071" lon="9.6780004"><ele>72.0</ele><time>2026-04-18T06:19:26.301Z</time></trkpt><trkpt lat="45.0206439" lon="9.6779663"><ele>72.0</ele><time>2026-04-18T06:19:27.301Z</time></trkpt><trkpt lat="45.0205763" lon="9.6779298"><ele>72.0</ele><time>2026-04-18T06:19:28.301Z</time></trkpt><trkpt lat="45.0205094" lon="9.6778939"><ele>72.0</ele><time>2026-04-18T06:19:29.301Z</time></trkpt><trkpt lat="45.0204461" lon="9.677857"><ele>72.00000000000001</ele><time>2026-04-18T06:19:30.301Z</time></trkpt><trkpt lat="45.0203829" lon="9.6778208"><ele>72.0</ele><time>2026-04-18T06:19:31.301Z</time></trkpt><trkpt lat="45.0203149" lon="9.6777857"><ele>72.16666666666667</ele><time>2026-04-18T06:19:32.301Z</time></trkpt><trkpt lat="45.0202413" lon="9.6777446"><ele>72.33333333333333</ele><time>2026-04-18T06:19:33.301Z</time></trkpt><trkpt lat="45.0201619" lon="9.6777023"><ele>72.5</ele><time>2026-04-18T06:19:34.302Z</time></trkpt><trkpt lat="45.0200855" lon="9.6776619"><ele>72.66666666666666</ele><time>2026-04-18T06:19:35.302Z</time></trkpt><trkpt lat="45.0200171" lon="9.677623"><ele>72.83333333333333</ele><time>2026-04-18T06:19:36.302Z</time></trkpt><trkpt lat="45.0199496" lon="9.6775863"><ele>73.0</ele><time>2026-04-18T06:19:37.302Z</time></trkpt><trkpt lat="45.019885" lon="9.6775506"><ele>73.0</ele><time>2026-04-18T06:19:38.302Z</time></trkpt><trkpt lat="45.0198214" lon="9.6775144"><ele>73.0</ele><time>2026-04-18T06:19:39.302Z</time></trkpt><trkpt lat="45.0197574" lon="9.6774794"><ele>73.0</ele><time>2026-04-18T06:19:40.302Z</time></trkpt><trkpt lat="45.0196961" lon="9.6774468"><ele>73.0</ele><time>2026-04-18T06:19:41.302Z</time></trkpt><trkpt lat="45.0196311" lon="9.6774125"><ele>73.0</ele><time>2026-04-18T06:19:42.302Z</time></trkpt><trkpt lat="45.0195671" lon="9.6773783"><ele>73.0</ele><time>2026-04-18T06:19:43.302Z</time></trkpt><trkpt lat="45.0194976" lon="9.6773427"><ele>73.0</ele><time>2026-04-18T06:19:44.302Z</time></trkpt><trkpt lat="45.01943" lon="9.6773046"><ele>73.0</ele><time>2026-04-18T06:19:45.302Z</time></trkpt><trkpt lat="45.0193594" lon="9.6772638"><ele>73.0</ele><time>2026-04-18T06:19:46.302Z</time></trkpt><trkpt lat="45.0192884" lon="9.6772218"><ele>73.0</ele><time>2026-04-18T06:19:47.302Z</time></trkpt><trkpt lat="45.0192184" lon="9.6771826"><ele>73.0</ele><time>2026-04-18T06:19:48.302Z</time></trkpt><trkpt lat="45.0191439" lon="9.6771418"><ele>73.0</ele><time>2026-04-18T06:19:49.302Z</time></trkpt><trkpt lat="45.0190687" lon="9.6770989"><ele>73.0</ele><time>2026-04-18T06:19:50.301Z</time></trkpt><trkpt lat="45.0189885" lon="9.677054"><ele>73.0</ele><time>2026-04-18T06:19:51.302Z</time></trkpt><trkpt lat="45.0189031" lon="9.677006"><ele>73.0</ele><time>2026-04-18T06:19:52.302Z</time></trkpt><trkpt lat="45.0188123" lon="9.6769547"><ele>73.0</ele><time>2026-04-18T06:19:53.302Z</time></trkpt><trkpt lat="45.0187149" lon="9.6769006"><ele>73.0</ele><time>2026-04-18T06:19:54.302Z</time></trkpt><trkpt lat="45.0186087" lon="9.6768427"><ele>73.0</ele><time>2026-04-18T06:19:55.302Z</time></trkpt><trkpt lat="45.0185044" lon="9.6767877"><ele>73.0</ele><time>2026-04-18T06:19:56.302Z</time></trkpt><trkpt lat="45.018397" lon="9.6767329"><ele>73.0</ele><time>2026-04-18T06:19:57.302Z</time></trkpt><trkpt lat="45.0182866" lon="9.6766734"><ele>73.0</ele><time>2026-04-18T06:19:58.302Z</time></trkpt><trkpt lat="45.0181802" lon="9.6766121"><ele>73.0</ele><time>2026-04-18T06:19:59.302Z</time></trkpt><trkpt lat="45.0180753" lon="9.6765524"><ele>73.0</ele><time>2026-04-18T06:20:00.302Z</time></trkpt><trkpt lat="45.017967" lon="9.6764907"><ele>73.0</ele><time>2026-04-18T06:20:01.302Z</time></trkpt><trkpt lat="45.0178618" lon="9.6764316"><ele>73.0</ele><time>2026-04-18T06:20:02.302Z</time></trkpt><trkpt lat="45.0177597" lon="9.6763735"><ele>73.0</ele><time>2026-04-18T06:20:03.302Z</time></trkpt><trkpt lat="45.017656" lon="9.6763139"><ele>73.0</ele><time>2026-04-18T06:20:04.302Z</time></trkpt><trkpt lat="45.0175506" lon="9.6762557"><ele>73.0</ele><time>2026-04-18T06:20:05.302Z</time></trkpt><trkpt lat="45.0174414" lon="9.6761954"><ele>73.0</ele><time>2026-04-18T06:20:06.302Z</time></trkpt><trkpt lat="45.0173285" lon="9.6761345"><ele>73.0</ele><time>2026-04-18T06:20:07.301Z</time></trkpt><trkpt lat="45.0172116" lon="9.6760714"><ele>73.0</ele><time>2026-04-18T06:20:08.302Z</time></trkpt><trkpt lat="45.0170898" lon="9.6760054"><ele>73.0</ele><time>2026-04-18T06:20:09.302Z</time></trkpt><trkpt lat="45.0169654" lon="9.6759436"><ele>73.0</ele><time>2026-04-18T06:20:10.302Z</time></trkpt><trkpt lat="45.0168344" lon="9.6758845"><ele>73.0</ele><time>2026-04-18T06:20:11.302Z</time></trkpt><trkpt lat="45.0167001" lon="9.6758257"><ele>73.25</ele><time>2026-04-18T06:20:12.302Z</time></trkpt><trkpt lat="45.0165607" lon="9.6757648"><ele>73.5</ele><time>2026-04-18T06:20:13.302Z</time></trkpt><trkpt lat="45.0164194" lon="9.675702"><ele>73.75</ele><time>2026-04-18T06:20:14.302Z</time></trkpt><trkpt lat="45.0162799" lon="9.6756371"><ele>74.0</ele><time>2026-04-18T06:20:15.302Z</time></trkpt><trkpt lat="45.0161459" lon="9.6755731"><ele>74.0</ele><time>2026-04-18T06:20:16.302Z</time></trkpt><trkpt lat="45.0160095" lon="9.6755082"><ele>74.0</ele><time>2026-04-18T06:20:17.302Z</time></trkpt><trkpt lat="45.0158697" lon="9.6754434"><ele>74.0</ele><time>2026-04-18T06:20:18.302Z</time></trkpt><trkpt lat="45.0157292" lon="9.6753801"><ele>74.0</ele><time>2026-04-18T06:20:19.302Z</time></trkpt><trkpt lat="45.0155898" lon="9.6753166"><ele>73.25</ele><time>2026-04-18T06:20:20.302Z</time></trkpt><trkpt lat="45.0154493" lon="9.6752524"><ele>72.5</ele><time>2026-04-18T06:20:21.302Z</time></trkpt><trkpt lat="45.0153085" lon="9.6751868"><ele>71.75</ele><time>2026-04-18T06:20:22.302Z</time></trkpt><trkpt lat="45.0151684" lon="9.6751187"><ele>71.0</ele><time>2026-04-18T06:20:23.302Z</time></trkpt><trkpt lat="45.015027" lon="9.6750513"><ele>71.66666666666667</ele><time>2026-04-18T06:20:24.302Z</time></trkpt><trkpt lat="45.0148843" lon="9.6749844"><ele>72.33333333333333</ele><time>2026-04-18T06:20:25.302Z</time></trkpt><trkpt lat="45.0147395" lon="9.6749165"><ele>73.0</ele><time>2026-04-18T06:20:26.302Z</time></trkpt><trkpt lat="45.0145936" lon="9.6748478"><ele>73.0</ele><time>2026-04-18T06:20:27.302Z</time></trkpt><trkpt lat="45.0144465" lon="9.6747783"><ele>73.0</ele><time>2026-04-18T06:20:28.302Z</time></trkpt><trkpt lat="45.0142981" lon="9.6747093"><ele>73.0</ele><time>2026-04-18T06:20:29.303Z</time></trkpt><trkpt lat="45.0141488" lon="9.6746394"><ele>73.33333333333333</ele><time>2026-04-18T06:20:30.302Z</time></trkpt><trkpt lat="45.0139988" lon="9.674569"><ele>73.66666666666667</ele><time>2026-04-18T06:20:31.302Z</time></trkpt><trkpt lat="45.0138482" lon="9.6744971"><ele>74.0</ele><time>2026-04-18T06:20:32.302Z</time></trkpt><trkpt lat="45.0136972" lon="9.6744247"><ele>74.0</ele><time>2026-04-18T06:20:33.302Z</time></trkpt><trkpt lat="45.0135454" lon="9.6743519"><ele>74.0</ele><time>2026-04-18T06:20:34.302Z</time></trkpt><trkpt lat="45.0133927" lon="9.6742779"><ele>74.0</ele><time>2026-04-18T06:20:35.302Z</time></trkpt><trkpt lat="45.0132394" lon="9.674204"><ele>73.66666666666667</ele><time>2026-04-18T06:20:36.302Z</time></trkpt><trkpt lat="45.0130855" lon="9.6741306"><ele>73.33333333333333</ele><time>2026-04-18T06:20:37.302Z</time></trkpt><trkpt lat="45.0129321" lon="9.6740557"><ele>73.0</ele><time>2026-04-18T06:20:38.302Z</time></trkpt><trkpt lat="45.0127791" lon="9.6739793"><ele>73.0</ele><time>2026-04-18T06:20:39.302Z</time></trkpt><trkpt lat="45.0126261" lon="9.6739019"><ele>73.0</ele><time>2026-04-18T06:20:40.303Z</time></trkpt><trkpt lat="45.0124749" lon="9.6738271"><ele>73.0</ele><time>2026-04-18T06:20:41.302Z</time></trkpt><trkpt lat="45.0123258" lon="9.6737554"><ele>73.33333333333333</ele><time>2026-04-18T06:20:42.302Z</time></trkpt><trkpt lat="45.0121787" lon="9.6736844"><ele>73.66666666666667</ele><time>2026-04-18T06:20:43.302Z</time></trkpt><trkpt lat="45.0120337" lon="9.6736125"><ele>74.0</ele><time>2026-04-18T06:20:44.302Z</time></trkpt><trkpt lat="45.0118925" lon="9.673543"><ele>74.25</ele><time>2026-04-18T06:20:45.302Z</time></trkpt><trkpt lat="45.0117598" lon="9.6734781"><ele>74.5</ele><time>2026-04-18T06:20:46.302Z</time></trkpt><trkpt lat="45.0116318" lon="9.6734133"><ele>74.75</ele><time>2026-04-18T06:20:47.302Z</time></trkpt><trkpt lat="45.0115088" lon="9.6733521"><ele>75.0</ele><time>2026-04-18T06:20:48.302Z</time></trkpt><trkpt lat="45.0113891" lon="9.6732937"><ele>75.25</ele><time>2026-04-18T06:20:49.302Z</time></trkpt><trkpt lat="45.0112753" lon="9.6732352"><ele>75.5</ele><time>2026-04-18T06:20:50.302Z</time></trkpt><trkpt lat="45.0111596" lon="9.6731742"><ele>75.75</ele><time>2026-04-18T06:20:51.302Z</time></trkpt><trkpt lat="45.0110463" lon="9.6731167"><ele>76.0</ele><time>2026-04-18T06:20:52.302Z</time></trkpt><trkpt lat="45.0109404" lon="9.6730672"><ele>76.0</ele><time>2026-04-18T06:20:53.303Z</time></trkpt><trkpt lat="45.0108465" lon="9.6730307"><ele>76.0</ele><time>2026-04-18T06:20:54.303Z</time></trkpt><trkpt lat="45.0107653" lon="9.6730055"><ele>76.0</ele><time>2026-04-18T06:20:55.303Z</time></trkpt><trkpt lat="45.0106984" lon="9.6729878"><ele>76.0</ele><time>2026-04-18T06:20:56.303Z</time></trkpt><trkpt lat="45.0105869" lon="9.6729112"><ele>76.0</ele><time>2026-04-18T06:20:58.303Z</time></trkpt><trkpt lat="45.0105225" lon="9.6728595"><ele>76.0</ele><time>2026-04-18T06:20:59.302Z</time></trkpt><trkpt lat="45.0104428" lon="9.6728235"><ele>75.6</ele><time>2026-04-18T06:21:00.303Z</time></trkpt><trkpt lat="45.0103508" lon="9.6728036"><ele>75.19999999999999</ele><time>2026-04-18T06:21:01.303Z</time></trkpt><trkpt lat="45.0102523" lon="9.6727728"><ele>74.80000000000001</ele><time>2026-04-18T06:21:02.303Z</time></trkpt><trkpt lat="45.010153" lon="9.6727138"><ele>74.4</ele><time>2026-04-18T06:21:03.303Z</time></trkpt><trkpt lat="45.0100544" lon="9.6726419"><ele>74.0</ele><time>2026-04-18T06:21:04.303Z</time></trkpt><trkpt lat="45.0099569" lon="9.6725767"><ele>74.0</ele><time>2026-04-18T06:21:05.303Z</time></trkpt><trkpt lat="45.0098555" lon="9.6725168"><ele>74.0</ele><time>2026-04-18T06:21:06.303Z</time></trkpt><trkpt lat="45.0097499" lon="9.6724616"><ele>74.0</ele><time>2026-04-18T06:21:07.303Z</time></trkpt><trkpt lat="45.0096394" lon="9.6724057"><ele>74.0</ele><time>2026-04-18T06:21:08.303Z</time></trkpt><trkpt lat="45.0095261" lon="9.6723481"><ele>74.0</ele><time>2026-04-18T06:21:09.303Z</time></trkpt><trkpt lat="45.009415" lon="9.6722919"><ele>74.0</ele><time>2026-04-18T06:21:10.303Z</time></trkpt><trkpt lat="45.0093029" lon="9.6722357"><ele>74.0</ele><time>2026-04-18T06:21:11.303Z</time></trkpt><trkpt lat="45.0092112" lon="9.6721873"><ele>74.0</ele><time>2026-04-18T06:21:12.303Z</time></trkpt><trkpt lat="45.0091378" lon="9.6721453"><ele>74.0</ele><time>2026-04-18T06:21:13.303Z</time></trkpt><trkpt lat="45.0090726" lon="9.67211"><ele>74.33333333333334</ele><time>2026-04-18T06:21:14.303Z</time></trkpt><trkpt lat="45.0090127" lon="9.6720797"><ele>74.66666666666667</ele><time>2026-04-18T06:21:15.303Z</time></trkpt><trkpt lat="45.008952" lon="9.6720489"><ele>75.0</ele><time>2026-04-18T06:21:16.303Z</time></trkpt><trkpt lat="45.008885" lon="9.6720119"><ele>75.33333333333333</ele><time>2026-04-18T06:21:17.303Z</time></trkpt><trkpt lat="45.0088066" lon="9.6719702"><ele>75.66666666666666</ele><time>2026-04-18T06:21:18.303Z</time></trkpt><trkpt lat="45.0087256" lon="9.6719292"><ele>76.0</ele><time>2026-04-18T06:21:19.303Z</time></trkpt><trkpt lat="45.0086422" lon="9.6718887"><ele>76.0</ele><time>2026-04-18T06:21:20.303Z</time></trkpt><trkpt lat="45.0085516" lon="9.6718458"><ele>76.0</ele><time>2026-04-18T06:21:21.303Z</time></trkpt><trkpt lat="45.0084528" lon="9.6717981"><ele>76.0</ele><time>2026-04-18T06:21:22.303Z</time></trkpt><trkpt lat="45.0083459" lon="9.6717471"><ele>76.0</ele><time>2026-04-18T06:21:23.303Z</time></trkpt><trkpt lat="45.0082343" lon="9.6716951"><ele>76.0</ele><time>2026-04-18T06:21:24.303Z</time></trkpt><trkpt lat="45.0081204" lon="9.6716442"><ele>76.25</ele><time>2026-04-18T06:21:25.303Z</time></trkpt><trkpt lat="45.0080032" lon="9.6715932"><ele>76.5</ele><time>2026-04-18T06:21:26.303Z</time></trkpt><trkpt lat="45.0078821" lon="9.6715401"><ele>76.75</ele><time>2026-04-18T06:21:27.303Z</time></trkpt><trkpt lat="45.0077524" lon="9.6714809"><ele>77.0</ele><time>2026-04-18T06:21:28.303Z</time></trkpt><trkpt lat="45.0076155" lon="9.6714198"><ele>77.0</ele><time>2026-04-18T06:21:29.303Z</time></trkpt><trkpt lat="45.0074803" lon="9.6713593"><ele>77.0</ele><time>2026-04-18T06:21:30.302Z</time></trkpt><trkpt lat="45.0073457" lon="9.6712997"><ele>77.0</ele><time>2026-04-18T06:21:31.303Z</time></trkpt><trkpt lat="45.0072084" lon="9.6712377"><ele>77.0</ele><time>2026-04-18T06:21:32.303Z</time></trkpt><trkpt lat="45.0070646" lon="9.6711732"><ele>77.0</ele><time>2026-04-18T06:21:33.303Z</time></trkpt><trkpt lat="45.0069067" lon="9.6711136"><ele>77.0</ele><time>2026-04-18T06:21:34.303Z</time></trkpt><trkpt lat="45.0067248" lon="9.6710417"><ele>77.0</ele><time>2026-04-18T06:21:35.303Z</time></trkpt><trkpt lat="45.0065175" lon="9.6709456"><ele>77.0</ele><time>2026-04-18T06:21:36.303Z</time></trkpt><trkpt lat="45.006296" lon="9.6708428"><ele>77.0</ele><time>2026-04-18T06:21:37.303Z</time></trkpt><trkpt lat="45.006036" lon="9.6707216"><ele>77.0</ele><time>2026-04-18T06:21:38.303Z</time></trkpt><trkpt lat="45.0057612" lon="9.6705888"><ele>77.0</ele><time>2026-04-18T06:21:39.303Z</time></trkpt><trkpt lat="45.0055071" lon="9.6704642"><ele>77.0</ele><time>2026-04-18T06:21:40.303Z</time></trkpt><trkpt lat="45.0052658" lon="9.670346"><ele>77.0</ele><time>2026-04-18T06:21:41.303Z</time></trkpt><trkpt lat="45.0050305" lon="9.6702263"><ele>78.0</ele><time>2026-04-18T06:21:42.303Z</time></trkpt><trkpt lat="45.0047992" lon="9.6701108"><ele>79.0</ele><time>2026-04-18T06:21:43.303Z</time></trkpt><trkpt lat="45.0045707" lon="9.6699941"><ele>79.0</ele><time>2026-04-18T06:21:44.304Z</time></trkpt><trkpt lat="45.0043474" lon="9.6698815"><ele>79.0</ele><time>2026-04-18T06:21:45.303Z</time></trkpt><trkpt lat="45.0041254" lon="9.669776"><ele>79.0</ele><time>2026-04-18T06:21:46.303Z</time></trkpt><trkpt lat="45.0039071" lon="9.6696644"><ele>79.0</ele><time>2026-04-18T06:21:47.303Z</time></trkpt><trkpt lat="45.0036866" lon="9.6695561"><ele>79.0</ele><time>2026-04-18T06:21:48.303Z</time></trkpt><trkpt lat="45.0034692" lon="9.66945"><ele>79.0</ele><time>2026-04-18T06:21:49.303Z</time></trkpt><trkpt lat="45.0032511" lon="9.6693527"><ele>79.33333333333333</ele><time>2026-04-18T06:21:50.303Z</time></trkpt><trkpt lat="45.0030414" lon="9.669255"><ele>79.66666666666667</ele><time>2026-04-18T06:21:51.303Z</time></trkpt><trkpt lat="45.0028318" lon="9.669148"><ele>80.0</ele><time>2026-04-18T06:21:52.303Z</time></trkpt><trkpt lat="45.0026187" lon="9.6690489"><ele>80.5</ele><time>2026-04-18T06:21:53.303Z</time></trkpt><trkpt lat="45.0024063" lon="9.6689464"><ele>81.0</ele><time>2026-04-18T06:21:54.303Z</time></trkpt><trkpt lat="45.0021913" lon="9.668843"><ele>81.0</ele><time>2026-04-18T06:21:55.303Z</time></trkpt><trkpt lat="45.0019773" lon="9.6687403"><ele>81.0</ele><time>2026-04-18T06:21:56.303Z</time></trkpt><trkpt lat="45.0017625" lon="9.6686347"><ele>80.66666666666667</ele><time>2026-04-18T06:21:57.303Z</time></trkpt><trkpt lat="45.0015696" lon="9.6685377"><ele>80.33333333333334</ele><time>2026-04-18T06:21:58.303Z</time></trkpt><trkpt lat="45.0013817" lon="9.6684473"><ele>80.0</ele><time>2026-04-18T06:21:59.302Z</time></trkpt><trkpt lat="45.0011957" lon="9.6683578"><ele>80.0</ele><time>2026-04-18T06:22:00.303Z</time></trkpt><trkpt lat="45.0010086" lon="9.6682714"><ele>80.0</ele><time>2026-04-18T06:22:01.303Z</time></trkpt><trkpt lat="45.0008307" lon="9.6681891"><ele>80.0</ele><time>2026-04-18T06:22:02.303Z</time></trkpt><trkpt lat="45.0006463" lon="9.6681049"><ele>80.0</ele><time>2026-04-18T06:22:03.303Z</time></trkpt><trkpt lat="45.000466" lon="9.6680261"><ele>80.0</ele><time>2026-04-18T06:22:04.303Z</time></trkpt><trkpt lat="45.0002798" lon="9.6679367"><ele>80.0</ele><time>2026-04-18T06:22:05.303Z</time></trkpt><trkpt lat="45.0001034" lon="9.6678523"><ele>79.66666666666667</ele><time>2026-04-18T06:22:06.303Z</time></trkpt><trkpt lat="44.9999339" lon="9.6677701"><ele>79.33333333333333</ele><time>2026-04-18T06:22:07.303Z</time></trkpt><trkpt lat="44.9997756" lon="9.6676952"><ele>79.0</ele><time>2026-04-18T06:22:08.303Z</time></trkpt><trkpt lat="44.9996151" lon="9.6676203"><ele>79.0</ele><time>2026-04-18T06:22:09.303Z</time></trkpt><trkpt lat="44.999454" lon="9.6675385"><ele>79.0</ele><time>2026-04-18T06:22:10.303Z</time></trkpt><trkpt lat="44.9992927" lon="9.6674637"><ele>79.0</ele><time>2026-04-18T06:22:11.304Z</time></trkpt><trkpt lat="44.9991326" lon="9.6673788"><ele>79.33333333333333</ele><time>2026-04-18T06:22:12.304Z</time></trkpt><trkpt lat="44.9989651" lon="9.6672915"><ele>79.66666666666667</ele><time>2026-04-18T06:22:13.304Z</time></trkpt><trkpt lat="44.9988028" lon="9.6672142"><ele>80.0</ele><time>2026-04-18T06:22:14.304Z</time></trkpt><trkpt lat="44.9986534" lon="9.6671333"><ele>80.0</ele><time>2026-04-18T06:22:15.304Z</time></trkpt><trkpt lat="44.9985022" lon="9.6670545"><ele>80.0</ele><time>2026-04-18T06:22:16.304Z</time></trkpt><trkpt lat="44.9983524" lon="9.666973"><ele>80.0</ele><time>2026-04-18T06:22:17.304Z</time></trkpt><trkpt lat="44.9982018" lon="9.6668927"><ele>80.33333333333334</ele><time>2026-04-18T06:22:18.304Z</time></trkpt><trkpt lat="44.9980548" lon="9.6668064"><ele>80.66666666666667</ele><time>2026-04-18T06:22:19.304Z</time></trkpt><trkpt lat="44.9979022" lon="9.6667203"><ele>81.0</ele><time>2026-04-18T06:22:20.304Z</time></trkpt><trkpt lat="44.9977496" lon="9.6666338"><ele>81.0</ele><time>2026-04-18T06:22:21.303Z</time></trkpt><trkpt lat="44.9975863" lon="9.6665339"><ele>81.0</ele><time>2026-04-18T06:22:22.304Z</time></trkpt><trkpt lat="44.9974365" lon="9.6664408"><ele>81.0</ele><time>2026-04-18T06:22:23.304Z</time></trkpt><trkpt lat="44.9972956" lon="9.6663508"><ele>81.5</ele><time>2026-04-18T06:22:24.304Z</time></trkpt><trkpt lat="44.9971558" lon="9.6662567"><ele>82.0</ele><time>2026-04-18T06:22:25.304Z</time></trkpt><trkpt lat="44.9970277" lon="9.6661611"><ele>82.5</ele><time>2026-04-18T06:22:26.304Z</time></trkpt><trkpt lat="44.9968966" lon="9.666074"><ele>83.0</ele><time>2026-04-18T06:22:27.304Z</time></trkpt><trkpt lat="44.9967764" lon="9.6659961"><ele>83.5</ele><time>2026-04-18T06:22:28.304Z</time></trkpt><trkpt lat="44.9966501" lon="9.6659152"><ele>84.0</ele><time>2026-04-18T06:22:29.304Z</time></trkpt><trkpt lat="44.9965255" lon="9.6658513"><ele>84.5</ele><time>2026-04-18T06:22:30.304Z</time></trkpt><trkpt lat="44.9963963" lon="9.6657953"><ele>85.0</ele><time>2026-04-18T06:22:31.304Z</time></trkpt><trkpt lat="44.9962524" lon="9.6657517"><ele>85.0</ele><time>2026-04-18T06:22:32.304Z</time></trkpt><trkpt lat="44.9961021" lon="9.6657087"><ele>85.0</ele><time>2026-04-18T06:22:33.304Z</time></trkpt><trkpt lat="44.9959608" lon="9.6656616"><ele>85.0</ele><time>2026-04-18T06:22:34.303Z</time></trkpt><trkpt lat="44.9958156" lon="9.6656093"><ele>85.0</ele><time>2026-04-18T06:22:35.304Z</time></trkpt><trkpt lat="44.9956734" lon="9.6655576"><ele>84.66666666666666</ele><time>2026-04-18T06:22:36.304Z</time></trkpt><trkpt lat="44.9955202" lon="9.6655029"><ele>84.33333333333333</ele><time>2026-04-18T06:22:37.304Z</time></trkpt><trkpt lat="44.9953694" lon="9.6654509"><ele>84.0</ele><time>2026-04-18T06:22:38.304Z</time></trkpt><trkpt lat="44.9952129" lon="9.6653854"><ele>84.0</ele><time>2026-04-18T06:22:39.304Z</time></trkpt><trkpt lat="44.9950347" lon="9.6653082"><ele>84.0</ele><time>2026-04-18T06:22:40.304Z</time></trkpt><trkpt lat="44.9948344" lon="9.6652264"><ele>84.0</ele><time>2026-04-18T06:22:41.304Z</time></trkpt><trkpt lat="44.9946281" lon="9.6651246"><ele>84.5</ele><time>2026-04-18T06:22:42.304Z</time></trkpt><trkpt lat="44.9944131" lon="9.6650234"><ele>85.0</ele><time>2026-04-18T06:22:43.304Z</time></trkpt><trkpt lat="44.9941955" lon="9.6649232"><ele>85.0</ele><time>2026-04-18T06:22:44.304Z</time></trkpt><trkpt lat="44.9939816" lon="9.6648204"><ele>85.0</ele><time>2026-04-18T06:22:45.303Z</time></trkpt><trkpt lat="44.9937597" lon="9.6647225"><ele>85.0</ele><time>2026-04-18T06:22:46.304Z</time></trkpt><trkpt lat="44.9935384" lon="9.6646265"><ele>85.0</ele><time>2026-04-18T06:22:47.304Z</time></trkpt><trkpt lat="44.993337" lon="9.6645336"><ele>85.0</ele><time>2026-04-18T06:22:48.304Z</time></trkpt><trkpt lat="44.993142" lon="9.6644401"><ele>85.0</ele><time>2026-04-18T06:22:49.304Z</time></trkpt><trkpt lat="44.9929634" lon="9.6643527"><ele>85.0</ele><time>2026-04-18T06:22:50.304Z</time></trkpt><trkpt lat="44.9927933" lon="9.6642776"><ele>85.0</ele><time>2026-04-18T06:22:51.304Z</time></trkpt><trkpt lat="44.9926297" lon="9.6642157"><ele>85.0</ele><time>2026-04-18T06:22:52.304Z</time></trkpt><trkpt lat="44.9924664" lon="9.6641547"><ele>85.0</ele><time>2026-04-18T06:22:53.304Z</time></trkpt><trkpt lat="44.9922952" lon="9.6641034"><ele>85.0</ele><time>2026-04-18T06:22:54.304Z</time></trkpt><trkpt lat="44.9921083" lon="9.6640461"><ele>85.0</ele><time>2026-04-18T06:22:55.304Z</time></trkpt><trkpt lat="44.9919091" lon="9.6639806"><ele>85.0</ele><time>2026-04-18T06:22:56.304Z</time></trkpt><trkpt lat="44.9916915" lon="9.6638975"><ele>85.0</ele><time>2026-04-18T06:22:57.304Z</time></trkpt><trkpt lat="44.9914695" lon="9.6638126"><ele>85.0</ele><time>2026-04-18T06:22:58.304Z</time></trkpt><trkpt lat="44.9912323" lon="9.6637155"><ele>85.0</ele><time>2026-04-18T06:22:59.304Z</time></trkpt><trkpt lat="44.9909955" lon="9.663633"><ele>83.5</ele><time>2026-04-18T06:23:00.303Z</time></trkpt><trkpt lat="44.9907521" lon="9.663544"><ele>82.0</ele><time>2026-04-18T06:23:01.304Z</time></trkpt><trkpt lat="44.9905123" lon="9.663453"><ele>82.0</ele><time>2026-04-18T06:23:02.304Z</time></trkpt><trkpt lat="44.990286" lon="9.6633688"><ele>82.0</ele><time>2026-04-18T06:23:03.304Z</time></trkpt><trkpt lat="44.9900647" lon="9.6632827"><ele>82.0</ele><time>2026-04-18T06:23:04.304Z</time></trkpt><trkpt lat="44.9898453" lon="9.6632009"><ele>82.0</ele><time>2026-04-18T06:23:05.304Z</time></trkpt><trkpt lat="44.9896241" lon="9.6631188"><ele>82.0</ele><time>2026-04-18T06:23:06.304Z</time></trkpt><trkpt lat="44.9894056" lon="9.6630407"><ele>82.0</ele><time>2026-04-18T06:23:07.304Z</time></trkpt><trkpt lat="44.989184" lon="9.6629532"><ele>83.0</ele><time>2026-04-18T06:23:08.304Z</time></trkpt><trkpt lat="44.9889625" lon="9.662861"><ele>84.0</ele><time>2026-04-18T06:23:09.304Z</time></trkpt><trkpt lat="44.9887355" lon="9.6627584"><ele>84.0</ele><time>2026-04-18T06:23:10.303Z</time></trkpt><trkpt lat="44.988509" lon="9.6626384"><ele>84.0</ele><time>2026-04-18T06:23:11.304Z</time></trkpt><trkpt lat="44.9882789" lon="9.6625204"><ele>84.5</ele><time>2026-04-18T06:23:12.304Z</time></trkpt><trkpt lat="44.9880496" lon="9.6623911"><ele>85.0</ele><time>2026-04-18T06:23:13.304Z</time></trkpt><trkpt lat="44.9878194" lon="9.6622737"><ele>85.0</ele><time>2026-04-18T06:23:14.304Z</time></trkpt><trkpt lat="44.9875881" lon="9.662149"><ele>85.0</ele><time>2026-04-18T06:23:15.304Z</time></trkpt><trkpt lat="44.987356" lon="9.6620242"><ele>85.5</ele><time>2026-04-18T06:23:16.304Z</time></trkpt><trkpt lat="44.9871244" lon="9.6618988"><ele>86.0</ele><time>2026-04-18T06:23:17.304Z</time></trkpt><trkpt lat="44.9868941" lon="9.6617732"><ele>86.5</ele><time>2026-04-18T06:23:18.305Z</time></trkpt><trkpt lat="44.9866683" lon="9.6616495"><ele>87.0</ele><time>2026-04-18T06:23:19.304Z</time></trkpt><trkpt lat="44.9864368" lon="9.6615292"><ele>87.0</ele><time>2026-04-18T06:23:20.304Z</time></trkpt><trkpt lat="44.9862102" lon="9.6614181"><ele>87.0</ele><time>2026-04-18T06:23:21.304Z</time></trkpt><trkpt lat="44.9859772" lon="9.6613112"><ele>87.0</ele><time>2026-04-18T06:23:22.304Z</time></trkpt><trkpt lat="44.9857481" lon="9.6612228"><ele>87.0</ele><time>2026-04-18T06:23:23.304Z</time></trkpt><trkpt lat="44.9855141" lon="9.6611439"><ele>87.5</ele><time>2026-04-18T06:23:24.304Z</time></trkpt><trkpt lat="44.985278" lon="9.6610799"><ele>88.0</ele><time>2026-04-18T06:23:25.304Z</time></trkpt><trkpt lat="44.9850424" lon="9.6610132"><ele>88.0</ele><time>2026-04-18T06:23:26.305Z</time></trkpt><trkpt lat="44.9848024" lon="9.6609466"><ele>88.0</ele><time>2026-04-18T06:23:27.305Z</time></trkpt><trkpt lat="44.9845603" lon="9.6608768"><ele>88.0</ele><time>2026-04-18T06:23:28.305Z</time></trkpt><trkpt lat="44.9843268" lon="9.6608135"><ele>88.0</ele><time>2026-04-18T06:23:29.305Z</time></trkpt><trkpt lat="44.9840851" lon="9.6607453"><ele>87.5</ele><time>2026-04-18T06:23:30.305Z</time></trkpt><trkpt lat="44.9838471" lon="9.6606804"><ele>87.0</ele><time>2026-04-18T06:23:31.305Z</time></trkpt><trkpt lat="44.9836081" lon="9.6606185"><ele>87.0</ele><time>2026-04-18T06:23:32.305Z</time></trkpt><trkpt lat="44.9833694" lon="9.6605475"><ele>87.0</ele><time>2026-04-18T06:23:33.305Z</time></trkpt><trkpt lat="44.9831346" lon="9.6604847"><ele>88.0</ele><time>2026-04-18T06:23:34.305Z</time></trkpt><trkpt lat="44.9828941" lon="9.6604187"><ele>89.0</ele><time>2026-04-18T06:23:35.305Z</time></trkpt><trkpt lat="44.9826561" lon="9.6603509"><ele>89.0</ele><time>2026-04-18T06:23:36.305Z</time></trkpt><trkpt lat="44.9824151" lon="9.6602864"><ele>89.0</ele><time>2026-04-18T06:23:37.305Z</time></trkpt><trkpt lat="44.982174" lon="9.6602215"><ele>89.0</ele><time>2026-04-18T06:23:38.305Z</time></trkpt><trkpt lat="44.9819303" lon="9.6601534"><ele>89.0</ele><time>2026-04-18T06:23:39.305Z</time></trkpt><trkpt lat="44.9816889" lon="9.6600845"><ele>89.0</ele><time>2026-04-18T06:23:40.305Z</time></trkpt><trkpt lat="44.981447" lon="9.6600221"><ele>89.0</ele><time>2026-04-18T06:23:41.305Z</time></trkpt><trkpt lat="44.9812106" lon="9.6599531"><ele>89.0</ele><time>2026-04-18T06:23:42.305Z</time></trkpt><trkpt lat="44.9809766" lon="9.6598854"><ele>89.0</ele><time>2026-04-18T06:23:43.305Z</time></trkpt><trkpt lat="44.9807418" lon="9.6598142"><ele>89.0</ele><time>2026-04-18T06:23:44.305Z</time></trkpt><trkpt lat="44.9805038" lon="9.6597479"><ele>89.0</ele><time>2026-04-18T06:23:45.305Z</time></trkpt><trkpt lat="44.9802626" lon="9.6596832"><ele>89.0</ele><time>2026-04-18T06:23:46.305Z</time></trkpt><trkpt lat="44.9800222" lon="9.6596189"><ele>89.0</ele><time>2026-04-18T06:23:47.305Z</time></trkpt><trkpt lat="44.9797842" lon="9.6595586"><ele>89.0</ele><time>2026-04-18T06:23:48.305Z</time></trkpt><trkpt lat="44.9795433" lon="9.6594931"><ele>89.0</ele><time>2026-04-18T06:23:49.305Z</time></trkpt><trkpt lat="44.9793027" lon="9.6594274"><ele>90.5</ele><time>2026-04-18T06:23:50.305Z</time></trkpt><trkpt lat="44.9790617" lon="9.659362"><ele>92.0</ele><time>2026-04-18T06:23:51.305Z</time></trkpt><trkpt lat="44.9788196" lon="9.6592976"><ele>92.0</ele><time>2026-04-18T06:23:52.305Z</time></trkpt><trkpt lat="44.9785778" lon="9.6592304"><ele>92.0</ele><time>2026-04-18T06:23:53.305Z</time></trkpt><trkpt lat="44.9783385" lon="9.6591653"><ele>91.0</ele><time>2026-04-18T06:23:54.305Z</time></trkpt><trkpt lat="44.9780942" lon="9.6590969"><ele>90.0</ele><time>2026-04-18T06:23:55.305Z</time></trkpt><trkpt lat="44.9778509" lon="9.6590281"><ele>90.0</ele><time>2026-04-18T06:23:56.305Z</time></trkpt><trkpt lat="44.9776088" lon="9.6589622"><ele>90.0</ele><time>2026-04-18T06:23:57.305Z</time></trkpt><trkpt lat="44.9773622" lon="9.6588978"><ele>90.5</ele><time>2026-04-18T06:23:58.305Z</time></trkpt><trkpt lat="44.9771171" lon="9.6588311"><ele>91.0</ele><time>2026-04-18T06:23:59.305Z</time></trkpt><trkpt lat="44.9768742" lon="9.6587651"><ele>91.5</ele><time>2026-04-18T06:24:00.305Z</time></trkpt><trkpt lat="44.9766406" lon="9.6587029"><ele>92.0</ele><time>2026-04-18T06:24:01.305Z</time></trkpt><trkpt lat="44.9764157" lon="9.65864"><ele>92.0</ele><time>2026-04-18T06:24:02.305Z</time></trkpt><trkpt lat="44.9761982" lon="9.6585771"><ele>92.0</ele><time>2026-04-18T06:24:03.305Z</time></trkpt><trkpt lat="44.9759752" lon="9.6585079"><ele>92.5</ele><time>2026-04-18T06:24:04.305Z</time></trkpt><trkpt lat="44.9757562" lon="9.6584305"><ele>93.0</ele><time>2026-04-18T06:24:05.305Z</time></trkpt><trkpt lat="44.9755341" lon="9.6583437"><ele>93.0</ele><time>2026-04-18T06:24:06.305Z</time></trkpt><trkpt lat="44.9753104" lon="9.6582415"><ele>93.0</ele><time>2026-04-18T06:24:07.305Z</time></trkpt><trkpt lat="44.9750858" lon="9.6581328"><ele>93.5</ele><time>2026-04-18T06:24:08.305Z</time></trkpt><trkpt lat="44.9748578" lon="9.6580188"><ele>94.0</ele><time>2026-04-18T06:24:09.305Z</time></trkpt><trkpt lat="44.974634" lon="9.6579008"><ele>93.0</ele><time>2026-04-18T06:24:10.304Z</time></trkpt><trkpt lat="44.9741851" lon="9.6576659"><ele>93.0</ele><time>2026-04-18T06:24:12.305Z</time></trkpt><trkpt lat="44.9739608" lon="9.6575508"><ele>93.0</ele><time>2026-04-18T06:24:13.305Z</time></trkpt><trkpt lat="44.9737412" lon="9.6574422"><ele>93.0</ele><time>2026-04-18T06:24:14.305Z</time></trkpt><trkpt lat="44.9735287" lon="9.6573368"><ele>93.0</ele><time>2026-04-18T06:24:15.305Z</time></trkpt><trkpt lat="44.9733189" lon="9.6572241"><ele>94.0</ele><time>2026-04-18T06:24:16.305Z</time></trkpt><trkpt lat="44.9731054" lon="9.6571073"><ele>95.0</ele><time>2026-04-18T06:24:17.305Z</time></trkpt><trkpt lat="44.9728894" lon="9.6569876"><ele>95.0</ele><time>2026-04-18T06:24:18.305Z</time></trkpt><trkpt lat="44.9726711" lon="9.6568686"><ele>95.0</ele><time>2026-04-18T06:24:19.305Z</time></trkpt><trkpt lat="44.9724499" lon="9.6567519"><ele>95.5</ele><time>2026-04-18T06:24:20.305Z</time></trkpt><trkpt lat="44.9722278" lon="9.6566371"><ele>96.0</ele><time>2026-04-18T06:24:21.304Z</time></trkpt><trkpt lat="44.9720073" lon="9.6565206"><ele>96.0</ele><time>2026-04-18T06:24:22.305Z</time></trkpt><trkpt lat="44.971785" lon="9.6564046"><ele>96.0</ele><time>2026-04-18T06:24:23.305Z</time></trkpt><trkpt lat="44.9715612" lon="9.6562877"><ele>96.0</ele><time>2026-04-18T06:24:24.305Z</time></trkpt><trkpt lat="44.9713367" lon="9.6561727"><ele>96.0</ele><time>2026-04-18T06:24:25.305Z</time></trkpt><trkpt lat="44.9711116" lon="9.6560583"><ele>96.0</ele><time>2026-04-18T06:24:26.306Z</time></trkpt><trkpt lat="44.9708882" lon="9.6559402"><ele>96.0</ele><time>2026-04-18T06:24:27.305Z</time></trkpt><trkpt lat="44.970665" lon="9.6558228"><ele>96.0</ele><time>2026-04-18T06:24:28.305Z</time></trkpt><trkpt lat="44.9704429" lon="9.6557054"><ele>96.0</ele><time>2026-04-18T06:24:29.304Z</time></trkpt><trkpt lat="44.9702175" lon="9.655588"><ele>96.0</ele><time>2026-04-18T06:24:30.305Z</time></trkpt><trkpt lat="44.9699942" lon="9.6554721"><ele>96.0</ele><time>2026-04-18T06:24:31.304Z</time></trkpt><trkpt lat="44.9697725" lon="9.6553568"><ele>96.0</ele><time>2026-04-18T06:24:32.305Z</time></trkpt><trkpt lat="44.9695483" lon="9.6552436"><ele>96.0</ele><time>2026-04-18T06:24:33.305Z</time></trkpt><trkpt lat="44.969325" lon="9.6551291"><ele>96.5</ele><time>2026-04-18T06:24:34.305Z</time></trkpt><trkpt lat="44.9691029" lon="9.6550134"><ele>97.0</ele><time>2026-04-18T06:24:35.305Z</time></trkpt><trkpt lat="44.9688817" lon="9.6548996"><ele>97.0</ele><time>2026-04-18T06:24:36.305Z</time></trkpt><trkpt lat="44.9686618" lon="9.654786"><ele>97.0</ele><time>2026-04-18T06:24:37.305Z</time></trkpt><trkpt lat="44.9684391" lon="9.6546765"><ele>97.0</ele><time>2026-04-18T06:24:38.305Z</time></trkpt><trkpt lat="44.9682181" lon="9.654562"><ele>97.0</ele><time>2026-04-18T06:24:39.306Z</time></trkpt><trkpt lat="44.9679971" lon="9.6544466"><ele>97.5</ele><time>2026-04-18T06:24:40.306Z</time></trkpt><trkpt lat="44.9677751" lon="9.6543344"><ele>98.0</ele><time>2026-04-18T06:24:41.306Z</time></trkpt><trkpt lat="44.9675532" lon="9.6542224"><ele>98.5</ele><time>2026-04-18T06:24:42.306Z</time></trkpt><trkpt lat="44.967329" lon="9.654111"><ele>99.0</ele><time>2026-04-18T06:24:43.306Z</time></trkpt><trkpt lat="44.9671072" lon="9.653993"><ele>99.0</ele><time>2026-04-18T06:24:44.306Z</time></trkpt><trkpt lat="44.9668857" lon="9.6538778"><ele>99.0</ele><time>2026-04-18T06:24:45.306Z</time></trkpt><trkpt lat="44.9666633" lon="9.6537613"><ele>99.0</ele><time>2026-04-18T06:24:46.306Z</time></trkpt><trkpt lat="44.9664403" lon="9.6536456"><ele>99.0</ele><time>2026-04-18T06:24:47.306Z</time></trkpt><trkpt lat="44.9662205" lon="9.6535324"><ele>99.0</ele><time>2026-04-18T06:24:48.306Z</time></trkpt><trkpt lat="44.965997" lon="9.6534177"><ele>99.0</ele><time>2026-04-18T06:24:49.306Z</time></trkpt><trkpt lat="44.9657779" lon="9.6533036"><ele>99.5</ele><time>2026-04-18T06:24:50.306Z</time></trkpt><trkpt lat="44.9655565" lon="9.6531895"><ele>100.0</ele><time>2026-04-18T06:24:51.306Z</time></trkpt><trkpt lat="44.965332" lon="9.6530719"><ele>100.0</ele><time>2026-04-18T06:24:52.306Z</time></trkpt><trkpt lat="44.9651136" lon="9.6529513"><ele>100.0</ele><time>2026-04-18T06:24:53.306Z</time></trkpt><trkpt lat="44.9648987" lon="9.6528293"><ele>100.5</ele><time>2026-04-18T06:24:54.306Z</time></trkpt><trkpt lat="44.9646822" lon="9.652699"><ele>101.0</ele><time>2026-04-18T06:24:55.306Z</time></trkpt><trkpt lat="44.9644733" lon="9.6525601"><ele>101.0</ele><time>2026-04-18T06:24:56.306Z</time></trkpt><trkpt lat="44.9642641" lon="9.6524103"><ele>101.0</ele><time>2026-04-18T06:24:57.306Z</time></trkpt><trkpt lat="44.9640564" lon="9.6522496"><ele>101.5</ele><time>2026-04-18T06:24:58.306Z</time></trkpt><trkpt lat="44.9638487" lon="9.6520862"><ele>102.0</ele><time>2026-04-18T06:24:59.306Z</time></trkpt><trkpt lat="44.9636418" lon="9.6519209"><ele>101.5</ele><time>2026-04-18T06:25:00.306Z</time></trkpt><trkpt lat="44.963437" lon="9.6517556"><ele>101.0</ele><time>2026-04-18T06:25:01.306Z</time></trkpt><trkpt lat="44.9632299" lon="9.651593"><ele>101.0</ele><time>2026-04-18T06:25:02.306Z</time></trkpt><trkpt lat="44.9630245" lon="9.6514314"><ele>101.0</ele><time>2026-04-18T06:25:03.306Z</time></trkpt><trkpt lat="44.9628199" lon="9.6512704"><ele>101.0</ele><time>2026-04-18T06:25:04.306Z</time></trkpt><trkpt lat="44.9626137" lon="9.6511094"><ele>101.0</ele><time>2026-04-18T06:25:05.306Z</time></trkpt><trkpt lat="44.9624083" lon="9.650947"><ele>101.5</ele><time>2026-04-18T06:25:06.306Z</time></trkpt><trkpt lat="44.9622031" lon="9.650784"><ele>102.0</ele><time>2026-04-18T06:25:07.306Z</time></trkpt><trkpt lat="44.962003" lon="9.6506256"><ele>102.0</ele><time>2026-04-18T06:25:08.306Z</time></trkpt><trkpt lat="44.9618191" lon="9.650483"><ele>102.0</ele><time>2026-04-18T06:25:09.306Z</time></trkpt><trkpt lat="44.9616701" lon="9.6503717"><ele>102.0</ele><time>2026-04-18T06:25:10.306Z</time></trkpt><trkpt lat="44.9615411" lon="9.650271"><ele>101.75</ele><time>2026-04-18T06:25:11.306Z</time></trkpt><trkpt lat="44.9614263" lon="9.6501833"><ele>101.5</ele><time>2026-04-18T06:25:12.306Z</time></trkpt><trkpt lat="44.961321" lon="9.6500982"><ele>101.25</ele><time>2026-04-18T06:25:13.306Z</time></trkpt><trkpt lat="44.9612098" lon="9.6500115"><ele>101.0</ele><time>2026-04-18T06:25:14.306Z</time></trkpt><trkpt lat="44.9610949" lon="9.6499207"><ele>101.0</ele><time>2026-04-18T06:25:15.306Z</time></trkpt><trkpt lat="44.9609751" lon="9.6498246"><ele>101.0</ele><time>2026-04-18T06:25:16.306Z</time></trkpt><trkpt lat="44.9608519" lon="9.6497265"><ele>101.0</ele><time>2026-04-18T06:25:17.305Z</time></trkpt><trkpt lat="44.960726" lon="9.6496257"><ele>101.0</ele><time>2026-04-18T06:25:18.306Z</time></trkpt><trkpt lat="44.9605995" lon="9.6495243"><ele>101.25</ele><time>2026-04-18T06:25:19.306Z</time></trkpt><trkpt lat="44.9604707" lon="9.6494212"><ele>101.5</ele><time>2026-04-18T06:25:20.306Z</time></trkpt><trkpt lat="44.9603408" lon="9.6493186"><ele>101.75</ele><time>2026-04-18T06:25:21.306Z</time></trkpt><trkpt lat="44.9602145" lon="9.6492197"><ele>102.0</ele><time>2026-04-18T06:25:22.306Z</time></trkpt><trkpt lat="44.9600951" lon="9.6491214"><ele>102.5</ele><time>2026-04-18T06:25:23.306Z</time></trkpt><trkpt lat="44.9599731" lon="9.6490212"><ele>103.0</ele><time>2026-04-18T06:25:24.306Z</time></trkpt><trkpt lat="44.9598462" lon="9.6489184"><ele>103.5</ele><time>2026-04-18T06:25:25.306Z</time></trkpt><trkpt lat="44.9597124" lon="9.648814"><ele>104.0</ele><time>2026-04-18T06:25:26.306Z</time></trkpt><trkpt lat="44.9595782" lon="9.6487048"><ele>104.0</ele><time>2026-04-18T06:25:27.307Z</time></trkpt><trkpt lat="44.9594433" lon="9.6485969"><ele>104.0</ele><time>2026-04-18T06:25:28.306Z</time></trkpt><trkpt lat="44.9593092" lon="9.6484901"><ele>104.0</ele><time>2026-04-18T06:25:29.306Z</time></trkpt><trkpt lat="44.9591755" lon="9.6483853"><ele>104.33333333333333</ele><time>2026-04-18T06:25:30.306Z</time></trkpt><trkpt lat="44.9590421" lon="9.6482797"><ele>104.66666666666666</ele><time>2026-04-18T06:25:31.306Z</time></trkpt><trkpt lat="44.958905" lon="9.6481721"><ele>105.0</ele><time>2026-04-18T06:25:32.306Z</time></trkpt><trkpt lat="44.9587675" lon="9.6480648"><ele>105.0</ele><time>2026-04-18T06:25:33.307Z</time></trkpt><trkpt lat="44.9586276" lon="9.6479573"><ele>105.0</ele><time>2026-04-18T06:25:34.306Z</time></trkpt><trkpt lat="44.958489" lon="9.6478507"><ele>105.0</ele><time>2026-04-18T06:25:35.306Z</time></trkpt><trkpt lat="44.9583487" lon="9.647744"><ele>105.0</ele><time>2026-04-18T06:25:36.306Z</time></trkpt><trkpt lat="44.9582099" lon="9.6476316"><ele>105.0</ele><time>2026-04-18T06:25:37.306Z</time></trkpt><trkpt lat="44.9580719" lon="9.6475171"><ele>105.0</ele><time>2026-04-18T06:25:38.306Z</time></trkpt><trkpt lat="44.9579282" lon="9.6474027"><ele>105.0</ele><time>2026-04-18T06:25:39.307Z</time></trkpt><trkpt lat="44.957786" lon="9.6472898"><ele>105.0</ele><time>2026-04-18T06:25:40.306Z</time></trkpt><trkpt lat="44.9576434" lon="9.6471791"><ele>105.0</ele><time>2026-04-18T06:25:41.306Z</time></trkpt><trkpt lat="44.9574954" lon="9.6470646"><ele>105.66666666666666</ele><time>2026-04-18T06:25:42.306Z</time></trkpt><trkpt lat="44.9573474" lon="9.64695"><ele>106.33333333333333</ele><time>2026-04-18T06:25:43.306Z</time></trkpt><trkpt lat="44.9571974" lon="9.6468279"><ele>107.0</ele><time>2026-04-18T06:25:44.306Z</time></trkpt><trkpt lat="44.9570427" lon="9.6467012"><ele>107.0</ele><time>2026-04-18T06:25:45.307Z</time></trkpt><trkpt lat="44.956886" lon="9.6465731"><ele>107.0</ele><time>2026-04-18T06:25:46.306Z</time></trkpt><trkpt lat="44.9567277" lon="9.64644"><ele>107.0</ele><time>2026-04-18T06:25:47.306Z</time></trkpt><trkpt lat="44.9565699" lon="9.6463041"><ele>107.0</ele><time>2026-04-18T06:25:48.306Z</time></trkpt><trkpt lat="44.9564152" lon="9.6461588"><ele>107.0</ele><time>2026-04-18T06:25:49.306Z</time></trkpt><trkpt lat="44.9562656" lon="9.6460177"><ele>107.0</ele><time>2026-04-18T06:25:50.306Z</time></trkpt><trkpt lat="44.9561195" lon="9.6458713"><ele>107.0</ele><time>2026-04-18T06:25:51.306Z</time></trkpt><trkpt lat="44.95598" lon="9.645725"><ele>107.0</ele><time>2026-04-18T06:25:52.306Z</time></trkpt><trkpt lat="44.9558422" lon="9.645572"><ele>107.0</ele><time>2026-04-18T06:25:53.307Z</time></trkpt><trkpt lat="44.9557069" lon="9.6454157"><ele>108.0</ele><time>2026-04-18T06:25:54.307Z</time></trkpt><trkpt lat="44.955574" lon="9.6452554"><ele>109.0</ele><time>2026-04-18T06:25:55.307Z</time></trkpt><trkpt lat="44.9554393" lon="9.6450909"><ele>110.0</ele><time>2026-04-18T06:25:56.307Z</time></trkpt><trkpt lat="44.9553124" lon="9.6449194"><ele>110.0</ele><time>2026-04-18T06:25:57.307Z</time></trkpt><trkpt lat="44.9551849" lon="9.6447456"><ele>110.0</ele><time>2026-04-18T06:25:58.307Z</time></trkpt><trkpt lat="44.9550595" lon="9.6445689"><ele>110.0</ele><time>2026-04-18T06:25:59.307Z</time></trkpt><trkpt lat="44.9549309" lon="9.6443889"><ele>110.0</ele><time>2026-04-18T06:26:00.307Z</time></trkpt><trkpt lat="44.9547981" lon="9.6442131"><ele>110.0</ele><time>2026-04-18T06:26:01.307Z</time></trkpt><trkpt lat="44.9546596" lon="9.6440404"><ele>110.0</ele><time>2026-04-18T06:26:02.307Z</time></trkpt><trkpt lat="44.9545203" lon="9.6438616"><ele>110.0</ele><time>2026-04-18T06:26:03.307Z</time></trkpt><trkpt lat="44.9543816" lon="9.6436794"><ele>110.0</ele><time>2026-04-18T06:26:04.307Z</time></trkpt><trkpt lat="44.9542377" lon="9.6434918"><ele>110.0</ele><time>2026-04-18T06:26:05.307Z</time></trkpt><trkpt lat="44.9540991" lon="9.6433085"><ele>111.0</ele><time>2026-04-18T06:26:06.307Z</time></trkpt><trkpt lat="44.9539601" lon="9.6431242"><ele>112.0</ele><time>2026-04-18T06:26:07.307Z</time></trkpt><trkpt lat="44.953821" lon="9.6429346"><ele>113.0</ele><time>2026-04-18T06:26:08.307Z</time></trkpt><trkpt lat="44.9536799" lon="9.6427434"><ele>113.0</ele><time>2026-04-18T06:26:09.307Z</time></trkpt><trkpt lat="44.9535403" lon="9.642556"><ele>113.0</ele><time>2026-04-18T06:26:10.307Z</time></trkpt><trkpt lat="44.9533897" lon="9.6423703"><ele>113.0</ele><time>2026-04-18T06:26:11.307Z</time></trkpt><trkpt lat="44.9532418" lon="9.6421871"><ele>113.0</ele><time>2026-04-18T06:26:12.307Z</time></trkpt><trkpt lat="44.9530928" lon="9.6420026"><ele>113.0</ele><time>2026-04-18T06:26:13.307Z</time></trkpt><trkpt lat="44.9529328" lon="9.6418167"><ele>113.0</ele><time>2026-04-18T06:26:14.307Z</time></trkpt><trkpt lat="44.952777" lon="9.6416351"><ele>113.0</ele><time>2026-04-18T06:26:15.307Z</time></trkpt><trkpt lat="44.9526175" lon="9.6414572"><ele>113.0</ele><time>2026-04-18T06:26:16.307Z</time></trkpt><trkpt lat="44.9524583" lon="9.6412829"><ele>113.0</ele><time>2026-04-18T06:26:17.307Z</time></trkpt><trkpt lat="44.9523001" lon="9.6411083"><ele>113.33333333333333</ele><time>2026-04-18T06:26:18.307Z</time></trkpt><trkpt lat="44.9521369" lon="9.6409371"><ele>113.66666666666666</ele><time>2026-04-18T06:26:19.307Z</time></trkpt><trkpt lat="44.951974" lon="9.640768"><ele>114.0</ele><time>2026-04-18T06:26:20.307Z</time></trkpt><trkpt lat="44.9518049" lon="9.6405975"><ele>114.0</ele><time>2026-04-18T06:26:21.307Z</time></trkpt><trkpt lat="44.9516298" lon="9.6404258"><ele>114.0</ele><time>2026-04-18T06:26:22.307Z</time></trkpt><trkpt lat="44.9514503" lon="9.6402564"><ele>114.0</ele><time>2026-04-18T06:26:23.307Z</time></trkpt><trkpt lat="44.951265" lon="9.6400869"><ele>114.0</ele><time>2026-04-18T06:26:24.307Z</time></trkpt><trkpt lat="44.9510775" lon="9.6399192"><ele>114.0</ele><time>2026-04-18T06:26:25.307Z</time></trkpt><trkpt lat="44.9508939" lon="9.6397592"><ele>114.0</ele><time>2026-04-18T06:26:26.307Z</time></trkpt><trkpt lat="44.9507134" lon="9.6396088"><ele>114.66666666666666</ele><time>2026-04-18T06:26:27.307Z</time></trkpt><trkpt lat="44.9505412" lon="9.6394693"><ele>115.33333333333333</ele><time>2026-04-18T06:26:28.307Z</time></trkpt><trkpt lat="44.9503712" lon="9.639331"><ele>116.0</ele><time>2026-04-18T06:26:29.307Z</time></trkpt><trkpt lat="44.9501997" lon="9.6391938"><ele>116.66666666666666</ele><time>2026-04-18T06:26:30.307Z</time></trkpt><trkpt lat="44.9500208" lon="9.6390575"><ele>117.33333333333334</ele><time>2026-04-18T06:26:31.307Z</time></trkpt><trkpt lat="44.9498416" lon="9.6389281"><ele>118.0</ele><time>2026-04-18T06:26:32.307Z</time></trkpt><trkpt lat="44.9496611" lon="9.6388001"><ele>118.0</ele><time>2026-04-18T06:26:33.307Z</time></trkpt><trkpt lat="44.9494811" lon="9.6386737"><ele>118.0</ele><time>2026-04-18T06:26:34.307Z</time></trkpt><trkpt lat="44.9492962" lon="9.6385457"><ele>118.0</ele><time>2026-04-18T06:26:35.307Z</time></trkpt><trkpt lat="44.9491124" lon="9.6384201"><ele>118.33333333333334</ele><time>2026-04-18T06:26:36.307Z</time></trkpt><trkpt lat="44.9489315" lon="9.6382965"><ele>118.66666666666666</ele><time>2026-04-18T06:26:37.307Z</time></trkpt><trkpt lat="44.9487611" lon="9.6381784"><ele>119.0</ele><time>2026-04-18T06:26:38.306Z</time></trkpt><trkpt lat="44.9485926" lon="9.6380628"><ele>119.0</ele><time>2026-04-18T06:26:39.307Z</time></trkpt><trkpt lat="44.9484186" lon="9.6379419"><ele>119.0</ele><time>2026-04-18T06:26:40.307Z</time></trkpt><trkpt lat="44.9482363" lon="9.6378141"><ele>119.0</ele><time>2026-04-18T06:26:41.307Z</time></trkpt><trkpt lat="44.9480469" lon="9.6376803"><ele>119.0</ele><time>2026-04-18T06:26:42.307Z</time></trkpt><trkpt lat="44.9478575" lon="9.6375454"><ele>119.0</ele><time>2026-04-18T06:26:43.307Z</time></trkpt><trkpt lat="44.9476659" lon="9.637406"><ele>119.0</ele><time>2026-04-18T06:26:44.307Z</time></trkpt><trkpt lat="44.947476" lon="9.6372608"><ele>119.0</ele><time>2026-04-18T06:26:45.306Z</time></trkpt><trkpt lat="44.9472858" lon="9.637111"><ele>119.0</ele><time>2026-04-18T06:26:46.307Z</time></trkpt><trkpt lat="44.9470909" lon="9.6369655"><ele>119.0</ele><time>2026-04-18T06:26:47.307Z</time></trkpt><trkpt lat="44.946895" lon="9.6368275"><ele>120.0</ele><time>2026-04-18T06:26:48.306Z</time></trkpt><trkpt lat="44.9466981" lon="9.6366909"><ele>121.0</ele><time>2026-04-18T06:26:49.307Z</time></trkpt><trkpt lat="44.9465015" lon="9.6365531"><ele>122.0</ele><time>2026-04-18T06:26:50.307Z</time></trkpt><trkpt lat="44.9463077" lon="9.636415"><ele>122.0</ele><time>2026-04-18T06:26:51.307Z</time></trkpt><trkpt lat="44.9461131" lon="9.6362758"><ele>122.0</ele><time>2026-04-18T06:26:52.307Z</time></trkpt><trkpt lat="44.9459171" lon="9.6361383"><ele>122.0</ele><time>2026-04-18T06:26:53.307Z</time></trkpt><trkpt lat="44.94572" lon="9.6360034"><ele>121.66666666666666</ele><time>2026-04-18T06:26:54.307Z</time></trkpt><trkpt lat="44.9455276" lon="9.6358724"><ele>121.33333333333334</ele><time>2026-04-18T06:26:55.307Z</time></trkpt><trkpt lat="44.9453382" lon="9.6357421"><ele>121.0</ele><time>2026-04-18T06:26:56.307Z</time></trkpt><trkpt lat="44.9451503" lon="9.6356101"><ele>121.0</ele><time>2026-04-18T06:26:57.307Z</time></trkpt><trkpt lat="44.944961" lon="9.6354756"><ele>121.0</ele><time>2026-04-18T06:26:58.307Z</time></trkpt><trkpt lat="44.9447726" lon="9.6353431"><ele>121.0</ele><time>2026-04-18T06:26:59.307Z</time></trkpt><trkpt lat="44.9445872" lon="9.6352132"><ele>121.0</ele><time>2026-04-18T06:27:00.306Z</time></trkpt><trkpt lat="44.9444031" lon="9.6350855"><ele>121.0</ele><time>2026-04-18T06:27:01.307Z</time></trkpt><trkpt lat="44.9442193" lon="9.6349564"><ele>121.0</ele><time>2026-04-18T06:27:02.307Z</time></trkpt><trkpt lat="44.9440386" lon="9.6348292"><ele>120.66666666666667</ele><time>2026-04-18T06:27:03.308Z</time></trkpt><trkpt lat="44.943861" lon="9.6347079"><ele>120.33333333333334</ele><time>2026-04-18T06:27:04.308Z</time></trkpt><trkpt lat="44.9436972" lon="9.634593"><ele>120.0</ele><time>2026-04-18T06:27:05.308Z</time></trkpt><trkpt lat="44.9435351" lon="9.6344787"><ele>120.33333333333334</ele><time>2026-04-18T06:27:06.308Z</time></trkpt><trkpt lat="44.943373" lon="9.634357"><ele>120.66666666666667</ele><time>2026-04-18T06:27:07.308Z</time></trkpt><trkpt lat="44.9432145" lon="9.6342221"><ele>121.0</ele><time>2026-04-18T06:27:08.308Z</time></trkpt><trkpt lat="44.9430621" lon="9.6340732"><ele>121.0</ele><time>2026-04-18T06:27:09.308Z</time></trkpt><trkpt lat="44.9429139" lon="9.6339186"><ele>121.0</ele><time>2026-04-18T06:27:10.308Z</time></trkpt><trkpt lat="44.9427756" lon="9.6337812"><ele>121.0</ele><time>2026-04-18T06:27:11.307Z</time></trkpt><trkpt lat="44.9426437" lon="9.6336541"><ele>121.5</ele><time>2026-04-18T06:27:12.308Z</time></trkpt><trkpt lat="44.9425293" lon="9.6335356"><ele>122.0</ele><time>2026-04-18T06:27:13.308Z</time></trkpt><trkpt lat="44.9424153" lon="9.6334207"><ele>122.5</ele><time>2026-04-18T06:27:14.308Z</time></trkpt><trkpt lat="44.9423125" lon="9.6333169"><ele>123.0</ele><time>2026-04-18T06:27:15.308Z</time></trkpt><trkpt lat="44.9422244" lon="9.6332258"><ele>123.0</ele><time>2026-04-18T06:27:16.308Z</time></trkpt><trkpt lat="44.9421457" lon="9.6331507"><ele>123.0</ele><time>2026-04-18T06:27:17.308Z</time></trkpt><trkpt lat="44.9420737" lon="9.6330812"><ele>123.0</ele><time>2026-04-18T06:27:18.308Z</time></trkpt><trkpt lat="44.9420208" lon="9.6330257"><ele>123.0</ele><time>2026-04-18T06:27:19.308Z</time></trkpt><trkpt lat="44.9419315" lon="9.6329105"><ele>123.0</ele><time>2026-04-18T06:27:21.308Z</time></trkpt><trkpt lat="44.9418836" lon="9.6328448"><ele>123.0</ele><time>2026-04-18T06:27:22.308Z</time></trkpt><trkpt lat="44.9417853" lon="9.6327448"><ele>123.4</ele><time>2026-04-18T06:27:24.308Z</time></trkpt><trkpt lat="44.9417322" lon="9.632695"><ele>123.80000000000001</ele><time>2026-04-18T06:27:25.308Z</time></trkpt><trkpt lat="44.9416664" lon="9.6326206"><ele>124.2</ele><time>2026-04-18T06:27:27.308Z</time></trkpt><trkpt lat="44.9415805" lon="9.6325242"><ele>124.6</ele><time>2026-04-18T06:28:07.308Z</time></trkpt><trkpt lat="44.9414974" lon="9.6324601"><ele>125.0</ele><time>2026-04-18T06:28:08.308Z</time></trkpt><trkpt lat="44.9413955" lon="9.6323751"><ele>125.25</ele><time>2026-04-18T06:28:09.308Z</time></trkpt><trkpt lat="44.9412678" lon="9.6322595"><ele>125.5</ele><time>2026-04-18T06:28:10.308Z</time></trkpt><trkpt lat="44.9411404" lon="9.632135"><ele>125.75</ele><time>2026-04-18T06:28:11.308Z</time></trkpt><trkpt lat="44.9410263" lon="9.632023"><ele>126.0</ele><time>2026-04-18T06:28:12.309Z</time></trkpt><trkpt lat="44.9409133" lon="9.6319136"><ele>126.0</ele><time>2026-04-18T06:28:13.309Z</time></trkpt><trkpt lat="44.9408077" lon="9.6318067"><ele>126.0</ele><time>2026-04-18T06:28:14.309Z</time></trkpt><trkpt lat="44.9407002" lon="9.6316916"><ele>126.0</ele><time>2026-04-18T06:28:15.309Z</time></trkpt><trkpt lat="44.9405927" lon="9.6315703"><ele>126.0</ele><time>2026-04-18T06:28:16.309Z</time></trkpt><trkpt lat="44.9404904" lon="9.6314507"><ele>126.0</ele><time>2026-04-18T06:28:17.309Z</time></trkpt><trkpt lat="44.9403877" lon="9.6313309"><ele>126.0</ele><time>2026-04-18T06:28:18.309Z</time></trkpt><trkpt lat="44.9402806" lon="9.6312037"><ele>126.0</ele><time>2026-04-18T06:28:19.309Z</time></trkpt><trkpt lat="44.9401721" lon="9.6310689"><ele>126.0</ele><time>2026-04-18T06:28:20.309Z</time></trkpt><trkpt lat="44.9400477" lon="9.6309076"><ele>127.33333333333334</ele><time>2026-04-18T06:28:21.309Z</time></trkpt><trkpt lat="44.9399107" lon="9.6307153"><ele>128.66666666666669</ele><time>2026-04-18T06:28:22.309Z</time></trkpt><trkpt lat="44.9397635" lon="9.6304907"><ele>130.0</ele><time>2026-04-18T06:28:23.309Z</time></trkpt><trkpt lat="44.9396305" lon="9.630257"><ele>130.0</ele><time>2026-04-18T06:28:24.309Z</time></trkpt><trkpt lat="44.9394968" lon="9.6300282"><ele>130.0</ele><time>2026-04-18T06:28:25.308Z</time></trkpt><trkpt lat="44.9393601" lon="9.6297994"><ele>130.0</ele><time>2026-04-18T06:28:26.309Z</time></trkpt><trkpt lat="44.9392264" lon="9.6295758"><ele>130.33333333333334</ele><time>2026-04-18T06:28:27.309Z</time></trkpt><trkpt lat="44.939095" lon="9.629362"><ele>130.66666666666666</ele><time>2026-04-18T06:28:28.309Z</time></trkpt><trkpt lat="44.9389645" lon="9.6291537"><ele>131.0</ele><time>2026-04-18T06:28:29.309Z</time></trkpt><trkpt lat="44.9388305" lon="9.6289437"><ele>131.0</ele><time>2026-04-18T06:28:30.309Z</time></trkpt><trkpt lat="44.9386857" lon="9.6287307"><ele>131.0</ele><time>2026-04-18T06:28:31.308Z</time></trkpt><trkpt lat="44.9385287" lon="9.6285161"><ele>131.0</ele><time>2026-04-18T06:28:32.309Z</time></trkpt><trkpt lat="44.9383566" lon="9.6283037"><ele>131.5</ele><time>2026-04-18T06:28:33.309Z</time></trkpt><trkpt lat="44.9381803" lon="9.6280949"><ele>132.0</ele><time>2026-04-18T06:28:34.309Z</time></trkpt><trkpt lat="44.937997" lon="9.6278955"><ele>131.0</ele><time>2026-04-18T06:28:35.309Z</time></trkpt><trkpt lat="44.9378131" lon="9.6276997"><ele>130.0</ele><time>2026-04-18T06:28:36.308Z</time></trkpt><trkpt lat="44.9376279" lon="9.6275071"><ele>130.66666666666669</ele><time>2026-04-18T06:28:37.309Z</time></trkpt><trkpt lat="44.9374491" lon="9.627317"><ele>131.33333333333334</ele><time>2026-04-18T06:28:38.309Z</time></trkpt><trkpt lat="44.9372724" lon="9.6271253"><ele>132.0</ele><time>2026-04-18T06:28:39.309Z</time></trkpt><trkpt lat="44.9370949" lon="9.6269393"><ele>132.0</ele><time>2026-04-18T06:28:40.309Z</time></trkpt><trkpt lat="44.9369208" lon="9.6267566"><ele>132.0</ele><time>2026-04-18T06:28:41.309Z</time></trkpt><trkpt lat="44.9367504" lon="9.6265725"><ele>132.0</ele><time>2026-04-18T06:28:42.309Z</time></trkpt><trkpt lat="44.9365769" lon="9.6263877"><ele>133.5</ele><time>2026-04-18T06:28:43.309Z</time></trkpt><trkpt lat="44.9362334" lon="9.6260173"><ele>135.0</ele><time>2026-04-18T06:28:45.309Z</time></trkpt><trkpt lat="44.9360615" lon="9.6258359"><ele>135.0</ele><time>2026-04-18T06:28:46.309Z</time></trkpt><trkpt lat="44.9358883" lon="9.6256509"><ele>135.0</ele><time>2026-04-18T06:28:47.309Z</time></trkpt><trkpt lat="44.9357109" lon="9.6254644"><ele>135.0</ele><time>2026-04-18T06:28:48.309Z</time></trkpt><trkpt lat="44.9355464" lon="9.6252805"><ele>134.66666666666666</ele><time>2026-04-18T06:28:49.309Z</time></trkpt><trkpt lat="44.9353736" lon="9.6250996"><ele>134.33333333333331</ele><time>2026-04-18T06:28:50.309Z</time></trkpt><trkpt lat="44.9351985" lon="9.6249175"><ele>134.0</ele><time>2026-04-18T06:28:51.309Z</time></trkpt><trkpt lat="44.935028" lon="9.6247359"><ele>133.66666666666666</ele><time>2026-04-18T06:28:52.309Z</time></trkpt><trkpt lat="44.9348584" lon="9.6245526"><ele>133.33333333333334</ele><time>2026-04-18T06:28:53.309Z</time></trkpt><trkpt lat="44.9346892" lon="9.6243679"><ele>133.0</ele><time>2026-04-18T06:28:54.309Z</time></trkpt><trkpt lat="44.934526" lon="9.6241769"><ele>133.33333333333334</ele><time>2026-04-18T06:28:55.309Z</time></trkpt><trkpt lat="44.9343632" lon="9.6239946"><ele>133.66666666666666</ele><time>2026-04-18T06:28:56.309Z</time></trkpt><trkpt lat="44.9341934" lon="9.6238123"><ele>134.0</ele><time>2026-04-18T06:28:57.309Z</time></trkpt><trkpt lat="44.9340312" lon="9.6236267"><ele>133.33333333333331</ele><time>2026-04-18T06:28:58.309Z</time></trkpt><trkpt lat="44.9338684" lon="9.6234417"><ele>132.66666666666666</ele><time>2026-04-18T06:28:59.308Z</time></trkpt><trkpt lat="44.9337022" lon="9.6232523"><ele>132.0</ele><time>2026-04-18T06:29:00.309Z</time></trkpt><trkpt lat="44.9335326" lon="9.623071"><ele>133.0</ele><time>2026-04-18T06:29:01.309Z</time></trkpt><trkpt lat="44.9333643" lon="9.6228771"><ele>134.0</ele><time>2026-04-18T06:29:02.309Z</time></trkpt><trkpt lat="44.9331939" lon="9.6226875"><ele>135.0</ele><time>2026-04-18T06:29:03.309Z</time></trkpt><trkpt lat="44.9330284" lon="9.6224993"><ele>135.0</ele><time>2026-04-18T06:29:04.309Z</time></trkpt><trkpt lat="44.9328568" lon="9.6223149"><ele>135.0</ele><time>2026-04-18T06:29:05.309Z</time></trkpt><trkpt lat="44.9326871" lon="9.6221246"><ele>135.0</ele><time>2026-04-18T06:29:06.309Z</time></trkpt><trkpt lat="44.9325201" lon="9.6219335"><ele>135.0</ele><time>2026-04-18T06:29:07.309Z</time></trkpt><trkpt lat="44.9323563" lon="9.6217465"><ele>135.0</ele><time>2026-04-18T06:29:08.309Z</time></trkpt><trkpt lat="44.9321929" lon="9.6215569"><ele>135.0</ele><time>2026-04-18T06:29:09.309Z</time></trkpt><trkpt lat="44.9320295" lon="9.6213727"><ele>135.0</ele><time>2026-04-18T06:29:10.309Z</time></trkpt><trkpt lat="44.9318596" lon="9.6211922"><ele>135.0</ele><time>2026-04-18T06:29:11.309Z</time></trkpt><trkpt lat="44.9316974" lon="9.6210018"><ele>135.0</ele><time>2026-04-18T06:29:12.309Z</time></trkpt><trkpt lat="44.9315326" lon="9.6208103"><ele>134.66666666666666</ele><time>2026-04-18T06:29:13.309Z</time></trkpt><trkpt lat="44.9313666" lon="9.6206189"><ele>134.33333333333331</ele><time>2026-04-18T06:29:14.309Z</time></trkpt><trkpt lat="44.931199" lon="9.6204265"><ele>134.0</ele><time>2026-04-18T06:29:15.309Z</time></trkpt><trkpt lat="44.9310328" lon="9.6202394"><ele>134.66666666666666</ele><time>2026-04-18T06:29:16.309Z</time></trkpt><trkpt lat="44.9308619" lon="9.6200583"><ele>135.33333333333334</ele><time>2026-04-18T06:29:17.309Z</time></trkpt><trkpt lat="44.9306936" lon="9.6198801"><ele>136.0</ele><time>2026-04-18T06:29:18.308Z</time></trkpt><trkpt lat="44.9305251" lon="9.6197025"><ele>136.0</ele><time>2026-04-18T06:29:19.309Z</time></trkpt><trkpt lat="44.9303553" lon="9.6195236"><ele>136.0</ele><time>2026-04-18T06:29:20.31Z</time></trkpt><trkpt lat="44.9301847" lon="9.6193496"><ele>136.0</ele><time>2026-04-18T06:29:21.31Z</time></trkpt><trkpt lat="44.9300093" lon="9.6191727"><ele>135.33333333333334</ele><time>2026-04-18T06:29:22.309Z</time></trkpt><trkpt lat="44.9298298" lon="9.6189995"><ele>134.66666666666666</ele><time>2026-04-18T06:29:23.31Z</time></trkpt><trkpt lat="44.9296511" lon="9.6188254"><ele>134.0</ele><time>2026-04-18T06:29:24.31Z</time></trkpt><trkpt lat="44.9294685" lon="9.6186493"><ele>134.66666666666666</ele><time>2026-04-18T06:29:25.31Z</time></trkpt><trkpt lat="44.9292965" lon="9.6184746"><ele>135.33333333333334</ele><time>2026-04-18T06:29:26.31Z</time></trkpt><trkpt lat="44.9291223" lon="9.6182978"><ele>136.0</ele><time>2026-04-18T06:29:27.309Z</time></trkpt><trkpt lat="44.9289527" lon="9.618122"><ele>136.0</ele><time>2026-04-18T06:29:28.31Z</time></trkpt><trkpt lat="44.9287869" lon="9.6179512"><ele>136.0</ele><time>2026-04-18T06:29:29.31Z</time></trkpt><trkpt lat="44.9286298" lon="9.6177873"><ele>136.0</ele><time>2026-04-18T06:29:30.31Z</time></trkpt><trkpt lat="44.9284759" lon="9.6176172"><ele>136.0</ele><time>2026-04-18T06:29:31.31Z</time></trkpt><trkpt lat="44.9283226" lon="9.6174283"><ele>136.0</ele><time>2026-04-18T06:29:32.31Z</time></trkpt><trkpt lat="44.9281734" lon="9.6172213"><ele>136.0</ele><time>2026-04-18T06:29:33.31Z</time></trkpt><trkpt lat="44.9280338" lon="9.6169944"><ele>135.33333333333334</ele><time>2026-04-18T06:29:34.31Z</time></trkpt><trkpt lat="44.9278988" lon="9.6167605"><ele>134.66666666666666</ele><time>2026-04-18T06:29:35.31Z</time></trkpt><trkpt lat="44.9277542" lon="9.6165257"><ele>134.0</ele><time>2026-04-18T06:29:36.31Z</time></trkpt><trkpt lat="44.9276069" lon="9.6162978"><ele>134.0</ele><time>2026-04-18T06:29:37.31Z</time></trkpt><trkpt lat="44.9274653" lon="9.6160629"><ele>134.0</ele><time>2026-04-18T06:29:38.31Z</time></trkpt><trkpt lat="44.9273188" lon="9.6158285"><ele>134.0</ele><time>2026-04-18T06:29:39.31Z</time></trkpt><trkpt lat="44.9271657" lon="9.6155957"><ele>134.0</ele><time>2026-04-18T06:29:40.31Z</time></trkpt><trkpt lat="44.9270108" lon="9.6153675"><ele>134.0</ele><time>2026-04-18T06:29:41.31Z</time></trkpt><trkpt lat="44.9268488" lon="9.6151463"><ele>134.0</ele><time>2026-04-18T06:29:42.31Z</time></trkpt><trkpt lat="44.9266794" lon="9.6149402"><ele>134.0</ele><time>2026-04-18T06:29:43.31Z</time></trkpt><trkpt lat="44.9265011" lon="9.6147481"><ele>134.0</ele><time>2026-04-18T06:29:44.31Z</time></trkpt><trkpt lat="44.9263131" lon="9.6145633"><ele>134.5</ele><time>2026-04-18T06:29:45.31Z</time></trkpt><trkpt lat="44.9261256" lon="9.6143848"><ele>135.0</ele><time>2026-04-18T06:29:46.31Z</time></trkpt><trkpt lat="44.9259329" lon="9.6142142"><ele>134.5</ele><time>2026-04-18T06:29:47.31Z</time></trkpt><trkpt lat="44.9257386" lon="9.6140475"><ele>134.0</ele><time>2026-04-18T06:29:48.31Z</time></trkpt><trkpt lat="44.9255456" lon="9.6138784"><ele>134.0</ele><time>2026-04-18T06:29:49.31Z</time></trkpt><trkpt lat="44.9253516" lon="9.6137079"><ele>134.0</ele><time>2026-04-18T06:29:50.31Z</time></trkpt><trkpt lat="44.9251566" lon="9.6135369"><ele>133.5</ele><time>2026-04-18T06:29:51.31Z</time></trkpt><trkpt lat="44.9249651" lon="9.6133685"><ele>133.0</ele><time>2026-04-18T06:29:52.31Z</time></trkpt><trkpt lat="44.9247735" lon="9.6131999"><ele>133.0</ele><time>2026-04-18T06:29:53.309Z</time></trkpt><trkpt lat="44.9245808" lon="9.613029"><ele>133.0</ele><time>2026-04-18T06:29:54.309Z</time></trkpt><trkpt lat="44.924389" lon="9.61286"><ele>132.33333333333334</ele><time>2026-04-18T06:29:55.31Z</time></trkpt><trkpt lat="44.924203" lon="9.6126988"><ele>131.66666666666666</ele><time>2026-04-18T06:29:56.31Z</time></trkpt><trkpt lat="44.9240251" lon="9.6125449"><ele>131.0</ele><time>2026-04-18T06:29:57.31Z</time></trkpt><trkpt lat="44.9238485" lon="9.6123946"><ele>131.0</ele><time>2026-04-18T06:29:58.31Z</time></trkpt><trkpt lat="44.9236678" lon="9.6122431"><ele>131.0</ele><time>2026-04-18T06:29:59.31Z</time></trkpt><trkpt lat="44.9234837" lon="9.6120888"><ele>131.0</ele><time>2026-04-18T06:30:00.31Z</time></trkpt><trkpt lat="44.9233065" lon="9.611936"><ele>131.66666666666666</ele><time>2026-04-18T06:30:01.31Z</time></trkpt><trkpt lat="44.9231341" lon="9.6117762"><ele>132.33333333333334</ele><time>2026-04-18T06:30:02.31Z</time></trkpt><trkpt lat="44.9229649" lon="9.6116011"><ele>133.0</ele><time>2026-04-18T06:30:03.31Z</time></trkpt><trkpt lat="44.9228009" lon="9.6114093"><ele>133.0</ele><time>2026-04-18T06:30:04.31Z</time></trkpt><trkpt lat="44.9226369" lon="9.6112062"><ele>133.0</ele><time>2026-04-18T06:30:05.31Z</time></trkpt><trkpt lat="44.9224653" lon="9.6110116"><ele>133.0</ele><time>2026-04-18T06:30:06.31Z</time></trkpt><trkpt lat="44.922293" lon="9.6108235"><ele>132.33333333333334</ele><time>2026-04-18T06:30:07.31Z</time></trkpt><trkpt lat="44.9221206" lon="9.6106387"><ele>131.66666666666666</ele><time>2026-04-18T06:30:08.309Z</time></trkpt><trkpt lat="44.9219486" lon="9.6104521"><ele>131.0</ele><time>2026-04-18T06:30:09.31Z</time></trkpt><trkpt lat="44.9217838" lon="9.610264"><ele>131.33333333333331</ele><time>2026-04-18T06:30:10.31Z</time></trkpt><trkpt lat="44.921616" lon="9.6100766"><ele>131.66666666666666</ele><time>2026-04-18T06:30:11.31Z</time></trkpt><trkpt lat="44.9214467" lon="9.6098855"><ele>132.0</ele><time>2026-04-18T06:30:12.31Z</time></trkpt><trkpt lat="44.9212769" lon="9.6096957"><ele>132.0</ele><time>2026-04-18T06:30:13.31Z</time></trkpt><trkpt lat="44.9211019" lon="9.6095055"><ele>132.0</ele><time>2026-04-18T06:30:14.31Z</time></trkpt><trkpt lat="44.9209277" lon="9.6093121"><ele>132.0</ele><time>2026-04-18T06:30:15.309Z</time></trkpt><trkpt lat="44.9207495" lon="9.6091147"><ele>133.0</ele><time>2026-04-18T06:30:16.31Z</time></trkpt><trkpt lat="44.9205676" lon="9.6089159"><ele>134.0</ele><time>2026-04-18T06:30:17.31Z</time></trkpt><trkpt lat="44.9203849" lon="9.6087261"><ele>133.66666666666666</ele><time>2026-04-18T06:30:18.31Z</time></trkpt><trkpt lat="44.9202033" lon="9.6085471"><ele>133.33333333333334</ele><time>2026-04-18T06:30:19.31Z</time></trkpt><trkpt lat="44.9200212" lon="9.6083812"><ele>133.0</ele><time>2026-04-18T06:30:20.309Z</time></trkpt><trkpt lat="44.9198355" lon="9.6082326"><ele>133.66666666666669</ele><time>2026-04-18T06:30:21.31Z</time></trkpt><trkpt lat="44.9196475" lon="9.6080943"><ele>134.33333333333334</ele><time>2026-04-18T06:30:22.31Z</time></trkpt><trkpt lat="44.9194562" lon="9.6079697"><ele>135.0</ele><time>2026-04-18T06:30:23.31Z</time></trkpt><trkpt lat="44.9192651" lon="9.6078456"><ele>135.33333333333334</ele><time>2026-04-18T06:30:24.31Z</time></trkpt><trkpt lat="44.9190761" lon="9.6077232"><ele>135.66666666666669</ele><time>2026-04-18T06:30:25.31Z</time></trkpt><trkpt lat="44.9188947" lon="9.6076044"><ele>136.0</ele><time>2026-04-18T06:30:26.31Z</time></trkpt><trkpt lat="44.9187184" lon="9.6074875"><ele>136.0</ele><time>2026-04-18T06:30:27.31Z</time></trkpt><trkpt lat="44.9185411" lon="9.6073695"><ele>136.0</ele><time>2026-04-18T06:30:28.31Z</time></trkpt><trkpt lat="44.9183649" lon="9.6072548"><ele>136.0</ele><time>2026-04-18T06:30:29.31Z</time></trkpt><trkpt lat="44.918192" lon="9.607138"><ele>136.66666666666669</ele><time>2026-04-18T06:30:30.31Z</time></trkpt><trkpt lat="44.9180145" lon="9.6070204"><ele>137.33333333333334</ele><time>2026-04-18T06:30:31.31Z</time></trkpt><trkpt lat="44.9178407" lon="9.6068923"><ele>138.0</ele><time>2026-04-18T06:30:32.311Z</time></trkpt><trkpt lat="44.917677" lon="9.6067698"><ele>139.0</ele><time>2026-04-18T06:30:33.311Z</time></trkpt><trkpt lat="44.9175188" lon="9.6066318"><ele>140.0</ele><time>2026-04-18T06:30:34.311Z</time></trkpt><trkpt lat="44.9173677" lon="9.6064804"><ele>141.0</ele><time>2026-04-18T06:30:35.311Z</time></trkpt><trkpt lat="44.917223" lon="9.6063225"><ele>141.0</ele><time>2026-04-18T06:30:36.311Z</time></trkpt><trkpt lat="44.9170732" lon="9.6061623"><ele>141.0</ele><time>2026-04-18T06:30:37.311Z</time></trkpt><trkpt lat="44.9169286" lon="9.6060124"><ele>141.0</ele><time>2026-04-18T06:30:38.311Z</time></trkpt><trkpt lat="44.9167892" lon="9.6058631"><ele>141.0</ele><time>2026-04-18T06:30:39.311Z</time></trkpt><trkpt lat="44.9166522" lon="9.6057162"><ele>141.0</ele><time>2026-04-18T06:30:40.311Z</time></trkpt><trkpt lat="44.916522" lon="9.6055686"><ele>141.0</ele><time>2026-04-18T06:30:41.311Z</time></trkpt><trkpt lat="44.9164066" lon="9.6054293"><ele>141.0</ele><time>2026-04-18T06:30:42.311Z</time></trkpt><trkpt lat="44.9163148" lon="9.6053037"><ele>141.0</ele><time>2026-04-18T06:30:43.311Z</time></trkpt><trkpt lat="44.9162343" lon="9.6051755"><ele>141.0</ele><time>2026-04-18T06:30:44.311Z</time></trkpt><trkpt lat="44.9161594" lon="9.6050478"><ele>141.0</ele><time>2026-04-18T06:30:45.311Z</time></trkpt><trkpt lat="44.9160912" lon="9.6049344"><ele>141.0</ele><time>2026-04-18T06:30:46.311Z</time></trkpt><trkpt lat="44.9160335" lon="9.6048239"><ele>141.0</ele><time>2026-04-18T06:30:47.311Z</time></trkpt><trkpt lat="44.9159826" lon="9.6047208"><ele>141.0</ele><time>2026-04-18T06:30:48.311Z</time></trkpt><trkpt lat="44.9159374" lon="9.6046276"><ele>141.0</ele><time>2026-04-18T06:30:49.311Z</time></trkpt><trkpt lat="44.9158986" lon="9.6045368"><ele>141.0</ele><time>2026-04-18T06:30:50.311Z</time></trkpt><trkpt lat="44.9158648" lon="9.6044427"><ele>141.0</ele><time>2026-04-18T06:30:51.311Z</time></trkpt><trkpt lat="44.9158229" lon="9.6043546"><ele>141.0</ele><time>2026-04-18T06:30:52.311Z</time></trkpt><trkpt lat="44.9157865" lon="9.6042755"><ele>141.0</ele><time>2026-04-18T06:30:53.311Z</time></trkpt><trkpt lat="44.915722" lon="9.6041277"><ele>141.0</ele><time>2026-04-18T06:30:55.311Z</time></trkpt><trkpt lat="44.9156806" lon="9.6040409"><ele>141.0</ele><time>2026-04-18T06:30:57.311Z</time></trkpt><trkpt lat="44.9156291" lon="9.6039267"><ele>141.0</ele><time>2026-04-18T06:31:00.311Z</time></trkpt><trkpt lat="44.91558" lon="9.6038242"><ele>141.0</ele><time>2026-04-18T06:31:01.311Z</time></trkpt><trkpt lat="44.9155163" lon="9.6036616"><ele>141.0</ele><time>2026-04-18T06:31:02.311Z</time></trkpt><trkpt lat="44.9154397" lon="9.6034784"><ele>141.0</ele><time>2026-04-18T06:31:03.311Z</time></trkpt><trkpt lat="44.9153665" lon="9.6032758"><ele>141.0</ele><time>2026-04-18T06:31:04.311Z</time></trkpt><trkpt lat="44.9152852" lon="9.6030509"><ele>139.66666666666666</ele><time>2026-04-18T06:31:05.311Z</time></trkpt><trkpt lat="44.915195" lon="9.6028197"><ele>138.33333333333331</ele><time>2026-04-18T06:31:06.311Z</time></trkpt><trkpt lat="44.9151088" lon="9.6025915"><ele>137.0</ele><time>2026-04-18T06:31:07.311Z</time></trkpt><trkpt lat="44.9150161" lon="9.6023614"><ele>137.0</ele><time>2026-04-18T06:31:08.311Z</time></trkpt><trkpt lat="44.9149247" lon="9.6021259"><ele>137.0</ele><time>2026-04-18T06:31:09.311Z</time></trkpt><trkpt lat="44.9148235" lon="9.6018733"><ele>137.0</ele><time>2026-04-18T06:31:10.311Z</time></trkpt><trkpt lat="44.914717" lon="9.6016134"><ele>136.33333333333331</ele><time>2026-04-18T06:31:11.311Z</time></trkpt><trkpt lat="44.9146128" lon="9.6013645"><ele>135.66666666666666</ele><time>2026-04-18T06:31:12.311Z</time></trkpt><trkpt lat="44.9145126" lon="9.6011166"><ele>135.0</ele><time>2026-04-18T06:31:13.311Z</time></trkpt><trkpt lat="44.9144088" lon="9.6008662"><ele>134.66666666666666</ele><time>2026-04-18T06:31:14.311Z</time></trkpt><trkpt lat="44.9143088" lon="9.6006163"><ele>134.33333333333331</ele><time>2026-04-18T06:31:15.311Z</time></trkpt><trkpt lat="44.9142068" lon="9.6003598"><ele>134.0</ele><time>2026-04-18T06:31:16.31Z</time></trkpt><trkpt lat="44.9141059" lon="9.6000961"><ele>134.66666666666666</ele><time>2026-04-18T06:31:17.311Z</time></trkpt><trkpt lat="44.9140039" lon="9.5998276"><ele>135.33333333333334</ele><time>2026-04-18T06:31:18.311Z</time></trkpt><trkpt lat="44.9139021" lon="9.5995587"><ele>136.0</ele><time>2026-04-18T06:31:19.311Z</time></trkpt><trkpt lat="44.9138015" lon="9.5992891"><ele>136.33333333333334</ele><time>2026-04-18T06:31:20.311Z</time></trkpt><trkpt lat="44.913699" lon="9.5990196"><ele>136.66666666666666</ele><time>2026-04-18T06:31:21.311Z</time></trkpt><trkpt lat="44.913598" lon="9.598761"><ele>137.0</ele><time>2026-04-18T06:31:22.311Z</time></trkpt><trkpt lat="44.9134982" lon="9.5985089"><ele>137.0</ele><time>2026-04-18T06:31:23.311Z</time></trkpt><trkpt lat="44.9134014" lon="9.5982594"><ele>137.0</ele><time>2026-04-18T06:31:24.311Z</time></trkpt><trkpt lat="44.9133067" lon="9.5980148"><ele>137.0</ele><time>2026-04-18T06:31:25.311Z</time></trkpt><trkpt lat="44.9132134" lon="9.5977837"><ele>137.0</ele><time>2026-04-18T06:31:26.311Z</time></trkpt><trkpt lat="44.9131172" lon="9.5975583"><ele>137.0</ele><time>2026-04-18T06:31:27.311Z</time></trkpt><trkpt lat="44.9130185" lon="9.5973404"><ele>137.0</ele><time>2026-04-18T06:31:28.31Z</time></trkpt><trkpt lat="44.9129056" lon="9.5971345"><ele>137.33333333333331</ele><time>2026-04-18T06:31:29.311Z</time></trkpt><trkpt lat="44.9127814" lon="9.5969431"><ele>137.66666666666666</ele><time>2026-04-18T06:31:30.311Z</time></trkpt><trkpt lat="44.9126432" lon="9.5967728"><ele>138.0</ele><time>2026-04-18T06:31:31.311Z</time></trkpt><trkpt lat="44.9124947" lon="9.5966305"><ele>138.33333333333334</ele><time>2026-04-18T06:31:32.311Z</time></trkpt><trkpt lat="44.912335" lon="9.5965009"><ele>138.66666666666669</ele><time>2026-04-18T06:31:33.311Z</time></trkpt><trkpt lat="44.9121653" lon="9.5963809"><ele>139.0</ele><time>2026-04-18T06:31:34.311Z</time></trkpt><trkpt lat="44.91199" lon="9.5962803"><ele>139.0</ele><time>2026-04-18T06:31:35.311Z</time></trkpt><trkpt lat="44.9118309" lon="9.5962025"><ele>139.0</ele><time>2026-04-18T06:31:36.311Z</time></trkpt><trkpt lat="44.9116784" lon="9.5961341"><ele>139.0</ele><time>2026-04-18T06:31:37.311Z</time></trkpt><trkpt lat="44.911525" lon="9.5960717"><ele>136.66666666666669</ele><time>2026-04-18T06:31:38.311Z</time></trkpt><trkpt lat="44.9113586" lon="9.5959952"><ele>134.33333333333334</ele><time>2026-04-18T06:31:39.311Z</time></trkpt><trkpt lat="44.9111755" lon="9.5959022"><ele>132.0</ele><time>2026-04-18T06:31:40.312Z</time></trkpt><trkpt lat="44.9109914" lon="9.5957894"><ele>133.0</ele><time>2026-04-18T06:31:41.312Z</time></trkpt><trkpt lat="44.9108082" lon="9.5956746"><ele>134.0</ele><time>2026-04-18T06:31:42.312Z</time></trkpt><trkpt lat="44.9106307" lon="9.5955724"><ele>135.0</ele><time>2026-04-18T06:31:43.312Z</time></trkpt><trkpt lat="44.9104563" lon="9.5954702"><ele>135.0</ele><time>2026-04-18T06:31:44.312Z</time></trkpt><trkpt lat="44.910286" lon="9.59534"><ele>135.0</ele><time>2026-04-18T06:31:45.312Z</time></trkpt><trkpt lat="44.9101145" lon="9.5951777"><ele>135.0</ele><time>2026-04-18T06:31:46.312Z</time></trkpt><trkpt lat="44.9099511" lon="9.5949877"><ele>134.0</ele><time>2026-04-18T06:31:47.312Z</time></trkpt><trkpt lat="44.9097905" lon="9.5947735"><ele>133.0</ele><time>2026-04-18T06:31:48.312Z</time></trkpt><trkpt lat="44.9096382" lon="9.5945348"><ele>132.0</ele><time>2026-04-18T06:31:49.312Z</time></trkpt><trkpt lat="44.9094848" lon="9.5942771"><ele>131.5</ele><time>2026-04-18T06:31:50.311Z</time></trkpt><trkpt lat="44.909329" lon="9.5940201"><ele>131.0</ele><time>2026-04-18T06:31:51.312Z</time></trkpt><trkpt lat="44.9091782" lon="9.5937838"><ele>132.0</ele><time>2026-04-18T06:31:52.312Z</time></trkpt><trkpt lat="44.909024" lon="9.593558"><ele>133.0</ele><time>2026-04-18T06:31:53.312Z</time></trkpt><trkpt lat="44.908882" lon="9.593337"><ele>134.0</ele><time>2026-04-18T06:31:54.312Z</time></trkpt><trkpt lat="44.908743" lon="9.5931179"><ele>134.0</ele><time>2026-04-18T06:31:55.312Z</time></trkpt><trkpt lat="44.9086013" lon="9.5929068"><ele>134.0</ele><time>2026-04-18T06:31:56.312Z</time></trkpt><trkpt lat="44.9084618" lon="9.5927039"><ele>134.0</ele><time>2026-04-18T06:31:57.312Z</time></trkpt><trkpt lat="44.9083114" lon="9.5925145"><ele>134.0</ele><time>2026-04-18T06:31:58.312Z</time></trkpt><trkpt lat="44.9081402" lon="9.5923477"><ele>134.0</ele><time>2026-04-18T06:31:59.312Z</time></trkpt><trkpt lat="44.9079571" lon="9.5921943"><ele>134.0</ele><time>2026-04-18T06:32:00.312Z</time></trkpt><trkpt lat="44.9077644" lon="9.592052"><ele>134.33333333333331</ele><time>2026-04-18T06:32:01.312Z</time></trkpt><trkpt lat="44.9075736" lon="9.5918984"><ele>134.66666666666666</ele><time>2026-04-18T06:32:02.312Z</time></trkpt><trkpt lat="44.9073776" lon="9.5917414"><ele>135.0</ele><time>2026-04-18T06:32:03.312Z</time></trkpt><trkpt lat="44.9071792" lon="9.5915762"><ele>135.0</ele><time>2026-04-18T06:32:04.312Z</time></trkpt><trkpt lat="44.9069752" lon="9.5914026"><ele>135.0</ele><time>2026-04-18T06:32:05.312Z</time></trkpt><trkpt lat="44.9067621" lon="9.591225"><ele>137.5</ele><time>2026-04-18T06:32:06.312Z</time></trkpt><trkpt lat="44.9065516" lon="9.5910421"><ele>140.0</ele><time>2026-04-18T06:32:07.312Z</time></trkpt><trkpt lat="44.9063368" lon="9.5908635"><ele>140.0</ele><time>2026-04-18T06:32:08.312Z</time></trkpt><trkpt lat="44.9061232" lon="9.5906844"><ele>140.0</ele><time>2026-04-18T06:32:09.312Z</time></trkpt><trkpt lat="44.9059157" lon="9.5905181"><ele>140.0</ele><time>2026-04-18T06:32:10.312Z</time></trkpt><trkpt lat="44.9057159" lon="9.5903543"><ele>140.0</ele><time>2026-04-18T06:32:11.312Z</time></trkpt><trkpt lat="44.9055105" lon="9.5901862"><ele>140.0</ele><time>2026-04-18T06:32:12.312Z</time></trkpt><trkpt lat="44.9053103" lon="9.5900198"><ele>140.0</ele><time>2026-04-18T06:32:13.312Z</time></trkpt><trkpt lat="44.9051072" lon="9.5898516"><ele>143.5</ele><time>2026-04-18T06:32:14.312Z</time></trkpt><trkpt lat="44.9049043" lon="9.5896849"><ele>147.0</ele><time>2026-04-18T06:32:15.312Z</time></trkpt><trkpt lat="44.9047031" lon="9.5895178"><ele>148.66666666666666</ele><time>2026-04-18T06:32:16.312Z</time></trkpt><trkpt lat="44.9045092" lon="9.5893585"><ele>150.33333333333331</ele><time>2026-04-18T06:32:17.312Z</time></trkpt><trkpt lat="44.9043246" lon="9.5892049"><ele>152.0</ele><time>2026-04-18T06:32:18.312Z</time></trkpt><trkpt lat="44.9041396" lon="9.5890512"><ele>152.0</ele><time>2026-04-18T06:32:19.312Z</time></trkpt><trkpt lat="44.9039511" lon="9.5888964"><ele>152.0</ele><time>2026-04-18T06:32:20.312Z</time></trkpt><trkpt lat="44.9037609" lon="9.5887412"><ele>152.0</ele><time>2026-04-18T06:32:21.312Z</time></trkpt><trkpt lat="44.9035786" lon="9.5885957"><ele>152.0</ele><time>2026-04-18T06:32:22.312Z</time></trkpt><trkpt lat="44.9034096" lon="9.5884625"><ele>152.0</ele><time>2026-04-18T06:32:23.312Z</time></trkpt><trkpt lat="44.9032479" lon="9.5883361"><ele>152.0</ele><time>2026-04-18T06:32:24.312Z</time></trkpt><trkpt lat="44.9030879" lon="9.5882065"><ele>152.0</ele><time>2026-04-18T06:32:25.312Z</time></trkpt><trkpt lat="44.9029328" lon="9.58808"><ele>152.0</ele><time>2026-04-18T06:32:26.312Z</time></trkpt><trkpt lat="44.9027779" lon="9.587955"><ele>152.0</ele><time>2026-04-18T06:32:27.312Z</time></trkpt><trkpt lat="44.9026242" lon="9.5878303"><ele>154.33333333333331</ele><time>2026-04-18T06:32:28.312Z</time></trkpt><trkpt lat="44.9024751" lon="9.5877045"><ele>156.66666666666666</ele><time>2026-04-18T06:32:29.312Z</time></trkpt><trkpt lat="44.9023307" lon="9.5875767"><ele>159.0</ele><time>2026-04-18T06:32:30.312Z</time></trkpt><trkpt lat="44.902186" lon="9.5874454"><ele>159.0</ele><time>2026-04-18T06:32:31.312Z</time></trkpt><trkpt lat="44.9020458" lon="9.5873078"><ele>159.0</ele><time>2026-04-18T06:32:32.312Z</time></trkpt><trkpt lat="44.9018941" lon="9.5871752"><ele>159.0</ele><time>2026-04-18T06:32:33.312Z</time></trkpt><trkpt lat="44.901741" lon="9.5870492"><ele>159.0</ele><time>2026-04-18T06:32:34.312Z</time></trkpt><trkpt lat="44.9015917" lon="9.5869278"><ele>159.0</ele><time>2026-04-18T06:32:35.312Z</time></trkpt><trkpt lat="44.9014502" lon="9.5868144"><ele>159.0</ele><time>2026-04-18T06:32:36.312Z</time></trkpt><trkpt lat="44.9013161" lon="9.5867116"><ele>159.0</ele><time>2026-04-18T06:32:37.312Z</time></trkpt><trkpt lat="44.9011804" lon="9.5866065"><ele>159.0</ele><time>2026-04-18T06:32:38.312Z</time></trkpt><trkpt lat="44.9010472" lon="9.5865124"><ele>159.0</ele><time>2026-04-18T06:32:39.312Z</time></trkpt><trkpt lat="44.9009161" lon="9.5864209"><ele>158.0</ele><time>2026-04-18T06:32:40.312Z</time></trkpt><trkpt lat="44.900788" lon="9.5863405"><ele>157.0</ele><time>2026-04-18T06:32:41.312Z</time></trkpt><trkpt lat="44.9006634" lon="9.5862633"><ele>156.0</ele><time>2026-04-18T06:32:42.312Z</time></trkpt><trkpt lat="44.9005325" lon="9.586184"><ele>155.0</ele><time>2026-04-18T06:32:43.312Z</time></trkpt><trkpt lat="44.9003943" lon="9.5861287"><ele>155.0</ele><time>2026-04-18T06:32:44.312Z</time></trkpt><trkpt lat="44.9002422" lon="9.5860824"><ele>155.0</ele><time>2026-04-18T06:32:45.312Z</time></trkpt><trkpt lat="44.9000936" lon="9.5860355"><ele>155.0</ele><time>2026-04-18T06:32:46.312Z</time></trkpt><trkpt lat="44.8999523" lon="9.5859872"><ele>157.0</ele><time>2026-04-18T06:32:47.312Z</time></trkpt><trkpt lat="44.8998172" lon="9.585941"><ele>159.0</ele><time>2026-04-18T06:32:48.312Z</time></trkpt><trkpt lat="44.8996908" lon="9.5859083"><ele>161.0</ele><time>2026-04-18T06:32:49.313Z</time></trkpt><trkpt lat="44.8995639" lon="9.5858751"><ele>163.0</ele><time>2026-04-18T06:32:50.313Z</time></trkpt><trkpt lat="44.8994395" lon="9.5858484"><ele>163.0</ele><time>2026-04-18T06:32:51.313Z</time></trkpt><trkpt lat="44.8993179" lon="9.5858182"><ele>163.0</ele><time>2026-04-18T06:32:52.313Z</time></trkpt><trkpt lat="44.8992021" lon="9.5857795"><ele>163.0</ele><time>2026-04-18T06:32:53.313Z</time></trkpt><trkpt lat="44.8990976" lon="9.5857408"><ele>163.0</ele><time>2026-04-18T06:32:54.313Z</time></trkpt><trkpt lat="44.8990017" lon="9.5857029"><ele>164.2</ele><time>2026-04-18T06:32:55.313Z</time></trkpt><trkpt lat="44.8989116" lon="9.585665"><ele>165.4</ele><time>2026-04-18T06:32:56.313Z</time></trkpt><trkpt lat="44.8988256" lon="9.5856364"><ele>166.6</ele><time>2026-04-18T06:32:57.313Z</time></trkpt><trkpt lat="44.8987392" lon="9.5856119"><ele>167.79999999999998</ele><time>2026-04-18T06:32:58.313Z</time></trkpt><trkpt lat="44.8986484" lon="9.5855904"><ele>169.0</ele><time>2026-04-18T06:32:59.313Z</time></trkpt><trkpt lat="44.8985479" lon="9.5855844"><ele>169.0</ele><time>2026-04-18T06:33:00.312Z</time></trkpt><trkpt lat="44.8984437" lon="9.5855967"><ele>169.0</ele><time>2026-04-18T06:33:01.313Z</time></trkpt><trkpt lat="44.8983428" lon="9.5856359"><ele>169.0</ele><time>2026-04-18T06:33:02.313Z</time></trkpt><trkpt lat="44.8982468" lon="9.5857042"><ele>169.0</ele><time>2026-04-18T06:33:03.313Z</time></trkpt><trkpt lat="44.8981508" lon="9.5857779"><ele>169.0</ele><time>2026-04-18T06:33:04.312Z</time></trkpt><trkpt lat="44.8980482" lon="9.5858393"><ele>170.25</ele><time>2026-04-18T06:33:05.312Z</time></trkpt><trkpt lat="44.8979421" lon="9.5858802"><ele>171.5</ele><time>2026-04-18T06:33:06.313Z</time></trkpt><trkpt lat="44.8978225" lon="9.5859036"><ele>172.75</ele><time>2026-04-18T06:33:07.313Z</time></trkpt><trkpt lat="44.8976994" lon="9.585903"><ele>174.0</ele><time>2026-04-18T06:33:08.312Z</time></trkpt><trkpt lat="44.8975709" lon="9.5858764"><ele>175.66666666666666</ele><time>2026-04-18T06:33:09.313Z</time></trkpt><trkpt lat="44.8974158" lon="9.5858001"><ele>177.33333333333331</ele><time>2026-04-18T06:33:10.313Z</time></trkpt><trkpt lat="44.8972354" lon="9.5857056"><ele>179.0</ele><time>2026-04-18T06:33:11.313Z</time></trkpt><trkpt lat="44.8970599" lon="9.5855815"><ele>179.0</ele><time>2026-04-18T06:33:12.313Z</time></trkpt><trkpt lat="44.8969082" lon="9.5854628"><ele>179.0</ele><time>2026-04-18T06:33:13.313Z</time></trkpt><trkpt lat="44.8967833" lon="9.5853727"><ele>179.0</ele><time>2026-04-18T06:33:14.313Z</time></trkpt><trkpt lat="44.8966651" lon="9.585299"><ele>179.0</ele><time>2026-04-18T06:33:15.313Z</time></trkpt><trkpt lat="44.8965442" lon="9.5852307"><ele>177.5</ele><time>2026-04-18T06:33:16.313Z</time></trkpt><trkpt lat="44.896425" lon="9.5851742"><ele>176.0</ele><time>2026-04-18T06:33:17.313Z</time></trkpt><trkpt lat="44.8963065" lon="9.5851322"><ele>174.5</ele><time>2026-04-18T06:33:18.313Z</time></trkpt><trkpt lat="44.8961786" lon="9.5850944"><ele>173.0</ele><time>2026-04-18T06:33:19.313Z</time></trkpt><trkpt lat="44.8960429" lon="9.5850603"><ele>174.75</ele><time>2026-04-18T06:33:20.313Z</time></trkpt><trkpt lat="44.89591" lon="9.5850268"><ele>176.5</ele><time>2026-04-18T06:33:21.313Z</time></trkpt><trkpt lat="44.8957791" lon="9.5850054"><ele>178.25</ele><time>2026-04-18T06:33:22.313Z</time></trkpt><trkpt lat="44.8956453" lon="9.5850003"><ele>180.0</ele><time>2026-04-18T06:33:23.313Z</time></trkpt><trkpt lat="44.8955059" lon="9.5850279"><ele>180.0</ele><time>2026-04-18T06:33:24.313Z</time></trkpt><trkpt lat="44.8953681" lon="9.5850728"><ele>180.0</ele><time>2026-04-18T06:33:25.313Z</time></trkpt><trkpt lat="44.8952294" lon="9.5851202"><ele>180.0</ele><time>2026-04-18T06:33:26.313Z</time></trkpt><trkpt lat="44.8950949" lon="9.5851628"><ele>180.0</ele><time>2026-04-18T06:33:27.313Z</time></trkpt><trkpt lat="44.8949674" lon="9.5851998"><ele>181.0</ele><time>2026-04-18T06:33:28.313Z</time></trkpt><trkpt lat="44.8948347" lon="9.5852301"><ele>182.0</ele><time>2026-04-18T06:33:29.313Z</time></trkpt><trkpt lat="44.8946882" lon="9.5852562"><ele>183.0</ele><time>2026-04-18T06:33:30.313Z</time></trkpt><trkpt lat="44.8945168" lon="9.5852778"><ele>183.0</ele><time>2026-04-18T06:33:31.313Z</time></trkpt><trkpt lat="44.8943371" lon="9.5852851"><ele>183.0</ele><time>2026-04-18T06:33:32.313Z</time></trkpt><trkpt lat="44.8941673" lon="9.5852849"><ele>183.0</ele><time>2026-04-18T06:33:33.313Z</time></trkpt><trkpt lat="44.8938712" lon="9.5852846"><ele>183.0</ele><time>2026-04-18T06:33:35.313Z</time></trkpt><trkpt lat="44.8937421" lon="9.5852868"><ele>183.0</ele><time>2026-04-18T06:33:36.313Z</time></trkpt><trkpt lat="44.8936139" lon="9.5852886"><ele>183.0</ele><time>2026-04-18T06:33:37.313Z</time></trkpt><trkpt lat="44.8934896" lon="9.5852929"><ele>183.0</ele><time>2026-04-18T06:33:38.313Z</time></trkpt><trkpt lat="44.8933645" lon="9.5852955"><ele>183.5</ele><time>2026-04-18T06:33:39.312Z</time></trkpt><trkpt lat="44.8932387" lon="9.5852983"><ele>184.0</ele><time>2026-04-18T06:33:40.313Z</time></trkpt><trkpt lat="44.8931084" lon="9.5853001"><ele>184.5</ele><time>2026-04-18T06:33:41.313Z</time></trkpt><trkpt lat="44.8929756" lon="9.5853033"><ele>185.0</ele><time>2026-04-18T06:33:42.313Z</time></trkpt><trkpt lat="44.8928438" lon="9.585311"><ele>185.0</ele><time>2026-04-18T06:33:43.313Z</time></trkpt><trkpt lat="44.8927162" lon="9.585317"><ele>185.0</ele><time>2026-04-18T06:33:44.313Z</time></trkpt><trkpt lat="44.8925897" lon="9.5853205"><ele>185.0</ele><time>2026-04-18T06:33:45.313Z</time></trkpt><trkpt lat="44.8924637" lon="9.5853236"><ele>185.0</ele><time>2026-04-18T06:33:46.313Z</time></trkpt><trkpt lat="44.8923381" lon="9.5853298"><ele>186.5</ele><time>2026-04-18T06:33:47.313Z</time></trkpt><trkpt lat="44.8922133" lon="9.5853362"><ele>188.0</ele><time>2026-04-18T06:33:48.313Z</time></trkpt><trkpt lat="44.8920968" lon="9.5853382"><ele>189.5</ele><time>2026-04-18T06:33:49.313Z</time></trkpt><trkpt lat="44.8919836" lon="9.58534"><ele>191.0</ele><time>2026-04-18T06:33:50.313Z</time></trkpt><trkpt lat="44.8918735" lon="9.5853435"><ele>191.25</ele><time>2026-04-18T06:33:51.313Z</time></trkpt><trkpt lat="44.8917669" lon="9.5853474"><ele>191.5</ele><time>2026-04-18T06:33:52.313Z</time></trkpt><trkpt lat="44.8916478" lon="9.5853496"><ele>191.75</ele><time>2026-04-18T06:33:53.313Z</time></trkpt><trkpt lat="44.891527" lon="9.585349"><ele>192.0</ele><time>2026-04-18T06:33:54.313Z</time></trkpt><trkpt lat="44.8914021" lon="9.5853599"><ele>192.0</ele><time>2026-04-18T06:33:55.313Z</time></trkpt><trkpt lat="44.8912391" lon="9.5853747"><ele>192.0</ele><time>2026-04-18T06:33:56.313Z</time></trkpt><trkpt lat="44.8910513" lon="9.585386"><ele>192.0</ele><time>2026-04-18T06:33:57.313Z</time></trkpt><trkpt lat="44.8908696" lon="9.5853919"><ele>191.66666666666666</ele><time>2026-04-18T06:33:58.313Z</time></trkpt><trkpt lat="44.8906935" lon="9.5853918"><ele>191.33333333333331</ele><time>2026-04-18T06:33:59.313Z</time></trkpt><trkpt lat="44.8905257" lon="9.5854007"><ele>191.0</ele><time>2026-04-18T06:34:00.313Z</time></trkpt><trkpt lat="44.8903647" lon="9.5854311"><ele>191.0</ele><time>2026-04-18T06:34:01.313Z</time></trkpt><trkpt lat="44.8902104" lon="9.5854692"><ele>191.0</ele><time>2026-04-18T06:34:02.314Z</time></trkpt><trkpt lat="44.8900739" lon="9.5855118"><ele>191.0</ele><time>2026-04-18T06:34:03.314Z</time></trkpt><trkpt lat="44.8899355" lon="9.5855415"><ele>191.0</ele><time>2026-04-18T06:34:04.313Z</time></trkpt><trkpt lat="44.8897989" lon="9.585555"><ele>191.5</ele><time>2026-04-18T06:34:05.314Z</time></trkpt><trkpt lat="44.8896692" lon="9.5855203"><ele>192.0</ele><time>2026-04-18T06:34:06.314Z</time></trkpt><trkpt lat="44.8895509" lon="9.5854427"><ele>192.5</ele><time>2026-04-18T06:34:07.314Z</time></trkpt><trkpt lat="44.8894361" lon="9.5853313"><ele>193.0</ele><time>2026-04-18T06:34:08.314Z</time></trkpt><trkpt lat="44.8893284" lon="9.5852042"><ele>191.66666666666666</ele><time>2026-04-18T06:34:09.314Z</time></trkpt><trkpt lat="44.8892246" lon="9.5850474"><ele>190.33333333333331</ele><time>2026-04-18T06:34:10.314Z</time></trkpt><trkpt lat="44.8891241" lon="9.5848683"><ele>189.0</ele><time>2026-04-18T06:34:11.314Z</time></trkpt><trkpt lat="44.8890329" lon="9.5846908"><ele>189.0</ele><time>2026-04-18T06:34:12.314Z</time></trkpt><trkpt lat="44.8889425" lon="9.5845198"><ele>189.0</ele><time>2026-04-18T06:34:13.314Z</time></trkpt><trkpt lat="44.8888425" lon="9.5843588"><ele>189.0</ele><time>2026-04-18T06:34:14.314Z</time></trkpt><trkpt lat="44.8887262" lon="9.5842286"><ele>187.33333333333334</ele><time>2026-04-18T06:34:15.314Z</time></trkpt><trkpt lat="44.8885944" lon="9.5841394"><ele>185.66666666666669</ele><time>2026-04-18T06:34:16.314Z</time></trkpt><trkpt lat="44.8884427" lon="9.5840958"><ele>184.0</ele><time>2026-04-18T06:34:17.314Z</time></trkpt><trkpt lat="44.8882921" lon="9.5840682"><ele>184.0</ele><time>2026-04-18T06:34:18.314Z</time></trkpt><trkpt lat="44.8881404" lon="9.5841001"><ele>184.0</ele><time>2026-04-18T06:34:19.314Z</time></trkpt><trkpt lat="44.8880014" lon="9.5841235"><ele>184.0</ele><time>2026-04-18T06:34:20.314Z</time></trkpt><trkpt lat="44.8878729" lon="9.5841341"><ele>184.0</ele><time>2026-04-18T06:34:21.314Z</time></trkpt><trkpt lat="44.8877566" lon="9.5840849"><ele>184.0</ele><time>2026-04-18T06:34:22.314Z</time></trkpt><trkpt lat="44.8876559" lon="9.5839898"><ele>184.0</ele><time>2026-04-18T06:34:23.314Z</time></trkpt><trkpt lat="44.8875583" lon="9.5838458"><ele>184.0</ele><time>2026-04-18T06:34:24.314Z</time></trkpt><trkpt lat="44.8874676" lon="9.583694"><ele>184.0</ele><time>2026-04-18T06:34:25.314Z</time></trkpt><trkpt lat="44.8873814" lon="9.5835665"><ele>183.0</ele><time>2026-04-18T06:34:26.314Z</time></trkpt><trkpt lat="44.8872802" lon="9.5834622"><ele>182.0</ele><time>2026-04-18T06:34:27.314Z</time></trkpt><trkpt lat="44.8871595" lon="9.5833853"><ele>181.0</ele><time>2026-04-18T06:34:28.314Z</time></trkpt><trkpt lat="44.8870334" lon="9.5833232"><ele>180.0</ele><time>2026-04-18T06:34:29.314Z</time></trkpt><trkpt lat="44.8868845" lon="9.5833226"><ele>179.75</ele><time>2026-04-18T06:34:30.314Z</time></trkpt><trkpt lat="44.8867357" lon="9.5833489"><ele>179.5</ele><time>2026-04-18T06:34:31.314Z</time></trkpt><trkpt lat="44.886608" lon="9.5833717"><ele>179.25</ele><time>2026-04-18T06:34:32.313Z</time></trkpt><trkpt lat="44.8864819" lon="9.5833836"><ele>179.0</ele><time>2026-04-18T06:34:33.314Z</time></trkpt><trkpt lat="44.886361" lon="9.5833416"><ele>179.0</ele><time>2026-04-18T06:34:34.314Z</time></trkpt><trkpt lat="44.886251" lon="9.5832556"><ele>179.0</ele><time>2026-04-18T06:34:35.314Z</time></trkpt><trkpt lat="44.8861541" lon="9.5831225"><ele>179.0</ele><time>2026-04-18T06:34:36.314Z</time></trkpt><trkpt lat="44.8860587" lon="9.5829416"><ele>179.0</ele><time>2026-04-18T06:34:37.314Z</time></trkpt><trkpt lat="44.8859683" lon="9.5827535"><ele>179.33333333333331</ele><time>2026-04-18T06:34:38.314Z</time></trkpt><trkpt lat="44.8858786" lon="9.5825678"><ele>179.66666666666666</ele><time>2026-04-18T06:34:39.314Z</time></trkpt><trkpt lat="44.8857897" lon="9.582386"><ele>180.0</ele><time>2026-04-18T06:34:40.314Z</time></trkpt><trkpt lat="44.8857029" lon="9.5822006"><ele>178.0</ele><time>2026-04-18T06:34:41.314Z</time></trkpt><trkpt lat="44.885629" lon="9.5820056"><ele>176.0</ele><time>2026-04-18T06:34:42.314Z</time></trkpt><trkpt lat="44.8855747" lon="9.5817903"><ele>174.0</ele><time>2026-04-18T06:34:43.314Z</time></trkpt><trkpt lat="44.8855428" lon="9.5815556"><ele>174.0</ele><time>2026-04-18T06:34:44.314Z</time></trkpt><trkpt lat="44.885523" lon="9.5813199"><ele>174.0</ele><time>2026-04-18T06:34:45.314Z</time></trkpt><trkpt lat="44.8854982" lon="9.5810933"><ele>174.0</ele><time>2026-04-18T06:34:46.314Z</time></trkpt><trkpt lat="44.8854533" lon="9.5808629"><ele>173.33333333333334</ele><time>2026-04-18T06:34:47.314Z</time></trkpt><trkpt lat="44.8853843" lon="9.5806344"><ele>172.66666666666669</ele><time>2026-04-18T06:34:48.314Z</time></trkpt><trkpt lat="44.8853108" lon="9.5804134"><ele>172.0</ele><time>2026-04-18T06:34:49.315Z</time></trkpt><trkpt lat="44.8852211" lon="9.58019"><ele>170.33333333333334</ele><time>2026-04-18T06:34:50.314Z</time></trkpt><trkpt lat="44.8851362" lon="9.5799395"><ele>168.66666666666666</ele><time>2026-04-18T06:34:51.314Z</time></trkpt><trkpt lat="44.8850635" lon="9.5796761"><ele>167.0</ele><time>2026-04-18T06:34:52.314Z</time></trkpt><trkpt lat="44.8850043" lon="9.579413"><ele>170.33333333333331</ele><time>2026-04-18T06:34:53.314Z</time></trkpt><trkpt lat="44.8849567" lon="9.5791542"><ele>173.66666666666666</ele><time>2026-04-18T06:34:54.314Z</time></trkpt><trkpt lat="44.8849099" lon="9.5788967"><ele>177.0</ele><time>2026-04-18T06:34:55.314Z</time></trkpt><trkpt lat="44.8848557" lon="9.5786416"><ele>177.0</ele><time>2026-04-18T06:34:56.314Z</time></trkpt><trkpt lat="44.8848111" lon="9.5783805"><ele>177.0</ele><time>2026-04-18T06:34:57.314Z</time></trkpt><trkpt lat="44.8847666" lon="9.5781311"><ele>177.0</ele><time>2026-04-18T06:34:58.314Z</time></trkpt><trkpt lat="44.8847363" lon="9.5778686"><ele>174.66666666666666</ele><time>2026-04-18T06:34:59.314Z</time></trkpt><trkpt lat="44.8847197" lon="9.5776193"><ele>172.33333333333331</ele><time>2026-04-18T06:35:00.314Z</time></trkpt><trkpt lat="44.8847162" lon="9.5773772"><ele>170.0</ele><time>2026-04-18T06:35:01.314Z</time></trkpt><trkpt lat="44.8847134" lon="9.5771567"><ele>168.75</ele><time>2026-04-18T06:35:02.314Z</time></trkpt><trkpt lat="44.8847089" lon="9.5769555"><ele>167.5</ele><time>2026-04-18T06:35:03.314Z</time></trkpt><trkpt lat="44.8846945" lon="9.5767619"><ele>166.25</ele><time>2026-04-18T06:35:04.314Z</time></trkpt><trkpt lat="44.8846659" lon="9.5765916"><ele>165.0</ele><time>2026-04-18T06:35:05.314Z</time></trkpt><trkpt lat="44.884618" lon="9.5764326"><ele>165.0</ele><time>2026-04-18T06:35:06.314Z</time></trkpt><trkpt lat="44.8845283" lon="9.5762954"><ele>165.0</ele><time>2026-04-18T06:35:07.314Z</time></trkpt><trkpt lat="44.8843987" lon="9.5761694"><ele>165.0</ele><time>2026-04-18T06:35:08.315Z</time></trkpt><trkpt lat="44.8842631" lon="9.5760556"><ele>165.0</ele><time>2026-04-18T06:35:09.313Z</time></trkpt><trkpt lat="44.8841424" lon="9.5759544"><ele>167.0</ele><time>2026-04-18T06:35:10.314Z</time></trkpt><trkpt lat="44.8840424" lon="9.5758448"><ele>169.0</ele><time>2026-04-18T06:35:11.314Z</time></trkpt><trkpt lat="44.8839609" lon="9.5757198"><ele>171.0</ele><time>2026-04-18T06:35:12.314Z</time></trkpt><trkpt lat="44.8839013" lon="9.5755724"><ele>173.0</ele><time>2026-04-18T06:35:13.314Z</time></trkpt><trkpt lat="44.8838697" lon="9.5753743"><ele>171.0</ele><time>2026-04-18T06:35:14.314Z</time></trkpt><trkpt lat="44.8838556" lon="9.5751375"><ele>169.0</ele><time>2026-04-18T06:35:15.315Z</time></trkpt><trkpt lat="44.8838512" lon="9.5749"><ele>167.0</ele><time>2026-04-18T06:35:16.315Z</time></trkpt><trkpt lat="44.8838725" lon="9.5746726"><ele>167.25</ele><time>2026-04-18T06:35:17.315Z</time></trkpt><trkpt lat="44.8838986" lon="9.5744533"><ele>167.5</ele><time>2026-04-18T06:35:18.314Z</time></trkpt><trkpt lat="44.8839323" lon="9.5742487"><ele>167.75</ele><time>2026-04-18T06:35:19.315Z</time></trkpt><trkpt lat="44.883956" lon="9.5740528"><ele>168.0</ele><time>2026-04-18T06:35:20.315Z</time></trkpt><trkpt lat="44.8839489" lon="9.5738455"><ele>168.0</ele><time>2026-04-18T06:35:21.315Z</time></trkpt><trkpt lat="44.8839191" lon="9.5736343"><ele>168.0</ele><time>2026-04-18T06:35:22.315Z</time></trkpt><trkpt lat="44.8838624" lon="9.5734257"><ele>168.0</ele><time>2026-04-18T06:35:23.315Z</time></trkpt><trkpt lat="44.883788" lon="9.5732194"><ele>168.0</ele><time>2026-04-18T06:35:24.315Z</time></trkpt><trkpt lat="44.8837076" lon="9.5730015"><ele>168.0</ele><time>2026-04-18T06:35:25.315Z</time></trkpt><trkpt lat="44.8836302" lon="9.5727675"><ele>168.0</ele><time>2026-04-18T06:35:26.315Z</time></trkpt><trkpt lat="44.8835571" lon="9.572549"><ele>168.33333333333334</ele><time>2026-04-18T06:35:27.315Z</time></trkpt><trkpt lat="44.8834811" lon="9.572336"><ele>168.66666666666669</ele><time>2026-04-18T06:35:28.315Z</time></trkpt><trkpt lat="44.8834022" lon="9.5721085"><ele>169.0</ele><time>2026-04-18T06:35:29.315Z</time></trkpt><trkpt lat="44.8833212" lon="9.5718768"><ele>169.0</ele><time>2026-04-18T06:35:30.315Z</time></trkpt><trkpt lat="44.8832353" lon="9.5716439"><ele>169.0</ele><time>2026-04-18T06:35:31.315Z</time></trkpt><trkpt lat="44.8831527" lon="9.5714062"><ele>169.0</ele><time>2026-04-18T06:35:32.315Z</time></trkpt><trkpt lat="44.8830724" lon="9.5711676"><ele>167.66666666666669</ele><time>2026-04-18T06:35:33.315Z</time></trkpt><trkpt lat="44.8829847" lon="9.5709277"><ele>166.33333333333334</ele><time>2026-04-18T06:35:34.315Z</time></trkpt><trkpt lat="44.8828954" lon="9.5706841"><ele>165.0</ele><time>2026-04-18T06:35:35.315Z</time></trkpt><trkpt lat="44.8828097" lon="9.5704395"><ele>164.33333333333334</ele><time>2026-04-18T06:35:36.315Z</time></trkpt><trkpt lat="44.8827201" lon="9.5701991"><ele>163.66666666666669</ele><time>2026-04-18T06:35:37.315Z</time></trkpt><trkpt lat="44.8826379" lon="9.5699519"><ele>163.0</ele><time>2026-04-18T06:35:38.315Z</time></trkpt><trkpt lat="44.8825553" lon="9.5697048"><ele>165.66666666666669</ele><time>2026-04-18T06:35:39.315Z</time></trkpt><trkpt lat="44.8824714" lon="9.5694611"><ele>168.33333333333334</ele><time>2026-04-18T06:35:40.315Z</time></trkpt><trkpt lat="44.8823833" lon="9.5692206"><ele>171.0</ele><time>2026-04-18T06:35:41.314Z</time></trkpt><trkpt lat="44.8823008" lon="9.5689893"><ele>171.0</ele><time>2026-04-18T06:35:42.315Z</time></trkpt><trkpt lat="44.8822168" lon="9.5687564"><ele>171.0</ele><time>2026-04-18T06:35:43.315Z</time></trkpt><trkpt lat="44.8821326" lon="9.5685215"><ele>171.0</ele><time>2026-04-18T06:35:44.315Z</time></trkpt><trkpt lat="44.8820584" lon="9.5682875"><ele>169.66666666666666</ele><time>2026-04-18T06:35:45.315Z</time></trkpt><trkpt lat="44.8819748" lon="9.5680593"><ele>168.33333333333331</ele><time>2026-04-18T06:35:46.315Z</time></trkpt><trkpt lat="44.8818909" lon="9.5678267"><ele>167.0</ele><time>2026-04-18T06:35:47.315Z</time></trkpt><trkpt lat="44.8817932" lon="9.567607"><ele>167.66666666666666</ele><time>2026-04-18T06:35:48.315Z</time></trkpt><trkpt lat="44.8816932" lon="9.5673916"><ele>168.33333333333334</ele><time>2026-04-18T06:35:49.315Z</time></trkpt><trkpt lat="44.88157" lon="9.5671782"><ele>169.0</ele><time>2026-04-18T06:35:50.315Z</time></trkpt><trkpt lat="44.8814305" lon="9.5669719"><ele>169.0</ele><time>2026-04-18T06:35:51.315Z</time></trkpt><trkpt lat="44.8812634" lon="9.5667499"><ele>169.0</ele><time>2026-04-18T06:35:52.315Z</time></trkpt><trkpt lat="44.8810804" lon="9.5665069"><ele>169.0</ele><time>2026-04-18T06:35:53.315Z</time></trkpt><trkpt lat="44.8808889" lon="9.5662503"><ele>169.0</ele><time>2026-04-18T06:35:54.315Z</time></trkpt><trkpt lat="44.8806866" lon="9.5659861"><ele>169.0</ele><time>2026-04-18T06:35:55.315Z</time></trkpt><trkpt lat="44.88048" lon="9.5657073"><ele>169.0</ele><time>2026-04-18T06:35:56.315Z</time></trkpt><trkpt lat="44.8802736" lon="9.565432"><ele>171.5</ele><time>2026-04-18T06:35:57.314Z</time></trkpt><trkpt lat="44.8800753" lon="9.5651671"><ele>174.0</ele><time>2026-04-18T06:35:58.315Z</time></trkpt><trkpt lat="44.8798789" lon="9.5648997"><ele>174.0</ele><time>2026-04-18T06:35:59.315Z</time></trkpt><trkpt lat="44.8796952" lon="9.5646402"><ele>174.0</ele><time>2026-04-18T06:36:00.314Z</time></trkpt><trkpt lat="44.8795135" lon="9.5643988"><ele>177.5</ele><time>2026-04-18T06:36:01.315Z</time></trkpt><trkpt lat="44.8793373" lon="9.5641646"><ele>181.0</ele><time>2026-04-18T06:36:02.315Z</time></trkpt><trkpt lat="44.8791737" lon="9.5639419"><ele>181.0</ele><time>2026-04-18T06:36:03.315Z</time></trkpt><trkpt lat="44.8790177" lon="9.5637186"><ele>181.0</ele><time>2026-04-18T06:36:04.315Z</time></trkpt><trkpt lat="44.8788513" lon="9.5634978"><ele>178.66666666666669</ele><time>2026-04-18T06:36:05.315Z</time></trkpt><trkpt lat="44.8786889" lon="9.563281"><ele>176.33333333333334</ele><time>2026-04-18T06:36:06.315Z</time></trkpt><trkpt lat="44.878529" lon="9.5630619"><ele>174.0</ele><time>2026-04-18T06:36:07.315Z</time></trkpt><trkpt lat="44.8783494" lon="9.56286"><ele>174.0</ele><time>2026-04-18T06:36:08.315Z</time></trkpt><trkpt lat="44.8781759" lon="9.5626712"><ele>174.0</ele><time>2026-04-18T06:36:09.315Z</time></trkpt><trkpt lat="44.8780107" lon="9.5624953"><ele>174.0</ele><time>2026-04-18T06:36:10.315Z</time></trkpt><trkpt lat="44.877834" lon="9.5623045"><ele>174.0</ele><time>2026-04-18T06:36:11.315Z</time></trkpt><trkpt lat="44.8776491" lon="9.5621078"><ele>174.0</ele><time>2026-04-18T06:36:12.315Z</time></trkpt><trkpt lat="44.8774676" lon="9.5619208"><ele>174.33333333333334</ele><time>2026-04-18T06:36:13.315Z</time></trkpt><trkpt lat="44.8772981" lon="9.5617439"><ele>174.66666666666669</ele><time>2026-04-18T06:36:14.315Z</time></trkpt><trkpt lat="44.8771296" lon="9.5615673"><ele>175.0</ele><time>2026-04-18T06:36:15.315Z</time></trkpt><trkpt lat="44.8769798" lon="9.561407"><ele>175.0</ele><time>2026-04-18T06:36:16.316Z</time></trkpt><trkpt lat="44.8768261" lon="9.5612647"><ele>175.0</ele><time>2026-04-18T06:36:17.315Z</time></trkpt><trkpt lat="44.8766694" lon="9.5611375"><ele>175.0</ele><time>2026-04-18T06:36:18.315Z</time></trkpt><trkpt lat="44.876505" lon="9.5610424"><ele>175.0</ele><time>2026-04-18T06:36:19.315Z</time></trkpt><trkpt lat="44.8763452" lon="9.560972"><ele>175.0</ele><time>2026-04-18T06:36:20.315Z</time></trkpt><trkpt lat="44.8761864" lon="9.5609099"><ele>175.0</ele><time>2026-04-18T06:36:21.315Z</time></trkpt><trkpt lat="44.876022" lon="9.5608823"><ele>175.33333333333334</ele><time>2026-04-18T06:36:22.315Z</time></trkpt><trkpt lat="44.875837" lon="9.5608882"><ele>175.66666666666666</ele><time>2026-04-18T06:36:23.316Z</time></trkpt><trkpt lat="44.8756473" lon="9.5609218"><ele>176.0</ele><time>2026-04-18T06:36:24.316Z</time></trkpt><trkpt lat="44.875469" lon="9.5609684"><ele>176.0</ele><time>2026-04-18T06:36:25.316Z</time></trkpt><trkpt lat="44.8752929" lon="9.5610074"><ele>176.0</ele><time>2026-04-18T06:36:26.316Z</time></trkpt><trkpt lat="44.8751389" lon="9.561037"><ele>176.0</ele><time>2026-04-18T06:36:27.316Z</time></trkpt><trkpt lat="44.8750003" lon="9.56106"><ele>176.25</ele><time>2026-04-18T06:36:28.316Z</time></trkpt><trkpt lat="44.8748693" lon="9.5610667"><ele>176.5</ele><time>2026-04-18T06:36:29.315Z</time></trkpt><trkpt lat="44.8747365" lon="9.5610271"><ele>176.75</ele><time>2026-04-18T06:36:30.316Z</time></trkpt><trkpt lat="44.8745954" lon="9.5609386"><ele>177.0</ele><time>2026-04-18T06:36:31.316Z</time></trkpt><trkpt lat="44.8744297" lon="9.5608204"><ele>177.66666666666666</ele><time>2026-04-18T06:36:32.316Z</time></trkpt><trkpt lat="44.8742518" lon="9.560692"><ele>178.33333333333331</ele><time>2026-04-18T06:36:33.316Z</time></trkpt><trkpt lat="44.8740648" lon="9.5605624"><ele>179.0</ele><time>2026-04-18T06:36:34.316Z</time></trkpt><trkpt lat="44.8738609" lon="9.5604169"><ele>176.5</ele><time>2026-04-18T06:36:35.316Z</time></trkpt><trkpt lat="44.8736528" lon="9.5602731"><ele>174.0</ele><time>2026-04-18T06:36:36.316Z</time></trkpt><trkpt lat="44.8734458" lon="9.5601201"><ele>176.33333333333334</ele><time>2026-04-18T06:36:37.316Z</time></trkpt><trkpt lat="44.8732591" lon="9.5599811"><ele>178.66666666666669</ele><time>2026-04-18T06:36:38.316Z</time></trkpt><trkpt lat="44.8730703" lon="9.5598418"><ele>181.0</ele><time>2026-04-18T06:36:39.316Z</time></trkpt><trkpt lat="44.872894" lon="9.5597096"><ele>181.0</ele><time>2026-04-18T06:36:40.316Z</time></trkpt><trkpt lat="44.8727348" lon="9.5595905"><ele>181.0</ele><time>2026-04-18T06:36:41.316Z</time></trkpt><trkpt lat="44.8725883" lon="9.5594873"><ele>181.0</ele><time>2026-04-18T06:36:42.316Z</time></trkpt><trkpt lat="44.872453" lon="9.5593831"><ele>180.0</ele><time>2026-04-18T06:36:43.316Z</time></trkpt><trkpt lat="44.8723297" lon="9.5592493"><ele>179.0</ele><time>2026-04-18T06:36:44.316Z</time></trkpt><trkpt lat="44.872218" lon="9.5590924"><ele>178.0</ele><time>2026-04-18T06:36:45.316Z</time></trkpt><trkpt lat="44.8721372" lon="9.5588948"><ele>176.66666666666669</ele><time>2026-04-18T06:36:46.316Z</time></trkpt><trkpt lat="44.8720697" lon="9.5586863"><ele>175.33333333333334</ele><time>2026-04-18T06:36:47.316Z</time></trkpt><trkpt lat="44.8720037" lon="9.5584978"><ele>174.0</ele><time>2026-04-18T06:36:48.316Z</time></trkpt><trkpt lat="44.8719404" lon="9.55832"><ele>174.0</ele><time>2026-04-18T06:36:49.316Z</time></trkpt><trkpt lat="44.8718593" lon="9.5581388"><ele>174.0</ele><time>2026-04-18T06:36:50.316Z</time></trkpt><trkpt lat="44.871768" lon="9.5579762"><ele>174.0</ele><time>2026-04-18T06:36:51.316Z</time></trkpt><trkpt lat="44.8716541" lon="9.5578389"><ele>174.0</ele><time>2026-04-18T06:36:52.316Z</time></trkpt><trkpt lat="44.871531" lon="9.5577289"><ele>175.0</ele><time>2026-04-18T06:36:53.316Z</time></trkpt><trkpt lat="44.8713977" lon="9.5576478"><ele>176.0</ele><time>2026-04-18T06:36:54.316Z</time></trkpt><trkpt lat="44.8712616" lon="9.557594"><ele>177.0</ele><time>2026-04-18T06:36:55.316Z</time></trkpt><trkpt lat="44.8711019" lon="9.5575852"><ele>178.0</ele><time>2026-04-18T06:36:56.316Z</time></trkpt><trkpt lat="44.8709369" lon="9.5576112"><ele>180.66666666666669</ele><time>2026-04-18T06:36:57.316Z</time></trkpt><trkpt lat="44.8707573" lon="9.5576586"><ele>183.33333333333334</ele><time>2026-04-18T06:36:58.316Z</time></trkpt><trkpt lat="44.8705748" lon="9.5577184"><ele>186.0</ele><time>2026-04-18T06:36:59.316Z</time></trkpt><trkpt lat="44.8704018" lon="9.557771"><ele>186.0</ele><time>2026-04-18T06:37:00.316Z</time></trkpt><trkpt lat="44.8702351" lon="9.557819"><ele>186.0</ele><time>2026-04-18T06:37:01.316Z</time></trkpt><trkpt lat="44.8700838" lon="9.5578663"><ele>186.0</ele><time>2026-04-18T06:37:02.315Z</time></trkpt><trkpt lat="44.8699294" lon="9.5579001"><ele>189.33333333333331</ele><time>2026-04-18T06:37:03.316Z</time></trkpt><trkpt lat="44.8697716" lon="9.5579201"><ele>192.66666666666666</ele><time>2026-04-18T06:37:04.316Z</time></trkpt><trkpt lat="44.8696046" lon="9.5579135"><ele>196.0</ele><time>2026-04-18T06:37:05.316Z</time></trkpt><trkpt lat="44.8694391" lon="9.5578887"><ele>192.33333333333331</ele><time>2026-04-18T06:37:06.316Z</time></trkpt><trkpt lat="44.8692784" lon="9.5578529"><ele>188.66666666666666</ele><time>2026-04-18T06:37:07.316Z</time></trkpt><trkpt lat="44.8691319" lon="9.5578063"><ele>185.0</ele><time>2026-04-18T06:37:08.316Z</time></trkpt><trkpt lat="44.8689954" lon="9.5577368"><ele>185.0</ele><time>2026-04-18T06:37:09.316Z</time></trkpt><trkpt lat="44.8688683" lon="9.5576282"><ele>185.0</ele><time>2026-04-18T06:37:10.316Z</time></trkpt><trkpt lat="44.8687648" lon="9.5574825"><ele>185.0</ele><time>2026-04-18T06:37:11.316Z</time></trkpt><trkpt lat="44.8686723" lon="9.5573028"><ele>185.0</ele><time>2026-04-18T06:37:12.316Z</time></trkpt><trkpt lat="44.868578" lon="9.5570927"><ele>185.0</ele><time>2026-04-18T06:37:13.316Z</time></trkpt><trkpt lat="44.8684968" lon="9.5569034"><ele>185.0</ele><time>2026-04-18T06:37:14.316Z</time></trkpt><trkpt lat="44.8684178" lon="9.5567277"><ele>185.75</ele><time>2026-04-18T06:37:15.316Z</time></trkpt><trkpt lat="44.868328" lon="9.5565657"><ele>186.5</ele><time>2026-04-18T06:37:16.316Z</time></trkpt><trkpt lat="44.8682248" lon="9.556421"><ele>187.25</ele><time>2026-04-18T06:37:17.315Z</time></trkpt><trkpt lat="44.8680976" lon="9.5563116"><ele>188.0</ele><time>2026-04-18T06:37:18.316Z</time></trkpt><trkpt lat="44.8679531" lon="9.5562356"><ele>187.33333333333331</ele><time>2026-04-18T06:37:19.316Z</time></trkpt><trkpt lat="44.8677862" lon="9.5561876"><ele>186.66666666666666</ele><time>2026-04-18T06:37:20.316Z</time></trkpt><trkpt lat="44.8676269" lon="9.5561447"><ele>186.0</ele><time>2026-04-18T06:37:21.316Z</time></trkpt><trkpt lat="44.8674777" lon="9.5561026"><ele>186.0</ele><time>2026-04-18T06:37:22.316Z</time></trkpt><trkpt lat="44.8673335" lon="9.5560437"><ele>186.0</ele><time>2026-04-18T06:37:23.315Z</time></trkpt><trkpt lat="44.8672024" lon="9.5559723"><ele>186.0</ele><time>2026-04-18T06:37:24.316Z</time></trkpt><trkpt lat="44.8670732" lon="9.5558692"><ele>186.0</ele><time>2026-04-18T06:37:25.316Z</time></trkpt><trkpt lat="44.8669427" lon="9.5557423"><ele>186.0</ele><time>2026-04-18T06:37:26.316Z</time></trkpt><trkpt lat="44.8668127" lon="9.5555709"><ele>186.0</ele><time>2026-04-18T06:37:27.316Z</time></trkpt><trkpt lat="44.8666823" lon="9.5553995"><ele>186.0</ele><time>2026-04-18T06:37:28.316Z</time></trkpt><trkpt lat="44.8665601" lon="9.5552335"><ele>186.0</ele><time>2026-04-18T06:37:29.316Z</time></trkpt><trkpt lat="44.8664455" lon="9.5550793"><ele>186.0</ele><time>2026-04-18T06:37:30.316Z</time></trkpt><trkpt lat="44.8663424" lon="9.5549376"><ele>186.0</ele><time>2026-04-18T06:37:31.316Z</time></trkpt><trkpt lat="44.8662445" lon="9.5548165"><ele>186.0</ele><time>2026-04-18T06:37:32.316Z</time></trkpt><trkpt lat="44.8661311" lon="9.5547219"><ele>186.0</ele><time>2026-04-18T06:37:33.317Z</time></trkpt><trkpt lat="44.8660103" lon="9.5546643"><ele>186.0</ele><time>2026-04-18T06:37:34.317Z</time></trkpt><trkpt lat="44.8658798" lon="9.5546394"><ele>186.0</ele><time>2026-04-18T06:37:35.317Z</time></trkpt><trkpt lat="44.8657167" lon="9.5546662"><ele>186.0</ele><time>2026-04-18T06:37:36.317Z</time></trkpt><trkpt lat="44.8655209" lon="9.5547217"><ele>188.33333333333331</ele><time>2026-04-18T06:37:37.317Z</time></trkpt><trkpt lat="44.8653281" lon="9.5547747"><ele>190.66666666666666</ele><time>2026-04-18T06:37:38.317Z</time></trkpt><trkpt lat="44.8651267" lon="9.554832"><ele>193.0</ele><time>2026-04-18T06:37:39.317Z</time></trkpt><trkpt lat="44.8649231" lon="9.5548925"><ele>193.0</ele><time>2026-04-18T06:37:40.317Z</time></trkpt><trkpt lat="44.8647258" lon="9.5549382"><ele>193.0</ele><time>2026-04-18T06:37:41.317Z</time></trkpt><trkpt lat="44.8645457" lon="9.5549916"><ele>193.0</ele><time>2026-04-18T06:37:42.317Z</time></trkpt><trkpt lat="44.8643765" lon="9.5550474"><ele>191.33333333333331</ele><time>2026-04-18T06:37:43.317Z</time></trkpt><trkpt lat="44.8642088" lon="9.5551063"><ele>189.66666666666666</ele><time>2026-04-18T06:37:44.317Z</time></trkpt><trkpt lat="44.8640494" lon="9.5551654"><ele>188.0</ele><time>2026-04-18T06:37:45.317Z</time></trkpt><trkpt lat="44.8638986" lon="9.5552042"><ele>188.0</ele><time>2026-04-18T06:37:46.317Z</time></trkpt><trkpt lat="44.863753" lon="9.5552255"><ele>188.0</ele><time>2026-04-18T06:37:47.317Z</time></trkpt><trkpt lat="44.8636076" lon="9.5552205"><ele>188.0</ele><time>2026-04-18T06:37:48.317Z</time></trkpt><trkpt lat="44.8634648" lon="9.5551765"><ele>188.0</ele><time>2026-04-18T06:37:49.317Z</time></trkpt><trkpt lat="44.8633283" lon="9.5551112"><ele>188.0</ele><time>2026-04-18T06:37:50.317Z</time></trkpt><trkpt lat="44.8631964" lon="9.555005"><ele>188.0</ele><time>2026-04-18T06:37:51.317Z</time></trkpt><trkpt lat="44.8630723" lon="9.5548683"><ele>188.0</ele><time>2026-04-18T06:37:52.317Z</time></trkpt><trkpt lat="44.8629679" lon="9.5546932"><ele>185.33333333333331</ele><time>2026-04-18T06:37:53.317Z</time></trkpt><trkpt lat="44.8628725" lon="9.5545003"><ele>182.66666666666666</ele><time>2026-04-18T06:37:54.317Z</time></trkpt><trkpt lat="44.8627906" lon="9.5543039"><ele>180.0</ele><time>2026-04-18T06:37:55.317Z</time></trkpt><trkpt lat="44.862713" lon="9.5541209"><ele>180.0</ele><time>2026-04-18T06:37:56.317Z</time></trkpt><trkpt lat="44.8626283" lon="9.5539434"><ele>180.0</ele><time>2026-04-18T06:37:57.317Z</time></trkpt><trkpt lat="44.8625052" lon="9.5537924"><ele>180.0</ele><time>2026-04-18T06:37:58.317Z</time></trkpt><trkpt lat="44.8623623" lon="9.5536682"><ele>180.0</ele><time>2026-04-18T06:37:59.317Z</time></trkpt><trkpt lat="44.8622118" lon="9.5535576"><ele>180.0</ele><time>2026-04-18T06:38:00.317Z</time></trkpt><trkpt lat="44.8620702" lon="9.5534672"><ele>180.0</ele><time>2026-04-18T06:38:01.317Z</time></trkpt><trkpt lat="44.861951" lon="9.5533666"><ele>180.0</ele><time>2026-04-18T06:38:02.317Z</time></trkpt><trkpt lat="44.8618355" lon="9.5532463"><ele>180.0</ele><time>2026-04-18T06:38:03.317Z</time></trkpt><trkpt lat="44.8617169" lon="9.553068"><ele>180.0</ele><time>2026-04-18T06:38:04.317Z</time></trkpt><trkpt lat="44.8616188" lon="9.5528688"><ele>181.66666666666666</ele><time>2026-04-18T06:38:05.317Z</time></trkpt><trkpt lat="44.861536" lon="9.552671"><ele>183.33333333333331</ele><time>2026-04-18T06:38:06.317Z</time></trkpt><trkpt lat="44.861457" lon="9.5524762"><ele>185.0</ele><time>2026-04-18T06:38:07.317Z</time></trkpt><trkpt lat="44.8613722" lon="9.5522862"><ele>185.0</ele><time>2026-04-18T06:38:08.317Z</time></trkpt><trkpt lat="44.861278" lon="9.5521256"><ele>185.0</ele><time>2026-04-18T06:38:09.317Z</time></trkpt><trkpt lat="44.86116" lon="9.5519782"><ele>185.0</ele><time>2026-04-18T06:38:10.317Z</time></trkpt><trkpt lat="44.8610239" lon="9.5518421"><ele>185.66666666666666</ele><time>2026-04-18T06:38:11.317Z</time></trkpt><trkpt lat="44.8608807" lon="9.5516954"><ele>186.33333333333334</ele><time>2026-04-18T06:38:12.317Z</time></trkpt><trkpt lat="44.8607294" lon="9.5515407"><ele>187.0</ele><time>2026-04-18T06:38:13.317Z</time></trkpt><trkpt lat="44.8605832" lon="9.551385"><ele>187.0</ele><time>2026-04-18T06:38:14.317Z</time></trkpt><trkpt lat="44.8604417" lon="9.5512209"><ele>187.0</ele><time>2026-04-18T06:38:15.317Z</time></trkpt><trkpt lat="44.8603034" lon="9.5510504"><ele>187.0</ele><time>2026-04-18T06:38:16.317Z</time></trkpt><trkpt lat="44.8601779" lon="9.550882"><ele>189.33333333333334</ele><time>2026-04-18T06:38:17.317Z</time></trkpt><trkpt lat="44.8600326" lon="9.5506867"><ele>191.66666666666669</ele><time>2026-04-18T06:38:18.317Z</time></trkpt><trkpt lat="44.8598739" lon="9.5504909"><ele>194.0</ele><time>2026-04-18T06:38:19.317Z</time></trkpt><trkpt lat="44.8597134" lon="9.5503018"><ele>196.33333333333334</ele><time>2026-04-18T06:38:20.316Z</time></trkpt><trkpt lat="44.859532" lon="9.5501235"><ele>198.66666666666669</ele><time>2026-04-18T06:38:21.317Z</time></trkpt><trkpt lat="44.8593536" lon="9.5499437"><ele>201.0</ele><time>2026-04-18T06:38:22.317Z</time></trkpt><trkpt lat="44.8591828" lon="9.5497715"><ele>201.0</ele><time>2026-04-18T06:38:23.316Z</time></trkpt><trkpt lat="44.8590061" lon="9.5496027"><ele>201.0</ele><time>2026-04-18T06:38:24.317Z</time></trkpt><trkpt lat="44.8588354" lon="9.5494369"><ele>201.0</ele><time>2026-04-18T06:38:25.317Z</time></trkpt><trkpt lat="44.8586759" lon="9.5492868"><ele>200.66666666666669</ele><time>2026-04-18T06:38:26.317Z</time></trkpt><trkpt lat="44.8585291" lon="9.5491401"><ele>200.33333333333334</ele><time>2026-04-18T06:38:27.317Z</time></trkpt><trkpt lat="44.8583935" lon="9.5489963"><ele>200.0</ele><time>2026-04-18T06:38:28.317Z</time></trkpt><trkpt lat="44.8582721" lon="9.5488562"><ele>200.0</ele><time>2026-04-18T06:38:29.317Z</time></trkpt><trkpt lat="44.8581379" lon="9.5487165"><ele>200.0</ele><time>2026-04-18T06:38:30.317Z</time></trkpt><trkpt lat="44.8580069" lon="9.5485982"><ele>200.0</ele><time>2026-04-18T06:38:31.317Z</time></trkpt><trkpt lat="44.857849" lon="9.5485046"><ele>195.0</ele><time>2026-04-18T06:38:32.317Z</time></trkpt><trkpt lat="44.8576855" lon="9.5484135"><ele>190.0</ele><time>2026-04-18T06:38:33.317Z</time></trkpt><trkpt lat="44.8575143" lon="9.5483265"><ele>185.0</ele><time>2026-04-18T06:38:34.317Z</time></trkpt><trkpt lat="44.8573418" lon="9.5482447"><ele>185.0</ele><time>2026-04-18T06:38:35.317Z</time></trkpt><trkpt lat="44.8571529" lon="9.5481553"><ele>185.0</ele><time>2026-04-18T06:38:36.317Z</time></trkpt><trkpt lat="44.8569686" lon="9.5480734"><ele>185.0</ele><time>2026-04-18T06:38:37.317Z</time></trkpt><trkpt lat="44.8567957" lon="9.5479904"><ele>186.0</ele><time>2026-04-18T06:38:38.317Z</time></trkpt><trkpt lat="44.8566303" lon="9.5479117"><ele>187.0</ele><time>2026-04-18T06:38:39.317Z</time></trkpt><trkpt lat="44.8564754" lon="9.5478337"><ele>188.0</ele><time>2026-04-18T06:38:40.316Z</time></trkpt><trkpt lat="44.8563282" lon="9.5477468"><ele>188.33333333333331</ele><time>2026-04-18T06:38:41.317Z</time></trkpt><trkpt lat="44.8561895" lon="9.5476423"><ele>188.66666666666666</ele><time>2026-04-18T06:38:42.317Z</time></trkpt><trkpt lat="44.8560543" lon="9.5475099"><ele>189.0</ele><time>2026-04-18T06:38:43.317Z</time></trkpt><trkpt lat="44.8559274" lon="9.5473493"><ele>189.0</ele><time>2026-04-18T06:38:44.318Z</time></trkpt><trkpt lat="44.8557897" lon="9.5471835"><ele>189.0</ele><time>2026-04-18T06:38:45.317Z</time></trkpt><trkpt lat="44.8556514" lon="9.5470162"><ele>189.0</ele><time>2026-04-18T06:38:46.318Z</time></trkpt><trkpt lat="44.8555046" lon="9.5468366"><ele>189.66666666666666</ele><time>2026-04-18T06:38:47.317Z</time></trkpt><trkpt lat="44.8553605" lon="9.5466561"><ele>190.33333333333331</ele><time>2026-04-18T06:38:48.318Z</time></trkpt><trkpt lat="44.8552119" lon="9.5464706"><ele>191.0</ele><time>2026-04-18T06:38:49.318Z</time></trkpt><trkpt lat="44.855068" lon="9.5462894"><ele>188.33333333333331</ele><time>2026-04-18T06:38:50.318Z</time></trkpt><trkpt lat="44.8549293" lon="9.5461155"><ele>185.66666666666666</ele><time>2026-04-18T06:38:51.318Z</time></trkpt><trkpt lat="44.8547925" lon="9.5459465"><ele>183.0</ele><time>2026-04-18T06:38:52.318Z</time></trkpt><trkpt lat="44.8546574" lon="9.5457591"><ele>183.0</ele><time>2026-04-18T06:38:53.318Z</time></trkpt><trkpt lat="44.8545168" lon="9.5455356"><ele>183.0</ele><time>2026-04-18T06:38:54.318Z</time></trkpt><trkpt lat="44.8543912" lon="9.5453093"><ele>183.0</ele><time>2026-04-18T06:38:55.318Z</time></trkpt><trkpt lat="44.8542777" lon="9.5450913"><ele>182.66666666666666</ele><time>2026-04-18T06:38:56.318Z</time></trkpt><trkpt lat="44.8541726" lon="9.5448897"><ele>182.33333333333331</ele><time>2026-04-18T06:38:57.318Z</time></trkpt><trkpt lat="44.8540786" lon="9.5447032"><ele>182.0</ele><time>2026-04-18T06:38:58.318Z</time></trkpt><trkpt lat="44.8539986" lon="9.5444957"><ele>182.0</ele><time>2026-04-18T06:38:59.318Z</time></trkpt><trkpt lat="44.8539381" lon="9.5442491"><ele>182.0</ele><time>2026-04-18T06:39:00.318Z</time></trkpt><trkpt lat="44.8538941" lon="9.5439639"><ele>182.0</ele><time>2026-04-18T06:39:01.318Z</time></trkpt><trkpt lat="44.8538541" lon="9.5437013"><ele>181.33333333333331</ele><time>2026-04-18T06:39:02.318Z</time></trkpt><trkpt lat="44.8538127" lon="9.5434594"><ele>180.66666666666666</ele><time>2026-04-18T06:39:03.318Z</time></trkpt><trkpt lat="44.8537777" lon="9.5432467"><ele>180.0</ele><time>2026-04-18T06:39:04.318Z</time></trkpt><trkpt lat="44.8537208" lon="9.5430363"><ele>178.0</ele><time>2026-04-18T06:39:05.318Z</time></trkpt><trkpt lat="44.8536556" lon="9.5428048"><ele>176.0</ele><time>2026-04-18T06:39:06.318Z</time></trkpt><trkpt lat="44.8535592" lon="9.5425951"><ele>174.0</ele><time>2026-04-18T06:39:07.318Z</time></trkpt><trkpt lat="44.8534201" lon="9.5424206"><ele>175.66666666666666</ele><time>2026-04-18T06:39:08.318Z</time></trkpt><trkpt lat="44.8532582" lon="9.5422697"><ele>177.33333333333331</ele><time>2026-04-18T06:39:09.318Z</time></trkpt><trkpt lat="44.8530855" lon="9.5421324"><ele>179.0</ele><time>2026-04-18T06:39:10.318Z</time></trkpt><trkpt lat="44.8529161" lon="9.5420054"><ele>179.0</ele><time>2026-04-18T06:39:11.318Z</time></trkpt><trkpt lat="44.8527467" lon="9.5418795"><ele>179.0</ele><time>2026-04-18T06:39:12.318Z</time></trkpt><trkpt lat="44.8525762" lon="9.5417629"><ele>179.0</ele><time>2026-04-18T06:39:13.318Z</time></trkpt><trkpt lat="44.8524157" lon="9.5416532"><ele>183.66666666666666</ele><time>2026-04-18T06:39:14.318Z</time></trkpt><trkpt lat="44.8522703" lon="9.5415558"><ele>188.33333333333331</ele><time>2026-04-18T06:39:15.318Z</time></trkpt><trkpt lat="44.8521273" lon="9.5414666"><ele>193.0</ele><time>2026-04-18T06:39:16.318Z</time></trkpt><trkpt lat="44.8519958" lon="9.5413899"><ele>193.0</ele><time>2026-04-18T06:39:17.318Z</time></trkpt><trkpt lat="44.8518621" lon="9.5413125"><ele>193.0</ele><time>2026-04-18T06:39:18.318Z</time></trkpt><trkpt lat="44.8517354" lon="9.5412374"><ele>193.0</ele><time>2026-04-18T06:39:19.318Z</time></trkpt><trkpt lat="44.8516135" lon="9.5411562"><ele>193.0</ele><time>2026-04-18T06:39:20.318Z</time></trkpt><trkpt lat="44.8514916" lon="9.5410766"><ele>192.25</ele><time>2026-04-18T06:39:21.318Z</time></trkpt><trkpt lat="44.8513723" lon="9.54101"><ele>191.5</ele><time>2026-04-18T06:39:22.318Z</time></trkpt><trkpt lat="44.8512584" lon="9.5409531"><ele>190.75</ele><time>2026-04-18T06:39:23.318Z</time></trkpt><trkpt lat="44.8511449" lon="9.540909"><ele>190.0</ele><time>2026-04-18T06:39:24.318Z</time></trkpt><trkpt lat="44.8510188" lon="9.5408821"><ele>190.5</ele><time>2026-04-18T06:39:25.318Z</time></trkpt><trkpt lat="44.8508829" lon="9.5408744"><ele>191.0</ele><time>2026-04-18T06:39:26.318Z</time></trkpt><trkpt lat="44.8507464" lon="9.540859"><ele>191.5</ele><time>2026-04-18T06:39:27.318Z</time></trkpt><trkpt lat="44.850625" lon="9.540831"><ele>192.0</ele><time>2026-04-18T06:39:28.318Z</time></trkpt><trkpt lat="44.8505029" lon="9.5408142"><ele>192.0</ele><time>2026-04-18T06:39:29.318Z</time></trkpt><trkpt lat="44.8503844" lon="9.5407981"><ele>192.0</ele><time>2026-04-18T06:39:30.318Z</time></trkpt><trkpt lat="44.850265" lon="9.5407907"><ele>192.0</ele><time>2026-04-18T06:39:31.318Z</time></trkpt><trkpt lat="44.8501516" lon="9.5407758"><ele>192.0</ele><time>2026-04-18T06:39:32.318Z</time></trkpt><trkpt lat="44.8500398" lon="9.5407643"><ele>191.5</ele><time>2026-04-18T06:39:33.318Z</time></trkpt><trkpt lat="44.8499219" lon="9.5407514"><ele>191.0</ele><time>2026-04-18T06:39:34.318Z</time></trkpt><trkpt lat="44.8497809" lon="9.5407416"><ele>190.5</ele><time>2026-04-18T06:39:35.318Z</time></trkpt><trkpt lat="44.8496095" lon="9.5407347"><ele>190.0</ele><time>2026-04-18T06:39:36.318Z</time></trkpt><trkpt lat="44.8494185" lon="9.5407107"><ele>191.0</ele><time>2026-04-18T06:39:37.318Z</time></trkpt><trkpt lat="44.8492408" lon="9.5406866"><ele>192.0</ele><time>2026-04-18T06:39:38.318Z</time></trkpt><trkpt lat="44.8490661" lon="9.5406515"><ele>193.0</ele><time>2026-04-18T06:39:39.318Z</time></trkpt><trkpt lat="44.8489008" lon="9.5406289"><ele>193.0</ele><time>2026-04-18T06:39:40.318Z</time></trkpt><trkpt lat="44.8487443" lon="9.5406141"><ele>193.0</ele><time>2026-04-18T06:39:41.318Z</time></trkpt><trkpt lat="44.8486046" lon="9.5405942"><ele>193.0</ele><time>2026-04-18T06:39:42.319Z</time></trkpt><trkpt lat="44.8484585" lon="9.5405649"><ele>193.0</ele><time>2026-04-18T06:39:43.318Z</time></trkpt><trkpt lat="44.8483282" lon="9.540495"><ele>192.0</ele><time>2026-04-18T06:39:44.318Z</time></trkpt><trkpt lat="44.8481963" lon="9.540391"><ele>191.0</ele><time>2026-04-18T06:39:45.318Z</time></trkpt><trkpt lat="44.8480777" lon="9.5402449"><ele>190.0</ele><time>2026-04-18T06:39:46.318Z</time></trkpt><trkpt lat="44.8479512" lon="9.5400773"><ele>189.5</ele><time>2026-04-18T06:39:47.318Z</time></trkpt><trkpt lat="44.8478241" lon="9.5398879"><ele>189.0</ele><time>2026-04-18T06:39:48.318Z</time></trkpt><trkpt lat="44.847573" lon="9.5395046"><ele>189.0</ele><time>2026-04-18T06:39:50.318Z</time></trkpt><trkpt lat="44.8474533" lon="9.5393304"><ele>189.0</ele><time>2026-04-18T06:39:51.318Z</time></trkpt><trkpt lat="44.8473404" lon="9.5391514"><ele>189.0</ele><time>2026-04-18T06:39:52.318Z</time></trkpt><trkpt lat="44.8472214" lon="9.5389701"><ele>189.0</ele><time>2026-04-18T06:39:53.319Z</time></trkpt><trkpt lat="44.8470931" lon="9.5388046"><ele>189.0</ele><time>2026-04-18T06:39:54.319Z</time></trkpt><trkpt lat="44.8469539" lon="9.53865"><ele>189.0</ele><time>2026-04-18T06:39:55.319Z</time></trkpt><trkpt lat="44.8468017" lon="9.5385206"><ele>188.66666666666666</ele><time>2026-04-18T06:39:56.319Z</time></trkpt><trkpt lat="44.8466365" lon="9.5384073"><ele>188.33333333333331</ele><time>2026-04-18T06:39:57.319Z</time></trkpt><trkpt lat="44.8464702" lon="9.5383048"><ele>188.0</ele><time>2026-04-18T06:39:58.319Z</time></trkpt><trkpt lat="44.8463112" lon="9.5382233"><ele>188.0</ele><time>2026-04-18T06:39:59.319Z</time></trkpt><trkpt lat="44.8461624" lon="9.5381411"><ele>188.0</ele><time>2026-04-18T06:40:00.318Z</time></trkpt><trkpt lat="44.846044" lon="9.5380545"><ele>188.0</ele><time>2026-04-18T06:40:01.319Z</time></trkpt><trkpt lat="44.8459465" lon="9.5379518"><ele>188.0</ele><time>2026-04-18T06:40:02.319Z</time></trkpt><trkpt lat="44.8458642" lon="9.5378005"><ele>189.33333333333331</ele><time>2026-04-18T06:40:03.319Z</time></trkpt><trkpt lat="44.8457824" lon="9.5376054"><ele>190.66666666666666</ele><time>2026-04-18T06:40:04.319Z</time></trkpt><trkpt lat="44.8456984" lon="9.5374154"><ele>192.0</ele><time>2026-04-18T06:40:05.319Z</time></trkpt><trkpt lat="44.8456066" lon="9.5372534"><ele>192.0</ele><time>2026-04-18T06:40:06.319Z</time></trkpt><trkpt lat="44.8455242" lon="9.5371049"><ele>192.0</ele><time>2026-04-18T06:40:07.319Z</time></trkpt><trkpt lat="44.8454109" lon="9.5369668"><ele>192.0</ele><time>2026-04-18T06:40:08.319Z</time></trkpt><trkpt lat="44.8452698" lon="9.5368568"><ele>192.0</ele><time>2026-04-18T06:40:09.319Z</time></trkpt><trkpt lat="44.8451252" lon="9.5367798"><ele>193.25</ele><time>2026-04-18T06:40:10.318Z</time></trkpt><trkpt lat="44.844996" lon="9.5367054"><ele>194.5</ele><time>2026-04-18T06:40:11.319Z</time></trkpt><trkpt lat="44.8448626" lon="9.5366145"><ele>195.75</ele><time>2026-04-18T06:40:12.319Z</time></trkpt><trkpt lat="44.8447555" lon="9.5364761"><ele>197.0</ele><time>2026-04-18T06:40:13.319Z</time></trkpt><trkpt lat="44.8446599" lon="9.5363173"><ele>197.25</ele><time>2026-04-18T06:40:14.319Z</time></trkpt><trkpt lat="44.8445781" lon="9.5361745"><ele>197.5</ele><time>2026-04-18T06:40:15.319Z</time></trkpt><trkpt lat="44.8444877" lon="9.5360508"><ele>197.75</ele><time>2026-04-18T06:40:16.319Z</time></trkpt><trkpt lat="44.8443781" lon="9.535964"><ele>198.0</ele><time>2026-04-18T06:40:17.319Z</time></trkpt><trkpt lat="44.8442575" lon="9.5359109"><ele>198.0</ele><time>2026-04-18T06:40:18.319Z</time></trkpt><trkpt lat="44.8441118" lon="9.5359178"><ele>198.0</ele><time>2026-04-18T06:40:19.319Z</time></trkpt><trkpt lat="44.8439784" lon="9.5359448"><ele>198.0</ele><time>2026-04-18T06:40:20.319Z</time></trkpt><trkpt lat="44.8438659" lon="9.535967"><ele>198.0</ele><time>2026-04-18T06:40:21.319Z</time></trkpt><trkpt lat="44.8437512" lon="9.5359344"><ele>198.0</ele><time>2026-04-18T06:40:22.319Z</time></trkpt><trkpt lat="44.8436356" lon="9.5358692"><ele>198.0</ele><time>2026-04-18T06:40:23.319Z</time></trkpt><trkpt lat="44.8435369" lon="9.5357809"><ele>198.0</ele><time>2026-04-18T06:40:24.319Z</time></trkpt><trkpt lat="44.8434658" lon="9.5356789"><ele>198.0</ele><time>2026-04-18T06:40:25.319Z</time></trkpt><trkpt lat="44.8434119" lon="9.5355503"><ele>198.0</ele><time>2026-04-18T06:40:26.318Z</time></trkpt><trkpt lat="44.8433775" lon="9.5353699"><ele>200.66666666666669</ele><time>2026-04-18T06:40:27.319Z</time></trkpt><trkpt lat="44.8433493" lon="9.535141"><ele>203.33333333333334</ele><time>2026-04-18T06:40:28.319Z</time></trkpt><trkpt lat="44.8433254" lon="9.5348771"><ele>206.0</ele><time>2026-04-18T06:40:29.319Z</time></trkpt><trkpt lat="44.843299" lon="9.5345974"><ele>204.33333333333334</ele><time>2026-04-18T06:40:30.319Z</time></trkpt><trkpt lat="44.843274" lon="9.5343168"><ele>202.66666666666669</ele><time>2026-04-18T06:40:31.319Z</time></trkpt><trkpt lat="44.8432447" lon="9.5340326"><ele>201.0</ele><time>2026-04-18T06:40:32.319Z</time></trkpt><trkpt lat="44.8432016" lon="9.533713"><ele>199.66666666666669</ele><time>2026-04-18T06:40:33.319Z</time></trkpt><trkpt lat="44.8431415" lon="9.5333991"><ele>198.33333333333334</ele><time>2026-04-18T06:40:34.319Z</time></trkpt><trkpt lat="44.8430818" lon="9.5331163"><ele>197.0</ele><time>2026-04-18T06:40:35.319Z</time></trkpt><trkpt lat="44.8430258" lon="9.5328541"><ele>194.0</ele><time>2026-04-18T06:40:36.319Z</time></trkpt><trkpt lat="44.8429691" lon="9.5326039"><ele>191.0</ele><time>2026-04-18T06:40:37.319Z</time></trkpt><trkpt lat="44.8429202" lon="9.5323842"><ele>188.0</ele><time>2026-04-18T06:40:38.319Z</time></trkpt><trkpt lat="44.8428823" lon="9.5321956"><ele>186.75</ele><time>2026-04-18T06:40:39.319Z</time></trkpt><trkpt lat="44.8428315" lon="9.5320338"><ele>185.5</ele><time>2026-04-18T06:40:40.319Z</time></trkpt><trkpt lat="44.8427618" lon="9.5318741"><ele>184.25</ele><time>2026-04-18T06:40:41.319Z</time></trkpt><trkpt lat="44.8426272" lon="9.5317357"><ele>183.0</ele><time>2026-04-18T06:40:42.319Z</time></trkpt><trkpt lat="44.8424606" lon="9.5316281"><ele>191.33333333333331</ele><time>2026-04-18T06:40:43.318Z</time></trkpt><trkpt lat="44.8423021" lon="9.5315321"><ele>199.66666666666666</ele><time>2026-04-18T06:40:44.319Z</time></trkpt><trkpt lat="44.8421639" lon="9.5314353"><ele>208.0</ele><time>2026-04-18T06:40:45.319Z</time></trkpt><trkpt lat="44.8420159" lon="9.5313086"><ele>209.0</ele><time>2026-04-18T06:40:46.319Z</time></trkpt><trkpt lat="44.841885" lon="9.5311533"><ele>210.0</ele><time>2026-04-18T06:40:47.319Z</time></trkpt><trkpt lat="44.8417639" lon="9.5309575"><ele>211.0</ele><time>2026-04-18T06:40:48.319Z</time></trkpt><trkpt lat="44.8416519" lon="9.5307099"><ele>211.0</ele><time>2026-04-18T06:40:49.319Z</time></trkpt><trkpt lat="44.8415507" lon="9.5304347"><ele>211.0</ele><time>2026-04-18T06:40:50.318Z</time></trkpt><trkpt lat="44.841451" lon="9.5301765"><ele>211.0</ele><time>2026-04-18T06:40:51.319Z</time></trkpt><trkpt lat="44.8413377" lon="9.5299016"><ele>206.5</ele><time>2026-04-18T06:40:52.319Z</time></trkpt><trkpt lat="44.8411872" lon="9.5296279"><ele>202.0</ele><time>2026-04-18T06:40:53.319Z</time></trkpt><trkpt lat="44.8410261" lon="9.5293527"><ele>205.0</ele><time>2026-04-18T06:40:54.319Z</time></trkpt><trkpt lat="44.8408661" lon="9.5290979"><ele>208.0</ele><time>2026-04-18T06:40:55.318Z</time></trkpt><trkpt lat="44.8407118" lon="9.52886"><ele>205.5</ele><time>2026-04-18T06:40:56.319Z</time></trkpt><trkpt lat="44.8405566" lon="9.5285991"><ele>203.0</ele><time>2026-04-18T06:40:57.318Z</time></trkpt><trkpt lat="44.8404089" lon="9.5283077"><ele>203.0</ele><time>2026-04-18T06:40:58.319Z</time></trkpt><trkpt lat="44.8402715" lon="9.5279834"><ele>203.0</ele><time>2026-04-18T06:40:59.319Z</time></trkpt><trkpt lat="44.8401509" lon="9.5276605"><ele>204.5</ele><time>2026-04-18T06:41:00.319Z</time></trkpt><trkpt lat="44.8400237" lon="9.5273459"><ele>206.0</ele><time>2026-04-18T06:41:01.319Z</time></trkpt><trkpt lat="44.8399071" lon="9.5270246"><ele>206.0</ele><time>2026-04-18T06:41:02.319Z</time></trkpt><trkpt lat="44.8397975" lon="9.5267269"><ele>206.0</ele><time>2026-04-18T06:41:03.32Z</time></trkpt><trkpt lat="44.8396948" lon="9.5264548"><ele>203.33333333333334</ele><time>2026-04-18T06:41:04.32Z</time></trkpt><trkpt lat="44.8395964" lon="9.5262011"><ele>200.66666666666669</ele><time>2026-04-18T06:41:05.32Z</time></trkpt><trkpt lat="44.8394964" lon="9.5259536"><ele>198.0</ele><time>2026-04-18T06:41:06.32Z</time></trkpt><trkpt lat="44.8393902" lon="9.5257106"><ele>203.33333333333331</ele><time>2026-04-18T06:41:07.32Z</time></trkpt><trkpt lat="44.8392865" lon="9.5254859"><ele>208.66666666666666</ele><time>2026-04-18T06:41:08.32Z</time></trkpt><trkpt lat="44.8391902" lon="9.5252756"><ele>214.0</ele><time>2026-04-18T06:41:09.32Z</time></trkpt><trkpt lat="44.8390976" lon="9.5250583"><ele>214.0</ele><time>2026-04-18T06:41:10.32Z</time></trkpt><trkpt lat="44.8390407" lon="9.5248118"><ele>214.0</ele><time>2026-04-18T06:41:11.32Z</time></trkpt><trkpt lat="44.8390039" lon="9.524559"><ele>214.0</ele><time>2026-04-18T06:41:12.32Z</time></trkpt><trkpt lat="44.8389694" lon="9.5243227"><ele>212.0</ele><time>2026-04-18T06:41:13.32Z</time></trkpt><trkpt lat="44.8389036" lon="9.5240704"><ele>210.0</ele><time>2026-04-18T06:41:14.32Z</time></trkpt><trkpt lat="44.8388275" lon="9.5238369"><ele>208.0</ele><time>2026-04-18T06:41:15.32Z</time></trkpt><trkpt lat="44.8387359" lon="9.5236221"><ele>204.0</ele><time>2026-04-18T06:41:16.32Z</time></trkpt><trkpt lat="44.8386314" lon="9.5234192"><ele>200.0</ele><time>2026-04-18T06:41:17.32Z</time></trkpt><trkpt lat="44.838504" lon="9.5232094"><ele>196.0</ele><time>2026-04-18T06:41:18.32Z</time></trkpt><trkpt lat="44.8383466" lon="9.5230179"><ele>198.33333333333331</ele><time>2026-04-18T06:41:19.32Z</time></trkpt><trkpt lat="44.8381856" lon="9.522853"><ele>200.66666666666669</ele><time>2026-04-18T06:41:20.32Z</time></trkpt><trkpt lat="44.8380275" lon="9.5226985"><ele>203.0</ele><time>2026-04-18T06:41:21.32Z</time></trkpt><trkpt lat="44.8378779" lon="9.5225374"><ele>203.0</ele><time>2026-04-18T06:41:22.32Z</time></trkpt><trkpt lat="44.8377305" lon="9.522393"><ele>203.0</ele><time>2026-04-18T06:41:23.32Z</time></trkpt><trkpt lat="44.8375938" lon="9.5222499"><ele>203.0</ele><time>2026-04-18T06:41:24.32Z</time></trkpt><trkpt lat="44.8374602" lon="9.5221159"><ele>203.0</ele><time>2026-04-18T06:41:25.32Z</time></trkpt><trkpt lat="44.8373404" lon="9.521974"><ele>203.0</ele><time>2026-04-18T06:41:26.32Z</time></trkpt><trkpt lat="44.8372033" lon="9.5218357"><ele>203.0</ele><time>2026-04-18T06:41:27.32Z</time></trkpt><trkpt lat="44.8370701" lon="9.5216886"><ele>203.0</ele><time>2026-04-18T06:41:28.32Z</time></trkpt><trkpt lat="44.8369456" lon="9.5215331"><ele>203.0</ele><time>2026-04-18T06:41:29.32Z</time></trkpt><trkpt lat="44.8368246" lon="9.5213634"><ele>203.0</ele><time>2026-04-18T06:41:30.32Z</time></trkpt><trkpt lat="44.8367074" lon="9.5211938"><ele>204.66666666666669</ele><time>2026-04-18T06:41:31.32Z</time></trkpt><trkpt lat="44.8365942" lon="9.5210296"><ele>206.33333333333331</ele><time>2026-04-18T06:41:32.32Z</time></trkpt><trkpt lat="44.8364813" lon="9.5208769"><ele>208.0</ele><time>2026-04-18T06:41:33.32Z</time></trkpt><trkpt lat="44.8363819" lon="9.5207233"><ele>208.0</ele><time>2026-04-18T06:41:34.32Z</time></trkpt><trkpt lat="44.8362732" lon="9.5205735"><ele>208.0</ele><time>2026-04-18T06:41:35.32Z</time></trkpt><trkpt lat="44.836163" lon="9.5204331"><ele>208.0</ele><time>2026-04-18T06:41:36.32Z</time></trkpt><trkpt lat="44.8360437" lon="9.5203145"><ele>208.0</ele><time>2026-04-18T06:41:37.32Z</time></trkpt><trkpt lat="44.8359068" lon="9.5202289"><ele>207.0</ele><time>2026-04-18T06:41:38.32Z</time></trkpt><trkpt lat="44.8357707" lon="9.5201554"><ele>206.0</ele><time>2026-04-18T06:41:39.32Z</time></trkpt><trkpt lat="44.8356412" lon="9.5200922"><ele>205.0</ele><time>2026-04-18T06:41:40.32Z</time></trkpt><trkpt lat="44.835521" lon="9.5200212"><ele>204.0</ele><time>2026-04-18T06:41:41.32Z</time></trkpt><trkpt lat="44.8354014" lon="9.5199562"><ele>204.0</ele><time>2026-04-18T06:41:42.32Z</time></trkpt><trkpt lat="44.8352951" lon="9.5199134"><ele>204.0</ele><time>2026-04-18T06:41:43.32Z</time></trkpt><trkpt lat="44.8351773" lon="9.5198947"><ele>204.0</ele><time>2026-04-18T06:41:44.32Z</time></trkpt><trkpt lat="44.8350537" lon="9.5199144"><ele>204.0</ele><time>2026-04-18T06:41:45.32Z</time></trkpt><trkpt lat="44.8349407" lon="9.5199786"><ele>205.6</ele><time>2026-04-18T06:41:46.32Z</time></trkpt><trkpt lat="44.834838" lon="9.5200684"><ele>207.2</ele><time>2026-04-18T06:41:47.32Z</time></trkpt><trkpt lat="44.8347423" lon="9.5201584"><ele>208.79999999999998</ele><time>2026-04-18T06:41:48.32Z</time></trkpt><trkpt lat="44.8346515" lon="9.5202489"><ele>210.39999999999998</ele><time>2026-04-18T06:41:49.32Z</time></trkpt><trkpt lat="44.8345658" lon="9.5203003"><ele>212.0</ele><time>2026-04-18T06:41:50.32Z</time></trkpt><trkpt lat="44.8344772" lon="9.520327"><ele>212.0</ele><time>2026-04-18T06:41:51.32Z</time></trkpt><trkpt lat="44.8343758" lon="9.5203149"><ele>212.0</ele><time>2026-04-18T06:41:52.32Z</time></trkpt><trkpt lat="44.8342788" lon="9.5202469"><ele>212.0</ele><time>2026-04-18T06:41:53.32Z</time></trkpt><trkpt lat="44.8341673" lon="9.5201333"><ele>212.0</ele><time>2026-04-18T06:41:54.32Z</time></trkpt><trkpt lat="44.834066" lon="9.5200258"><ele>210.75</ele><time>2026-04-18T06:41:55.32Z</time></trkpt><trkpt lat="44.8339508" lon="9.5199236"><ele>209.5</ele><time>2026-04-18T06:41:56.32Z</time></trkpt><trkpt lat="44.8338261" lon="9.519822"><ele>208.25</ele><time>2026-04-18T06:41:57.32Z</time></trkpt><trkpt lat="44.8336989" lon="9.5197467"><ele>207.0</ele><time>2026-04-18T06:41:58.32Z</time></trkpt><trkpt lat="44.8335836" lon="9.519679"><ele>208.25</ele><time>2026-04-18T06:41:59.32Z</time></trkpt><trkpt lat="44.8334644" lon="9.5196253"><ele>209.5</ele><time>2026-04-18T06:42:00.32Z</time></trkpt><trkpt lat="44.8333444" lon="9.5195909"><ele>210.75</ele><time>2026-04-18T06:42:01.319Z</time></trkpt><trkpt lat="44.8332175" lon="9.51959"><ele>212.0</ele><time>2026-04-18T06:42:02.32Z</time></trkpt><trkpt lat="44.8330838" lon="9.5196185"><ele>212.0</ele><time>2026-04-18T06:42:03.32Z</time></trkpt><trkpt lat="44.8329537" lon="9.5196691"><ele>212.0</ele><time>2026-04-18T06:42:04.32Z</time></trkpt><trkpt lat="44.8328225" lon="9.5197288"><ele>212.0</ele><time>2026-04-18T06:42:05.32Z</time></trkpt><trkpt lat="44.8326932" lon="9.5197954"><ele>212.0</ele><time>2026-04-18T06:42:06.32Z</time></trkpt><trkpt lat="44.8325655" lon="9.5198569"><ele>211.25</ele><time>2026-04-18T06:42:07.32Z</time></trkpt><trkpt lat="44.8324438" lon="9.5199123"><ele>210.5</ele><time>2026-04-18T06:42:08.32Z</time></trkpt><trkpt lat="44.8323263" lon="9.5199638"><ele>209.75</ele><time>2026-04-18T06:42:09.32Z</time></trkpt><trkpt lat="44.8322056" lon="9.5200151"><ele>209.0</ele><time>2026-04-18T06:42:10.32Z</time></trkpt><trkpt lat="44.8320885" lon="9.5200602"><ele>209.0</ele><time>2026-04-18T06:42:11.32Z</time></trkpt><trkpt lat="44.8319746" lon="9.5200937"><ele>209.0</ele><time>2026-04-18T06:42:12.319Z</time></trkpt><trkpt lat="44.8318582" lon="9.5201109"><ele>209.0</ele><time>2026-04-18T06:42:13.321Z</time></trkpt><trkpt lat="44.8317403" lon="9.5201005"><ele>209.0</ele><time>2026-04-18T06:42:14.32Z</time></trkpt><trkpt lat="44.8316217" lon="9.5200523"><ele>208.0</ele><time>2026-04-18T06:42:15.321Z</time></trkpt><trkpt lat="44.8314992" lon="9.5199621"><ele>207.0</ele><time>2026-04-18T06:42:16.321Z</time></trkpt><trkpt lat="44.831378" lon="9.5198361"><ele>206.0</ele><time>2026-04-18T06:42:17.321Z</time></trkpt><trkpt lat="44.8312707" lon="9.5196928"><ele>205.0</ele><time>2026-04-18T06:42:18.321Z</time></trkpt><trkpt lat="44.8311723" lon="9.5195475"><ele>204.25</ele><time>2026-04-18T06:42:19.321Z</time></trkpt><trkpt lat="44.8310808" lon="9.5194107"><ele>203.5</ele><time>2026-04-18T06:42:20.321Z</time></trkpt><trkpt lat="44.8309921" lon="9.5192793"><ele>202.75</ele><time>2026-04-18T06:42:21.321Z</time></trkpt><trkpt lat="44.830908" lon="9.5191547"><ele>202.0</ele><time>2026-04-18T06:42:22.321Z</time></trkpt><trkpt lat="44.8308289" lon="9.5190362"><ele>202.0</ele><time>2026-04-18T06:42:23.321Z</time></trkpt><trkpt lat="44.8307509" lon="9.5189174"><ele>202.0</ele><time>2026-04-18T06:42:24.321Z</time></trkpt><trkpt lat="44.8306741" lon="9.5187984"><ele>202.0</ele><time>2026-04-18T06:42:25.321Z</time></trkpt><trkpt lat="44.8306067" lon="9.5186634"><ele>202.0</ele><time>2026-04-18T06:42:26.321Z</time></trkpt><trkpt lat="44.830558" lon="9.5185166"><ele>201.5</ele><time>2026-04-18T06:42:27.321Z</time></trkpt><trkpt lat="44.8305429" lon="9.5183687"><ele>201.0</ele><time>2026-04-18T06:42:28.321Z</time></trkpt><trkpt lat="44.8305587" lon="9.5182066"><ele>200.5</ele><time>2026-04-18T06:42:29.321Z</time></trkpt><trkpt lat="44.8306003" lon="9.5180448"><ele>200.0</ele><time>2026-04-18T06:42:30.321Z</time></trkpt><trkpt lat="44.8306527" lon="9.5178965"><ele>201.2</ele><time>2026-04-18T06:42:31.321Z</time></trkpt><trkpt lat="44.8307052" lon="9.5177605"><ele>202.4</ele><time>2026-04-18T06:42:32.321Z</time></trkpt><trkpt lat="44.8307547" lon="9.5176297"><ele>203.60000000000002</ele><time>2026-04-18T06:42:33.321Z</time></trkpt><trkpt lat="44.8307987" lon="9.5175191"><ele>204.8</ele><time>2026-04-18T06:42:34.321Z</time></trkpt><trkpt lat="44.8308377" lon="9.5174093"><ele>206.0</ele><time>2026-04-18T06:42:35.321Z</time></trkpt><trkpt lat="44.8308754" lon="9.5172911"><ele>206.0</ele><time>2026-04-18T06:42:36.321Z</time></trkpt><trkpt lat="44.8308871" lon="9.51715"><ele>206.0</ele><time>2026-04-18T06:42:37.321Z</time></trkpt><trkpt lat="44.8308791" lon="9.5169997"><ele>206.0</ele><time>2026-04-18T06:42:38.321Z</time></trkpt><trkpt lat="44.8308654" lon="9.5168483"><ele>206.0</ele><time>2026-04-18T06:42:39.321Z</time></trkpt><trkpt lat="44.8308499" lon="9.5167086"><ele>206.0</ele><time>2026-04-18T06:42:40.321Z</time></trkpt><trkpt lat="44.8308295" lon="9.5165803"><ele>205.83333333333334</ele><time>2026-04-18T06:42:41.321Z</time></trkpt><trkpt lat="44.8308019" lon="9.5164631"><ele>205.66666666666669</ele><time>2026-04-18T06:42:42.321Z</time></trkpt><trkpt lat="44.8307657" lon="9.5163693"><ele>205.5</ele><time>2026-04-18T06:42:43.321Z</time></trkpt><trkpt lat="44.8307215" lon="9.5162946"><ele>205.33333333333331</ele><time>2026-04-18T06:42:44.32Z</time></trkpt><trkpt lat="44.8306712" lon="9.5162278"><ele>205.16666666666666</ele><time>2026-04-18T06:42:45.321Z</time></trkpt><trkpt lat="44.8306187" lon="9.5161547"><ele>205.0</ele><time>2026-04-18T06:42:46.321Z</time></trkpt><trkpt lat="44.8305654" lon="9.5160621"><ele>203.0</ele><time>2026-04-18T06:42:47.321Z</time></trkpt><trkpt lat="44.8304942" lon="9.5159524"><ele>201.0</ele><time>2026-04-18T06:42:48.321Z</time></trkpt><trkpt lat="44.830403" lon="9.5158325"><ele>199.0</ele><time>2026-04-18T06:42:49.321Z</time></trkpt><trkpt lat="44.8302974" lon="9.515695"><ele>197.0</ele><time>2026-04-18T06:42:50.321Z</time></trkpt><trkpt lat="44.8301617" lon="9.5155347"><ele>196.0</ele><time>2026-04-18T06:42:51.321Z</time></trkpt><trkpt lat="44.8299908" lon="9.5153535"><ele>195.0</ele><time>2026-04-18T06:42:52.321Z</time></trkpt><trkpt lat="44.8298153" lon="9.5151782"><ele>194.0</ele><time>2026-04-18T06:42:53.321Z</time></trkpt><trkpt lat="44.8296372" lon="9.5150074"><ele>194.0</ele><time>2026-04-18T06:42:54.321Z</time></trkpt><trkpt lat="44.8294675" lon="9.5148465"><ele>194.0</ele><time>2026-04-18T06:42:55.321Z</time></trkpt><trkpt lat="44.8293078" lon="9.5146955"><ele>194.0</ele><time>2026-04-18T06:42:56.321Z</time></trkpt><trkpt lat="44.8291526" lon="9.5145494"><ele>194.33333333333334</ele><time>2026-04-18T06:42:57.321Z</time></trkpt><trkpt lat="44.8289947" lon="9.5143961"><ele>194.66666666666669</ele><time>2026-04-18T06:42:58.321Z</time></trkpt><trkpt lat="44.8288452" lon="9.5142368"><ele>195.0</ele><time>2026-04-18T06:42:59.321Z</time></trkpt><trkpt lat="44.8287068" lon="9.5140721"><ele>195.0</ele><time>2026-04-18T06:43:00.321Z</time></trkpt><trkpt lat="44.8285827" lon="9.5139012"><ele>195.0</ele><time>2026-04-18T06:43:01.321Z</time></trkpt><trkpt lat="44.828468" lon="9.5137133"><ele>195.0</ele><time>2026-04-18T06:43:02.321Z</time></trkpt><trkpt lat="44.8283614" lon="9.5135093"><ele>193.66666666666666</ele><time>2026-04-18T06:43:03.321Z</time></trkpt><trkpt lat="44.8282551" lon="9.5132906"><ele>192.33333333333331</ele><time>2026-04-18T06:43:04.321Z</time></trkpt><trkpt lat="44.8281618" lon="9.5130484"><ele>191.0</ele><time>2026-04-18T06:43:05.321Z</time></trkpt><trkpt lat="44.8280729" lon="9.512811"><ele>191.0</ele><time>2026-04-18T06:43:06.321Z</time></trkpt><trkpt lat="44.8279911" lon="9.512581"><ele>191.0</ele><time>2026-04-18T06:43:07.321Z</time></trkpt><trkpt lat="44.827904" lon="9.5123474"><ele>191.0</ele><time>2026-04-18T06:43:08.321Z</time></trkpt><trkpt lat="44.8278094" lon="9.5121173"><ele>189.66666666666666</ele><time>2026-04-18T06:43:09.321Z</time></trkpt><trkpt lat="44.8276999" lon="9.5118743"><ele>188.33333333333334</ele><time>2026-04-18T06:43:10.321Z</time></trkpt><trkpt lat="44.8275718" lon="9.5116296"><ele>187.0</ele><time>2026-04-18T06:43:11.321Z</time></trkpt><trkpt lat="44.8274377" lon="9.5114062"><ele>187.66666666666669</ele><time>2026-04-18T06:43:12.321Z</time></trkpt><trkpt lat="44.8273057" lon="9.5111859"><ele>188.33333333333334</ele><time>2026-04-18T06:43:13.321Z</time></trkpt><trkpt lat="44.8271622" lon="9.5109668"><ele>189.0</ele><time>2026-04-18T06:43:14.321Z</time></trkpt><trkpt lat="44.8270241" lon="9.5107426"><ele>189.0</ele><time>2026-04-18T06:43:15.321Z</time></trkpt><trkpt lat="44.8268825" lon="9.5105111"><ele>189.0</ele><time>2026-04-18T06:43:16.321Z</time></trkpt><trkpt lat="44.826744" lon="9.5102825"><ele>189.0</ele><time>2026-04-18T06:43:17.321Z</time></trkpt><trkpt lat="44.826608" lon="9.5100395"><ele>188.5</ele><time>2026-04-18T06:43:18.321Z</time></trkpt><trkpt lat="44.8264658" lon="9.5097782"><ele>188.0</ele><time>2026-04-18T06:43:19.321Z</time></trkpt><trkpt lat="44.826335" lon="9.5094991"><ele>187.5</ele><time>2026-04-18T06:43:20.321Z</time></trkpt><trkpt lat="44.8261979" lon="9.5092158"><ele>187.0</ele><time>2026-04-18T06:43:21.321Z</time></trkpt><trkpt lat="44.8260623" lon="9.5089277"><ele>190.0</ele><time>2026-04-18T06:43:22.322Z</time></trkpt><trkpt lat="44.8259271" lon="9.5086508"><ele>193.0</ele><time>2026-04-18T06:43:23.321Z</time></trkpt><trkpt lat="44.8257917" lon="9.5083813"><ele>193.0</ele><time>2026-04-18T06:43:24.322Z</time></trkpt><trkpt lat="44.8256556" lon="9.508109"><ele>193.0</ele><time>2026-04-18T06:43:25.322Z</time></trkpt><trkpt lat="44.825525" lon="9.5078374"><ele>190.5</ele><time>2026-04-18T06:43:26.322Z</time></trkpt><trkpt lat="44.8253941" lon="9.5075592"><ele>188.0</ele><time>2026-04-18T06:43:27.322Z</time></trkpt><trkpt lat="44.8252613" lon="9.5072809"><ele>188.5</ele><time>2026-04-18T06:43:28.322Z</time></trkpt><trkpt lat="44.82513" lon="9.5070041"><ele>189.0</ele><time>2026-04-18T06:43:29.322Z</time></trkpt><trkpt lat="44.8250025" lon="9.5067307"><ele>189.0</ele><time>2026-04-18T06:43:30.322Z</time></trkpt><trkpt lat="44.824875" lon="9.5064577"><ele>189.0</ele><time>2026-04-18T06:43:31.322Z</time></trkpt><trkpt lat="44.8247649" lon="9.5062089"><ele>189.0</ele><time>2026-04-18T06:43:32.322Z</time></trkpt><trkpt lat="44.8246523" lon="9.5059566"><ele>189.0</ele><time>2026-04-18T06:43:33.322Z</time></trkpt><trkpt lat="44.8245355" lon="9.5057026"><ele>189.0</ele><time>2026-04-18T06:43:34.322Z</time></trkpt><trkpt lat="44.824421" lon="9.5054628"><ele>189.0</ele><time>2026-04-18T06:43:35.322Z</time></trkpt><trkpt lat="44.8243094" lon="9.505214"><ele>189.0</ele><time>2026-04-18T06:43:36.322Z</time></trkpt><trkpt lat="44.8241924" lon="9.504977"><ele>189.0</ele><time>2026-04-18T06:43:37.322Z</time></trkpt><trkpt lat="44.8240772" lon="9.504737"><ele>189.0</ele><time>2026-04-18T06:43:38.322Z</time></trkpt><trkpt lat="44.8239436" lon="9.5045063"><ele>188.66666666666666</ele><time>2026-04-18T06:43:39.322Z</time></trkpt><trkpt lat="44.8238129" lon="9.5042821"><ele>188.33333333333331</ele><time>2026-04-18T06:43:40.322Z</time></trkpt><trkpt lat="44.8236797" lon="9.5040682"><ele>188.0</ele><time>2026-04-18T06:43:41.322Z</time></trkpt><trkpt lat="44.8235421" lon="9.5038476"><ele>188.33333333333331</ele><time>2026-04-18T06:43:42.322Z</time></trkpt><trkpt lat="44.8233915" lon="9.5036434"><ele>188.66666666666666</ele><time>2026-04-18T06:43:43.322Z</time></trkpt><trkpt lat="44.8232385" lon="9.5034492"><ele>189.0</ele><time>2026-04-18T06:43:44.321Z</time></trkpt><trkpt lat="44.8230918" lon="9.5032641"><ele>189.0</ele><time>2026-04-18T06:43:45.322Z</time></trkpt><trkpt lat="44.82295" lon="9.5030891"><ele>189.0</ele><time>2026-04-18T06:43:46.321Z</time></trkpt><trkpt lat="44.8228099" lon="9.5029268"><ele>189.0</ele><time>2026-04-18T06:43:47.322Z</time></trkpt><trkpt lat="44.8226684" lon="9.5027678"><ele>188.33333333333334</ele><time>2026-04-18T06:43:48.322Z</time></trkpt><trkpt lat="44.8225325" lon="9.5026278"><ele>187.66666666666669</ele><time>2026-04-18T06:43:49.322Z</time></trkpt><trkpt lat="44.8224067" lon="9.5025029"><ele>187.0</ele><time>2026-04-18T06:43:50.322Z</time></trkpt><trkpt lat="44.8222969" lon="9.5023979"><ele>187.0</ele><time>2026-04-18T06:43:51.322Z</time></trkpt><trkpt lat="44.8222027" lon="9.5022935"><ele>187.0</ele><time>2026-04-18T06:43:52.322Z</time></trkpt><trkpt lat="44.8221232" lon="9.5022099"><ele>187.0</ele><time>2026-04-18T06:43:53.322Z</time></trkpt><trkpt lat="44.8220541" lon="9.5021365"><ele>187.0</ele><time>2026-04-18T06:43:54.322Z</time></trkpt><trkpt lat="44.8219974" lon="9.5020881"><ele>187.0</ele><time>2026-04-18T06:43:55.321Z</time></trkpt><trkpt lat="44.8218763" lon="9.5020519"><ele>188.39999999999998</ele><time>2026-04-18T06:43:57.322Z</time></trkpt><trkpt lat="44.8217754" lon="9.5021686"><ele>189.79999999999998</ele><time>2026-04-18T06:43:59.322Z</time></trkpt><trkpt lat="44.8217235" lon="9.5022716"><ele>191.2</ele><time>2026-04-18T06:44:00.322Z</time></trkpt><trkpt lat="44.8216584" lon="9.5023601"><ele>192.6</ele><time>2026-04-18T06:44:01.322Z</time></trkpt><trkpt lat="44.8215625" lon="9.502443"><ele>194.0</ele><time>2026-04-18T06:44:02.322Z</time></trkpt><trkpt lat="44.8214625" lon="9.5025077"><ele>194.0</ele><time>2026-04-18T06:44:03.322Z</time></trkpt><trkpt lat="44.8213653" lon="9.5025823"><ele>194.0</ele><time>2026-04-18T06:44:04.322Z</time></trkpt><trkpt lat="44.8212624" lon="9.502644"><ele>194.0</ele><time>2026-04-18T06:44:05.322Z</time></trkpt><trkpt lat="44.8211432" lon="9.5027082"><ele>194.0</ele><time>2026-04-18T06:44:06.322Z</time></trkpt><trkpt lat="44.8210199" lon="9.5027698"><ele>194.0</ele><time>2026-04-18T06:44:07.322Z</time></trkpt><trkpt lat="44.8208906" lon="9.5028383"><ele>194.0</ele><time>2026-04-18T06:44:08.322Z</time></trkpt><trkpt lat="44.8207664" lon="9.502909"><ele>194.0</ele><time>2026-04-18T06:44:09.322Z</time></trkpt><trkpt lat="44.8206448" lon="9.502993"><ele>194.0</ele><time>2026-04-18T06:44:10.321Z</time></trkpt><trkpt lat="44.8205261" lon="9.5030783"><ele>194.0</ele><time>2026-04-18T06:44:11.322Z</time></trkpt><trkpt lat="44.8204239" lon="9.5031515"><ele>194.0</ele><time>2026-04-18T06:44:12.322Z</time></trkpt><trkpt lat="44.820328" lon="9.5032198"><ele>194.0</ele><time>2026-04-18T06:44:13.322Z</time></trkpt><trkpt lat="44.8202507" lon="9.5032708"><ele>194.0</ele><time>2026-04-18T06:44:14.322Z</time></trkpt><trkpt lat="44.8201756" lon="9.5033087"><ele>194.0</ele><time>2026-04-18T06:44:15.322Z</time></trkpt><trkpt lat="44.8200919" lon="9.5033447"><ele>196.0</ele><time>2026-04-18T06:44:17.322Z</time></trkpt><trkpt lat="44.8200183" lon="9.5033119"><ele>198.0</ele><time>2026-04-18T06:44:20.322Z</time></trkpt><trkpt lat="44.8199431" lon="9.5031436"><ele>200.0</ele><time>2026-04-18T06:44:22.322Z</time></trkpt><trkpt lat="44.8199066" lon="9.5030364"><ele>202.0</ele><time>2026-04-18T06:44:23.322Z</time></trkpt><trkpt lat="44.8198663" lon="9.5029184"><ele>204.0</ele><time>2026-04-18T06:44:24.322Z</time></trkpt><trkpt lat="44.8198223" lon="9.5027952"><ele>204.16666666666666</ele><time>2026-04-18T06:44:25.322Z</time></trkpt><trkpt lat="44.8197768" lon="9.5026703"><ele>204.33333333333331</ele><time>2026-04-18T06:44:26.322Z</time></trkpt><trkpt lat="44.8197322" lon="9.5025459"><ele>204.5</ele><time>2026-04-18T06:44:27.322Z</time></trkpt><trkpt lat="44.819695" lon="9.502435"><ele>204.66666666666666</ele><time>2026-04-18T06:44:28.321Z</time></trkpt><trkpt lat="44.8196656" lon="9.5023378"><ele>204.83333333333331</ele><time>2026-04-18T06:44:29.322Z</time></trkpt><trkpt lat="44.8196452" lon="9.5022505"><ele>205.0</ele><time>2026-04-18T06:44:30.322Z</time></trkpt><trkpt lat="44.8195993" lon="9.5021016"><ele>205.2</ele><time>2026-04-18T06:44:32.322Z</time></trkpt><trkpt lat="44.8195179" lon="9.5020282"><ele>205.4</ele><time>2026-04-18T06:44:34.322Z</time></trkpt><trkpt lat="44.819418" lon="9.5020222"><ele>205.60000000000002</ele><time>2026-04-18T06:44:36.323Z</time></trkpt><trkpt lat="44.8193145" lon="9.5020805"><ele>205.8</ele><time>2026-04-18T06:44:38.323Z</time></trkpt><trkpt lat="44.8192148" lon="9.5021585"><ele>206.0</ele><time>2026-04-18T06:44:40.323Z</time></trkpt><trkpt lat="44.8191579" lon="9.5022026"><ele>206.4</ele><time>2026-04-18T06:44:41.323Z</time></trkpt><trkpt lat="44.819092" lon="9.5022539"><ele>206.8</ele><time>2026-04-18T06:44:42.323Z</time></trkpt><trkpt lat="44.8190166" lon="9.5023096"><ele>207.20000000000002</ele><time>2026-04-18T06:44:43.323Z</time></trkpt><trkpt lat="44.8189291" lon="9.5023656"><ele>207.60000000000002</ele><time>2026-04-18T06:44:44.323Z</time></trkpt><trkpt lat="44.8188187" lon="9.5024245"><ele>208.0</ele><time>2026-04-18T06:44:45.323Z</time></trkpt><trkpt lat="44.8187093" lon="9.5024825"><ele>208.0</ele><time>2026-04-18T06:44:46.323Z</time></trkpt><trkpt lat="44.8185936" lon="9.502542"><ele>208.0</ele><time>2026-04-18T06:44:47.323Z</time></trkpt><trkpt lat="44.8184682" lon="9.5026067"><ele>208.0</ele><time>2026-04-18T06:44:48.323Z</time></trkpt><trkpt lat="44.8183365" lon="9.5026691"><ele>208.0</ele><time>2026-04-18T06:44:49.323Z</time></trkpt><trkpt lat="44.8182069" lon="9.502731"><ele>208.25</ele><time>2026-04-18T06:44:50.323Z</time></trkpt><trkpt lat="44.8180737" lon="9.5028094"><ele>208.5</ele><time>2026-04-18T06:44:51.323Z</time></trkpt><trkpt lat="44.817956" lon="9.5029299"><ele>208.75</ele><time>2026-04-18T06:44:52.323Z</time></trkpt><trkpt lat="44.8178421" lon="9.503068"><ele>209.0</ele><time>2026-04-18T06:44:53.323Z</time></trkpt><trkpt lat="44.8177215" lon="9.5031973"><ele>211.0</ele><time>2026-04-18T06:44:54.323Z</time></trkpt><trkpt lat="44.8175999" lon="9.5033191"><ele>213.0</ele><time>2026-04-18T06:44:55.323Z</time></trkpt><trkpt lat="44.8174689" lon="9.5034289"><ele>215.0</ele><time>2026-04-18T06:44:56.323Z</time></trkpt><trkpt lat="44.8173443" lon="9.5035463"><ele>215.0</ele><time>2026-04-18T06:44:57.323Z</time></trkpt><trkpt lat="44.8172332" lon="9.5036751"><ele>215.0</ele><time>2026-04-18T06:44:58.323Z</time></trkpt><trkpt lat="44.8171339" lon="9.5038029"><ele>215.0</ele><time>2026-04-18T06:44:59.323Z</time></trkpt><trkpt lat="44.8170488" lon="9.503922"><ele>215.0</ele><time>2026-04-18T06:45:00.323Z</time></trkpt><trkpt lat="44.816963" lon="9.5040196"><ele>215.25</ele><time>2026-04-18T06:45:01.323Z</time></trkpt><trkpt lat="44.8168596" lon="9.5040991"><ele>215.5</ele><time>2026-04-18T06:45:02.323Z</time></trkpt><trkpt lat="44.8167355" lon="9.5041569"><ele>215.75</ele><time>2026-04-18T06:45:03.323Z</time></trkpt><trkpt lat="44.8165969" lon="9.5041965"><ele>216.0</ele><time>2026-04-18T06:45:04.323Z</time></trkpt><trkpt lat="44.8164515" lon="9.5042093"><ele>216.0</ele><time>2026-04-18T06:45:05.323Z</time></trkpt><trkpt lat="44.8162957" lon="9.5041892"><ele>216.0</ele><time>2026-04-18T06:45:06.323Z</time></trkpt><trkpt lat="44.8161316" lon="9.5041444"><ele>216.0</ele><time>2026-04-18T06:45:07.323Z</time></trkpt><trkpt lat="44.8159653" lon="9.5040978"><ele>217.0</ele><time>2026-04-18T06:45:08.323Z</time></trkpt><trkpt lat="44.8158105" lon="9.5040585"><ele>218.0</ele><time>2026-04-18T06:45:09.323Z</time></trkpt><trkpt lat="44.8156671" lon="9.5040272"><ele>219.0</ele><time>2026-04-18T06:45:10.323Z</time></trkpt><trkpt lat="44.8155267" lon="9.5039992"><ele>220.0</ele><time>2026-04-18T06:45:11.323Z</time></trkpt><trkpt lat="44.8153905" lon="9.5040218"><ele>220.0</ele><time>2026-04-18T06:45:12.323Z</time></trkpt><trkpt lat="44.8152603" lon="9.5040901"><ele>220.0</ele><time>2026-04-18T06:45:13.323Z</time></trkpt><trkpt lat="44.8151323" lon="9.5041776"><ele>220.0</ele><time>2026-04-18T06:45:14.323Z</time></trkpt><trkpt lat="44.8150324" lon="9.5043264"><ele>220.0</ele><time>2026-04-18T06:45:15.323Z</time></trkpt><trkpt lat="44.8149527" lon="9.5045025"><ele>222.0</ele><time>2026-04-18T06:45:16.323Z</time></trkpt><trkpt lat="44.8148852" lon="9.5046959"><ele>224.0</ele><time>2026-04-18T06:45:17.323Z</time></trkpt><trkpt lat="44.8148231" lon="9.5048974"><ele>226.0</ele><time>2026-04-18T06:45:18.323Z</time></trkpt><trkpt lat="44.8147621" lon="9.505093"><ele>226.0</ele><time>2026-04-18T06:45:19.323Z</time></trkpt><trkpt lat="44.8147041" lon="9.5052793"><ele>226.0</ele><time>2026-04-18T06:45:20.323Z</time></trkpt><trkpt lat="44.8146417" lon="9.5054538"><ele>226.0</ele><time>2026-04-18T06:45:21.323Z</time></trkpt><trkpt lat="44.8145696" lon="9.5056157"><ele>226.0</ele><time>2026-04-18T06:45:22.323Z</time></trkpt><trkpt lat="44.8144845" lon="9.505764"><ele>226.75</ele><time>2026-04-18T06:45:23.323Z</time></trkpt><trkpt lat="44.814391" lon="9.5058796"><ele>227.5</ele><time>2026-04-18T06:45:24.323Z</time></trkpt><trkpt lat="44.814282" lon="9.5059509"><ele>228.25</ele><time>2026-04-18T06:45:25.323Z</time></trkpt><trkpt lat="44.8141496" lon="9.5059847"><ele>229.0</ele><time>2026-04-18T06:45:26.323Z</time></trkpt><trkpt lat="44.814017" lon="9.505998"><ele>229.0</ele><time>2026-04-18T06:45:27.323Z</time></trkpt><trkpt lat="44.8138881" lon="9.5060376"><ele>229.0</ele><time>2026-04-18T06:45:28.323Z</time></trkpt><trkpt lat="44.8137706" lon="9.506121"><ele>229.0</ele><time>2026-04-18T06:45:29.323Z</time></trkpt><trkpt lat="44.8136628" lon="9.5062387"><ele>229.0</ele><time>2026-04-18T06:45:30.323Z</time></trkpt><trkpt lat="44.8135573" lon="9.506358"><ele>230.66666666666666</ele><time>2026-04-18T06:45:31.323Z</time></trkpt><trkpt lat="44.8134342" lon="9.5064696"><ele>232.33333333333331</ele><time>2026-04-18T06:45:32.323Z</time></trkpt><trkpt lat="44.8133058" lon="9.5065737"><ele>234.0</ele><time>2026-04-18T06:45:33.323Z</time></trkpt><trkpt lat="44.8131517" lon="9.506655"><ele>234.0</ele><time>2026-04-18T06:45:34.323Z</time></trkpt><trkpt lat="44.8129994" lon="9.5067356"><ele>234.0</ele><time>2026-04-18T06:45:35.323Z</time></trkpt><trkpt lat="44.8128576" lon="9.5068204"><ele>234.0</ele><time>2026-04-18T06:45:36.323Z</time></trkpt><trkpt lat="44.8127342" lon="9.5069225"><ele>232.75</ele><time>2026-04-18T06:45:37.323Z</time></trkpt><trkpt lat="44.8126213" lon="9.5070192"><ele>231.5</ele><time>2026-04-18T06:45:38.323Z</time></trkpt><trkpt lat="44.812505" lon="9.5070777"><ele>230.25</ele><time>2026-04-18T06:45:39.323Z</time></trkpt><trkpt lat="44.812385" lon="9.5070853"><ele>229.0</ele><time>2026-04-18T06:45:40.323Z</time></trkpt><trkpt lat="44.8122632" lon="9.5070464"><ele>236.0</ele><time>2026-04-18T06:45:41.323Z</time></trkpt><trkpt lat="44.8121393" lon="9.5069937"><ele>243.0</ele><time>2026-04-18T06:45:42.323Z</time></trkpt><trkpt lat="44.8120087" lon="9.5069501"><ele>250.0</ele><time>2026-04-18T06:45:43.323Z</time></trkpt><trkpt lat="44.8118741" lon="9.5069425"><ele>257.0</ele><time>2026-04-18T06:45:44.323Z</time></trkpt><trkpt lat="44.8117432" lon="9.5069744"><ele>259.6666666666667</ele><time>2026-04-18T06:45:45.323Z</time></trkpt><trkpt lat="44.8116116" lon="9.5070286"><ele>262.3333333333333</ele><time>2026-04-18T06:45:46.324Z</time></trkpt><trkpt lat="44.8114839" lon="9.5071502"><ele>265.0</ele><time>2026-04-18T06:45:47.323Z</time></trkpt><trkpt lat="44.8113533" lon="9.5072851"><ele>263.0</ele><time>2026-04-18T06:45:48.324Z</time></trkpt><trkpt lat="44.8112158" lon="9.507422"><ele>261.0</ele><time>2026-04-18T06:45:49.324Z</time></trkpt><trkpt lat="44.81108" lon="9.5075594"><ele>259.0</ele><time>2026-04-18T06:45:50.324Z</time></trkpt><trkpt lat="44.810954" lon="9.5076889"><ele>259.0</ele><time>2026-04-18T06:45:51.324Z</time></trkpt><trkpt lat="44.8108276" lon="9.5078121"><ele>259.0</ele><time>2026-04-18T06:45:52.324Z</time></trkpt><trkpt lat="44.8106936" lon="9.5079198"><ele>259.0</ele><time>2026-04-18T06:45:53.324Z</time></trkpt><trkpt lat="44.8105487" lon="9.5080089"><ele>255.0</ele><time>2026-04-18T06:45:54.324Z</time></trkpt><trkpt lat="44.8103978" lon="9.5080945"><ele>251.0</ele><time>2026-04-18T06:45:55.324Z</time></trkpt><trkpt lat="44.8102454" lon="9.508172"><ele>247.0</ele><time>2026-04-18T06:45:56.324Z</time></trkpt><trkpt lat="44.8100902" lon="9.5082419"><ele>247.0</ele><time>2026-04-18T06:45:57.324Z</time></trkpt><trkpt lat="44.8099337" lon="9.5082939"><ele>247.0</ele><time>2026-04-18T06:45:58.324Z</time></trkpt><trkpt lat="44.8097692" lon="9.5083309"><ele>247.0</ele><time>2026-04-18T06:45:59.324Z</time></trkpt><trkpt lat="44.8095972" lon="9.5083573"><ele>247.0</ele><time>2026-04-18T06:46:00.324Z</time></trkpt><trkpt lat="44.8094295" lon="9.50838"><ele>247.0</ele><time>2026-04-18T06:46:01.324Z</time></trkpt><trkpt lat="44.8092871" lon="9.5083972"><ele>247.0</ele><time>2026-04-18T06:46:02.324Z</time></trkpt><trkpt lat="44.8091611" lon="9.5083968"><ele>247.0</ele><time>2026-04-18T06:46:03.324Z</time></trkpt><trkpt lat="44.809036" lon="9.5083591"><ele>249.0</ele><time>2026-04-18T06:46:04.324Z</time></trkpt><trkpt lat="44.8089157" lon="9.5083137"><ele>251.0</ele><time>2026-04-18T06:46:05.324Z</time></trkpt><trkpt lat="44.808804" lon="9.5082902"><ele>253.0</ele><time>2026-04-18T06:46:06.324Z</time></trkpt><trkpt lat="44.808683" lon="9.5082883"><ele>255.0</ele><time>2026-04-18T06:46:07.324Z</time></trkpt><trkpt lat="44.8085433" lon="9.5083341"><ele>257.0</ele><time>2026-04-18T06:46:08.324Z</time></trkpt><trkpt lat="44.808397" lon="9.5083441"><ele>259.0</ele><time>2026-04-18T06:46:09.324Z</time></trkpt><trkpt lat="44.8082622" lon="9.5083485"><ele>261.0</ele><time>2026-04-18T06:46:10.324Z</time></trkpt><trkpt lat="44.8081302" lon="9.5083761"><ele>263.0</ele><time>2026-04-18T06:46:11.324Z</time></trkpt><trkpt lat="44.8080074" lon="9.5084404"><ele>263.0</ele><time>2026-04-18T06:46:12.324Z</time></trkpt><trkpt lat="44.8079034" lon="9.5085299"><ele>263.0</ele><time>2026-04-18T06:46:13.324Z</time></trkpt><trkpt lat="44.807808" lon="9.5086114"><ele>263.0</ele><time>2026-04-18T06:46:14.324Z</time></trkpt><trkpt lat="44.8077102" lon="9.5086769"><ele>263.0</ele><time>2026-04-18T06:46:15.324Z</time></trkpt><trkpt lat="44.8075892" lon="9.5086963"><ele>264.5</ele><time>2026-04-18T06:46:16.324Z</time></trkpt><trkpt lat="44.8074557" lon="9.5086863"><ele>266.0</ele><time>2026-04-18T06:46:17.324Z</time></trkpt><trkpt lat="44.807333" lon="9.50865"><ele>267.5</ele><time>2026-04-18T06:46:18.324Z</time></trkpt><trkpt lat="44.8072136" lon="9.5085954"><ele>269.0</ele><time>2026-04-18T06:46:19.324Z</time></trkpt><trkpt lat="44.8071177" lon="9.5085065"><ele>269.0</ele><time>2026-04-18T06:46:20.324Z</time></trkpt><trkpt lat="44.8070172" lon="9.5084249"><ele>269.0</ele><time>2026-04-18T06:46:21.324Z</time></trkpt><trkpt lat="44.8069092" lon="9.508385"><ele>269.0</ele><time>2026-04-18T06:46:22.323Z</time></trkpt><trkpt lat="44.8067862" lon="9.5083784"><ele>269.0</ele><time>2026-04-18T06:46:23.324Z</time></trkpt><trkpt lat="44.8066567" lon="9.5084009"><ele>268.5</ele><time>2026-04-18T06:46:24.324Z</time></trkpt><trkpt lat="44.8065177" lon="9.5084283"><ele>268.0</ele><time>2026-04-18T06:46:25.324Z</time></trkpt><trkpt lat="44.8063811" lon="9.5084623"><ele>267.5</ele><time>2026-04-18T06:46:26.324Z</time></trkpt><trkpt lat="44.8062448" lon="9.5085145"><ele>267.0</ele><time>2026-04-18T06:46:27.324Z</time></trkpt><trkpt lat="44.8061087" lon="9.5085765"><ele>268.0</ele><time>2026-04-18T06:46:28.324Z</time></trkpt><trkpt lat="44.805974" lon="9.5086246"><ele>269.0</ele><time>2026-04-18T06:46:29.324Z</time></trkpt><trkpt lat="44.8058355" lon="9.5086578"><ele>270.0</ele><time>2026-04-18T06:46:30.324Z</time></trkpt><trkpt lat="44.8056873" lon="9.5086556"><ele>271.0</ele><time>2026-04-18T06:46:31.324Z</time></trkpt><trkpt lat="44.805544" lon="9.5086584"><ele>271.0</ele><time>2026-04-18T06:46:32.324Z</time></trkpt><trkpt lat="44.8054016" lon="9.5086782"><ele>271.0</ele><time>2026-04-18T06:46:33.324Z</time></trkpt><trkpt lat="44.8052609" lon="9.5087065"><ele>271.0</ele><time>2026-04-18T06:46:34.324Z</time></trkpt><trkpt lat="44.8051365" lon="9.508723"><ele>271.0</ele><time>2026-04-18T06:46:35.324Z</time></trkpt><trkpt lat="44.8050194" lon="9.5087164"><ele>270.0</ele><time>2026-04-18T06:46:36.324Z</time></trkpt><trkpt lat="44.8049014" lon="9.5086872"><ele>269.0</ele><time>2026-04-18T06:46:37.324Z</time></trkpt><trkpt lat="44.804784" lon="9.5085983"><ele>268.0</ele><time>2026-04-18T06:46:38.324Z</time></trkpt><trkpt lat="44.8046606" lon="9.5084935"><ele>267.0</ele><time>2026-04-18T06:46:39.324Z</time></trkpt><trkpt lat="44.8045352" lon="9.5083971"><ele>267.0</ele><time>2026-04-18T06:46:40.324Z</time></trkpt><trkpt lat="44.8044024" lon="9.5083258"><ele>267.0</ele><time>2026-04-18T06:46:41.324Z</time></trkpt><trkpt lat="44.8042618" lon="9.5082963"><ele>267.0</ele><time>2026-04-18T06:46:42.324Z</time></trkpt><trkpt lat="44.8041211" lon="9.5083078"><ele>267.0</ele><time>2026-04-18T06:46:43.324Z</time></trkpt><trkpt lat="44.8039784" lon="9.5083389"><ele>268.0</ele><time>2026-04-18T06:46:44.324Z</time></trkpt><trkpt lat="44.8038327" lon="9.5083657"><ele>269.0</ele><time>2026-04-18T06:46:45.324Z</time></trkpt><trkpt lat="44.8036912" lon="9.5083836"><ele>270.0</ele><time>2026-04-18T06:46:46.324Z</time></trkpt><trkpt lat="44.8035499" lon="9.5084023"><ele>271.0</ele><time>2026-04-18T06:46:47.324Z</time></trkpt><trkpt lat="44.8034119" lon="9.5084466"><ele>271.0</ele><time>2026-04-18T06:46:48.324Z</time></trkpt><trkpt lat="44.8032863" lon="9.5085212"><ele>271.0</ele><time>2026-04-18T06:46:49.324Z</time></trkpt><trkpt lat="44.803168" lon="9.5086017"><ele>271.0</ele><time>2026-04-18T06:46:50.324Z</time></trkpt><trkpt lat="44.8030428" lon="9.5086718"><ele>271.0</ele><time>2026-04-18T06:46:51.324Z</time></trkpt><trkpt lat="44.8029031" lon="9.508708"><ele>269.66666666666663</ele><time>2026-04-18T06:46:52.324Z</time></trkpt><trkpt lat="44.802623" lon="9.5087552"><ele>268.3333333333333</ele><time>2026-04-18T06:46:54.324Z</time></trkpt><trkpt lat="44.8024911" lon="9.5087955"><ele>267.0</ele><time>2026-04-18T06:46:55.324Z</time></trkpt><trkpt lat="44.8023684" lon="9.508859"><ele>267.0</ele><time>2026-04-18T06:46:56.324Z</time></trkpt><trkpt lat="44.8022518" lon="9.5089621"><ele>267.0</ele><time>2026-04-18T06:46:57.324Z</time></trkpt><trkpt lat="44.8021365" lon="9.5090972"><ele>267.0</ele><time>2026-04-18T06:46:58.324Z</time></trkpt><trkpt lat="44.802021" lon="9.509249"><ele>267.0</ele><time>2026-04-18T06:46:59.324Z</time></trkpt><trkpt lat="44.8019042" lon="9.5094108"><ele>266.6666666666667</ele><time>2026-04-18T06:47:00.325Z</time></trkpt><trkpt lat="44.8017883" lon="9.5095782"><ele>266.33333333333337</ele><time>2026-04-18T06:47:01.325Z</time></trkpt><trkpt lat="44.801678" lon="9.5097401"><ele>266.0</ele><time>2026-04-18T06:47:02.324Z</time></trkpt><trkpt lat="44.8015704" lon="9.5098983"><ele>266.0</ele><time>2026-04-18T06:47:03.325Z</time></trkpt><trkpt lat="44.8014599" lon="9.5100554"><ele>266.0</ele><time>2026-04-18T06:47:04.324Z</time></trkpt><trkpt lat="44.8013487" lon="9.5101959"><ele>266.0</ele><time>2026-04-18T06:47:05.325Z</time></trkpt><trkpt lat="44.8012322" lon="9.5103189"><ele>267.5</ele><time>2026-04-18T06:47:06.325Z</time></trkpt><trkpt lat="44.8011204" lon="9.5104268"><ele>269.0</ele><time>2026-04-18T06:47:07.325Z</time></trkpt><trkpt lat="44.8010207" lon="9.5105499"><ele>270.5</ele><time>2026-04-18T06:47:08.325Z</time></trkpt><trkpt lat="44.8009314" lon="9.5107024"><ele>272.0</ele><time>2026-04-18T06:47:09.325Z</time></trkpt><trkpt lat="44.8008485" lon="9.5108758"><ele>272.0</ele><time>2026-04-18T06:47:10.325Z</time></trkpt><trkpt lat="44.8007671" lon="9.5110624"><ele>272.0</ele><time>2026-04-18T06:47:11.325Z</time></trkpt><trkpt lat="44.8006892" lon="9.5112569"><ele>272.0</ele><time>2026-04-18T06:47:12.324Z</time></trkpt><trkpt lat="44.8006192" lon="9.511445"><ele>269.0</ele><time>2026-04-18T06:47:13.325Z</time></trkpt><trkpt lat="44.8005558" lon="9.5116251"><ele>266.0</ele><time>2026-04-18T06:47:14.325Z</time></trkpt><trkpt lat="44.8004987" lon="9.5117971"><ele>263.0</ele><time>2026-04-18T06:47:15.324Z</time></trkpt><trkpt lat="44.8004448" lon="9.5119558"><ele>260.0</ele><time>2026-04-18T06:47:16.325Z</time></trkpt><trkpt lat="44.8003896" lon="9.5121027"><ele>259.0</ele><time>2026-04-18T06:47:17.325Z</time></trkpt><trkpt lat="44.8003214" lon="9.5122365"><ele>258.0</ele><time>2026-04-18T06:47:18.325Z</time></trkpt><trkpt lat="44.8002344" lon="9.5123495"><ele>257.0</ele><time>2026-04-18T06:47:19.325Z</time></trkpt><trkpt lat="44.8001391" lon="9.5124324"><ele>256.0</ele><time>2026-04-18T06:47:20.325Z</time></trkpt><trkpt lat="44.800044" lon="9.5124957"><ele>258.0</ele><time>2026-04-18T06:47:21.325Z</time></trkpt><trkpt lat="44.799956" lon="9.5125582"><ele>260.0</ele><time>2026-04-18T06:47:22.325Z</time></trkpt><trkpt lat="44.7998769" lon="9.5126267"><ele>262.0</ele><time>2026-04-18T06:47:23.325Z</time></trkpt><trkpt lat="44.799804" lon="9.5126944"><ele>264.0</ele><time>2026-04-18T06:47:24.325Z</time></trkpt><trkpt lat="44.7997363" lon="9.5127455"><ele>266.0</ele><time>2026-04-18T06:47:25.325Z</time></trkpt><trkpt lat="44.7996762" lon="9.5127833"><ele>268.0</ele><time>2026-04-18T06:47:26.325Z</time></trkpt><trkpt lat="44.7995882" lon="9.5128379"><ele>268.0</ele><time>2026-04-18T06:47:28.325Z</time></trkpt><trkpt lat="44.7995276" lon="9.5128806"><ele>268.0</ele><time>2026-04-18T06:47:30.325Z</time></trkpt><trkpt lat="44.7994465" lon="9.5129317"><ele>268.0</ele><time>2026-04-18T06:47:33.325Z</time></trkpt><trkpt lat="44.799372" lon="9.5129742"><ele>268.0</ele><time>2026-04-18T06:47:37.325Z</time></trkpt><trkpt lat="44.7992951" lon="9.5130011"><ele>268.0</ele><time>2026-04-18T06:52:54.328Z</time></trkpt><trkpt lat="44.7992125" lon="9.5130725"><ele>268.0</ele><time>2026-04-18T06:52:57.329Z</time></trkpt><trkpt lat="44.7991242" lon="9.5131218"><ele>267.66666666666663</ele><time>2026-04-18T06:52:59.329Z</time></trkpt><trkpt lat="44.7990295" lon="9.513176"><ele>267.3333333333333</ele><time>2026-04-18T06:53:01.329Z</time></trkpt><trkpt lat="44.7989292" lon="9.5132498"><ele>267.0</ele><time>2026-04-18T06:53:03.329Z</time></trkpt><trkpt lat="44.7988637" lon="9.5132902"><ele>266.6666666666667</ele><time>2026-04-18T06:53:04.329Z</time></trkpt><trkpt lat="44.7988032" lon="9.513327"><ele>266.33333333333337</ele><time>2026-04-18T06:53:05.329Z</time></trkpt><trkpt lat="44.7987389" lon="9.5133638"><ele>266.0</ele><time>2026-04-18T06:53:06.329Z</time></trkpt><trkpt lat="44.7986786" lon="9.5133991"><ele>266.0</ele><time>2026-04-18T06:53:07.329Z</time></trkpt><trkpt lat="44.7986149" lon="9.5134361"><ele>266.0</ele><time>2026-04-18T06:53:08.33Z</time></trkpt><trkpt lat="44.798545" lon="9.5134793"><ele>266.0</ele><time>2026-04-18T06:53:09.329Z</time></trkpt><trkpt lat="44.7984679" lon="9.5135163"><ele>266.0</ele><time>2026-04-18T06:53:10.329Z</time></trkpt><trkpt lat="44.7983828" lon="9.5135576"><ele>266.0</ele><time>2026-04-18T06:53:11.329Z</time></trkpt><trkpt lat="44.7982928" lon="9.5135996"><ele>266.0</ele><time>2026-04-18T06:53:12.329Z</time></trkpt><trkpt lat="44.7982005" lon="9.5136418"><ele>265.25</ele><time>2026-04-18T06:53:13.329Z</time></trkpt><trkpt lat="44.7980997" lon="9.5136892"><ele>264.5</ele><time>2026-04-18T06:53:14.329Z</time></trkpt><trkpt lat="44.797998" lon="9.5137372"><ele>263.75</ele><time>2026-04-18T06:53:15.329Z</time></trkpt><trkpt lat="44.7978825" lon="9.5137925"><ele>263.0</ele><time>2026-04-18T06:53:16.329Z</time></trkpt><trkpt lat="44.7977483" lon="9.5138594"><ele>265.0</ele><time>2026-04-18T06:53:17.329Z</time></trkpt><trkpt lat="44.797623" lon="9.5139228"><ele>267.0</ele><time>2026-04-18T06:53:18.329Z</time></trkpt><trkpt lat="44.7974994" lon="9.5139845"><ele>269.0</ele><time>2026-04-18T06:53:19.329Z</time></trkpt><trkpt lat="44.7973876" lon="9.514042"><ele>271.0</ele><time>2026-04-18T06:53:20.329Z</time></trkpt><trkpt lat="44.797287" lon="9.5140923"><ele>271.0</ele><time>2026-04-18T06:53:21.328Z</time></trkpt><trkpt lat="44.7971926" lon="9.5141404"><ele>271.0</ele><time>2026-04-18T06:53:22.329Z</time></trkpt><trkpt lat="44.7970903" lon="9.5141911"><ele>271.0</ele><time>2026-04-18T06:53:23.329Z</time></trkpt><trkpt lat="44.7969821" lon="9.5142452"><ele>271.0</ele><time>2026-04-18T06:53:24.329Z</time></trkpt><trkpt lat="44.7968679" lon="9.5143031"><ele>271.0</ele><time>2026-04-18T06:53:25.329Z</time></trkpt><trkpt lat="44.7967486" lon="9.514363"><ele>270.5</ele><time>2026-04-18T06:53:26.329Z</time></trkpt><trkpt lat="44.7966249" lon="9.5144237"><ele>270.0</ele><time>2026-04-18T06:53:27.33Z</time></trkpt><trkpt lat="44.7965057" lon="9.514481"><ele>269.5</ele><time>2026-04-18T06:53:28.329Z</time></trkpt><trkpt lat="44.7963854" lon="9.5145367"><ele>269.0</ele><time>2026-04-18T06:53:29.329Z</time></trkpt><trkpt lat="44.7962667" lon="9.5145909"><ele>269.0</ele><time>2026-04-18T06:53:30.33Z</time></trkpt><trkpt lat="44.7961493" lon="9.514648"><ele>269.0</ele><time>2026-04-18T06:53:31.329Z</time></trkpt><trkpt lat="44.7960388" lon="9.5147059"><ele>269.0</ele><time>2026-04-18T06:53:32.33Z</time></trkpt><trkpt lat="44.7959373" lon="9.5147614"><ele>269.0</ele><time>2026-04-18T06:53:33.33Z</time></trkpt><trkpt lat="44.7958391" lon="9.5148278"><ele>270.75</ele><time>2026-04-18T06:53:34.33Z</time></trkpt><trkpt lat="44.7957449" lon="9.5149117"><ele>272.5</ele><time>2026-04-18T06:53:35.33Z</time></trkpt><trkpt lat="44.7956583" lon="9.5150166"><ele>274.25</ele><time>2026-04-18T06:53:36.33Z</time></trkpt><trkpt lat="44.795581" lon="9.5151404"><ele>276.0</ele><time>2026-04-18T06:53:37.33Z</time></trkpt><trkpt lat="44.795511" lon="9.5152665"><ele>276.0</ele><time>2026-04-18T06:53:38.33Z</time></trkpt><trkpt lat="44.7954415" lon="9.5153834"><ele>276.0</ele><time>2026-04-18T06:53:39.33Z</time></trkpt><trkpt lat="44.7953679" lon="9.5154833"><ele>276.0</ele><time>2026-04-18T06:53:40.33Z</time></trkpt><trkpt lat="44.7952805" lon="9.5155677"><ele>276.0</ele><time>2026-04-18T06:53:41.33Z</time></trkpt><trkpt lat="44.7951882" lon="9.5156236"><ele>276.0</ele><time>2026-04-18T06:53:42.33Z</time></trkpt><trkpt lat="44.7950943" lon="9.5156467"><ele>276.40000000000003</ele><time>2026-04-18T06:53:43.33Z</time></trkpt><trkpt lat="44.7949963" lon="9.5156364"><ele>276.8</ele><time>2026-04-18T06:53:44.33Z</time></trkpt><trkpt lat="44.794897" lon="9.5156081"><ele>277.20000000000005</ele><time>2026-04-18T06:53:45.33Z</time></trkpt><trkpt lat="44.7947947" lon="9.5155308"><ele>277.6</ele><time>2026-04-18T06:53:46.33Z</time></trkpt><trkpt lat="44.7946927" lon="9.5154417"><ele>278.0</ele><time>2026-04-18T06:53:47.33Z</time></trkpt><trkpt lat="44.794587" lon="9.5153446"><ele>279.75</ele><time>2026-04-18T06:53:48.33Z</time></trkpt><trkpt lat="44.7944771" lon="9.5152439"><ele>281.5</ele><time>2026-04-18T06:53:49.33Z</time></trkpt><trkpt lat="44.7943648" lon="9.5151386"><ele>283.25</ele><time>2026-04-18T06:53:50.33Z</time></trkpt><trkpt lat="44.7942507" lon="9.5150317"><ele>285.0</ele><time>2026-04-18T06:53:51.33Z</time></trkpt><trkpt lat="44.7941338" lon="9.5149265"><ele>285.0</ele><time>2026-04-18T06:53:52.33Z</time></trkpt><trkpt lat="44.794018" lon="9.5148322"><ele>285.0</ele><time>2026-04-18T06:53:53.33Z</time></trkpt><trkpt lat="44.7938991" lon="9.5147435"><ele>285.0</ele><time>2026-04-18T06:53:54.33Z</time></trkpt><trkpt lat="44.7937709" lon="9.5146658"><ele>285.0</ele><time>2026-04-18T06:53:55.33Z</time></trkpt><trkpt lat="44.7936398" lon="9.5145962"><ele>287.5</ele><time>2026-04-18T06:53:56.33Z</time></trkpt><trkpt lat="44.7935046" lon="9.5145303"><ele>290.0</ele><time>2026-04-18T06:53:57.33Z</time></trkpt><trkpt lat="44.7933668" lon="9.5144661"><ele>292.5</ele><time>2026-04-18T06:53:58.33Z</time></trkpt><trkpt lat="44.7932276" lon="9.5144051"><ele>295.0</ele><time>2026-04-18T06:53:59.33Z</time></trkpt><trkpt lat="44.7930834" lon="9.5143489"><ele>295.0</ele><time>2026-04-18T06:54:00.329Z</time></trkpt><trkpt lat="44.7929356" lon="9.5142996"><ele>295.0</ele><time>2026-04-18T06:54:01.33Z</time></trkpt><trkpt lat="44.7927939" lon="9.5142635"><ele>295.0</ele><time>2026-04-18T06:54:02.33Z</time></trkpt><trkpt lat="44.7926527" lon="9.5142412"><ele>295.0</ele><time>2026-04-18T06:54:03.33Z</time></trkpt><trkpt lat="44.7925144" lon="9.5142246"><ele>294.0</ele><time>2026-04-18T06:54:04.33Z</time></trkpt><trkpt lat="44.7923899" lon="9.5142085"><ele>293.0</ele><time>2026-04-18T06:54:05.33Z</time></trkpt><trkpt lat="44.7922726" lon="9.5141809"><ele>292.0</ele><time>2026-04-18T06:54:06.329Z</time></trkpt><trkpt lat="44.7921577" lon="9.5141314"><ele>291.0</ele><time>2026-04-18T06:54:07.33Z</time></trkpt><trkpt lat="44.7920458" lon="9.5140523"><ele>291.0</ele><time>2026-04-18T06:54:08.33Z</time></trkpt><trkpt lat="44.7919324" lon="9.5139589"><ele>291.0</ele><time>2026-04-18T06:54:09.33Z</time></trkpt><trkpt lat="44.7918195" lon="9.5138493"><ele>291.0</ele><time>2026-04-18T06:54:10.33Z</time></trkpt><trkpt lat="44.7917041" lon="9.5137306"><ele>291.0</ele><time>2026-04-18T06:54:11.33Z</time></trkpt><trkpt lat="44.791586" lon="9.5136041"><ele>292.75</ele><time>2026-04-18T06:54:12.33Z</time></trkpt><trkpt lat="44.7914656" lon="9.5134747"><ele>294.5</ele><time>2026-04-18T06:54:13.33Z</time></trkpt><trkpt lat="44.7913522" lon="9.5133543"><ele>296.25</ele><time>2026-04-18T06:54:14.33Z</time></trkpt><trkpt lat="44.7912371" lon="9.5132459"><ele>298.0</ele><time>2026-04-18T06:54:15.33Z</time></trkpt><trkpt lat="44.7911182" lon="9.5131561"><ele>299.25</ele><time>2026-04-18T06:54:16.33Z</time></trkpt><trkpt lat="44.7909907" lon="9.513079"><ele>300.5</ele><time>2026-04-18T06:54:17.33Z</time></trkpt><trkpt lat="44.7908572" lon="9.5130089"><ele>301.75</ele><time>2026-04-18T06:54:18.33Z</time></trkpt><trkpt lat="44.7907181" lon="9.5129447"><ele>303.0</ele><time>2026-04-18T06:54:19.33Z</time></trkpt><trkpt lat="44.7905737" lon="9.5128862"><ele>303.0</ele><time>2026-04-18T06:54:20.33Z</time></trkpt><trkpt lat="44.7904328" lon="9.5128296"><ele>303.0</ele><time>2026-04-18T06:54:21.33Z</time></trkpt><trkpt lat="44.7902928" lon="9.5127714"><ele>303.0</ele><time>2026-04-18T06:54:22.33Z</time></trkpt><trkpt lat="44.7901623" lon="9.5127088"><ele>303.0</ele><time>2026-04-18T06:54:23.33Z</time></trkpt><trkpt lat="44.7900368" lon="9.5126352"><ele>302.5</ele><time>2026-04-18T06:54:24.33Z</time></trkpt><trkpt lat="44.7899205" lon="9.5125432"><ele>302.0</ele><time>2026-04-18T06:54:25.33Z</time></trkpt><trkpt lat="44.7898136" lon="9.5124315"><ele>301.5</ele><time>2026-04-18T06:54:26.33Z</time></trkpt><trkpt lat="44.7897083" lon="9.5123135"><ele>301.0</ele><time>2026-04-18T06:54:27.33Z</time></trkpt><trkpt lat="44.7895962" lon="9.512203"><ele>301.0</ele><time>2026-04-18T06:54:28.33Z</time></trkpt><trkpt lat="44.7894739" lon="9.512115"><ele>301.0</ele><time>2026-04-18T06:54:29.33Z</time></trkpt><trkpt lat="44.7893431" lon="9.5120427"><ele>301.0</ele><time>2026-04-18T06:54:30.33Z</time></trkpt><trkpt lat="44.7892079" lon="9.5119813"><ele>301.0</ele><time>2026-04-18T06:54:31.33Z</time></trkpt><trkpt lat="44.7890694" lon="9.5119305"><ele>305.5</ele><time>2026-04-18T06:54:32.33Z</time></trkpt><trkpt lat="44.7889309" lon="9.5118923"><ele>310.0</ele><time>2026-04-18T06:54:33.33Z</time></trkpt><trkpt lat="44.7887901" lon="9.5119002"><ele>314.5</ele><time>2026-04-18T06:54:34.33Z</time></trkpt><trkpt lat="44.7886514" lon="9.5119355"><ele>319.0</ele><time>2026-04-18T06:54:35.33Z</time></trkpt><trkpt lat="44.7885159" lon="9.5119905"><ele>318.25</ele><time>2026-04-18T06:54:36.33Z</time></trkpt><trkpt lat="44.7883905" lon="9.5120534"><ele>317.5</ele><time>2026-04-18T06:54:37.329Z</time></trkpt><trkpt lat="44.7882771" lon="9.5121138"><ele>316.75</ele><time>2026-04-18T06:54:38.33Z</time></trkpt><trkpt lat="44.7881741" lon="9.512169"><ele>316.0</ele><time>2026-04-18T06:54:39.33Z</time></trkpt><trkpt lat="44.7880756" lon="9.5122122"><ele>313.2</ele><time>2026-04-18T06:54:40.33Z</time></trkpt><trkpt lat="44.787979" lon="9.5122414"><ele>310.40000000000003</ele><time>2026-04-18T06:54:41.33Z</time></trkpt><trkpt lat="44.7878802" lon="9.512251"><ele>307.6</ele><time>2026-04-18T06:54:42.33Z</time></trkpt><trkpt lat="44.7877879" lon="9.5122346"><ele>304.8</ele><time>2026-04-18T06:54:43.33Z</time></trkpt><trkpt lat="44.7877022" lon="9.5121889"><ele>302.0</ele><time>2026-04-18T06:54:44.33Z</time></trkpt><trkpt lat="44.7876208" lon="9.51212"><ele>303.4</ele><time>2026-04-18T06:54:45.33Z</time></trkpt><trkpt lat="44.7875445" lon="9.5120393"><ele>304.79999999999995</ele><time>2026-04-18T06:54:46.33Z</time></trkpt><trkpt lat="44.7874829" lon="9.5119264"><ele>306.2</ele><time>2026-04-18T06:54:47.33Z</time></trkpt><trkpt lat="44.7874268" lon="9.5117952"><ele>307.59999999999997</ele><time>2026-04-18T06:54:48.331Z</time></trkpt><trkpt lat="44.7873764" lon="9.5116535"><ele>309.0</ele><time>2026-04-18T06:54:49.331Z</time></trkpt><trkpt lat="44.7873296" lon="9.5115065"><ele>309.0</ele><time>2026-04-18T06:54:50.331Z</time></trkpt><trkpt lat="44.7872812" lon="9.5113711"><ele>309.0</ele><time>2026-04-18T06:54:51.331Z</time></trkpt><trkpt lat="44.7872186" lon="9.5112447"><ele>309.0</ele><time>2026-04-18T06:54:52.331Z</time></trkpt><trkpt lat="44.7871418" lon="9.5111299"><ele>309.0</ele><time>2026-04-18T06:54:53.331Z</time></trkpt><trkpt lat="44.7870518" lon="9.5110324"><ele>309.0</ele><time>2026-04-18T06:54:54.331Z</time></trkpt><trkpt lat="44.7869495" lon="9.5109537"><ele>310.0</ele><time>2026-04-18T06:54:55.331Z</time></trkpt><trkpt lat="44.7868387" lon="9.5108922"><ele>311.0</ele><time>2026-04-18T06:54:56.331Z</time></trkpt><trkpt lat="44.7867274" lon="9.5108387"><ele>312.0</ele><time>2026-04-18T06:54:57.331Z</time></trkpt><trkpt lat="44.7866088" lon="9.5108065"><ele>313.0</ele><time>2026-04-18T06:54:58.331Z</time></trkpt><trkpt lat="44.7864855" lon="9.5107867"><ele>313.0</ele><time>2026-04-18T06:54:59.331Z</time></trkpt><trkpt lat="44.7863561" lon="9.5107762"><ele>313.0</ele><time>2026-04-18T06:55:00.331Z</time></trkpt><trkpt lat="44.7862245" lon="9.5107729"><ele>313.0</ele><time>2026-04-18T06:55:01.331Z</time></trkpt><trkpt lat="44.7860916" lon="9.5107755"><ele>313.0</ele><time>2026-04-18T06:55:02.331Z</time></trkpt><trkpt lat="44.785955" lon="9.5107858"><ele>312.75</ele><time>2026-04-18T06:55:03.331Z</time></trkpt><trkpt lat="44.7858155" lon="9.510805"><ele>312.5</ele><time>2026-04-18T06:55:04.331Z</time></trkpt><trkpt lat="44.7856819" lon="9.5108331"><ele>312.25</ele><time>2026-04-18T06:55:05.331Z</time></trkpt><trkpt lat="44.7855485" lon="9.5108668"><ele>312.0</ele><time>2026-04-18T06:55:06.331Z</time></trkpt><trkpt lat="44.7854167" lon="9.5109049"><ele>312.0</ele><time>2026-04-18T06:55:07.331Z</time></trkpt><trkpt lat="44.7852878" lon="9.5109585"><ele>312.0</ele><time>2026-04-18T06:55:08.331Z</time></trkpt><trkpt lat="44.785159" lon="9.5110115"><ele>312.0</ele><time>2026-04-18T06:55:09.331Z</time></trkpt><trkpt lat="44.785034" lon="9.5110688"><ele>312.0</ele><time>2026-04-18T06:55:10.331Z</time></trkpt><trkpt lat="44.7849122" lon="9.5111259"><ele>312.75</ele><time>2026-04-18T06:55:11.331Z</time></trkpt><trkpt lat="44.7847978" lon="9.5111778"><ele>313.5</ele><time>2026-04-18T06:55:12.331Z</time></trkpt><trkpt lat="44.7846899" lon="9.5112244"><ele>314.25</ele><time>2026-04-18T06:55:13.331Z</time></trkpt><trkpt lat="44.7845809" lon="9.5112504"><ele>315.0</ele><time>2026-04-18T06:55:14.331Z</time></trkpt><trkpt lat="44.7844678" lon="9.5112598"><ele>315.0</ele><time>2026-04-18T06:55:15.331Z</time></trkpt><trkpt lat="44.7843532" lon="9.511258"><ele>315.0</ele><time>2026-04-18T06:55:16.331Z</time></trkpt><trkpt lat="44.784242" lon="9.5112465"><ele>315.0</ele><time>2026-04-18T06:55:17.331Z</time></trkpt><trkpt lat="44.7841368" lon="9.5112242"><ele>315.0</ele><time>2026-04-18T06:55:18.331Z</time></trkpt><trkpt lat="44.7840423" lon="9.5111961"><ele>315.0</ele><time>2026-04-18T06:55:19.331Z</time></trkpt><trkpt lat="44.7839572" lon="9.5111578"><ele>316.2</ele><time>2026-04-18T06:55:20.331Z</time></trkpt><trkpt lat="44.7838736" lon="9.5111115"><ele>317.4</ele><time>2026-04-18T06:55:21.331Z</time></trkpt><trkpt lat="44.7837986" lon="9.5110304"><ele>318.6</ele><time>2026-04-18T06:55:22.331Z</time></trkpt><trkpt lat="44.7837308" lon="9.5109212"><ele>319.8</ele><time>2026-04-18T06:55:23.331Z</time></trkpt><trkpt lat="44.7836694" lon="9.5107898"><ele>321.0</ele><time>2026-04-18T06:55:24.331Z</time></trkpt><trkpt lat="44.7836101" lon="9.5106495"><ele>321.0</ele><time>2026-04-18T06:55:25.331Z</time></trkpt><trkpt lat="44.7835454" lon="9.5105037"><ele>321.0</ele><time>2026-04-18T06:55:26.33Z</time></trkpt><trkpt lat="44.7834768" lon="9.5103569"><ele>321.0</ele><time>2026-04-18T06:55:27.331Z</time></trkpt><trkpt lat="44.7834076" lon="9.5102124"><ele>321.0</ele><time>2026-04-18T06:55:28.331Z</time></trkpt><trkpt lat="44.7833422" lon="9.5100839"><ele>322.0</ele><time>2026-04-18T06:55:29.331Z</time></trkpt><trkpt lat="44.7832712" lon="9.5099605"><ele>323.0</ele><time>2026-04-18T06:55:30.331Z</time></trkpt><trkpt lat="44.7831958" lon="9.5098511"><ele>324.0</ele><time>2026-04-18T06:55:31.331Z</time></trkpt><trkpt lat="44.7831175" lon="9.5097632"><ele>325.0</ele><time>2026-04-18T06:55:32.331Z</time></trkpt><trkpt lat="44.783038" lon="9.5097029"><ele>326.0</ele><time>2026-04-18T06:55:33.331Z</time></trkpt><trkpt lat="44.7829544" lon="9.5096737"><ele>326.0</ele><time>2026-04-18T06:55:34.331Z</time></trkpt><trkpt lat="44.7828672" lon="9.5096746"><ele>326.0</ele><time>2026-04-18T06:55:35.331Z</time></trkpt><trkpt lat="44.7827829" lon="9.5096933"><ele>326.0</ele><time>2026-04-18T06:55:36.331Z</time></trkpt><trkpt lat="44.7827037" lon="9.5097663"><ele>326.0</ele><time>2026-04-18T06:55:37.33Z</time></trkpt><trkpt lat="44.7826292" lon="9.5098653"><ele>326.0</ele><time>2026-04-18T06:55:38.331Z</time></trkpt><trkpt lat="44.7825537" lon="9.509983"><ele>326.0</ele><time>2026-04-18T06:55:39.331Z</time></trkpt><trkpt lat="44.782487" lon="9.5101159"><ele>326.0</ele><time>2026-04-18T06:55:40.331Z</time></trkpt><trkpt lat="44.7824243" lon="9.5102421"><ele>326.0</ele><time>2026-04-18T06:55:41.331Z</time></trkpt><trkpt lat="44.7823642" lon="9.5103566"><ele>326.0</ele><time>2026-04-18T06:55:42.331Z</time></trkpt><trkpt lat="44.7822978" lon="9.5104597"><ele>326.0</ele><time>2026-04-18T06:55:43.331Z</time></trkpt><trkpt lat="44.7822239" lon="9.5105407"><ele>326.0</ele><time>2026-04-18T06:55:44.331Z</time></trkpt><trkpt lat="44.7821407" lon="9.5105962"><ele>326.0</ele><time>2026-04-18T06:55:45.331Z</time></trkpt><trkpt lat="44.7820517" lon="9.5106237"><ele>326.0</ele><time>2026-04-18T06:55:46.331Z</time></trkpt><trkpt lat="44.781959" lon="9.5106233"><ele>326.0</ele><time>2026-04-18T06:55:47.331Z</time></trkpt><trkpt lat="44.7818607" lon="9.5105992"><ele>326.0</ele><time>2026-04-18T06:55:48.331Z</time></trkpt><trkpt lat="44.7817578" lon="9.5105596"><ele>326.75</ele><time>2026-04-18T06:55:49.331Z</time></trkpt><trkpt lat="44.7816492" lon="9.5105166"><ele>327.5</ele><time>2026-04-18T06:55:50.33Z</time></trkpt><trkpt lat="44.781537" lon="9.510481"><ele>328.25</ele><time>2026-04-18T06:55:51.331Z</time></trkpt><trkpt lat="44.7814223" lon="9.5104654"><ele>329.0</ele><time>2026-04-18T06:55:52.331Z</time></trkpt><trkpt lat="44.7813074" lon="9.5104709"><ele>329.0</ele><time>2026-04-18T06:55:53.331Z</time></trkpt><trkpt lat="44.7811916" lon="9.5104862"><ele>329.0</ele><time>2026-04-18T06:55:54.331Z</time></trkpt><trkpt lat="44.7810737" lon="9.5105018"><ele>329.0</ele><time>2026-04-18T06:55:55.331Z</time></trkpt><trkpt lat="44.7809541" lon="9.5105162"><ele>329.0</ele><time>2026-04-18T06:55:56.331Z</time></trkpt><trkpt lat="44.7808334" lon="9.510528"><ele>330.25</ele><time>2026-04-18T06:55:57.331Z</time></trkpt><trkpt lat="44.7807113" lon="9.510533"><ele>331.5</ele><time>2026-04-18T06:55:58.331Z</time></trkpt><trkpt lat="44.780596" lon="9.510534"><ele>332.75</ele><time>2026-04-18T06:55:59.331Z</time></trkpt><trkpt lat="44.780486" lon="9.5105326"><ele>334.0</ele><time>2026-04-18T06:56:00.331Z</time></trkpt><trkpt lat="44.7803834" lon="9.5105291"><ele>334.0</ele><time>2026-04-18T06:56:01.331Z</time></trkpt><trkpt lat="44.7802901" lon="9.5105108"><ele>334.0</ele><time>2026-04-18T06:56:02.331Z</time></trkpt><trkpt lat="44.7801995" lon="9.5104739"><ele>334.0</ele><time>2026-04-18T06:56:03.331Z</time></trkpt><trkpt lat="44.7801133" lon="9.5104135"><ele>334.0</ele><time>2026-04-18T06:56:04.331Z</time></trkpt><trkpt lat="44.7800292" lon="9.5103296"><ele>334.0</ele><time>2026-04-18T06:56:05.332Z</time></trkpt><trkpt lat="44.7799431" lon="9.5102304"><ele>336.0</ele><time>2026-04-18T06:56:06.332Z</time></trkpt><trkpt lat="44.7798514" lon="9.5101218"><ele>338.0</ele><time>2026-04-18T06:56:07.332Z</time></trkpt><trkpt lat="44.7797553" lon="9.510007"><ele>340.0</ele><time>2026-04-18T06:56:08.332Z</time></trkpt><trkpt lat="44.7796568" lon="9.5098897"><ele>342.0</ele><time>2026-04-18T06:56:09.332Z</time></trkpt><trkpt lat="44.7795531" lon="9.5097666"><ele>342.0</ele><time>2026-04-18T06:56:10.332Z</time></trkpt><trkpt lat="44.7794485" lon="9.5096453"><ele>342.0</ele><time>2026-04-18T06:56:11.332Z</time></trkpt><trkpt lat="44.7793486" lon="9.5095375"><ele>342.0</ele><time>2026-04-18T06:56:12.332Z</time></trkpt><trkpt lat="44.779245" lon="9.5094365"><ele>342.0</ele><time>2026-04-18T06:56:13.331Z</time></trkpt><trkpt lat="44.779142" lon="9.5093526"><ele>343.0</ele><time>2026-04-18T06:56:14.332Z</time></trkpt><trkpt lat="44.7790371" lon="9.5092899"><ele>344.0</ele><time>2026-04-18T06:56:15.332Z</time></trkpt><trkpt lat="44.7789238" lon="9.5092472"><ele>345.0</ele><time>2026-04-18T06:56:16.332Z</time></trkpt><trkpt lat="44.7788057" lon="9.5092183"><ele>346.0</ele><time>2026-04-18T06:56:17.332Z</time></trkpt><trkpt lat="44.7786834" lon="9.5091971"><ele>346.0</ele><time>2026-04-18T06:56:18.332Z</time></trkpt><trkpt lat="44.7785634" lon="9.5091767"><ele>346.0</ele><time>2026-04-18T06:56:19.332Z</time></trkpt><trkpt lat="44.77847" lon="9.5091625"><ele>346.0</ele><time>2026-04-18T06:56:20.332Z</time></trkpt><trkpt lat="44.7783911" lon="9.5091469"><ele>346.0</ele><time>2026-04-18T06:56:21.332Z</time></trkpt><trkpt lat="44.7782914" lon="9.5091061"><ele>346.0</ele><time>2026-04-18T06:56:23.332Z</time></trkpt><trkpt lat="44.7782501" lon="9.5089999"><ele>346.0</ele><time>2026-04-18T06:56:25.332Z</time></trkpt><trkpt lat="44.778299" lon="9.5088507"><ele>346.0</ele><time>2026-04-18T06:56:27.332Z</time></trkpt><trkpt lat="44.7783577" lon="9.5088114"><ele>346.0</ele><time>2026-04-18T06:56:28.332Z</time></trkpt><trkpt lat="44.7784343" lon="9.5088053"><ele>346.0</ele><time>2026-04-18T06:56:29.332Z</time></trkpt><trkpt lat="44.7785202" lon="9.5088098"><ele>346.0</ele><time>2026-04-18T06:56:30.332Z</time></trkpt><trkpt lat="44.7786216" lon="9.5088347"><ele>346.0</ele><time>2026-04-18T06:56:31.332Z</time></trkpt><trkpt lat="44.7787435" lon="9.5088645"><ele>346.0</ele><time>2026-04-18T06:56:32.332Z</time></trkpt><trkpt lat="44.7788754" lon="9.5088939"><ele>346.0</ele><time>2026-04-18T06:56:33.332Z</time></trkpt><trkpt lat="44.7790128" lon="9.5089283"><ele>346.0</ele><time>2026-04-18T06:56:34.332Z</time></trkpt><trkpt lat="44.7791548" lon="9.5089705"><ele>346.0</ele><time>2026-04-18T06:56:35.332Z</time></trkpt><trkpt lat="44.7793025" lon="9.5090118"><ele>348.0</ele><time>2026-04-18T06:56:36.332Z</time></trkpt><trkpt lat="44.7794522" lon="9.5090522"><ele>350.0</ele><time>2026-04-18T06:56:37.332Z</time></trkpt><trkpt lat="44.7796008" lon="9.5090879"><ele>352.0</ele><time>2026-04-18T06:56:38.332Z</time></trkpt><trkpt lat="44.7797401" lon="9.5091214"><ele>354.0</ele><time>2026-04-18T06:56:39.332Z</time></trkpt><trkpt lat="44.7798662" lon="9.5091545"><ele>354.0</ele><time>2026-04-18T06:56:40.332Z</time></trkpt><trkpt lat="44.7799798" lon="9.5091894"><ele>354.0</ele><time>2026-04-18T06:56:41.332Z</time></trkpt><trkpt lat="44.7800795" lon="9.5092157"><ele>354.0</ele><time>2026-04-18T06:56:42.332Z</time></trkpt><trkpt lat="44.780174" lon="9.5092265"><ele>354.0</ele><time>2026-04-18T06:56:43.332Z</time></trkpt><trkpt lat="44.7802732" lon="9.5092136"><ele>354.0</ele><time>2026-04-18T06:56:44.332Z</time></trkpt><trkpt lat="44.7803816" lon="9.509168"><ele>354.25</ele><time>2026-04-18T06:56:45.332Z</time></trkpt><trkpt lat="44.7804944" lon="9.5090945"><ele>354.5</ele><time>2026-04-18T06:56:46.332Z</time></trkpt><trkpt lat="44.7806122" lon="9.5090046"><ele>354.75</ele><time>2026-04-18T06:56:47.332Z</time></trkpt><trkpt lat="44.780734" lon="9.5089158"><ele>355.0</ele><time>2026-04-18T06:56:48.332Z</time></trkpt><trkpt lat="44.7808505" lon="9.5088313"><ele>355.0</ele><time>2026-04-18T06:56:49.331Z</time></trkpt><trkpt lat="44.7809634" lon="9.5087492"><ele>355.0</ele><time>2026-04-18T06:56:50.332Z</time></trkpt><trkpt lat="44.7810632" lon="9.5086695"><ele>355.0</ele><time>2026-04-18T06:56:51.332Z</time></trkpt><trkpt lat="44.7811477" lon="9.5085937"><ele>355.0</ele><time>2026-04-18T06:56:52.332Z</time></trkpt><trkpt lat="44.781217" lon="9.5085186"><ele>355.0</ele><time>2026-04-18T06:56:53.332Z</time></trkpt><trkpt lat="44.7812669" lon="9.5084402"><ele>356.66666666666663</ele><time>2026-04-18T06:56:54.332Z</time></trkpt><trkpt lat="44.7812917" lon="9.5083538"><ele>358.3333333333333</ele><time>2026-04-18T06:56:55.332Z</time></trkpt><trkpt lat="44.7812491" lon="9.50821"><ele>360.0</ele><time>2026-04-18T06:56:57.332Z</time></trkpt><trkpt lat="44.7811881" lon="9.5081813"><ele>361.6666666666667</ele><time>2026-04-18T06:56:58.332Z</time></trkpt><trkpt lat="44.7811096" lon="9.5081904"><ele>363.33333333333337</ele><time>2026-04-18T06:56:59.332Z</time></trkpt><trkpt lat="44.7810188" lon="9.5082185"><ele>365.0</ele><time>2026-04-18T06:57:00.332Z</time></trkpt><trkpt lat="44.7809166" lon="9.5082478"><ele>366.0</ele><time>2026-04-18T06:57:01.332Z</time></trkpt><trkpt lat="44.7808041" lon="9.508271"><ele>367.0</ele><time>2026-04-18T06:57:02.332Z</time></trkpt><trkpt lat="44.780688" lon="9.5082825"><ele>368.0</ele><time>2026-04-18T06:57:03.332Z</time></trkpt><trkpt lat="44.7805835" lon="9.508278"><ele>369.0</ele><time>2026-04-18T06:57:04.332Z</time></trkpt><trkpt lat="44.7804984" lon="9.5082625"><ele>370.0</ele><time>2026-04-18T06:57:05.332Z</time></trkpt><trkpt lat="44.7804291" lon="9.5082401"><ele>370.0</ele><time>2026-04-18T06:57:06.332Z</time></trkpt><trkpt lat="44.7803292" lon="9.5081611"><ele>370.0</ele><time>2026-04-18T06:57:08.332Z</time></trkpt><trkpt lat="44.7803017" lon="9.5080202"><ele>370.0</ele><time>2026-04-18T06:57:10.332Z</time></trkpt><trkpt lat="44.7803861" lon="9.5078921"><ele>370.0</ele><time>2026-04-18T06:57:12.332Z</time></trkpt><trkpt lat="44.780468" lon="9.5078664"><ele>370.0</ele><time>2026-04-18T06:57:13.332Z</time></trkpt><trkpt lat="44.7805769" lon="9.5078514"><ele>372.4</ele><time>2026-04-18T06:57:14.332Z</time></trkpt><trkpt lat="44.7806847" lon="9.5078364"><ele>374.8</ele><time>2026-04-18T06:57:15.332Z</time></trkpt><trkpt lat="44.7807917" lon="9.5078231"><ele>377.20000000000005</ele><time>2026-04-18T06:57:16.332Z</time></trkpt><trkpt lat="44.7808939" lon="9.5078171"><ele>379.6</ele><time>2026-04-18T06:57:17.332Z</time></trkpt><trkpt lat="44.7809836" lon="9.5078175"><ele>382.0</ele><time>2026-04-18T06:57:18.332Z</time></trkpt><trkpt lat="44.7810605" lon="9.5078143"><ele>382.0</ele><time>2026-04-18T06:57:19.332Z</time></trkpt><trkpt lat="44.7811262" lon="9.5078052"><ele>382.0</ele><time>2026-04-18T06:57:20.332Z</time></trkpt><trkpt lat="44.7812318" lon="9.5077541"><ele>382.0</ele><time>2026-04-18T06:57:22.333Z</time></trkpt><trkpt lat="44.7812822" lon="9.5076297"><ele>382.0</ele><time>2026-04-18T06:57:24.333Z</time></trkpt><trkpt lat="44.781226" lon="9.5074969"><ele>382.0</ele><time>2026-04-18T06:57:26.333Z</time></trkpt><trkpt lat="44.7811644" lon="9.507457"><ele>382.0</ele><time>2026-04-18T06:57:27.333Z</time></trkpt><trkpt lat="44.7810715" lon="9.5074613"><ele>382.0</ele><time>2026-04-18T06:57:28.333Z</time></trkpt><trkpt lat="44.7809694" lon="9.5074613"><ele>382.0</ele><time>2026-04-18T06:57:29.333Z</time></trkpt><trkpt lat="44.7808708" lon="9.5074489"><ele>382.0</ele><time>2026-04-18T06:57:30.333Z</time></trkpt><trkpt lat="44.7807729" lon="9.5074236"><ele>382.0</ele><time>2026-04-18T06:57:31.332Z</time></trkpt><trkpt lat="44.7806681" lon="9.5073896"><ele>383.0</ele><time>2026-04-18T06:57:32.333Z</time></trkpt><trkpt lat="44.7805612" lon="9.507334"><ele>384.0</ele><time>2026-04-18T06:57:33.333Z</time></trkpt><trkpt lat="44.7804499" lon="9.5072555"><ele>385.0</ele><time>2026-04-18T06:57:34.333Z</time></trkpt><trkpt lat="44.7803414" lon="9.5071838"><ele>386.0</ele><time>2026-04-18T06:57:35.333Z</time></trkpt><trkpt lat="44.7802377" lon="9.5071225"><ele>389.20000000000005</ele><time>2026-04-18T06:57:36.333Z</time></trkpt><trkpt lat="44.7801319" lon="9.5070698"><ele>392.40000000000003</ele><time>2026-04-18T06:57:37.332Z</time></trkpt><trkpt lat="44.7800334" lon="9.5070266"><ele>395.6</ele><time>2026-04-18T06:57:38.333Z</time></trkpt><trkpt lat="44.7799473" lon="9.50699"><ele>398.8</ele><time>2026-04-18T06:57:39.333Z</time></trkpt><trkpt lat="44.7798689" lon="9.506953"><ele>402.0</ele><time>2026-04-18T06:57:40.333Z</time></trkpt><trkpt lat="44.7798052" lon="9.5069137"><ele>402.0</ele><time>2026-04-18T06:57:41.333Z</time></trkpt><trkpt lat="44.7797326" lon="9.5067868"><ele>402.0</ele><time>2026-04-18T06:57:43.333Z</time></trkpt><trkpt lat="44.7797698" lon="9.5066322"><ele>402.0</ele><time>2026-04-18T06:57:45.333Z</time></trkpt><trkpt lat="44.7798307" lon="9.5066013"><ele>402.0</ele><time>2026-04-18T06:57:46.333Z</time></trkpt><trkpt lat="44.779905" lon="9.5066115"><ele>402.0</ele><time>2026-04-18T06:57:47.333Z</time></trkpt><trkpt lat="44.7799881" lon="9.506649"><ele>402.0</ele><time>2026-04-18T06:57:48.333Z</time></trkpt><trkpt lat="44.7800845" lon="9.5066875"><ele>402.0</ele><time>2026-04-18T06:57:49.333Z</time></trkpt><trkpt lat="44.7801988" lon="9.5067105"><ele>402.0</ele><time>2026-04-18T06:57:50.333Z</time></trkpt><trkpt lat="44.7803131" lon="9.506727"><ele>402.0</ele><time>2026-04-18T06:57:51.332Z</time></trkpt><trkpt lat="44.7804254" lon="9.5067421"><ele>402.0</ele><time>2026-04-18T06:57:52.333Z</time></trkpt><trkpt lat="44.7805291" lon="9.5067593"><ele>401.6666666666667</ele><time>2026-04-18T06:57:53.333Z</time></trkpt><trkpt lat="44.7806244" lon="9.506774"><ele>401.33333333333337</ele><time>2026-04-18T06:57:54.333Z</time></trkpt><trkpt lat="44.7807096" lon="9.5067838"><ele>401.0</ele><time>2026-04-18T06:57:55.333Z</time></trkpt><trkpt lat="44.7807755" lon="9.5067756"><ele>400.6666666666667</ele><time>2026-04-18T06:57:56.333Z</time></trkpt><trkpt lat="44.780875" lon="9.5066876"><ele>400.33333333333337</ele><time>2026-04-18T06:57:58.333Z</time></trkpt><trkpt lat="44.7809189" lon="9.5066063"><ele>400.0</ele><time>2026-04-18T06:57:59.333Z</time></trkpt><trkpt lat="44.7809502" lon="9.506508"><ele>400.00000000000006</ele><time>2026-04-18T06:58:00.333Z</time></trkpt><trkpt lat="44.7809812" lon="9.5064142"><ele>400.0</ele><time>2026-04-18T06:58:01.333Z</time></trkpt><trkpt lat="44.7810247" lon="9.5063307"><ele>400.0</ele><time>2026-04-18T06:58:02.333Z</time></trkpt><trkpt lat="44.7810898" lon="9.5062606"><ele>400.0</ele><time>2026-04-18T06:58:03.333Z</time></trkpt><trkpt lat="44.7811592" lon="9.5062046"><ele>400.00000000000006</ele><time>2026-04-18T06:58:04.333Z</time></trkpt><trkpt lat="44.7812377" lon="9.5061594"><ele>400.0</ele><time>2026-04-18T06:58:05.333Z</time></trkpt><trkpt lat="44.7813005" lon="9.5060929"><ele>401.50000000000006</ele><time>2026-04-18T06:58:06.333Z</time></trkpt><trkpt lat="44.7813532" lon="9.506008"><ele>403.0</ele><time>2026-04-18T06:58:07.333Z</time></trkpt><trkpt lat="44.7813654" lon="9.5058895"><ele>404.5</ele><time>2026-04-18T06:58:08.333Z</time></trkpt><trkpt lat="44.7813673" lon="9.5057707"><ele>406.0</ele><time>2026-04-18T06:58:09.333Z</time></trkpt><trkpt lat="44.7813364" lon="9.5056573"><ele>407.50000000000006</ele><time>2026-04-18T06:58:10.333Z</time></trkpt><trkpt lat="44.7812849" lon="9.5055545"><ele>409.0</ele><time>2026-04-18T06:58:11.332Z</time></trkpt><trkpt lat="44.7812123" lon="9.505475"><ele>411.4</ele><time>2026-04-18T06:58:12.333Z</time></trkpt><trkpt lat="44.7811287" lon="9.5054105"><ele>413.79999999999995</ele><time>2026-04-18T06:58:13.333Z</time></trkpt><trkpt lat="44.7810332" lon="9.5053665"><ele>416.20000000000005</ele><time>2026-04-18T06:58:14.333Z</time></trkpt><trkpt lat="44.7809391" lon="9.505305"><ele>418.6</ele><time>2026-04-18T06:58:15.333Z</time></trkpt><trkpt lat="44.7808499" lon="9.5052405"><ele>421.0</ele><time>2026-04-18T06:58:16.333Z</time></trkpt><trkpt lat="44.7807687" lon="9.5051795"><ele>421.00000000000006</ele><time>2026-04-18T06:58:17.333Z</time></trkpt><trkpt lat="44.7806886" lon="9.5051281"><ele>421.0</ele><time>2026-04-18T06:58:18.333Z</time></trkpt><trkpt lat="44.7806177" lon="9.5051327"><ele>421.0</ele><time>2026-04-18T06:58:19.333Z</time></trkpt><trkpt lat="44.7805555" lon="9.5051834"><ele>421.0</ele><time>2026-04-18T06:58:20.333Z</time></trkpt><trkpt lat="44.7805017" lon="9.5052699"><ele>421.00000000000006</ele><time>2026-04-18T06:58:21.333Z</time></trkpt><trkpt lat="44.7804422" lon="9.5053612"><ele>421.0</ele><time>2026-04-18T06:58:22.333Z</time></trkpt><trkpt lat="44.7803688" lon="9.5054374"><ele>419.4</ele><time>2026-04-18T06:58:23.333Z</time></trkpt><trkpt lat="44.7802857" lon="9.5054947"><ele>417.8</ele><time>2026-04-18T06:58:24.333Z</time></trkpt><trkpt lat="44.7801979" lon="9.5055355"><ele>416.2</ele><time>2026-04-18T06:58:25.333Z</time></trkpt><trkpt lat="44.7801081" lon="9.5055556"><ele>414.59999999999997</ele><time>2026-04-18T06:58:26.333Z</time></trkpt><trkpt lat="44.7800161" lon="9.5055609"><ele>413.0</ele><time>2026-04-18T06:58:27.333Z</time></trkpt><trkpt lat="44.7799172" lon="9.50553"><ele>413.0</ele><time>2026-04-18T06:58:28.333Z</time></trkpt><trkpt lat="44.7798187" lon="9.5054847"><ele>413.0</ele><time>2026-04-18T06:58:29.333Z</time></trkpt><trkpt lat="44.7797175" lon="9.5054277"><ele>413.0</ele><time>2026-04-18T06:58:30.333Z</time></trkpt><trkpt lat="44.7796212" lon="9.5053511"><ele>413.0</ele><time>2026-04-18T06:58:31.333Z</time></trkpt><trkpt lat="44.7795246" lon="9.5052714"><ele>413.0</ele><time>2026-04-18T06:58:32.333Z</time></trkpt><trkpt lat="44.7794281" lon="9.5051892"><ele>418.0</ele><time>2026-04-18T06:58:33.333Z</time></trkpt><trkpt lat="44.7793279" lon="9.5051064"><ele>423.0</ele><time>2026-04-18T06:58:34.333Z</time></trkpt><trkpt lat="44.7792305" lon="9.5050218"><ele>428.0</ele><time>2026-04-18T06:58:35.333Z</time></trkpt><trkpt lat="44.7791337" lon="9.5049319"><ele>433.0</ele><time>2026-04-18T06:58:36.333Z</time></trkpt><trkpt lat="44.77904" lon="9.5048361"><ele>433.0</ele><time>2026-04-18T06:58:37.334Z</time></trkpt><trkpt lat="44.778951" lon="9.5047349"><ele>432.99999999999994</ele><time>2026-04-18T06:58:38.334Z</time></trkpt><trkpt lat="44.7788685" lon="9.5046355"><ele>432.99999999999994</ele><time>2026-04-18T06:58:39.334Z</time></trkpt><trkpt lat="44.7787942" lon="9.5045483"><ele>433.0</ele><time>2026-04-18T06:58:40.334Z</time></trkpt><trkpt lat="44.7787087" lon="9.5044812"><ele>433.0</ele><time>2026-04-18T06:58:41.334Z</time></trkpt><trkpt lat="44.7786067" lon="9.5044374"><ele>437.0</ele><time>2026-04-18T06:58:42.334Z</time></trkpt><trkpt lat="44.778496" lon="9.5044126"><ele>440.99999999999994</ele><time>2026-04-18T06:58:43.334Z</time></trkpt><trkpt lat="44.778382" lon="9.5043993"><ele>444.99999999999994</ele><time>2026-04-18T06:58:44.334Z</time></trkpt><trkpt lat="44.7782687" lon="9.5043881"><ele>449.0</ele><time>2026-04-18T06:58:45.334Z</time></trkpt><trkpt lat="44.7781677" lon="9.5043814"><ele>453.0</ele><time>2026-04-18T06:58:46.334Z</time></trkpt><trkpt lat="44.7780693" lon="9.5043929"><ele>453.0</ele><time>2026-04-18T06:58:47.334Z</time></trkpt><trkpt lat="44.7779745" lon="9.5044353"><ele>452.99999999999994</ele><time>2026-04-18T06:58:48.334Z</time></trkpt><trkpt lat="44.7778864" lon="9.504502"><ele>452.99999999999994</ele><time>2026-04-18T06:58:49.334Z</time></trkpt><trkpt lat="44.7777998" lon="9.5045737"><ele>453.0</ele><time>2026-04-18T06:58:50.334Z</time></trkpt><trkpt lat="44.7777144" lon="9.5046287"><ele>453.0</ele><time>2026-04-18T06:58:51.334Z</time></trkpt><trkpt lat="44.7776308" lon="9.504654"><ele>454.0</ele><time>2026-04-18T06:58:52.334Z</time></trkpt><trkpt lat="44.7775565" lon="9.5046616"><ele>455.0</ele><time>2026-04-18T06:58:53.334Z</time></trkpt><trkpt lat="44.7774931" lon="9.5046153"><ele>456.0</ele><time>2026-04-18T06:58:54.334Z</time></trkpt><trkpt lat="44.7774316" lon="9.5045322"><ele>457.0</ele><time>2026-04-18T06:58:55.334Z</time></trkpt><trkpt lat="44.7773738" lon="9.5044394"><ele>458.0</ele><time>2026-04-18T06:58:56.334Z</time></trkpt><trkpt lat="44.7773194" lon="9.5043681"><ele>459.0</ele><time>2026-04-18T06:58:57.334Z</time></trkpt><trkpt lat="44.7772661" lon="9.5043125"><ele>459.0</ele><time>2026-04-18T06:58:58.334Z</time></trkpt><trkpt lat="44.7771474" lon="9.5043261"><ele>459.0</ele><time>2026-04-18T06:59:00.333Z</time></trkpt><trkpt lat="44.7770942" lon="9.5043803"><ele>459.0</ele><time>2026-04-18T06:59:01.334Z</time></trkpt><trkpt lat="44.7770559" lon="9.5044627"><ele>459.0</ele><time>2026-04-18T06:59:02.334Z</time></trkpt><trkpt lat="44.7770275" lon="9.5045543"><ele>459.0</ele><time>2026-04-18T06:59:03.334Z</time></trkpt><trkpt lat="44.7769962" lon="9.5046327"><ele>459.0</ele><time>2026-04-18T06:59:04.334Z</time></trkpt><trkpt lat="44.7768921" lon="9.5047226"><ele>457.2</ele><time>2026-04-18T06:59:06.334Z</time></trkpt><trkpt lat="44.7768134" lon="9.5047232"><ele>455.4</ele><time>2026-04-18T06:59:07.334Z</time></trkpt><trkpt lat="44.7767255" lon="9.5047052"><ele>453.6</ele><time>2026-04-18T06:59:08.334Z</time></trkpt><trkpt lat="44.7766298" lon="9.5046871"><ele>451.8</ele><time>2026-04-18T06:59:09.334Z</time></trkpt><trkpt lat="44.7765191" lon="9.5046664"><ele>450.0</ele><time>2026-04-18T06:59:10.334Z</time></trkpt><trkpt lat="44.7764012" lon="9.5046339"><ele>450.0</ele><time>2026-04-18T06:59:11.334Z</time></trkpt><trkpt lat="44.7762821" lon="9.5045899"><ele>450.0</ele><time>2026-04-18T06:59:12.334Z</time></trkpt><trkpt lat="44.7761653" lon="9.5045426"><ele>450.0</ele><time>2026-04-18T06:59:13.334Z</time></trkpt><trkpt lat="44.776052" lon="9.5044943"><ele>450.0</ele><time>2026-04-18T06:59:14.334Z</time></trkpt><trkpt lat="44.7759385" lon="9.5044458"><ele>454.3333333333333</ele><time>2026-04-18T06:59:15.334Z</time></trkpt><trkpt lat="44.7758344" lon="9.5043943"><ele>458.66666666666663</ele><time>2026-04-18T06:59:16.334Z</time></trkpt><trkpt lat="44.7757477" lon="9.5043473"><ele>463.0</ele><time>2026-04-18T06:59:17.334Z</time></trkpt><trkpt lat="44.7756739" lon="9.5043078"><ele>467.3333333333333</ele><time>2026-04-18T06:59:18.334Z</time></trkpt><trkpt lat="44.7756009" lon="9.5042804"><ele>471.66666666666663</ele><time>2026-04-18T06:59:19.334Z</time></trkpt><trkpt lat="44.7755209" lon="9.5042685"><ele>476.0</ele><time>2026-04-18T06:59:20.334Z</time></trkpt><trkpt lat="44.7754396" lon="9.5042659"><ele>476.0</ele><time>2026-04-18T06:59:21.334Z</time></trkpt><trkpt lat="44.7753482" lon="9.5042825"><ele>476.0</ele><time>2026-04-18T06:59:22.334Z</time></trkpt><trkpt lat="44.7752527" lon="9.5042959"><ele>476.0</ele><time>2026-04-18T06:59:23.334Z</time></trkpt><trkpt lat="44.7751573" lon="9.5042983"><ele>476.0</ele><time>2026-04-18T06:59:24.334Z</time></trkpt><trkpt lat="44.7750599" lon="9.5042838"><ele>476.0</ele><time>2026-04-18T06:59:25.334Z</time></trkpt><trkpt lat="44.7749639" lon="9.5042464"><ele>475.8</ele><time>2026-04-18T06:59:26.334Z</time></trkpt><trkpt lat="44.7748719" lon="9.5041891"><ele>475.6</ele><time>2026-04-18T06:59:27.334Z</time></trkpt><trkpt lat="44.7747827" lon="9.5041184"><ele>475.4</ele><time>2026-04-18T06:59:28.334Z</time></trkpt><trkpt lat="44.7746966" lon="9.5040504"><ele>475.2</ele><time>2026-04-18T06:59:29.333Z</time></trkpt><trkpt lat="44.77462" lon="9.5039972"><ele>475.0</ele><time>2026-04-18T06:59:30.334Z</time></trkpt><trkpt lat="44.7745459" lon="9.5039592"><ele>475.00000000000006</ele><time>2026-04-18T06:59:31.334Z</time></trkpt><trkpt lat="44.774468" lon="9.503947"><ele>475.0</ele><time>2026-04-18T06:59:32.333Z</time></trkpt><trkpt lat="44.7743889" lon="9.50396"><ele>475.0</ele><time>2026-04-18T06:59:33.334Z</time></trkpt><trkpt lat="44.7743145" lon="9.5039754"><ele>475.0</ele><time>2026-04-18T06:59:34.334Z</time></trkpt><trkpt lat="44.7742421" lon="9.5039681"><ele>475.00000000000006</ele><time>2026-04-18T06:59:35.333Z</time></trkpt><trkpt lat="44.7741638" lon="9.5039296"><ele>475.0</ele><time>2026-04-18T06:59:36.334Z</time></trkpt><trkpt lat="44.7740809" lon="9.5038807"><ele>474.50000000000006</ele><time>2026-04-18T06:59:37.334Z</time></trkpt><trkpt lat="44.7740184" lon="9.5038188"><ele>474.0</ele><time>2026-04-18T06:59:38.334Z</time></trkpt><trkpt lat="44.7739633" lon="9.5037509"><ele>473.5</ele><time>2026-04-18T06:59:39.334Z</time></trkpt><trkpt lat="44.7739199" lon="9.5036555"><ele>473.0</ele><time>2026-04-18T06:59:40.334Z</time></trkpt><trkpt lat="44.7738824" lon="9.5035372"><ele>472.50000000000006</ele><time>2026-04-18T06:59:41.334Z</time></trkpt><trkpt lat="44.7738454" lon="9.5033942"><ele>472.0</ele><time>2026-04-18T06:59:42.334Z</time></trkpt><trkpt lat="44.7738029" lon="9.5032475"><ele>479.25</ele><time>2026-04-18T06:59:43.334Z</time></trkpt><trkpt lat="44.7737501" lon="9.5031003"><ele>486.5</ele><time>2026-04-18T06:59:44.334Z</time></trkpt><trkpt lat="44.773688" lon="9.5029601"><ele>493.75</ele><time>2026-04-18T06:59:45.334Z</time></trkpt><trkpt lat="44.7736247" lon="9.5028306"><ele>501.0</ele><time>2026-04-18T06:59:46.334Z</time></trkpt><trkpt lat="44.7735628" lon="9.5027128"><ele>501.0</ele><time>2026-04-18T06:59:47.334Z</time></trkpt><trkpt lat="44.7734942" lon="9.5026065"><ele>501.0</ele><time>2026-04-18T06:59:48.334Z</time></trkpt><trkpt lat="44.7734147" lon="9.502522"><ele>501.0</ele><time>2026-04-18T06:59:49.334Z</time></trkpt><trkpt lat="44.7733354" lon="9.5024464"><ele>501.0</ele><time>2026-04-18T06:59:50.334Z</time></trkpt><trkpt lat="44.7732417" lon="9.5024079"><ele>501.0</ele><time>2026-04-18T06:59:51.335Z</time></trkpt><trkpt lat="44.7731498" lon="9.5023778"><ele>501.0</ele><time>2026-04-18T06:59:52.334Z</time></trkpt><trkpt lat="44.7730527" lon="9.5023801"><ele>501.0</ele><time>2026-04-18T06:59:53.334Z</time></trkpt><trkpt lat="44.7729409" lon="9.5024127"><ele>501.0</ele><time>2026-04-18T06:59:54.334Z</time></trkpt><trkpt lat="44.7728336" lon="9.5024484"><ele>501.0</ele><time>2026-04-18T06:59:55.335Z</time></trkpt><trkpt lat="44.772729" lon="9.5024908"><ele>501.0</ele><time>2026-04-18T06:59:56.335Z</time></trkpt><trkpt lat="44.7726243" lon="9.5025437"><ele>501.8</ele><time>2026-04-18T06:59:57.335Z</time></trkpt><trkpt lat="44.7725218" lon="9.5025992"><ele>502.6</ele><time>2026-04-18T06:59:58.335Z</time></trkpt><trkpt lat="44.7724173" lon="9.5026602"><ele>503.4</ele><time>2026-04-18T06:59:59.335Z</time></trkpt><trkpt lat="44.7723152" lon="9.5027274"><ele>504.2</ele><time>2026-04-18T07:00:00.335Z</time></trkpt><trkpt lat="44.772223" lon="9.5027899"><ele>505.0</ele><time>2026-04-18T07:00:01.334Z</time></trkpt><trkpt lat="44.7721298" lon="9.5028432"><ele>505.0</ele><time>2026-04-18T07:00:02.335Z</time></trkpt><trkpt lat="44.7720424" lon="9.5028755"><ele>505.0</ele><time>2026-04-18T07:00:03.335Z</time></trkpt><trkpt lat="44.7719571" lon="9.5028803"><ele>505.0</ele><time>2026-04-18T07:00:04.335Z</time></trkpt><trkpt lat="44.7718704" lon="9.502851"><ele>505.0</ele><time>2026-04-18T07:00:05.335Z</time></trkpt><trkpt lat="44.7717816" lon="9.5027942"><ele>505.0</ele><time>2026-04-18T07:00:06.335Z</time></trkpt><trkpt lat="44.7716907" lon="9.5027215"><ele>507.2</ele><time>2026-04-18T07:00:07.335Z</time></trkpt><trkpt lat="44.7715972" lon="9.5026404"><ele>509.4</ele><time>2026-04-18T07:00:08.335Z</time></trkpt><trkpt lat="44.7715039" lon="9.5025622"><ele>511.6</ele><time>2026-04-18T07:00:09.335Z</time></trkpt><trkpt lat="44.7714127" lon="9.5024998"><ele>513.8</ele><time>2026-04-18T07:00:10.335Z</time></trkpt><trkpt lat="44.7713205" lon="9.5024606"><ele>516.0</ele><time>2026-04-18T07:00:11.335Z</time></trkpt><trkpt lat="44.7712271" lon="9.5024452"><ele>516.0</ele><time>2026-04-18T07:00:12.335Z</time></trkpt><trkpt lat="44.7711326" lon="9.5024557"><ele>516.0</ele><time>2026-04-18T07:00:13.335Z</time></trkpt><trkpt lat="44.77104" lon="9.502488"><ele>516.0</ele><time>2026-04-18T07:00:14.335Z</time></trkpt><trkpt lat="44.7709517" lon="9.5025272"><ele>516.0</ele><time>2026-04-18T07:00:15.335Z</time></trkpt><trkpt lat="44.7708733" lon="9.5025531"><ele>516.0</ele><time>2026-04-18T07:00:16.335Z</time></trkpt><trkpt lat="44.7707901" lon="9.5025536"><ele>516.0</ele><time>2026-04-18T07:00:17.335Z</time></trkpt><trkpt lat="44.7707034" lon="9.5025254"><ele>516.6</ele><time>2026-04-18T07:00:18.335Z</time></trkpt><trkpt lat="44.7706133" lon="9.50248"><ele>517.2</ele><time>2026-04-18T07:00:19.335Z</time></trkpt><trkpt lat="44.7705198" lon="9.5024235"><ele>517.8</ele><time>2026-04-18T07:00:20.335Z</time></trkpt><trkpt lat="44.7704262" lon="9.5023657"><ele>518.4</ele><time>2026-04-18T07:00:21.335Z</time></trkpt><trkpt lat="44.770343" lon="9.5023172"><ele>519.0</ele><time>2026-04-18T07:00:22.335Z</time></trkpt><trkpt lat="44.7702677" lon="9.502285"><ele>519.0</ele><time>2026-04-18T07:00:23.335Z</time></trkpt><trkpt lat="44.7701967" lon="9.5022766"><ele>519.0</ele><time>2026-04-18T07:00:24.335Z</time></trkpt><trkpt lat="44.7701324" lon="9.5023058"><ele>519.0</ele><time>2026-04-18T07:00:25.335Z</time></trkpt><trkpt lat="44.7700767" lon="9.5023672"><ele>519.0</ele><time>2026-04-18T07:00:26.335Z</time></trkpt><trkpt lat="44.7700238" lon="9.5024454"><ele>519.0</ele><time>2026-04-18T07:00:27.335Z</time></trkpt><trkpt lat="44.7699952" lon="9.5025723"><ele>519.0</ele><time>2026-04-18T07:00:28.335Z</time></trkpt><trkpt lat="44.7699691" lon="9.5027172"><ele>521.5</ele><time>2026-04-18T07:00:29.335Z</time></trkpt><trkpt lat="44.76994" lon="9.502872"><ele>524.0</ele><time>2026-04-18T07:00:30.335Z</time></trkpt><trkpt lat="44.7699104" lon="9.5030312"><ele>526.5</ele><time>2026-04-18T07:00:31.335Z</time></trkpt><trkpt lat="44.7698896" lon="9.5031956"><ele>529.0</ele><time>2026-04-18T07:00:32.335Z</time></trkpt><trkpt lat="44.7698788" lon="9.5033498"><ele>529.0</ele><time>2026-04-18T07:00:33.335Z</time></trkpt><trkpt lat="44.7698758" lon="9.5034895"><ele>529.0</ele><time>2026-04-18T07:00:34.335Z</time></trkpt><trkpt lat="44.769871" lon="9.5036178"><ele>529.0</ele><time>2026-04-18T07:00:35.335Z</time></trkpt><trkpt lat="44.7698568" lon="9.5037401"><ele>529.0</ele><time>2026-04-18T07:00:36.335Z</time></trkpt><trkpt lat="44.7698301" lon="9.5038528"><ele>529.0</ele><time>2026-04-18T07:00:37.335Z</time></trkpt><trkpt lat="44.7697891" lon="9.5039608"><ele>527.6</ele><time>2026-04-18T07:00:38.335Z</time></trkpt><trkpt lat="44.769741" lon="9.5040686"><ele>526.2</ele><time>2026-04-18T07:00:39.335Z</time></trkpt><trkpt lat="44.7696666" lon="9.5041606"><ele>524.8000000000001</ele><time>2026-04-18T07:00:40.334Z</time></trkpt><trkpt lat="44.76958" lon="9.5042372"><ele>523.4</ele><time>2026-04-18T07:00:41.335Z</time></trkpt><trkpt lat="44.7694912" lon="9.5043033"><ele>522.0</ele><time>2026-04-18T07:00:42.335Z</time></trkpt><trkpt lat="44.7694013" lon="9.5043587"><ele>526.4</ele><time>2026-04-18T07:00:43.335Z</time></trkpt><trkpt lat="44.7693058" lon="9.5044005"><ele>530.8000000000001</ele><time>2026-04-18T07:00:44.335Z</time></trkpt><trkpt lat="44.7692002" lon="9.5044289"><ele>535.2</ele><time>2026-04-18T07:00:45.335Z</time></trkpt><trkpt lat="44.7690903" lon="9.5044409"><ele>539.6</ele><time>2026-04-18T07:00:46.335Z</time></trkpt><trkpt lat="44.7689933" lon="9.5044329"><ele>544.0</ele><time>2026-04-18T07:00:47.335Z</time></trkpt><trkpt lat="44.7689004" lon="9.5043988"><ele>544.0</ele><time>2026-04-18T07:00:48.335Z</time></trkpt><trkpt lat="44.7688084" lon="9.5043328"><ele>544.0</ele><time>2026-04-18T07:00:49.335Z</time></trkpt><trkpt lat="44.7687165" lon="9.5042463"><ele>544.0</ele><time>2026-04-18T07:00:50.335Z</time></trkpt><trkpt lat="44.7686208" lon="9.5041554"><ele>544.0</ele><time>2026-04-18T07:00:51.335Z</time></trkpt><trkpt lat="44.7685146" lon="9.5040799"><ele>544.0</ele><time>2026-04-18T07:00:52.335Z</time></trkpt><trkpt lat="44.7684015" lon="9.5040105"><ele>545.0</ele><time>2026-04-18T07:00:53.335Z</time></trkpt><trkpt lat="44.7682909" lon="9.5039479"><ele>546.0</ele><time>2026-04-18T07:00:54.335Z</time></trkpt><trkpt lat="44.7681782" lon="9.5039167"><ele>547.0</ele><time>2026-04-18T07:00:55.335Z</time></trkpt><trkpt lat="44.7680618" lon="9.5039088"><ele>548.0</ele><time>2026-04-18T07:00:56.335Z</time></trkpt><trkpt lat="44.7679448" lon="9.5039133"><ele>548.0</ele><time>2026-04-18T07:00:57.335Z</time></trkpt><trkpt lat="44.7678305" lon="9.5039211"><ele>548.0</ele><time>2026-04-18T07:00:58.335Z</time></trkpt><trkpt lat="44.7677157" lon="9.5039273"><ele>548.0</ele><time>2026-04-18T07:00:59.335Z</time></trkpt><trkpt lat="44.7675971" lon="9.5039261"><ele>548.0</ele><time>2026-04-18T07:01:00.335Z</time></trkpt><trkpt lat="44.7674734" lon="9.5039218"><ele>546.8</ele><time>2026-04-18T07:01:01.335Z</time></trkpt><trkpt lat="44.7673523" lon="9.5039061"><ele>545.5999999999999</ele><time>2026-04-18T07:01:02.335Z</time></trkpt><trkpt lat="44.7672413" lon="9.503886"><ele>544.4000000000001</ele><time>2026-04-18T07:01:03.335Z</time></trkpt><trkpt lat="44.7671401" lon="9.5038569"><ele>543.2</ele><time>2026-04-18T07:01:04.335Z</time></trkpt><trkpt lat="44.7670532" lon="9.5038186"><ele>542.0</ele><time>2026-04-18T07:01:05.335Z</time></trkpt><trkpt lat="44.766978" lon="9.5037709"><ele>546.0</ele><time>2026-04-18T07:01:06.335Z</time></trkpt><trkpt lat="44.7669063" lon="9.5037034"><ele>550.0</ele><time>2026-04-18T07:01:07.334Z</time></trkpt><trkpt lat="44.7668366" lon="9.5036044"><ele>554.0</ele><time>2026-04-18T07:01:08.335Z</time></trkpt><trkpt lat="44.766762" lon="9.5034874"><ele>558.0</ele><time>2026-04-18T07:01:09.335Z</time></trkpt><trkpt lat="44.7666872" lon="9.5033589"><ele>562.0</ele><time>2026-04-18T07:01:10.335Z</time></trkpt><trkpt lat="44.7666179" lon="9.5032175"><ele>562.0</ele><time>2026-04-18T07:01:11.336Z</time></trkpt><trkpt lat="44.766555" lon="9.5030803"><ele>562.0</ele><time>2026-04-18T07:01:12.335Z</time></trkpt><trkpt lat="44.7664851" lon="9.5029519"><ele>562.0</ele><time>2026-04-18T07:01:13.336Z</time></trkpt><trkpt lat="44.7664025" lon="9.5028358"><ele>562.0</ele><time>2026-04-18T07:01:14.336Z</time></trkpt><trkpt lat="44.7663068" lon="9.5027353"><ele>564.0</ele><time>2026-04-18T07:01:15.335Z</time></trkpt><trkpt lat="44.7661975" lon="9.5026591"><ele>566.0</ele><time>2026-04-18T07:01:16.336Z</time></trkpt><trkpt lat="44.7660766" lon="9.5026162"><ele>568.0</ele><time>2026-04-18T07:01:17.336Z</time></trkpt><trkpt lat="44.7659509" lon="9.5025914"><ele>570.0</ele><time>2026-04-18T07:01:18.336Z</time></trkpt><trkpt lat="44.7658276" lon="9.5025563"><ele>570.0</ele><time>2026-04-18T07:01:19.336Z</time></trkpt><trkpt lat="44.7657084" lon="9.5025084"><ele>570.0</ele><time>2026-04-18T07:01:20.336Z</time></trkpt><trkpt lat="44.7655987" lon="9.5024624"><ele>570.0</ele><time>2026-04-18T07:01:21.336Z</time></trkpt><trkpt lat="44.7654944" lon="9.5024091"><ele>570.0</ele><time>2026-04-18T07:01:22.336Z</time></trkpt><trkpt lat="44.7653931" lon="9.5023558"><ele>570.0</ele><time>2026-04-18T07:01:23.336Z</time></trkpt><trkpt lat="44.7653142" lon="9.5022883"><ele>570.0</ele><time>2026-04-18T07:01:24.336Z</time></trkpt><trkpt lat="44.7652402" lon="9.5022186"><ele>570.0</ele><time>2026-04-18T07:01:25.336Z</time></trkpt><trkpt lat="44.7651763" lon="9.5021178"><ele>570.0</ele><time>2026-04-18T07:01:26.335Z</time></trkpt><trkpt lat="44.7651246" lon="9.5020027"><ele>570.0</ele><time>2026-04-18T07:01:27.336Z</time></trkpt><trkpt lat="44.7650777" lon="9.501899"><ele>573.1666666666666</ele><time>2026-04-18T07:01:28.336Z</time></trkpt><trkpt lat="44.7650142" lon="9.5018173"><ele>576.3333333333334</ele><time>2026-04-18T07:01:29.336Z</time></trkpt><trkpt lat="44.764934" lon="9.5017619"><ele>579.5</ele><time>2026-04-18T07:01:30.336Z</time></trkpt><trkpt lat="44.76485" lon="9.5017178"><ele>582.6666666666667</ele><time>2026-04-18T07:01:31.336Z</time></trkpt><trkpt lat="44.7647768" lon="9.5016625"><ele>585.8333333333334</ele><time>2026-04-18T07:01:32.336Z</time></trkpt><trkpt lat="44.7647071" lon="9.5015946"><ele>589.0</ele><time>2026-04-18T07:01:33.336Z</time></trkpt><trkpt lat="44.7646614" lon="9.5014773"><ele>589.0</ele><time>2026-04-18T07:01:34.336Z</time></trkpt><trkpt lat="44.7646174" lon="9.5013513"><ele>589.0</ele><time>2026-04-18T07:01:35.336Z</time></trkpt><trkpt lat="44.7645733" lon="9.5012172"><ele>589.0</ele><time>2026-04-18T07:01:36.336Z</time></trkpt><trkpt lat="44.7645311" lon="9.5010791"><ele>589.0</ele><time>2026-04-18T07:01:37.336Z</time></trkpt><trkpt lat="44.7644892" lon="9.5009503"><ele>589.0</ele><time>2026-04-18T07:01:38.336Z</time></trkpt><trkpt lat="44.7644476" lon="9.5008441"><ele>590.3333333333334</ele><time>2026-04-18T07:01:39.336Z</time></trkpt><trkpt lat="44.7644015" lon="9.500764"><ele>591.6666666666667</ele><time>2026-04-18T07:01:40.336Z</time></trkpt><trkpt lat="44.7643412" lon="9.5007142"><ele>593.0</ele><time>2026-04-18T07:01:41.336Z</time></trkpt><trkpt lat="44.7642676" lon="9.5007038"><ele>594.3333333333334</ele><time>2026-04-18T07:01:42.336Z</time></trkpt><trkpt lat="44.7641884" lon="9.5007382"><ele>595.6666666666666</ele><time>2026-04-18T07:01:43.335Z</time></trkpt><trkpt lat="44.764107" lon="9.5008042"><ele>597.0</ele><time>2026-04-18T07:01:44.335Z</time></trkpt><trkpt lat="44.7640165" lon="9.5008794"><ele>597.0</ele><time>2026-04-18T07:01:45.336Z</time></trkpt><trkpt lat="44.763924" lon="9.5009499"><ele>597.0</ele><time>2026-04-18T07:01:46.336Z</time></trkpt><trkpt lat="44.7638423" lon="9.501006"><ele>597.0</ele><time>2026-04-18T07:01:47.336Z</time></trkpt><trkpt lat="44.7637668" lon="9.5010447"><ele>597.0</ele><time>2026-04-18T07:01:48.336Z</time></trkpt><trkpt lat="44.763701" lon="9.5010521"><ele>597.0</ele><time>2026-04-18T07:01:49.336Z</time></trkpt><trkpt lat="44.7636025" lon="9.5009562"><ele>597.0</ele><time>2026-04-18T07:01:51.336Z</time></trkpt><trkpt lat="44.7635629" lon="9.5008522"><ele>597.0</ele><time>2026-04-18T07:01:52.336Z</time></trkpt><trkpt lat="44.7635155" lon="9.5007357"><ele>597.0</ele><time>2026-04-18T07:01:53.336Z</time></trkpt><trkpt lat="44.7634631" lon="9.5006269"><ele>597.0</ele><time>2026-04-18T07:01:54.335Z</time></trkpt><trkpt lat="44.7634177" lon="9.5005241"><ele>597.0</ele><time>2026-04-18T07:01:55.336Z</time></trkpt><trkpt lat="44.7633895" lon="9.5004052"><ele>597.0</ele><time>2026-04-18T07:01:56.336Z</time></trkpt><trkpt lat="44.7633687" lon="9.5002826"><ele>598.0</ele><time>2026-04-18T07:01:57.336Z</time></trkpt><trkpt lat="44.7633611" lon="9.5001377"><ele>599.0</ele><time>2026-04-18T07:01:58.336Z</time></trkpt><trkpt lat="44.7633448" lon="9.4999983"><ele>600.0</ele><time>2026-04-18T07:01:59.336Z</time></trkpt><trkpt lat="44.7633188" lon="9.4998732"><ele>601.0</ele><time>2026-04-18T07:02:00.336Z</time></trkpt><trkpt lat="44.7632792" lon="9.4997676"><ele>602.0</ele><time>2026-04-18T07:02:01.336Z</time></trkpt><trkpt lat="44.7632256" lon="9.4996865"><ele>602.0</ele><time>2026-04-18T07:02:02.336Z</time></trkpt><trkpt lat="44.7631543" lon="9.499637"><ele>602.0</ele><time>2026-04-18T07:02:03.336Z</time></trkpt><trkpt lat="44.7630784" lon="9.4995983"><ele>602.0</ele><time>2026-04-18T07:02:04.336Z</time></trkpt><trkpt lat="44.7629836" lon="9.4996084"><ele>602.0</ele><time>2026-04-18T07:02:05.336Z</time></trkpt><trkpt lat="44.7628837" lon="9.4996378"><ele>602.0</ele><time>2026-04-18T07:02:06.336Z</time></trkpt><trkpt lat="44.7627763" lon="9.4996735"><ele>599.25</ele><time>2026-04-18T07:02:07.336Z</time></trkpt><trkpt lat="44.7626615" lon="9.4996978"><ele>596.5</ele><time>2026-04-18T07:02:08.336Z</time></trkpt><trkpt lat="44.762539" lon="9.4997063"><ele>593.75</ele><time>2026-04-18T07:02:09.336Z</time></trkpt><trkpt lat="44.762415" lon="9.4997061"><ele>591.0</ele><time>2026-04-18T07:02:10.336Z</time></trkpt><trkpt lat="44.762302" lon="9.4997071"><ele>591.0</ele><time>2026-04-18T07:02:11.336Z</time></trkpt><trkpt lat="44.7622015" lon="9.499709"><ele>591.0</ele><time>2026-04-18T07:02:12.335Z</time></trkpt><trkpt lat="44.7621151" lon="9.4997045"><ele>591.0</ele><time>2026-04-18T07:02:13.336Z</time></trkpt><trkpt lat="44.762039" lon="9.4996836"><ele>591.0</ele><time>2026-04-18T07:02:14.336Z</time></trkpt><trkpt lat="44.761973" lon="9.4996383"><ele>591.0</ele><time>2026-04-18T07:02:15.336Z</time></trkpt><trkpt lat="44.7619163" lon="9.4995564"><ele>591.0</ele><time>2026-04-18T07:02:16.336Z</time></trkpt><trkpt lat="44.7618601" lon="9.4994396"><ele>596.2</ele><time>2026-04-18T07:02:17.336Z</time></trkpt><trkpt lat="44.7617968" lon="9.4993124"><ele>601.4000000000001</ele><time>2026-04-18T07:02:18.336Z</time></trkpt><trkpt lat="44.7617352" lon="9.4991857"><ele>606.6</ele><time>2026-04-18T07:02:19.336Z</time></trkpt><trkpt lat="44.761688" lon="9.4990731"><ele>611.8000000000001</ele><time>2026-04-18T07:02:20.336Z</time></trkpt><trkpt lat="44.7616479" lon="9.4989756"><ele>617.0</ele><time>2026-04-18T07:02:21.336Z</time></trkpt><trkpt lat="44.7615991" lon="9.4989047"><ele>617.0</ele><time>2026-04-18T07:02:22.336Z</time></trkpt><trkpt lat="44.7615338" lon="9.4988673"><ele>617.0</ele><time>2026-04-18T07:02:23.336Z</time></trkpt><trkpt lat="44.7614599" lon="9.4988719"><ele>617.0</ele><time>2026-04-18T07:02:24.337Z</time></trkpt><trkpt lat="44.7613894" lon="9.4989136"><ele>617.0</ele><time>2026-04-18T07:02:25.337Z</time></trkpt><trkpt lat="44.7613203" lon="9.4989861"><ele>617.0</ele><time>2026-04-18T07:02:26.337Z</time></trkpt><trkpt lat="44.7612543" lon="9.4990743"><ele>617.0</ele><time>2026-04-18T07:02:27.337Z</time></trkpt><trkpt lat="44.7611943" lon="9.4991491"><ele>617.0</ele><time>2026-04-18T07:02:28.337Z</time></trkpt><trkpt lat="44.7611355" lon="9.4992026"><ele>617.0</ele><time>2026-04-18T07:02:29.337Z</time></trkpt><trkpt lat="44.7610732" lon="9.4992391"><ele>617.0</ele><time>2026-04-18T07:02:30.337Z</time></trkpt><trkpt lat="44.7610055" lon="9.499255"><ele>617.0</ele><time>2026-04-18T07:02:31.337Z</time></trkpt><trkpt lat="44.7609411" lon="9.4992541"><ele>617.0</ele><time>2026-04-18T07:02:32.337Z</time></trkpt><trkpt lat="44.7608712" lon="9.4992296"><ele>617.0</ele><time>2026-04-18T07:02:33.337Z</time></trkpt><trkpt lat="44.7608044" lon="9.4991754"><ele>617.0</ele><time>2026-04-18T07:02:34.337Z</time></trkpt><trkpt lat="44.7607383" lon="9.4991068"><ele>618.2</ele><time>2026-04-18T07:02:35.337Z</time></trkpt><trkpt lat="44.7606677" lon="9.499043"><ele>619.4000000000001</ele><time>2026-04-18T07:02:36.337Z</time></trkpt><trkpt lat="44.760564" lon="9.4990179"><ele>620.5999999999999</ele><time>2026-04-18T07:02:37.337Z</time></trkpt><trkpt lat="44.7604706" lon="9.4989972"><ele>621.8</ele><time>2026-04-18T07:02:38.337Z</time></trkpt><trkpt lat="44.760388" lon="9.4989626"><ele>623.0</ele><time>2026-04-18T07:02:39.337Z</time></trkpt><trkpt lat="44.7603191" lon="9.4988944"><ele>623.0</ele><time>2026-04-18T07:02:40.337Z</time></trkpt><trkpt lat="44.7602538" lon="9.4988177"><ele>623.0</ele><time>2026-04-18T07:02:41.337Z</time></trkpt><trkpt lat="44.7602043" lon="9.4987302"><ele>623.0</ele><time>2026-04-18T07:02:42.337Z</time></trkpt><trkpt lat="44.7601483" lon="9.4986644"><ele>623.0</ele><time>2026-04-18T07:02:43.337Z</time></trkpt><trkpt lat="44.7600569" lon="9.4986713"><ele>623.0</ele><time>2026-04-18T07:02:44.337Z</time></trkpt><trkpt lat="44.7599573" lon="9.4986997"><ele>623.0</ele><time>2026-04-18T07:02:45.337Z</time></trkpt><trkpt lat="44.7598379" lon="9.4987235"><ele>624.5</ele><time>2026-04-18T07:02:46.337Z</time></trkpt><trkpt lat="44.7597069" lon="9.4987257"><ele>626.0</ele><time>2026-04-18T07:02:47.337Z</time></trkpt><trkpt lat="44.7595734" lon="9.4987453"><ele>627.5</ele><time>2026-04-18T07:02:48.337Z</time></trkpt><trkpt lat="44.7594453" lon="9.4988046"><ele>629.0</ele><time>2026-04-18T07:02:49.337Z</time></trkpt><trkpt lat="44.7593225" lon="9.4988753"><ele>629.0</ele><time>2026-04-18T07:02:50.337Z</time></trkpt><trkpt lat="44.7592059" lon="9.4989284"><ele>629.0</ele><time>2026-04-18T07:02:51.337Z</time></trkpt><trkpt lat="44.7590873" lon="9.4989645"><ele>629.0</ele><time>2026-04-18T07:02:52.337Z</time></trkpt><trkpt lat="44.7589644" lon="9.4989798"><ele>629.0</ele><time>2026-04-18T07:02:53.337Z</time></trkpt><trkpt lat="44.7588397" lon="9.4989794"><ele>629.0</ele><time>2026-04-18T07:02:54.337Z</time></trkpt><trkpt lat="44.7587122" lon="9.4989735"><ele>629.0</ele><time>2026-04-18T07:02:55.337Z</time></trkpt><trkpt lat="44.7585844" lon="9.4989611"><ele>629.0</ele><time>2026-04-18T07:02:56.337Z</time></trkpt><trkpt lat="44.7584635" lon="9.49895"><ele>629.0</ele><time>2026-04-18T07:02:57.337Z</time></trkpt><trkpt lat="44.7583394" lon="9.4989495"><ele>629.25</ele><time>2026-04-18T07:02:58.337Z</time></trkpt><trkpt lat="44.758223" lon="9.4989694"><ele>629.5</ele><time>2026-04-18T07:02:59.337Z</time></trkpt><trkpt lat="44.7581082" lon="9.4990034"><ele>629.75</ele><time>2026-04-18T07:03:00.337Z</time></trkpt><trkpt lat="44.7579918" lon="9.4990197"><ele>630.0</ele><time>2026-04-18T07:03:01.337Z</time></trkpt><trkpt lat="44.7578675" lon="9.499026"><ele>630.0</ele><time>2026-04-18T07:03:02.337Z</time></trkpt><trkpt lat="44.757741" lon="9.4989873"><ele>630.0</ele><time>2026-04-18T07:03:03.337Z</time></trkpt><trkpt lat="44.757625" lon="9.4989491"><ele>630.0</ele><time>2026-04-18T07:03:04.337Z</time></trkpt><trkpt lat="44.7575129" lon="9.4989023"><ele>630.0</ele><time>2026-04-18T07:03:05.337Z</time></trkpt><trkpt lat="44.7574105" lon="9.4988329"><ele>637.0</ele><time>2026-04-18T07:03:06.337Z</time></trkpt><trkpt lat="44.7573274" lon="9.4987422"><ele>644.0</ele><time>2026-04-18T07:03:07.337Z</time></trkpt><trkpt lat="44.7572572" lon="9.4986506"><ele>651.0</ele><time>2026-04-18T07:03:08.337Z</time></trkpt><trkpt lat="44.7571867" lon="9.4985584"><ele>658.0</ele><time>2026-04-18T07:03:09.337Z</time></trkpt><trkpt lat="44.7571206" lon="9.4984694"><ele>665.0</ele><time>2026-04-18T07:03:10.337Z</time></trkpt><trkpt lat="44.7570591" lon="9.498388"><ele>665.0</ele><time>2026-04-18T07:03:11.337Z</time></trkpt><trkpt lat="44.7569867" lon="9.4983478"><ele>665.0</ele><time>2026-04-18T07:03:12.337Z</time></trkpt><trkpt lat="44.7569125" lon="9.4983239"><ele>665.0</ele><time>2026-04-18T07:03:13.337Z</time></trkpt><trkpt lat="44.7568377" lon="9.4983785"><ele>665.0</ele><time>2026-04-18T07:03:14.337Z</time></trkpt><trkpt lat="44.7567619" lon="9.4984539"><ele>665.0</ele><time>2026-04-18T07:03:15.337Z</time></trkpt><trkpt lat="44.7566826" lon="9.4985341"><ele>665.0</ele><time>2026-04-18T07:03:16.337Z</time></trkpt><trkpt lat="44.7566159" lon="9.498606"><ele>664.3333333333333</ele><time>2026-04-18T07:03:17.337Z</time></trkpt><trkpt lat="44.7565524" lon="9.4986575"><ele>663.6666666666666</ele><time>2026-04-18T07:03:18.337Z</time></trkpt><trkpt lat="44.7564756" lon="9.4986893"><ele>663.0</ele><time>2026-04-18T07:03:19.337Z</time></trkpt><trkpt lat="44.7563848" lon="9.4987023"><ele>662.3333333333334</ele><time>2026-04-18T07:03:20.337Z</time></trkpt><trkpt lat="44.7562857" lon="9.4987127"><ele>661.6666666666667</ele><time>2026-04-18T07:03:21.337Z</time></trkpt><trkpt lat="44.7561846" lon="9.4987276"><ele>661.0</ele><time>2026-04-18T07:03:22.337Z</time></trkpt><trkpt lat="44.7560913" lon="9.4987391"><ele>657.2857142857142</ele><time>2026-04-18T07:03:23.337Z</time></trkpt><trkpt lat="44.7560065" lon="9.4987538"><ele>653.5714285714286</ele><time>2026-04-18T07:03:24.337Z</time></trkpt><trkpt lat="44.7559335" lon="9.4987906"><ele>649.8571428571429</ele><time>2026-04-18T07:03:25.337Z</time></trkpt><trkpt lat="44.7558697" lon="9.4988347"><ele>646.1428571428571</ele><time>2026-04-18T07:03:26.337Z</time></trkpt><trkpt lat="44.7558092" lon="9.4988728"><ele>642.4285714285714</ele><time>2026-04-18T07:03:27.337Z</time></trkpt><trkpt lat="44.755742" lon="9.4988971"><ele>638.7142857142857</ele><time>2026-04-18T07:03:28.337Z</time></trkpt><trkpt lat="44.7556682" lon="9.4989061"><ele>635.0</ele><time>2026-04-18T07:03:29.337Z</time></trkpt><trkpt lat="44.7555818" lon="9.4988999"><ele>635.0</ele><time>2026-04-18T07:03:30.337Z</time></trkpt><trkpt lat="44.755488" lon="9.4988893"><ele>635.0</ele><time>2026-04-18T07:03:31.337Z</time></trkpt><trkpt lat="44.7553967" lon="9.4988779"><ele>635.0</ele><time>2026-04-18T07:03:32.337Z</time></trkpt><trkpt lat="44.7552952" lon="9.4988655"><ele>635.0</ele><time>2026-04-18T07:03:33.337Z</time></trkpt><trkpt lat="44.7551875" lon="9.4988471"><ele>635.0</ele><time>2026-04-18T07:03:34.337Z</time></trkpt><trkpt lat="44.7550835" lon="9.4988186"><ele>635.8</ele><time>2026-04-18T07:03:35.337Z</time></trkpt><trkpt lat="44.7549907" lon="9.4987822"><ele>636.6</ele><time>2026-04-18T07:03:36.338Z</time></trkpt><trkpt lat="44.7548993" lon="9.4987572"><ele>637.4</ele><time>2026-04-18T07:03:37.337Z</time></trkpt><trkpt lat="44.7548072" lon="9.4987625"><ele>638.2</ele><time>2026-04-18T07:03:38.338Z</time></trkpt><trkpt lat="44.7547197" lon="9.4988015"><ele>639.0</ele><time>2026-04-18T07:03:39.338Z</time></trkpt><trkpt lat="44.754639" lon="9.4988487"><ele>639.0</ele><time>2026-04-18T07:03:40.338Z</time></trkpt><trkpt lat="44.7545622" lon="9.4988788"><ele>639.0</ele><time>2026-04-18T07:03:41.338Z</time></trkpt><trkpt lat="44.7544906" lon="9.4988904"><ele>639.0</ele><time>2026-04-18T07:03:42.338Z</time></trkpt><trkpt lat="44.7544155" lon="9.4988928"><ele>639.0</ele><time>2026-04-18T07:03:43.338Z</time></trkpt><trkpt lat="44.7543435" lon="9.4988617"><ele>639.0</ele><time>2026-04-18T07:03:44.338Z</time></trkpt><trkpt lat="44.7542689" lon="9.4988093"><ele>639.0</ele><time>2026-04-18T07:03:45.338Z</time></trkpt><trkpt lat="44.7541928" lon="9.4987396"><ele>642.0</ele><time>2026-04-18T07:03:46.338Z</time></trkpt><trkpt lat="44.7541197" lon="9.4986536"><ele>645.0</ele><time>2026-04-18T07:03:47.338Z</time></trkpt><trkpt lat="44.7540517" lon="9.4985483"><ele>648.0</ele><time>2026-04-18T07:03:48.338Z</time></trkpt><trkpt lat="44.75399" lon="9.4984268"><ele>651.0</ele><time>2026-04-18T07:03:49.338Z</time></trkpt><trkpt lat="44.7539303" lon="9.4982954"><ele>654.0</ele><time>2026-04-18T07:03:50.338Z</time></trkpt><trkpt lat="44.7538707" lon="9.4981591"><ele>654.0</ele><time>2026-04-18T07:03:51.338Z</time></trkpt><trkpt lat="44.753804" lon="9.498024"><ele>654.0</ele><time>2026-04-18T07:03:52.338Z</time></trkpt><trkpt lat="44.7537363" lon="9.4978885"><ele>654.0</ele><time>2026-04-18T07:03:53.338Z</time></trkpt><trkpt lat="44.7536708" lon="9.497765"><ele>654.0</ele><time>2026-04-18T07:03:54.338Z</time></trkpt><trkpt lat="44.7536031" lon="9.4976557"><ele>654.0</ele><time>2026-04-18T07:03:55.338Z</time></trkpt><trkpt lat="44.7535228" lon="9.4975627"><ele>654.4000000000001</ele><time>2026-04-18T07:03:56.338Z</time></trkpt><trkpt lat="44.753432" lon="9.4974873"><ele>654.8</ele><time>2026-04-18T07:03:57.338Z</time></trkpt><trkpt lat="44.7533428" lon="9.4974085"><ele>655.2</ele><time>2026-04-18T07:03:58.338Z</time></trkpt><trkpt lat="44.7532723" lon="9.4973164"><ele>655.5999999999999</ele><time>2026-04-18T07:03:59.338Z</time></trkpt><trkpt lat="44.7532225" lon="9.4972071"><ele>656.0</ele><time>2026-04-18T07:04:00.338Z</time></trkpt><trkpt lat="44.7531971" lon="9.4970777"><ele>656.0</ele><time>2026-04-18T07:04:01.338Z</time></trkpt><trkpt lat="44.7531872" lon="9.4969249"><ele>656.0</ele><time>2026-04-18T07:04:02.338Z</time></trkpt><trkpt lat="44.7531794" lon="9.4967596"><ele>656.0</ele><time>2026-04-18T07:04:03.338Z</time></trkpt><trkpt lat="44.7531632" lon="9.4965911"><ele>656.0</ele><time>2026-04-18T07:04:04.338Z</time></trkpt><trkpt lat="44.7531387" lon="9.4964407"><ele>656.0</ele><time>2026-04-18T07:04:05.338Z</time></trkpt><trkpt lat="44.7531088" lon="9.4963132"><ele>656.0</ele><time>2026-04-18T07:04:06.338Z</time></trkpt><trkpt lat="44.7530724" lon="9.4962025"><ele>656.0</ele><time>2026-04-18T07:04:07.338Z</time></trkpt><trkpt lat="44.7530254" lon="9.4961088"><ele>656.0</ele><time>2026-04-18T07:04:08.338Z</time></trkpt><trkpt lat="44.7529655" lon="9.4960334"><ele>656.0</ele><time>2026-04-18T07:04:09.338Z</time></trkpt><trkpt lat="44.7528981" lon="9.4959713"><ele>656.0</ele><time>2026-04-18T07:04:10.338Z</time></trkpt><trkpt lat="44.7528274" lon="9.495911"><ele>656.3333333333333</ele><time>2026-04-18T07:04:11.338Z</time></trkpt><trkpt lat="44.7527564" lon="9.4958399"><ele>656.6666666666666</ele><time>2026-04-18T07:04:12.337Z</time></trkpt><trkpt lat="44.752687" lon="9.4957633"><ele>657.0</ele><time>2026-04-18T07:04:13.338Z</time></trkpt><trkpt lat="44.7526366" lon="9.4956659"><ele>657.3333333333334</ele><time>2026-04-18T07:04:14.338Z</time></trkpt><trkpt lat="44.7525985" lon="9.4955501"><ele>657.6666666666667</ele><time>2026-04-18T07:04:15.338Z</time></trkpt><trkpt lat="44.7525713" lon="9.4954264"><ele>658.0</ele><time>2026-04-18T07:04:16.338Z</time></trkpt><trkpt lat="44.7525513" lon="9.4953135"><ele>659.5</ele><time>2026-04-18T07:04:17.338Z</time></trkpt><trkpt lat="44.7525378" lon="9.4951989"><ele>661.0</ele><time>2026-04-18T07:04:18.338Z</time></trkpt><trkpt lat="44.7525333" lon="9.4950758"><ele>662.5</ele><time>2026-04-18T07:04:19.338Z</time></trkpt><trkpt lat="44.7525242" lon="9.4949489"><ele>664.0</ele><time>2026-04-18T07:04:20.338Z</time></trkpt><trkpt lat="44.7525137" lon="9.4948233"><ele>665.5</ele><time>2026-04-18T07:04:21.338Z</time></trkpt><trkpt lat="44.7524795" lon="9.4946957"><ele>667.0</ele><time>2026-04-18T07:04:22.338Z</time></trkpt><trkpt lat="44.7524285" lon="9.4945804"><ele>668.4000000000001</ele><time>2026-04-18T07:04:23.338Z</time></trkpt><trkpt lat="44.7523718" lon="9.4944731"><ele>669.8000000000001</ele><time>2026-04-18T07:04:24.338Z</time></trkpt><trkpt lat="44.7523107" lon="9.4943711"><ele>671.2</ele><time>2026-04-18T07:04:25.337Z</time></trkpt><trkpt lat="44.752242" lon="9.4942767"><ele>672.6</ele><time>2026-04-18T07:04:26.338Z</time></trkpt><trkpt lat="44.7521687" lon="9.4941914"><ele>674.0</ele><time>2026-04-18T07:04:27.337Z</time></trkpt><trkpt lat="44.7520837" lon="9.4941156"><ele>674.0</ele><time>2026-04-18T07:04:28.337Z</time></trkpt><trkpt lat="44.7519982" lon="9.4940386"><ele>674.0</ele><time>2026-04-18T07:04:29.338Z</time></trkpt><trkpt lat="44.7519243" lon="9.4939744"><ele>674.0</ele><time>2026-04-18T07:04:30.337Z</time></trkpt><trkpt lat="44.7518626" lon="9.4939257"><ele>674.0</ele><time>2026-04-18T07:04:31.338Z</time></trkpt><trkpt lat="44.7517775" lon="9.4938246"><ele>674.0</ele><time>2026-04-18T07:04:33.338Z</time></trkpt><trkpt lat="44.7517643" lon="9.4937043"><ele>673.8000000000001</ele><time>2026-04-18T07:04:35.339Z</time></trkpt><trkpt lat="44.7518529" lon="9.4935694"><ele>673.6</ele><time>2026-04-18T07:04:37.338Z</time></trkpt><trkpt lat="44.7519018" lon="9.4935005"><ele>673.4</ele><time>2026-04-18T07:04:38.338Z</time></trkpt><trkpt lat="44.751969" lon="9.4933812"><ele>673.2</ele><time>2026-04-18T07:04:40.338Z</time></trkpt><trkpt lat="44.7520099" lon="9.4932395"><ele>673.0</ele><time>2026-04-18T07:04:42.338Z</time></trkpt><trkpt lat="44.7520655" lon="9.4930967"><ele>674.6666666666667</ele><time>2026-04-18T07:04:44.338Z</time></trkpt><trkpt lat="44.7521152" lon="9.4930286"><ele>676.3333333333334</ele><time>2026-04-18T07:04:45.338Z</time></trkpt><trkpt lat="44.7521717" lon="9.4929659"><ele>678.0</ele><time>2026-04-18T07:04:46.338Z</time></trkpt><trkpt lat="44.7522284" lon="9.4929084"><ele>679.6666666666666</ele><time>2026-04-18T07:04:47.338Z</time></trkpt><trkpt lat="44.7522816" lon="9.4928557"><ele>681.3333333333333</ele><time>2026-04-18T07:04:48.338Z</time></trkpt><trkpt lat="44.7523809" lon="9.4927372"><ele>683.0</ele><time>2026-04-18T07:04:50.338Z</time></trkpt><trkpt lat="44.7524311" lon="9.492661"><ele>683.0</ele><time>2026-04-18T07:04:51.338Z</time></trkpt><trkpt lat="44.7524788" lon="9.492573"><ele>683.0</ele><time>2026-04-18T07:04:52.338Z</time></trkpt><trkpt lat="44.7525197" lon="9.4924798"><ele>683.0</ele><time>2026-04-18T07:04:53.339Z</time></trkpt><trkpt lat="44.7525497" lon="9.4923838"><ele>683.0</ele><time>2026-04-18T07:04:54.339Z</time></trkpt><trkpt lat="44.7525678" lon="9.4922825"><ele>683.0</ele><time>2026-04-18T07:04:55.339Z</time></trkpt><trkpt lat="44.752575" lon="9.4921824"><ele>683.0</ele><time>2026-04-18T07:04:56.339Z</time></trkpt><trkpt lat="44.7525765" lon="9.4920828"><ele>683.0</ele><time>2026-04-18T07:04:57.339Z</time></trkpt><trkpt lat="44.7525729" lon="9.4919873"><ele>683.0</ele><time>2026-04-18T07:04:58.339Z</time></trkpt><trkpt lat="44.752545" lon="9.491831"><ele>683.0</ele><time>2026-04-18T07:05:00.339Z</time></trkpt><trkpt lat="44.7524554" lon="9.4917576"><ele>683.0</ele><time>2026-04-18T07:05:02.339Z</time></trkpt><trkpt lat="44.7523826" lon="9.4917754"><ele>683.0</ele><time>2026-04-18T07:05:03.338Z</time></trkpt><trkpt lat="44.7523011" lon="9.4918062"><ele>683.0</ele><time>2026-04-18T07:05:04.339Z</time></trkpt><trkpt lat="44.7522083" lon="9.491824"><ele>683.0</ele><time>2026-04-18T07:05:05.339Z</time></trkpt><trkpt lat="44.7521154" lon="9.4918232"><ele>683.0</ele><time>2026-04-18T07:05:06.339Z</time></trkpt><trkpt lat="44.7520205" lon="9.4918076"><ele>683.0</ele><time>2026-04-18T07:05:07.339Z</time></trkpt><trkpt lat="44.7519344" lon="9.4917786"><ele>683.0</ele><time>2026-04-18T07:05:08.339Z</time></trkpt><trkpt lat="44.7518587" lon="9.4917374"><ele>683.0</ele><time>2026-04-18T07:05:09.338Z</time></trkpt><trkpt lat="44.7517869" lon="9.4916808"><ele>683.0</ele><time>2026-04-18T07:05:10.339Z</time></trkpt><trkpt lat="44.7517192" lon="9.4916108"><ele>681.3333333333333</ele><time>2026-04-18T07:05:11.338Z</time></trkpt><trkpt lat="44.7516574" lon="9.4915297"><ele>679.6666666666666</ele><time>2026-04-18T07:05:12.339Z</time></trkpt><trkpt lat="44.7515986" lon="9.4914294"><ele>678.0</ele><time>2026-04-18T07:05:13.339Z</time></trkpt><trkpt lat="44.7515452" lon="9.4913223"><ele>676.3333333333334</ele><time>2026-04-18T07:05:14.339Z</time></trkpt><trkpt lat="44.751499" lon="9.4912161"><ele>674.6666666666667</ele><time>2026-04-18T07:05:15.339Z</time></trkpt><trkpt lat="44.751455" lon="9.4911152"><ele>673.0</ele><time>2026-04-18T07:05:16.339Z</time></trkpt><trkpt lat="44.7514055" lon="9.4910276"><ele>673.0</ele><time>2026-04-18T07:05:17.339Z</time></trkpt><trkpt lat="44.7513532" lon="9.490958"><ele>673.0</ele><time>2026-04-18T07:05:18.339Z</time></trkpt><trkpt lat="44.751288" lon="9.4909556"><ele>673.0</ele><time>2026-04-18T07:05:19.339Z</time></trkpt><trkpt lat="44.7512275" lon="9.4909945"><ele>673.0</ele><time>2026-04-18T07:05:20.339Z</time></trkpt><trkpt lat="44.7511871" lon="9.4910757"><ele>673.0</ele><time>2026-04-18T07:05:21.339Z</time></trkpt><trkpt lat="44.7511569" lon="9.4911751"><ele>673.0</ele><time>2026-04-18T07:05:22.338Z</time></trkpt><trkpt lat="44.7511186" lon="9.4912738"><ele>673.0</ele><time>2026-04-18T07:05:23.339Z</time></trkpt><trkpt lat="44.7510668" lon="9.4913605"><ele>672.3333333333334</ele><time>2026-04-18T07:05:24.339Z</time></trkpt><trkpt lat="44.7510099" lon="9.4914269"><ele>671.6666666666667</ele><time>2026-04-18T07:05:25.339Z</time></trkpt><trkpt lat="44.7509399" lon="9.4914763"><ele>671.0</ele><time>2026-04-18T07:05:26.339Z</time></trkpt><trkpt lat="44.7508682" lon="9.4915183"><ele>670.3333333333334</ele><time>2026-04-18T07:05:27.339Z</time></trkpt><trkpt lat="44.750781" lon="9.4915354"><ele>669.6666666666666</ele><time>2026-04-18T07:05:28.339Z</time></trkpt><trkpt lat="44.7506756" lon="9.4915345"><ele>669.0</ele><time>2026-04-18T07:05:29.339Z</time></trkpt><trkpt lat="44.7505688" lon="9.4915209"><ele>669.0</ele><time>2026-04-18T07:05:30.339Z</time></trkpt><trkpt lat="44.7504518" lon="9.4915038"><ele>669.0</ele><time>2026-04-18T07:05:31.339Z</time></trkpt><trkpt lat="44.750336" lon="9.4914952"><ele>669.0</ele><time>2026-04-18T07:05:32.339Z</time></trkpt><trkpt lat="44.7502195" lon="9.4914922"><ele>669.0</ele><time>2026-04-18T07:05:33.338Z</time></trkpt><trkpt lat="44.7500953" lon="9.4915025"><ele>670.2</ele><time>2026-04-18T07:05:34.339Z</time></trkpt><trkpt lat="44.7499754" lon="9.4915204"><ele>671.4000000000001</ele><time>2026-04-18T07:05:35.339Z</time></trkpt><trkpt lat="44.7498687" lon="9.4915382"><ele>672.6</ele><time>2026-04-18T07:05:36.339Z</time></trkpt><trkpt lat="44.7497726" lon="9.4915584"><ele>673.8</ele><time>2026-04-18T07:05:37.339Z</time></trkpt><trkpt lat="44.7496801" lon="9.4915765"><ele>675.0</ele><time>2026-04-18T07:05:38.339Z</time></trkpt><trkpt lat="44.7495983" lon="9.4915887"><ele>675.0</ele><time>2026-04-18T07:05:39.339Z</time></trkpt><trkpt lat="44.7495308" lon="9.4915913"><ele>675.0</ele><time>2026-04-18T07:05:40.339Z</time></trkpt><trkpt lat="44.749401" lon="9.4915589"><ele>675.0</ele><time>2026-04-18T07:05:42.339Z</time></trkpt><trkpt lat="44.7493249" lon="9.4915198"><ele>675.0</ele><time>2026-04-18T07:05:43.339Z</time></trkpt><trkpt lat="44.7492434" lon="9.4914663"><ele>675.0</ele><time>2026-04-18T07:05:44.339Z</time></trkpt><trkpt lat="44.7491568" lon="9.4913959"><ele>672.8</ele><time>2026-04-18T07:05:45.339Z</time></trkpt><trkpt lat="44.7490654" lon="9.4913171"><ele>670.6</ele><time>2026-04-18T07:05:46.339Z</time></trkpt><trkpt lat="44.7489743" lon="9.4912433"><ele>668.4000000000001</ele><time>2026-04-18T07:05:47.339Z</time></trkpt><trkpt lat="44.7488864" lon="9.4911779"><ele>666.2</ele><time>2026-04-18T07:05:48.339Z</time></trkpt><trkpt lat="44.7488051" lon="9.4911101"><ele>664.0</ele><time>2026-04-18T07:05:49.339Z</time></trkpt><trkpt lat="44.7487215" lon="9.4910434"><ele>665.8000000000001</ele><time>2026-04-18T07:05:50.339Z</time></trkpt><trkpt lat="44.7486266" lon="9.4909926"><ele>667.6</ele><time>2026-04-18T07:05:51.339Z</time></trkpt><trkpt lat="44.7485257" lon="9.4909616"><ele>669.4</ele><time>2026-04-18T07:05:52.338Z</time></trkpt><trkpt lat="44.7484229" lon="9.4909413"><ele>671.2</ele><time>2026-04-18T07:05:53.339Z</time></trkpt><trkpt lat="44.7483151" lon="9.4909216"><ele>673.0</ele><time>2026-04-18T07:05:54.339Z</time></trkpt><trkpt lat="44.7482014" lon="9.4908985"><ele>673.0</ele><time>2026-04-18T07:05:55.339Z</time></trkpt><trkpt lat="44.7480831" lon="9.4908663"><ele>673.0</ele><time>2026-04-18T07:05:56.339Z</time></trkpt><trkpt lat="44.7479676" lon="9.4908301"><ele>673.0</ele><time>2026-04-18T07:05:57.339Z</time></trkpt><trkpt lat="44.7478602" lon="9.4907889"><ele>673.0</ele><time>2026-04-18T07:05:58.339Z</time></trkpt><trkpt lat="44.7477592" lon="9.4907483"><ele>670.8</ele><time>2026-04-18T07:05:59.339Z</time></trkpt><trkpt lat="44.7476631" lon="9.4907144"><ele>668.5999999999999</ele><time>2026-04-18T07:06:00.339Z</time></trkpt><trkpt lat="44.7475643" lon="9.4906965"><ele>666.4000000000001</ele><time>2026-04-18T07:06:01.339Z</time></trkpt><trkpt lat="44.7474656" lon="9.4907084"><ele>664.2</ele><time>2026-04-18T07:06:02.339Z</time></trkpt><trkpt lat="44.7473769" lon="9.4907319"><ele>662.0</ele><time>2026-04-18T07:06:03.339Z</time></trkpt><trkpt lat="44.7472949" lon="9.4907428"><ele>662.0</ele><time>2026-04-18T07:06:04.339Z</time></trkpt><trkpt lat="44.7472147" lon="9.490728"><ele>662.0</ele><time>2026-04-18T07:06:05.34Z</time></trkpt><trkpt lat="44.7471312" lon="9.4906772"><ele>662.0</ele><time>2026-04-18T07:06:06.34Z</time></trkpt><trkpt lat="44.7470421" lon="9.4906053"><ele>662.0</ele><time>2026-04-18T07:06:07.34Z</time></trkpt><trkpt lat="44.7469443" lon="9.4905297"><ele>662.0</ele><time>2026-04-18T07:06:08.34Z</time></trkpt><trkpt lat="44.7468456" lon="9.4904564"><ele>664.8</ele><time>2026-04-18T07:06:09.34Z</time></trkpt><trkpt lat="44.7467539" lon="9.4903855"><ele>667.6</ele><time>2026-04-18T07:06:10.34Z</time></trkpt><trkpt lat="44.7466698" lon="9.4903191"><ele>670.4</ele><time>2026-04-18T07:06:11.34Z</time></trkpt><trkpt lat="44.7465884" lon="9.4902473"><ele>673.1999999999999</ele><time>2026-04-18T07:06:12.34Z</time></trkpt><trkpt lat="44.7465114" lon="9.4901685"><ele>676.0</ele><time>2026-04-18T07:06:13.34Z</time></trkpt><trkpt lat="44.7464365" lon="9.490091"><ele>676.0</ele><time>2026-04-18T07:06:14.34Z</time></trkpt><trkpt lat="44.7463544" lon="9.4900244"><ele>676.0</ele><time>2026-04-18T07:06:15.34Z</time></trkpt><trkpt lat="44.7462647" lon="9.4899719"><ele>676.0</ele><time>2026-04-18T07:06:16.34Z</time></trkpt><trkpt lat="44.7461719" lon="9.4899184"><ele>676.0</ele><time>2026-04-18T07:06:17.34Z</time></trkpt><trkpt lat="44.7460835" lon="9.489857"><ele>676.0</ele><time>2026-04-18T07:06:18.34Z</time></trkpt><trkpt lat="44.7460003" lon="9.4897899"><ele>673.1666666666667</ele><time>2026-04-18T07:06:19.34Z</time></trkpt><trkpt lat="44.7459186" lon="9.4897141"><ele>670.3333333333334</ele><time>2026-04-18T07:06:20.34Z</time></trkpt><trkpt lat="44.7458385" lon="9.489647"><ele>667.5</ele><time>2026-04-18T07:06:21.34Z</time></trkpt><trkpt lat="44.745758" lon="9.4896055"><ele>664.6666666666666</ele><time>2026-04-18T07:06:22.34Z</time></trkpt><trkpt lat="44.7456823" lon="9.4895765"><ele>661.8333333333333</ele><time>2026-04-18T07:06:23.34Z</time></trkpt><trkpt lat="44.7456125" lon="9.4895835"><ele>659.0</ele><time>2026-04-18T07:06:24.34Z</time></trkpt><trkpt lat="44.7455179" lon="9.4896855"><ele>659.0</ele><time>2026-04-18T07:06:26.34Z</time></trkpt><trkpt lat="44.7455075" lon="9.4897807"><ele>659.0</ele><time>2026-04-18T07:06:27.34Z</time></trkpt><trkpt lat="44.7455272" lon="9.4898809"><ele>659.0</ele><time>2026-04-18T07:06:28.34Z</time></trkpt><trkpt lat="44.7455584" lon="9.4899852"><ele>659.0</ele><time>2026-04-18T07:06:29.34Z</time></trkpt><trkpt lat="44.7455865" lon="9.4900979"><ele>659.0</ele><time>2026-04-18T07:06:30.34Z</time></trkpt><trkpt lat="44.7456111" lon="9.4902213"><ele>659.0</ele><time>2026-04-18T07:06:31.34Z</time></trkpt><trkpt lat="44.7456383" lon="9.4903493"><ele>659.8000000000001</ele><time>2026-04-18T07:06:32.34Z</time></trkpt><trkpt lat="44.7456702" lon="9.4904793"><ele>660.6</ele><time>2026-04-18T07:06:33.34Z</time></trkpt><trkpt lat="44.7457063" lon="9.4906041"><ele>661.4</ele><time>2026-04-18T07:06:34.34Z</time></trkpt><trkpt lat="44.7457366" lon="9.4907162"><ele>662.2</ele><time>2026-04-18T07:06:35.34Z</time></trkpt><trkpt lat="44.7457524" lon="9.4908361"><ele>663.0</ele><time>2026-04-18T07:06:36.34Z</time></trkpt><trkpt lat="44.745751" lon="9.4909657"><ele>663.0</ele><time>2026-04-18T07:06:37.34Z</time></trkpt><trkpt lat="44.7457455" lon="9.491099"><ele>663.0</ele><time>2026-04-18T07:06:38.34Z</time></trkpt><trkpt lat="44.7457421" lon="9.4912379"><ele>663.0</ele><time>2026-04-18T07:06:39.339Z</time></trkpt><trkpt lat="44.7457403" lon="9.4913794"><ele>663.0</ele><time>2026-04-18T07:06:40.34Z</time></trkpt><trkpt lat="44.7457421" lon="9.4915152"><ele>663.0</ele><time>2026-04-18T07:06:41.34Z</time></trkpt><trkpt lat="44.7457485" lon="9.4916555"><ele>664.4</ele><time>2026-04-18T07:06:42.34Z</time></trkpt><trkpt lat="44.7457658" lon="9.4918024"><ele>665.8</ele><time>2026-04-18T07:06:43.34Z</time></trkpt><trkpt lat="44.7457882" lon="9.4919513"><ele>667.2</ele><time>2026-04-18T07:06:44.34Z</time></trkpt><trkpt lat="44.7458308" lon="9.4920933"><ele>668.6</ele><time>2026-04-18T07:06:45.34Z</time></trkpt><trkpt lat="44.7458682" lon="9.4922135"><ele>670.0</ele><time>2026-04-18T07:06:46.34Z</time></trkpt><trkpt lat="44.7458962" lon="9.4923196"><ele>672.3333333333334</ele><time>2026-04-18T07:06:47.34Z</time></trkpt><trkpt lat="44.7459116" lon="9.4924268"><ele>674.6666666666667</ele><time>2026-04-18T07:06:48.34Z</time></trkpt><trkpt lat="44.7459186" lon="9.4925383"><ele>677.0</ele><time>2026-04-18T07:06:49.34Z</time></trkpt><trkpt lat="44.7459012" lon="9.4926635"><ele>679.3333333333334</ele><time>2026-04-18T07:06:50.339Z</time></trkpt><trkpt lat="44.745891" lon="9.4927973"><ele>681.6666666666666</ele><time>2026-04-18T07:06:51.34Z</time></trkpt><trkpt lat="44.7458889" lon="9.4929388"><ele>684.0</ele><time>2026-04-18T07:06:52.34Z</time></trkpt><trkpt lat="44.7458989" lon="9.4930865"><ele>683.2</ele><time>2026-04-18T07:06:53.339Z</time></trkpt><trkpt lat="44.7459193" lon="9.4932308"><ele>682.4000000000001</ele><time>2026-04-18T07:06:54.34Z</time></trkpt><trkpt lat="44.7459526" lon="9.4933675"><ele>681.6</ele><time>2026-04-18T07:06:55.34Z</time></trkpt><trkpt lat="44.7460027" lon="9.4935015"><ele>680.8</ele><time>2026-04-18T07:06:56.34Z</time></trkpt><trkpt lat="44.7460621" lon="9.4936321"><ele>680.0</ele><time>2026-04-18T07:06:57.34Z</time></trkpt><trkpt lat="44.7461277" lon="9.4937553"><ele>680.0</ele><time>2026-04-18T07:06:58.34Z</time></trkpt><trkpt lat="44.7461956" lon="9.4938745"><ele>680.0</ele><time>2026-04-18T07:06:59.34Z</time></trkpt><trkpt lat="44.7462576" lon="9.4939882"><ele>680.0</ele><time>2026-04-18T07:07:00.34Z</time></trkpt><trkpt lat="44.7463148" lon="9.4940969"><ele>680.0</ele><time>2026-04-18T07:07:01.34Z</time></trkpt><trkpt lat="44.746348" lon="9.4942135"><ele>680.0</ele><time>2026-04-18T07:07:02.34Z</time></trkpt><trkpt lat="44.7463697" lon="9.4943454"><ele>680.0</ele><time>2026-04-18T07:07:03.34Z</time></trkpt><trkpt lat="44.7463914" lon="9.4944838"><ele>680.0</ele><time>2026-04-18T07:07:04.341Z</time></trkpt><trkpt lat="44.7464296" lon="9.4946168"><ele>680.0</ele><time>2026-04-18T07:07:05.34Z</time></trkpt><trkpt lat="44.7464781" lon="9.4947382"><ele>680.0</ele><time>2026-04-18T07:07:06.34Z</time></trkpt><trkpt lat="44.7465361" lon="9.4948572"><ele>680.0</ele><time>2026-04-18T07:07:07.34Z</time></trkpt><trkpt lat="44.7465969" lon="9.4949806"><ele>683.6666666666666</ele><time>2026-04-18T07:07:08.34Z</time></trkpt><trkpt lat="44.7466596" lon="9.4951067"><ele>687.3333333333333</ele><time>2026-04-18T07:07:09.34Z</time></trkpt><trkpt lat="44.746712" lon="9.4952202"><ele>691.0</ele><time>2026-04-18T07:07:10.34Z</time></trkpt><trkpt lat="44.7467567" lon="9.4953256"><ele>694.6666666666666</ele><time>2026-04-18T07:07:11.34Z</time></trkpt><trkpt lat="44.7467881" lon="9.4954224"><ele>698.3333333333334</ele><time>2026-04-18T07:07:12.34Z</time></trkpt><trkpt lat="44.7468068" lon="9.4955161"><ele>702.0</ele><time>2026-04-18T07:07:13.34Z</time></trkpt><trkpt lat="44.7468085" lon="9.4956054"><ele>704.2</ele><time>2026-04-18T07:07:14.34Z</time></trkpt><trkpt lat="44.7467523" lon="9.4957486"><ele>706.4000000000001</ele><time>2026-04-18T07:07:16.34Z</time></trkpt><trkpt lat="44.7466987" lon="9.4958186"><ele>708.5999999999999</ele><time>2026-04-18T07:07:17.34Z</time></trkpt><trkpt lat="44.7466227" lon="9.4959057"><ele>710.8</ele><time>2026-04-18T07:07:18.34Z</time></trkpt><trkpt lat="44.7465442" lon="9.4960071"><ele>713.0</ele><time>2026-04-18T07:07:19.34Z</time></trkpt><trkpt lat="44.7464712" lon="9.4961177"><ele>713.0</ele><time>2026-04-18T07:07:20.34Z</time></trkpt><trkpt lat="44.7463978" lon="9.4962249"><ele>713.0</ele><time>2026-04-18T07:07:21.34Z</time></trkpt><trkpt lat="44.7463077" lon="9.496322"><ele>713.0</ele><time>2026-04-18T07:07:22.34Z</time></trkpt><trkpt lat="44.7462038" lon="9.4964085"><ele>713.0</ele><time>2026-04-18T07:07:23.34Z</time></trkpt><trkpt lat="44.746096" lon="9.4964914"><ele>716.4</ele><time>2026-04-18T07:07:24.341Z</time></trkpt><trkpt lat="44.7459857" lon="9.4965626"><ele>719.8</ele><time>2026-04-18T07:07:25.34Z</time></trkpt><trkpt lat="44.7458757" lon="9.4966204"><ele>723.2</ele><time>2026-04-18T07:07:26.341Z</time></trkpt><trkpt lat="44.7457723" lon="9.4966612"><ele>726.6</ele><time>2026-04-18T07:07:27.341Z</time></trkpt><trkpt lat="44.7456718" lon="9.4966875"><ele>730.0</ele><time>2026-04-18T07:07:28.341Z</time></trkpt><trkpt lat="44.745571" lon="9.4967054"><ele>730.0</ele><time>2026-04-18T07:07:29.341Z</time></trkpt><trkpt lat="44.7454672" lon="9.4967198"><ele>730.0</ele><time>2026-04-18T07:07:30.341Z</time></trkpt><trkpt lat="44.7453616" lon="9.4967386"><ele>730.0</ele><time>2026-04-18T07:07:31.341Z</time></trkpt><trkpt lat="44.745259" lon="9.4967756"><ele>730.0</ele><time>2026-04-18T07:07:32.341Z</time></trkpt><trkpt lat="44.745163" lon="9.4968341"><ele>730.0</ele><time>2026-04-18T07:07:33.341Z</time></trkpt><trkpt lat="44.7450709" lon="9.4968987"><ele>729.4</ele><time>2026-04-18T07:07:34.341Z</time></trkpt><trkpt lat="44.7449805" lon="9.4969618"><ele>728.8</ele><time>2026-04-18T07:07:35.341Z</time></trkpt><trkpt lat="44.7448984" lon="9.4970182"><ele>728.2</ele><time>2026-04-18T07:07:36.341Z</time></trkpt><trkpt lat="44.7448306" lon="9.4970623"><ele>727.6</ele><time>2026-04-18T07:07:37.341Z</time></trkpt><trkpt lat="44.7447286" lon="9.4971133"><ele>727.0</ele><time>2026-04-18T07:07:39.341Z</time></trkpt><trkpt lat="44.7446579" lon="9.4970455"><ele>730.1666666666667</ele><time>2026-04-18T07:07:41.341Z</time></trkpt><trkpt lat="44.7446361" lon="9.4969126"><ele>733.3333333333334</ele><time>2026-04-18T07:07:43.341Z</time></trkpt><trkpt lat="44.7446567" lon="9.496816"><ele>736.5</ele><time>2026-04-18T07:07:44.341Z</time></trkpt><trkpt lat="44.7446814" lon="9.4967086"><ele>739.6666666666666</ele><time>2026-04-18T07:07:45.341Z</time></trkpt><trkpt lat="44.7447104" lon="9.4965622"><ele>742.8333333333333</ele><time>2026-04-18T07:07:46.341Z</time></trkpt><trkpt lat="44.744736" lon="9.4964366"><ele>746.0</ele><time>2026-04-18T07:07:47.341Z</time></trkpt><trkpt lat="44.7447651" lon="9.4963259"><ele>746.1666666666666</ele><time>2026-04-18T07:07:48.341Z</time></trkpt><trkpt lat="44.7448131" lon="9.4962317"><ele>746.3333333333333</ele><time>2026-04-18T07:07:49.341Z</time></trkpt><trkpt lat="44.7448781" lon="9.4961659"><ele>746.5</ele><time>2026-04-18T07:07:50.341Z</time></trkpt><trkpt lat="44.7449506" lon="9.4961138"><ele>746.6666666666666</ele><time>2026-04-18T07:07:51.341Z</time></trkpt><trkpt lat="44.7450438" lon="9.4961104"><ele>746.8333333333334</ele><time>2026-04-18T07:07:52.341Z</time></trkpt><trkpt lat="44.7451395" lon="9.4961177"><ele>747.0</ele><time>2026-04-18T07:07:53.341Z</time></trkpt><trkpt lat="44.7452338" lon="9.4961288"><ele>747.0</ele><time>2026-04-18T07:07:54.341Z</time></trkpt><trkpt lat="44.7453192" lon="9.4961404"><ele>747.0</ele><time>2026-04-18T07:07:55.341Z</time></trkpt><trkpt lat="44.7453923" lon="9.4961386"><ele>747.0</ele><time>2026-04-18T07:07:56.341Z</time></trkpt><trkpt lat="44.7455063" lon="9.4960809"><ele>747.0</ele><time>2026-04-18T07:07:58.341Z</time></trkpt><trkpt lat="44.7455911" lon="9.4959517"><ele>747.0</ele><time>2026-04-18T07:08:00.341Z</time></trkpt><trkpt lat="44.7456044" lon="9.4958572"><ele>747.0</ele><time>2026-04-18T07:08:01.341Z</time></trkpt><trkpt lat="44.7455965" lon="9.4957534"><ele>747.0</ele><time>2026-04-18T07:08:02.341Z</time></trkpt><trkpt lat="44.7455681" lon="9.4956471"><ele>747.0</ele><time>2026-04-18T07:08:03.341Z</time></trkpt><trkpt lat="44.7455235" lon="9.4955493"><ele>747.0</ele><time>2026-04-18T07:08:04.341Z</time></trkpt><trkpt lat="44.7454773" lon="9.4954621"><ele>747.0</ele><time>2026-04-18T07:08:05.341Z</time></trkpt><trkpt lat="44.7454185" lon="9.4954146"><ele>747.0</ele><time>2026-04-18T07:08:06.341Z</time></trkpt><trkpt lat="44.745347" lon="9.4953678"><ele>745.6666666666666</ele><time>2026-04-18T07:08:07.341Z</time></trkpt><trkpt lat="44.7452709" lon="9.4953348"><ele>744.3333333333334</ele><time>2026-04-18T07:08:08.341Z</time></trkpt><trkpt lat="44.7451848" lon="9.4953255"><ele>743.0</ele><time>2026-04-18T07:08:09.341Z</time></trkpt><trkpt lat="44.7450991" lon="9.495338"><ele>741.6666666666667</ele><time>2026-04-18T07:08:10.341Z</time></trkpt><trkpt lat="44.7450246" lon="9.4953598"><ele>740.3333333333334</ele><time>2026-04-18T07:08:11.34Z</time></trkpt><trkpt lat="44.7449541" lon="9.4953648"><ele>739.0</ele><time>2026-04-18T07:08:12.341Z</time></trkpt><trkpt lat="44.7448387" lon="9.4952828"><ele>745.4000000000001</ele><time>2026-04-18T07:08:14.341Z</time></trkpt><trkpt lat="44.7447823" lon="9.4951885"><ele>751.8</ele><time>2026-04-18T07:08:15.34Z</time></trkpt><trkpt lat="44.7447266" lon="9.4950877"><ele>758.2</ele><time>2026-04-18T07:08:16.341Z</time></trkpt><trkpt lat="44.7446601" lon="9.494979"><ele>764.5999999999999</ele><time>2026-04-18T07:08:17.341Z</time></trkpt><trkpt lat="44.7445855" lon="9.4948563"><ele>771.0</ele><time>2026-04-18T07:08:18.341Z</time></trkpt><trkpt lat="44.7445094" lon="9.4947313"><ele>771.0</ele><time>2026-04-18T07:08:19.341Z</time></trkpt><trkpt lat="44.7444441" lon="9.494623"><ele>771.0</ele><time>2026-04-18T07:08:20.341Z</time></trkpt><trkpt lat="44.7443824" lon="9.4945194"><ele>771.0</ele><time>2026-04-18T07:08:21.341Z</time></trkpt><trkpt lat="44.7443267" lon="9.4944105"><ele>771.0</ele><time>2026-04-18T07:08:22.341Z</time></trkpt><trkpt lat="44.7442814" lon="9.4942852"><ele>771.0</ele><time>2026-04-18T07:08:23.341Z</time></trkpt><trkpt lat="44.7442516" lon="9.494151"><ele>776.1999999999999</ele><time>2026-04-18T07:08:24.341Z</time></trkpt><trkpt lat="44.7442396" lon="9.4940209"><ele>781.4</ele><time>2026-04-18T07:08:25.341Z</time></trkpt><trkpt lat="44.7442342" lon="9.4939119"><ele>786.6</ele><time>2026-04-18T07:08:26.341Z</time></trkpt><trkpt lat="44.7442053" lon="9.493764"><ele>791.8</ele><time>2026-04-18T07:08:28.341Z</time></trkpt><trkpt lat="44.7441184" lon="9.4937933"><ele>797.0</ele><time>2026-04-18T07:08:31.341Z</time></trkpt><trkpt lat="44.7440914" lon="9.4939903"><ele>797.0</ele><time>2026-04-18T07:08:33.341Z</time></trkpt><trkpt lat="44.7440805" lon="9.4941263"><ele>797.0</ele><time>2026-04-18T07:08:34.341Z</time></trkpt><trkpt lat="44.7440809" lon="9.494274"><ele>797.0</ele><time>2026-04-18T07:08:35.341Z</time></trkpt><trkpt lat="44.7440838" lon="9.4944043"><ele>797.0</ele><time>2026-04-18T07:08:36.341Z</time></trkpt><trkpt lat="44.7440898" lon="9.4945333"><ele>797.0</ele><time>2026-04-18T07:08:37.341Z</time></trkpt><trkpt lat="44.7440952" lon="9.4946552"><ele>797.1666666666667</ele><time>2026-04-18T07:08:38.342Z</time></trkpt><trkpt lat="44.7440978" lon="9.4947633"><ele>797.3333333333334</ele><time>2026-04-18T07:08:39.341Z</time></trkpt><trkpt lat="44.7440866" lon="9.4948599"><ele>797.5</ele><time>2026-04-18T07:08:40.342Z</time></trkpt><trkpt lat="44.7440597" lon="9.4949456"><ele>797.6666666666667</ele><time>2026-04-18T07:08:41.342Z</time></trkpt><trkpt lat="44.7440118" lon="9.4950223"><ele>797.8333333333334</ele><time>2026-04-18T07:08:42.342Z</time></trkpt><trkpt lat="44.7439449" lon="9.4950924"><ele>798.0</ele><time>2026-04-18T07:08:43.341Z</time></trkpt><trkpt lat="44.7438651" lon="9.4951551"><ele>798.0</ele><time>2026-04-18T07:08:44.342Z</time></trkpt><trkpt lat="44.7437753" lon="9.4952184"><ele>798.0</ele><time>2026-04-18T07:08:45.342Z</time></trkpt><trkpt lat="44.7436751" lon="9.4952748"><ele>798.0</ele><time>2026-04-18T07:08:46.342Z</time></trkpt><trkpt lat="44.743571" lon="9.4953211"><ele>798.0</ele><time>2026-04-18T07:08:47.342Z</time></trkpt><trkpt lat="44.7434606" lon="9.4953596"><ele>798.0</ele><time>2026-04-18T07:08:48.342Z</time></trkpt><trkpt lat="44.7433451" lon="9.4953903"><ele>798.0</ele><time>2026-04-18T07:08:49.342Z</time></trkpt><trkpt lat="44.743228" lon="9.4954255"><ele>798.0</ele><time>2026-04-18T07:08:50.342Z</time></trkpt><trkpt lat="44.7431125" lon="9.4954743"><ele>798.0</ele><time>2026-04-18T07:08:51.342Z</time></trkpt><trkpt lat="44.7429991" lon="9.4955351"><ele>798.0</ele><time>2026-04-18T07:08:52.342Z</time></trkpt><trkpt lat="44.7428916" lon="9.4956052"><ele>798.0</ele><time>2026-04-18T07:08:53.342Z</time></trkpt><trkpt lat="44.7427974" lon="9.49567"><ele>798.0</ele><time>2026-04-18T07:08:54.342Z</time></trkpt><trkpt lat="44.7427077" lon="9.4957215"><ele>798.0</ele><time>2026-04-18T07:08:55.342Z</time></trkpt><trkpt lat="44.7426277" lon="9.495748"><ele>798.0</ele><time>2026-04-18T07:08:56.342Z</time></trkpt><trkpt lat="44.7425505" lon="9.4957394"><ele>798.0</ele><time>2026-04-18T07:08:57.342Z</time></trkpt><trkpt lat="44.7424728" lon="9.4957065"><ele>798.0</ele><time>2026-04-18T07:08:58.342Z</time></trkpt><trkpt lat="44.7423918" lon="9.4956687"><ele>800.6666666666666</ele><time>2026-04-18T07:08:59.342Z</time></trkpt><trkpt lat="44.7423151" lon="9.4956408"><ele>803.3333333333333</ele><time>2026-04-18T07:09:00.342Z</time></trkpt><trkpt lat="44.7422374" lon="9.4956262"><ele>806.0</ele><time>2026-04-18T07:09:01.342Z</time></trkpt><trkpt lat="44.7421556" lon="9.4956259"><ele>808.6666666666666</ele><time>2026-04-18T07:09:02.342Z</time></trkpt><trkpt lat="44.7420692" lon="9.495646"><ele>811.3333333333333</ele><time>2026-04-18T07:09:03.342Z</time></trkpt><trkpt lat="44.741987" lon="9.4956914"><ele>814.0</ele><time>2026-04-18T07:09:04.342Z</time></trkpt><trkpt lat="44.7419103" lon="9.4957614"><ele>817.8000000000001</ele><time>2026-04-18T07:09:05.342Z</time></trkpt><trkpt lat="44.7418388" lon="9.495848"><ele>821.6</ele><time>2026-04-18T07:09:06.342Z</time></trkpt><trkpt lat="44.7417687" lon="9.4959437"><ele>825.4</ele><time>2026-04-18T07:09:07.342Z</time></trkpt><trkpt lat="44.7416961" lon="9.496043"><ele>829.2</ele><time>2026-04-18T07:09:08.342Z</time></trkpt><trkpt lat="44.7416177" lon="9.4961402"><ele>833.0</ele><time>2026-04-18T07:09:09.342Z</time></trkpt><trkpt lat="44.7415333" lon="9.4962318"><ele>827.8</ele><time>2026-04-18T07:09:10.342Z</time></trkpt><trkpt lat="44.7414454" lon="9.4963146"><ele>822.5999999999999</ele><time>2026-04-18T07:09:11.342Z</time></trkpt><trkpt lat="44.741362" lon="9.4963898"><ele>817.4000000000001</ele><time>2026-04-18T07:09:12.342Z</time></trkpt><trkpt lat="44.7412912" lon="9.4964619"><ele>812.2</ele><time>2026-04-18T07:09:13.342Z</time></trkpt><trkpt lat="44.7412238" lon="9.4965399"><ele>807.0</ele><time>2026-04-18T07:09:14.342Z</time></trkpt><trkpt lat="44.7411559" lon="9.4966178"><ele>807.0</ele><time>2026-04-18T07:09:15.342Z</time></trkpt><trkpt lat="44.741086" lon="9.4966914"><ele>807.0</ele><time>2026-04-18T07:09:16.342Z</time></trkpt><trkpt lat="44.7410125" lon="9.4967643"><ele>807.0</ele><time>2026-04-18T07:09:17.342Z</time></trkpt><trkpt lat="44.7409371" lon="9.4968434"><ele>807.0</ele><time>2026-04-18T07:09:18.342Z</time></trkpt><trkpt lat="44.7408686" lon="9.4969373"><ele>807.0</ele><time>2026-04-18T07:09:19.342Z</time></trkpt><trkpt lat="44.7408161" lon="9.4970498"><ele>812.4000000000001</ele><time>2026-04-18T07:09:20.342Z</time></trkpt><trkpt lat="44.7407783" lon="9.4971756"><ele>817.8000000000001</ele><time>2026-04-18T07:09:21.342Z</time></trkpt><trkpt lat="44.7407497" lon="9.4973067"><ele>823.2</ele><time>2026-04-18T07:09:22.342Z</time></trkpt><trkpt lat="44.740724" lon="9.4974389"><ele>828.6</ele><time>2026-04-18T07:09:23.342Z</time></trkpt><trkpt lat="44.7406962" lon="9.497562"><ele>834.0</ele><time>2026-04-18T07:09:24.342Z</time></trkpt><trkpt lat="44.7406602" lon="9.4976786"><ele>834.0</ele><time>2026-04-18T07:09:25.342Z</time></trkpt><trkpt lat="44.7406157" lon="9.497793"><ele>834.0</ele><time>2026-04-18T07:09:26.342Z</time></trkpt><trkpt lat="44.7405675" lon="9.4979069"><ele>834.0</ele><time>2026-04-18T07:09:27.342Z</time></trkpt><trkpt lat="44.7405234" lon="9.4980126"><ele>834.0</ele><time>2026-04-18T07:09:28.342Z</time></trkpt><trkpt lat="44.7404796" lon="9.4981178"><ele>834.0</ele><time>2026-04-18T07:09:29.342Z</time></trkpt><trkpt lat="44.7404424" lon="9.4982299"><ele>834.0</ele><time>2026-04-18T07:09:30.342Z</time></trkpt><trkpt lat="44.7404174" lon="9.4983476"><ele>832.1666666666666</ele><time>2026-04-18T07:09:31.342Z</time></trkpt><trkpt lat="44.7404028" lon="9.4984649"><ele>830.3333333333333</ele><time>2026-04-18T07:09:32.342Z</time></trkpt><trkpt lat="44.740391" lon="9.4985686"><ele>828.5</ele><time>2026-04-18T07:09:33.342Z</time></trkpt><trkpt lat="44.7403721" lon="9.4986709"><ele>826.6666666666666</ele><time>2026-04-18T07:09:34.342Z</time></trkpt><trkpt lat="44.7403467" lon="9.4987723"><ele>824.8333333333333</ele><time>2026-04-18T07:09:35.342Z</time></trkpt><trkpt lat="44.7403215" lon="9.4988555"><ele>823.0</ele><time>2026-04-18T07:09:36.342Z</time></trkpt><trkpt lat="44.7402711" lon="9.4989628"><ele>826.4</ele><time>2026-04-18T07:09:38.342Z</time></trkpt><trkpt lat="44.7402081" lon="9.4990037"><ele>829.8</ele><time>2026-04-18T07:09:40.342Z</time></trkpt><trkpt lat="44.7401382" lon="9.4989921"><ele>833.2</ele><time>2026-04-18T07:09:42.342Z</time></trkpt><trkpt lat="44.7400507" lon="9.4988567"><ele>836.6</ele><time>2026-04-18T07:09:44.342Z</time></trkpt><trkpt lat="44.7400022" lon="9.4987457"><ele>840.0</ele><time>2026-04-18T07:09:45.342Z</time></trkpt><trkpt lat="44.7399549" lon="9.4986288"><ele>841.6</ele><time>2026-04-18T07:09:46.342Z</time></trkpt><trkpt lat="44.7399089" lon="9.4985044"><ele>843.2</ele><time>2026-04-18T07:09:47.342Z</time></trkpt><trkpt lat="44.7398595" lon="9.49837"><ele>844.8</ele><time>2026-04-18T07:09:48.342Z</time></trkpt><trkpt lat="44.7398087" lon="9.498226"><ele>846.4</ele><time>2026-04-18T07:09:49.342Z</time></trkpt><trkpt lat="44.7397581" lon="9.4980692"><ele>848.0</ele><time>2026-04-18T07:09:50.342Z</time></trkpt><trkpt lat="44.7397151" lon="9.4979085"><ele>851.0</ele><time>2026-04-18T07:09:51.342Z</time></trkpt><trkpt lat="44.7396798" lon="9.4977432"><ele>854.0</ele><time>2026-04-18T07:09:52.342Z</time></trkpt><trkpt lat="44.7396418" lon="9.4975796"><ele>857.0</ele><time>2026-04-18T07:09:53.342Z</time></trkpt><trkpt lat="44.7395954" lon="9.4974208"><ele>860.0</ele><time>2026-04-18T07:09:54.342Z</time></trkpt><trkpt lat="44.7395399" lon="9.4972704"><ele>860.0</ele><time>2026-04-18T07:09:55.342Z</time></trkpt><trkpt lat="44.7394742" lon="9.4971316"><ele>860.0</ele><time>2026-04-18T07:09:56.343Z</time></trkpt><trkpt lat="44.7394075" lon="9.4970054"><ele>860.0</ele><time>2026-04-18T07:09:57.343Z</time></trkpt><trkpt lat="44.7393484" lon="9.4968814"><ele>860.0</ele><time>2026-04-18T07:09:58.343Z</time></trkpt><trkpt lat="44.7392981" lon="9.4967737"><ele>860.0</ele><time>2026-04-18T07:09:59.343Z</time></trkpt><trkpt lat="44.7392564" lon="9.4966791"><ele>860.8</ele><time>2026-04-18T07:10:00.342Z</time></trkpt><trkpt lat="44.7391912" lon="9.4965943"><ele>861.6</ele><time>2026-04-18T07:10:01.343Z</time></trkpt><trkpt lat="44.7391047" lon="9.4965347"><ele>862.4000000000001</ele><time>2026-04-18T07:10:02.343Z</time></trkpt><trkpt lat="44.7390119" lon="9.4964944"><ele>863.2</ele><time>2026-04-18T07:10:03.343Z</time></trkpt><trkpt lat="44.7389143" lon="9.4964544"><ele>864.0</ele><time>2026-04-18T07:10:04.343Z</time></trkpt><trkpt lat="44.7388153" lon="9.496413"><ele>864.0</ele><time>2026-04-18T07:10:05.343Z</time></trkpt><trkpt lat="44.7387122" lon="9.4963625"><ele>864.0000000000001</ele><time>2026-04-18T07:10:06.343Z</time></trkpt><trkpt lat="44.7386047" lon="9.4963075"><ele>864.0000000000001</ele><time>2026-04-18T07:10:07.343Z</time></trkpt><trkpt lat="44.7385058" lon="9.4962544"><ele>864.0</ele><time>2026-04-18T07:10:08.343Z</time></trkpt><trkpt lat="44.7384137" lon="9.4961986"><ele>864.0</ele><time>2026-04-18T07:10:09.343Z</time></trkpt><trkpt lat="44.7383248" lon="9.4961291"><ele>866.4000000000001</ele><time>2026-04-18T07:10:10.343Z</time></trkpt><trkpt lat="44.7382362" lon="9.4960507"><ele>868.8000000000001</ele><time>2026-04-18T07:10:11.343Z</time></trkpt><trkpt lat="44.7381451" lon="9.4959712"><ele>871.1999999999999</ele><time>2026-04-18T07:10:12.343Z</time></trkpt><trkpt lat="44.7380516" lon="9.4958942"><ele>873.5999999999999</ele><time>2026-04-18T07:10:13.343Z</time></trkpt><trkpt lat="44.7379588" lon="9.4958151"><ele>876.0</ele><time>2026-04-18T07:10:14.343Z</time></trkpt><trkpt lat="44.7378716" lon="9.4957403"><ele>876.0</ele><time>2026-04-18T07:10:15.343Z</time></trkpt><trkpt lat="44.7377888" lon="9.4956762"><ele>875.9999999999999</ele><time>2026-04-18T07:10:16.343Z</time></trkpt><trkpt lat="44.7377" lon="9.4956345"><ele>875.9999999999999</ele><time>2026-04-18T07:10:17.343Z</time></trkpt><trkpt lat="44.7376098" lon="9.4956105"><ele>876.0</ele><time>2026-04-18T07:10:18.343Z</time></trkpt><trkpt lat="44.7375201" lon="9.4955892"><ele>876.0</ele><time>2026-04-18T07:10:19.343Z</time></trkpt><trkpt lat="44.7374398" lon="9.4955723"><ele>875.5</ele><time>2026-04-18T07:10:20.343Z</time></trkpt><trkpt lat="44.7373672" lon="9.4955562"><ele>875.0</ele><time>2026-04-18T07:10:21.342Z</time></trkpt><trkpt lat="44.7372571" lon="9.4954932"><ele>874.5</ele><time>2026-04-18T07:10:23.343Z</time></trkpt><trkpt lat="44.7372014" lon="9.495445"><ele>874.0</ele><time>2026-04-18T07:10:24.343Z</time></trkpt><trkpt lat="44.7371526" lon="9.495361"><ele>873.5</ele><time>2026-04-18T07:10:25.343Z</time></trkpt><trkpt lat="44.7371121" lon="9.4952472"><ele>873.0</ele><time>2026-04-18T07:10:26.343Z</time></trkpt><trkpt lat="44.7370775" lon="9.4951171"><ele>875.5999999999999</ele><time>2026-04-18T07:10:27.343Z</time></trkpt><trkpt lat="44.7370496" lon="9.4949913"><ele>878.1999999999999</ele><time>2026-04-18T07:10:28.343Z</time></trkpt><trkpt lat="44.7370245" lon="9.4948576"><ele>880.8</ele><time>2026-04-18T07:10:29.343Z</time></trkpt><trkpt lat="44.7370038" lon="9.4947166"><ele>883.4</ele><time>2026-04-18T07:10:30.343Z</time></trkpt><trkpt lat="44.7369888" lon="9.4945713"><ele>886.0</ele><time>2026-04-18T07:10:31.343Z</time></trkpt><trkpt lat="44.7369781" lon="9.4944285"><ele>888.1999999999999</ele><time>2026-04-18T07:10:32.343Z</time></trkpt><trkpt lat="44.7369822" lon="9.4942796"><ele>890.3999999999999</ele><time>2026-04-18T07:10:33.342Z</time></trkpt><trkpt lat="44.7369875" lon="9.4941253"><ele>892.6</ele><time>2026-04-18T07:10:34.343Z</time></trkpt><trkpt lat="44.7369856" lon="9.4939851"><ele>894.8</ele><time>2026-04-18T07:10:35.343Z</time></trkpt><trkpt lat="44.736966" lon="9.4938615"><ele>897.0</ele><time>2026-04-18T07:10:36.343Z</time></trkpt><trkpt lat="44.7369334" lon="9.4937545"><ele>896.0</ele><time>2026-04-18T07:10:37.343Z</time></trkpt><trkpt lat="44.7369034" lon="9.4936494"><ele>895.0</ele><time>2026-04-18T07:10:38.343Z</time></trkpt><trkpt lat="44.7368797" lon="9.4935371"><ele>894.0</ele><time>2026-04-18T07:10:39.343Z</time></trkpt><trkpt lat="44.7368769" lon="9.4934143"><ele>893.0</ele><time>2026-04-18T07:10:40.343Z</time></trkpt><trkpt lat="44.7368775" lon="9.4932941"><ele>892.0</ele><time>2026-04-18T07:10:41.343Z</time></trkpt><trkpt lat="44.7368654" lon="9.493179"><ele>891.0</ele><time>2026-04-18T07:10:42.343Z</time></trkpt><trkpt lat="44.7368303" lon="9.4930677"><ele>891.0</ele><time>2026-04-18T07:10:43.343Z</time></trkpt><trkpt lat="44.7367846" lon="9.4929615"><ele>890.9999999999999</ele><time>2026-04-18T07:10:44.343Z</time></trkpt><trkpt lat="44.7367141" lon="9.4928679"><ele>890.9999999999999</ele><time>2026-04-18T07:10:45.343Z</time></trkpt><trkpt lat="44.7366313" lon="9.4927873"><ele>891.0</ele><time>2026-04-18T07:10:46.343Z</time></trkpt><trkpt lat="44.7365544" lon="9.4927222"><ele>891.0</ele><time>2026-04-18T07:10:47.343Z</time></trkpt><trkpt lat="44.7364903" lon="9.4926619"><ele>892.8</ele><time>2026-04-18T07:10:48.343Z</time></trkpt><trkpt lat="44.7364412" lon="9.4925938"><ele>894.5999999999999</ele><time>2026-04-18T07:10:49.343Z</time></trkpt><trkpt lat="44.7364247" lon="9.4924358"><ele>896.4</ele><time>2026-04-18T07:10:51.343Z</time></trkpt><trkpt lat="44.7364633" lon="9.4922718"><ele>898.2</ele><time>2026-04-18T07:10:53.343Z</time></trkpt><trkpt lat="44.7365058" lon="9.492139"><ele>900.0</ele><time>2026-04-18T07:10:55.343Z</time></trkpt><trkpt lat="44.7365358" lon="9.4920608"><ele>902.1666666666666</ele><time>2026-04-18T07:11:27.344Z</time></trkpt><trkpt lat="44.7365977" lon="9.4920084"><ele>904.3333333333333</ele><time>2026-04-18T07:11:29.344Z</time></trkpt><trkpt lat="44.7366871" lon="9.4919542"><ele>906.5</ele><time>2026-04-18T07:32:38.36Z</time></trkpt><trkpt lat="44.7367708" lon="9.4919033"><ele>908.6666666666666</ele><time>2026-04-18T07:32:40.359Z</time></trkpt><trkpt lat="44.7368543" lon="9.4918755"><ele>910.8333333333333</ele><time>2026-04-18T07:32:42.359Z</time></trkpt><trkpt lat="44.7369292" lon="9.491823"><ele>913.0</ele><time>2026-04-18T07:32:45.36Z</time></trkpt><trkpt lat="44.736953" lon="9.4917216"><ele>914.8571428571427</ele><time>2026-04-18T07:32:47.36Z</time></trkpt><trkpt lat="44.7369566" lon="9.491621"><ele>916.7142857142857</ele><time>2026-04-18T07:32:49.36Z</time></trkpt><trkpt lat="44.7369962" lon="9.4915149"><ele>918.5714285714284</ele><time>2026-04-18T07:33:44.361Z</time></trkpt><trkpt lat="44.7370484" lon="9.4914622"><ele>920.4285714285713</ele><time>2026-04-18T07:36:43.362Z</time></trkpt><trkpt lat="44.7371081" lon="9.4913978"><ele>922.2857142857142</ele><time>2026-04-18T07:37:06.363Z</time></trkpt><trkpt lat="44.7371798" lon="9.4913483"><ele>924.1428571428571</ele><time>2026-04-18T07:37:09.363Z</time></trkpt><trkpt lat="44.7372398" lon="9.4912936"><ele>926.0</ele><time>2026-04-18T07:37:11.363Z</time></trkpt><trkpt lat="44.7373017" lon="9.4912171"><ele>926.8333333333334</ele><time>2026-04-18T07:37:13.363Z</time></trkpt><trkpt lat="44.7373665" lon="9.4911632"><ele>927.6666666666667</ele><time>2026-04-18T07:37:16.363Z</time></trkpt><trkpt lat="44.7374581" lon="9.4911187"><ele>928.5</ele><time>2026-04-18T07:43:03.367Z</time></trkpt><trkpt lat="44.7375393" lon="9.4910833"><ele>929.3333333333333</ele><time>2026-04-18T07:43:05.367Z</time></trkpt><trkpt lat="44.7376115" lon="9.4910409"><ele>930.1666666666666</ele><time>2026-04-18T07:43:07.367Z</time></trkpt><trkpt lat="44.7376706" lon="9.4909714"><ele>931.0</ele><time>2026-04-18T07:43:09.367Z</time></trkpt><trkpt lat="44.7377129" lon="9.4908805"><ele>931.6666666666666</ele><time>2026-04-18T07:43:11.367Z</time></trkpt><trkpt lat="44.7377547" lon="9.4907907"><ele>932.3333333333333</ele><time>2026-04-18T07:43:13.367Z</time></trkpt><trkpt lat="44.737801" lon="9.4906833"><ele>933.0</ele><time>2026-04-18T07:43:15.367Z</time></trkpt><trkpt lat="44.7378421" lon="9.490573"><ele>933.6666666666667</ele><time>2026-04-18T07:43:17.367Z</time></trkpt><trkpt lat="44.7378853" lon="9.4905053"><ele>934.3333333333334</ele><time>2026-04-18T07:43:19.367Z</time></trkpt><trkpt lat="44.7379492" lon="9.4904634"><ele>935.0</ele><time>2026-04-18T07:43:21.367Z</time></trkpt><trkpt lat="44.7380124" lon="9.4905102"><ele>935.0</ele><time>2026-04-18T07:43:24.367Z</time></trkpt><trkpt lat="44.7380885" lon="9.490543"><ele>935.0</ele><time>2026-04-18T07:43:27.367Z</time></trkpt><trkpt lat="44.7381348" lon="9.490462"><ele>935.0</ele><time>2026-04-18T07:43:34.367Z</time></trkpt><trkpt lat="44.7381179" lon="9.4903317"><ele>935.0</ele><time>2026-04-18T07:43:36.367Z</time></trkpt><trkpt lat="44.7380968" lon="9.4901614"><ele>935.0</ele><time>2026-04-18T07:43:38.367Z</time></trkpt><trkpt lat="44.7380859" lon="9.4900242"><ele>935.0</ele><time>2026-04-18T07:43:40.367Z</time></trkpt><trkpt lat="44.7380864" lon="9.4898788"><ele>935.0</ele><time>2026-04-18T07:43:42.367Z</time></trkpt><trkpt lat="44.7380411" lon="9.4897348"><ele>935.0</ele><time>2026-04-18T07:43:44.367Z</time></trkpt><trkpt lat="44.7379776" lon="9.4895931"><ele>935.0</ele><time>2026-04-18T07:43:46.367Z</time></trkpt><trkpt lat="44.7379437" lon="9.4895175"><ele>935.0</ele><time>2026-04-18T07:43:47.367Z</time></trkpt><trkpt lat="44.7379091" lon="9.4894387"><ele>935.0000000000001</ele><time>2026-04-18T07:43:48.367Z</time></trkpt><trkpt lat="44.7378777" lon="9.4893549"><ele>935.0</ele><time>2026-04-18T07:43:49.367Z</time></trkpt><trkpt lat="44.7378498" lon="9.4892667"><ele>935.0000000000001</ele><time>2026-04-18T07:43:50.366Z</time></trkpt><trkpt lat="44.7378296" lon="9.4891739"><ele>935.0000000000001</ele><time>2026-04-18T07:43:51.367Z</time></trkpt><trkpt lat="44.7378139" lon="9.4890775"><ele>935.0</ele><time>2026-04-18T07:43:52.367Z</time></trkpt><trkpt lat="44.7378002" lon="9.4889805"><ele>935.0000000000001</ele><time>2026-04-18T07:43:53.367Z</time></trkpt><trkpt lat="44.7377941" lon="9.4888778"><ele>935.0000000000001</ele><time>2026-04-18T07:43:54.368Z</time></trkpt><trkpt lat="44.7377954" lon="9.4887832"><ele>935.6</ele><time>2026-04-18T07:43:55.368Z</time></trkpt><trkpt lat="44.7378014" lon="9.488626"><ele>936.2</ele><time>2026-04-18T07:43:57.368Z</time></trkpt><trkpt lat="44.737787" lon="9.4884547"><ele>936.8</ele><time>2026-04-18T07:43:59.368Z</time></trkpt><trkpt lat="44.7377508" lon="9.4882858"><ele>937.4</ele><time>2026-04-18T07:44:01.368Z</time></trkpt><trkpt lat="44.7377294" lon="9.4882011"><ele>938.0</ele><time>2026-04-18T07:44:02.368Z</time></trkpt><trkpt lat="44.7377078" lon="9.4881148"><ele>940.2857142857142</ele><time>2026-04-18T07:44:03.368Z</time></trkpt><trkpt lat="44.7376876" lon="9.4880293"><ele>942.5714285714286</ele><time>2026-04-18T07:44:04.367Z</time></trkpt><trkpt lat="44.7376634" lon="9.4879411"><ele>944.8571428571429</ele><time>2026-04-18T07:44:05.368Z</time></trkpt><trkpt lat="44.7376385" lon="9.4878534"><ele>947.1428571428571</ele><time>2026-04-18T07:44:06.368Z</time></trkpt><trkpt lat="44.7376127" lon="9.4877678"><ele>949.4285714285713</ele><time>2026-04-18T07:44:07.368Z</time></trkpt><trkpt lat="44.7375775" lon="9.4876701"><ele>951.7142857142857</ele><time>2026-04-18T07:44:08.368Z</time></trkpt><trkpt lat="44.7375305" lon="9.4875612"><ele>954.0</ele><time>2026-04-18T07:44:09.368Z</time></trkpt><trkpt lat="44.7374903" lon="9.4874714"><ele>954.0</ele><time>2026-04-18T07:44:10.368Z</time></trkpt><trkpt lat="44.7374534" lon="9.4873932"><ele>953.9999999999999</ele><time>2026-04-18T07:44:11.368Z</time></trkpt><trkpt lat="44.7374113" lon="9.4873119"><ele>954.0</ele><time>2026-04-18T07:44:12.368Z</time></trkpt><trkpt lat="44.7373662" lon="9.4872282"><ele>954.0</ele><time>2026-04-18T07:44:13.368Z</time></trkpt><trkpt lat="44.737321" lon="9.4871412"><ele>953.9999999999999</ele><time>2026-04-18T07:44:14.368Z</time></trkpt><trkpt lat="44.7372765" lon="9.4870519"><ele>954.0</ele><time>2026-04-18T07:44:15.368Z</time></trkpt><trkpt lat="44.7372312" lon="9.4869619"><ele>954.0</ele><time>2026-04-18T07:44:16.368Z</time></trkpt><trkpt lat="44.7371843" lon="9.486873"><ele>952.8571428571428</ele><time>2026-04-18T07:44:17.367Z</time></trkpt><trkpt lat="44.7371369" lon="9.486786"><ele>951.7142857142856</ele><time>2026-04-18T07:44:18.368Z</time></trkpt><trkpt lat="44.737092" lon="9.4866992"><ele>950.5714285714286</ele><time>2026-04-18T07:44:19.368Z</time></trkpt><trkpt lat="44.7370495" lon="9.4866129"><ele>949.4285714285713</ele><time>2026-04-18T07:44:20.368Z</time></trkpt><trkpt lat="44.7370067" lon="9.4865316"><ele>948.2857142857142</ele><time>2026-04-18T07:44:21.368Z</time></trkpt><trkpt lat="44.7369639" lon="9.4864561"><ele>947.1428571428571</ele><time>2026-04-18T07:44:22.368Z</time></trkpt><trkpt lat="44.7369089" lon="9.4863947"><ele>946.0</ele><time>2026-04-18T07:44:23.368Z</time></trkpt><trkpt lat="44.7368338" lon="9.4863609"><ele>951.0</ele><time>2026-04-18T07:44:24.368Z</time></trkpt><trkpt lat="44.7367517" lon="9.4863414"><ele>955.9999999999999</ele><time>2026-04-18T07:44:25.368Z</time></trkpt><trkpt lat="44.7366325" lon="9.4863481"><ele>960.9999999999999</ele><time>2026-04-18T07:44:26.368Z</time></trkpt><trkpt lat="44.7365114" lon="9.4863558"><ele>966.0</ele><time>2026-04-18T07:44:27.367Z</time></trkpt><trkpt lat="44.7364046" lon="9.4863633"><ele>971.0</ele><time>2026-04-18T07:44:28.367Z</time></trkpt><trkpt lat="44.7363093" lon="9.4863708"><ele>971.0</ele><time>2026-04-18T07:44:29.368Z</time></trkpt><trkpt lat="44.736221" lon="9.4863738"><ele>970.9999999999999</ele><time>2026-04-18T07:44:30.368Z</time></trkpt><trkpt lat="44.736081" lon="9.4863181"><ele>970.9999999999999</ele><time>2026-04-18T07:44:32.368Z</time></trkpt><trkpt lat="44.7360305" lon="9.4862425"><ele>971.0</ele><time>2026-04-18T07:44:33.368Z</time></trkpt><trkpt lat="44.7359948" lon="9.4861401"><ele>971.0</ele><time>2026-04-18T07:44:34.368Z</time></trkpt><trkpt lat="44.7359756" lon="9.4860191"><ele>971.3333333333334</ele><time>2026-04-18T07:44:35.368Z</time></trkpt><trkpt lat="44.7359667" lon="9.4858899"><ele>971.6666666666667</ele><time>2026-04-18T07:44:36.368Z</time></trkpt><trkpt lat="44.7359599" lon="9.4857653"><ele>972.0</ele><time>2026-04-18T07:44:37.368Z</time></trkpt><trkpt lat="44.7359518" lon="9.4856425"><ele>972.3333333333333</ele><time>2026-04-18T07:44:38.368Z</time></trkpt><trkpt lat="44.7359271" lon="9.4855291"><ele>972.6666666666666</ele><time>2026-04-18T07:44:39.368Z</time></trkpt><trkpt lat="44.7358807" lon="9.4854391"><ele>973.0</ele><time>2026-04-18T07:44:40.368Z</time></trkpt><trkpt lat="44.7358156" lon="9.4853741"><ele>972.2</ele><time>2026-04-18T07:44:41.368Z</time></trkpt><trkpt lat="44.7357319" lon="9.4853283"><ele>971.4</ele><time>2026-04-18T07:44:42.368Z</time></trkpt><trkpt lat="44.735639" lon="9.4852905"><ele>970.6000000000001</ele><time>2026-04-18T07:44:43.368Z</time></trkpt><trkpt lat="44.7355357" lon="9.4852449"><ele>969.8000000000001</ele><time>2026-04-18T07:44:44.368Z</time></trkpt><trkpt lat="44.7354254" lon="9.4851855"><ele>969.0</ele><time>2026-04-18T07:44:45.368Z</time></trkpt><trkpt lat="44.7353124" lon="9.4851148"><ele>970.0</ele><time>2026-04-18T07:44:46.368Z</time></trkpt><trkpt lat="44.7351981" lon="9.485033"><ele>971.0</ele><time>2026-04-18T07:44:47.368Z</time></trkpt><trkpt lat="44.7350929" lon="9.4849497"><ele>972.0</ele><time>2026-04-18T07:44:48.368Z</time></trkpt><trkpt lat="44.734996" lon="9.484863"><ele>973.0</ele><time>2026-04-18T07:44:49.368Z</time></trkpt><trkpt lat="44.7349102" lon="9.4847608"><ele>973.0</ele><time>2026-04-18T07:44:50.368Z</time></trkpt><trkpt lat="44.7348359" lon="9.4846456"><ele>973.0</ele><time>2026-04-18T07:44:51.368Z</time></trkpt><trkpt lat="44.7347705" lon="9.4845217"><ele>973.0</ele><time>2026-04-18T07:44:52.368Z</time></trkpt><trkpt lat="44.7347068" lon="9.4843906"><ele>973.0</ele><time>2026-04-18T07:44:53.368Z</time></trkpt><trkpt lat="44.73464" lon="9.4842548"><ele>972.5</ele><time>2026-04-18T07:44:54.368Z</time></trkpt><trkpt lat="44.7345655" lon="9.4841173"><ele>972.0</ele><time>2026-04-18T07:44:55.368Z</time></trkpt><trkpt lat="44.734481" lon="9.4839879"><ele>971.5</ele><time>2026-04-18T07:44:56.368Z</time></trkpt><trkpt lat="44.7343932" lon="9.4838744"><ele>971.0</ele><time>2026-04-18T07:44:57.368Z</time></trkpt><trkpt lat="44.7343044" lon="9.483778"><ele>973.0</ele><time>2026-04-18T07:44:58.368Z</time></trkpt><trkpt lat="44.7342086" lon="9.4836933"><ele>975.0</ele><time>2026-04-18T07:44:59.368Z</time></trkpt><trkpt lat="44.7341042" lon="9.4836218"><ele>977.0</ele><time>2026-04-18T07:45:00.368Z</time></trkpt><trkpt lat="44.7339944" lon="9.4835641"><ele>979.0</ele><time>2026-04-18T07:45:01.368Z</time></trkpt><trkpt lat="44.7338835" lon="9.4835168"><ele>979.0</ele><time>2026-04-18T07:45:02.368Z</time></trkpt><trkpt lat="44.7337792" lon="9.4834739"><ele>979.0000000000001</ele><time>2026-04-18T07:45:03.368Z</time></trkpt><trkpt lat="44.7336793" lon="9.4834264"><ele>979.0000000000001</ele><time>2026-04-18T07:45:04.368Z</time></trkpt><trkpt lat="44.7335851" lon="9.4833714"><ele>979.0</ele><time>2026-04-18T07:45:05.368Z</time></trkpt><trkpt lat="44.733502" lon="9.4833085"><ele>979.0</ele><time>2026-04-18T07:45:06.368Z</time></trkpt><trkpt lat="44.7334275" lon="9.483245"><ele>979.0</ele><time>2026-04-18T07:45:07.368Z</time></trkpt><trkpt lat="44.733364" lon="9.483158"><ele>979.0000000000001</ele><time>2026-04-18T07:45:08.368Z</time></trkpt><trkpt lat="44.733305" lon="9.4830531"><ele>979.0000000000001</ele><time>2026-04-18T07:45:09.368Z</time></trkpt><trkpt lat="44.7332544" lon="9.4829356"><ele>979.0</ele><time>2026-04-18T07:45:10.368Z</time></trkpt><trkpt lat="44.733208" lon="9.4828066"><ele>979.0</ele><time>2026-04-18T07:45:11.367Z</time></trkpt><trkpt lat="44.7331619" lon="9.4826688"><ele>979.0</ele><time>2026-04-18T07:45:12.368Z</time></trkpt><trkpt lat="44.7331214" lon="9.482528"><ele>979.0</ele><time>2026-04-18T07:45:13.368Z</time></trkpt><trkpt lat="44.7330896" lon="9.4823818"><ele>979.0</ele><time>2026-04-18T07:45:14.368Z</time></trkpt><trkpt lat="44.7330623" lon="9.4822206"><ele>979.0</ele><time>2026-04-18T07:45:15.368Z</time></trkpt><trkpt lat="44.733039" lon="9.48206"><ele>977.75</ele><time>2026-04-18T07:45:16.368Z</time></trkpt><trkpt lat="44.7330171" lon="9.481902"><ele>976.5</ele><time>2026-04-18T07:45:17.368Z</time></trkpt><trkpt lat="44.7329942" lon="9.4817344"><ele>975.25</ele><time>2026-04-18T07:45:18.369Z</time></trkpt><trkpt lat="44.7329698" lon="9.4815572"><ele>974.0</ele><time>2026-04-18T07:45:19.369Z</time></trkpt><trkpt lat="44.7329437" lon="9.4813745"><ele>973.0</ele><time>2026-04-18T07:45:20.369Z</time></trkpt><trkpt lat="44.7329167" lon="9.4811879"><ele>972.0</ele><time>2026-04-18T07:45:21.369Z</time></trkpt><trkpt lat="44.7328923" lon="9.4809982"><ele>971.0</ele><time>2026-04-18T07:45:22.369Z</time></trkpt><trkpt lat="44.7328705" lon="9.4808075"><ele>970.0</ele><time>2026-04-18T07:45:23.369Z</time></trkpt><trkpt lat="44.7328485" lon="9.4806157"><ele>970.75</ele><time>2026-04-18T07:45:24.369Z</time></trkpt><trkpt lat="44.732825" lon="9.4804257"><ele>971.5</ele><time>2026-04-18T07:45:25.369Z</time></trkpt><trkpt lat="44.7327946" lon="9.4802389"><ele>972.25</ele><time>2026-04-18T07:45:26.369Z</time></trkpt><trkpt lat="44.7327545" lon="9.4800563"><ele>973.0</ele><time>2026-04-18T07:45:27.369Z</time></trkpt><trkpt lat="44.7327077" lon="9.4798775"><ele>973.75</ele><time>2026-04-18T07:45:28.369Z</time></trkpt><trkpt lat="44.7326589" lon="9.4797004"><ele>974.5</ele><time>2026-04-18T07:45:29.369Z</time></trkpt><trkpt lat="44.7326133" lon="9.4795238"><ele>975.25</ele><time>2026-04-18T07:45:30.369Z</time></trkpt><trkpt lat="44.732571" lon="9.4793501"><ele>976.0</ele><time>2026-04-18T07:45:31.369Z</time></trkpt><trkpt lat="44.7325307" lon="9.479185"><ele>978.0</ele><time>2026-04-18T07:45:32.369Z</time></trkpt><trkpt lat="44.7324743" lon="9.4790379"><ele>980.0</ele><time>2026-04-18T07:45:33.369Z</time></trkpt><trkpt lat="44.7324001" lon="9.478913"><ele>982.0</ele><time>2026-04-18T07:45:34.369Z</time></trkpt><trkpt lat="44.7323085" lon="9.4788144"><ele>984.0</ele><time>2026-04-18T07:45:35.369Z</time></trkpt><trkpt lat="44.7322026" lon="9.4787434"><ele>986.0</ele><time>2026-04-18T07:45:36.369Z</time></trkpt><trkpt lat="44.7320879" lon="9.4786936"><ele>988.0000000000001</ele><time>2026-04-18T07:45:37.369Z</time></trkpt><trkpt lat="44.7319751" lon="9.4786524"><ele>990.0000000000001</ele><time>2026-04-18T07:45:38.369Z</time></trkpt><trkpt lat="44.7318883" lon="9.4786115"><ele>992.0</ele><time>2026-04-18T07:45:39.369Z</time></trkpt><trkpt lat="44.7318179" lon="9.4785563"><ele>994.0</ele><time>2026-04-18T07:45:40.369Z</time></trkpt><trkpt lat="44.7317648" lon="9.4784808"><ele>994.6</ele><time>2026-04-18T07:45:41.369Z</time></trkpt><trkpt lat="44.7317235" lon="9.4783682"><ele>995.2</ele><time>2026-04-18T07:45:42.369Z</time></trkpt><trkpt lat="44.731694" lon="9.4782206"><ele>995.8000000000001</ele><time>2026-04-18T07:45:43.369Z</time></trkpt><trkpt lat="44.7316688" lon="9.4780549"><ele>996.4000000000001</ele><time>2026-04-18T07:45:44.369Z</time></trkpt><trkpt lat="44.7316402" lon="9.4778835"><ele>997.0</ele><time>2026-04-18T07:45:45.369Z</time></trkpt><trkpt lat="44.7316045" lon="9.4777119"><ele>998.5</ele><time>2026-04-18T07:45:46.369Z</time></trkpt><trkpt lat="44.731558" lon="9.4775532"><ele>1000.0</ele><time>2026-04-18T07:45:47.368Z</time></trkpt><trkpt lat="44.7314973" lon="9.4774084"><ele>1001.5</ele><time>2026-04-18T07:45:48.369Z</time></trkpt><trkpt lat="44.7314223" lon="9.4772756"><ele>1003.0</ele><time>2026-04-18T07:45:49.369Z</time></trkpt><trkpt lat="44.7313436" lon="9.4771477"><ele>1003.0</ele><time>2026-04-18T07:45:50.369Z</time></trkpt><trkpt lat="44.7312649" lon="9.4770221"><ele>1003.0</ele><time>2026-04-18T07:45:51.369Z</time></trkpt><trkpt lat="44.7311846" lon="9.4768989"><ele>1003.0</ele><time>2026-04-18T07:45:52.369Z</time></trkpt><trkpt lat="44.7311091" lon="9.4767728"><ele>1003.0</ele><time>2026-04-18T07:45:53.369Z</time></trkpt><trkpt lat="44.7310397" lon="9.4766403"><ele>1003.25</ele><time>2026-04-18T07:45:54.369Z</time></trkpt><trkpt lat="44.7309751" lon="9.4765006"><ele>1003.5</ele><time>2026-04-18T07:45:55.369Z</time></trkpt><trkpt lat="44.7309091" lon="9.4763537"><ele>1003.75</ele><time>2026-04-18T07:45:56.369Z</time></trkpt><trkpt lat="44.7308403" lon="9.4761995"><ele>1004.0</ele><time>2026-04-18T07:45:57.369Z</time></trkpt><trkpt lat="44.7307691" lon="9.4760382"><ele>1004.0</ele><time>2026-04-18T07:45:58.369Z</time></trkpt><trkpt lat="44.7306951" lon="9.4758707"><ele>1004.0</ele><time>2026-04-18T07:45:59.369Z</time></trkpt><trkpt lat="44.730619" lon="9.4756995"><ele>1004.0</ele><time>2026-04-18T07:46:00.369Z</time></trkpt><trkpt lat="44.7305423" lon="9.4755287"><ele>1004.0</ele><time>2026-04-18T07:46:01.369Z</time></trkpt><trkpt lat="44.7304683" lon="9.475359"><ele>1005.25</ele><time>2026-04-18T07:46:02.369Z</time></trkpt><trkpt lat="44.7303991" lon="9.4751918"><ele>1006.5</ele><time>2026-04-18T07:46:03.369Z</time></trkpt><trkpt lat="44.7303316" lon="9.4750344"><ele>1007.75</ele><time>2026-04-18T07:46:04.369Z</time></trkpt><trkpt lat="44.7302636" lon="9.4748975"><ele>1009.0</ele><time>2026-04-18T07:46:05.369Z</time></trkpt><trkpt lat="44.7301925" lon="9.4747752"><ele>1009.8000000000001</ele><time>2026-04-18T07:46:06.369Z</time></trkpt><trkpt lat="44.7301208" lon="9.4746763"><ele>1010.6000000000001</ele><time>2026-04-18T07:46:07.369Z</time></trkpt><trkpt lat="44.7300406" lon="9.4746011"><ele>1011.4</ele><time>2026-04-18T07:46:08.369Z</time></trkpt><trkpt lat="44.7299514" lon="9.474549"><ele>1012.2</ele><time>2026-04-18T07:46:09.369Z</time></trkpt><trkpt lat="44.7298653" lon="9.4745133"><ele>1013.0</ele><time>2026-04-18T07:46:10.369Z</time></trkpt><trkpt lat="44.7297797" lon="9.4744745"><ele>1015.2</ele><time>2026-04-18T07:46:11.369Z</time></trkpt><trkpt lat="44.7297002" lon="9.4744117"><ele>1017.4</ele><time>2026-04-18T07:46:12.369Z</time></trkpt><trkpt lat="44.7296308" lon="9.474318"><ele>1019.6000000000001</ele><time>2026-04-18T07:46:13.369Z</time></trkpt><trkpt lat="44.7295717" lon="9.4741977"><ele>1021.8000000000001</ele><time>2026-04-18T07:46:14.369Z</time></trkpt><trkpt lat="44.7295166" lon="9.4740633"><ele>1024.0</ele><time>2026-04-18T07:46:15.369Z</time></trkpt><trkpt lat="44.7294614" lon="9.4739206"><ele>1024.0</ele><time>2026-04-18T07:46:16.369Z</time></trkpt><trkpt lat="44.7294044" lon="9.4737731"><ele>1024.0</ele><time>2026-04-18T07:46:17.368Z</time></trkpt><trkpt lat="44.7293467" lon="9.4736197"><ele>1024.0</ele><time>2026-04-18T07:46:18.369Z</time></trkpt><trkpt lat="44.7292892" lon="9.473459"><ele>1024.0</ele><time>2026-04-18T07:46:19.369Z</time></trkpt><trkpt lat="44.7292355" lon="9.4732924"><ele>1024.5</ele><time>2026-04-18T07:46:20.369Z</time></trkpt><trkpt lat="44.7291931" lon="9.4731182"><ele>1025.0</ele><time>2026-04-18T07:46:21.369Z</time></trkpt><trkpt lat="44.7291656" lon="9.4729369"><ele>1025.5</ele><time>2026-04-18T07:46:22.369Z</time></trkpt><trkpt lat="44.7291454" lon="9.4727507"><ele>1026.0</ele><time>2026-04-18T07:46:23.369Z</time></trkpt><trkpt lat="44.729128" lon="9.4725735"><ele>1028.0</ele><time>2026-04-18T07:46:24.369Z</time></trkpt><trkpt lat="44.7291136" lon="9.4724038"><ele>1030.0</ele><time>2026-04-18T07:46:25.369Z</time></trkpt><trkpt lat="44.7291058" lon="9.4722394"><ele>1032.0</ele><time>2026-04-18T07:46:26.369Z</time></trkpt><trkpt lat="44.7291033" lon="9.4720787"><ele>1034.0</ele><time>2026-04-18T07:46:27.369Z</time></trkpt><trkpt lat="44.7290928" lon="9.4719306"><ele>1035.8</ele><time>2026-04-18T07:46:28.369Z</time></trkpt><trkpt lat="44.7290624" lon="9.4717953"><ele>1037.6000000000001</ele><time>2026-04-18T07:46:29.368Z</time></trkpt><trkpt lat="44.7290106" lon="9.4716723"><ele>1039.4</ele><time>2026-04-18T07:46:30.369Z</time></trkpt><trkpt lat="44.728942" lon="9.4715499"><ele>1041.2</ele><time>2026-04-18T07:46:31.369Z</time></trkpt><trkpt lat="44.7288652" lon="9.471425"><ele>1043.0</ele><time>2026-04-18T07:46:32.369Z</time></trkpt><trkpt lat="44.7287846" lon="9.4713008"><ele>1044.0</ele><time>2026-04-18T07:46:33.37Z</time></trkpt><trkpt lat="44.7287084" lon="9.4711809"><ele>1045.0</ele><time>2026-04-18T07:46:34.369Z</time></trkpt><trkpt lat="44.7286464" lon="9.4710706"><ele>1046.0</ele><time>2026-04-18T07:46:35.368Z</time></trkpt><trkpt lat="44.728598" lon="9.4709615"><ele>1047.0</ele><time>2026-04-18T07:46:36.369Z</time></trkpt><trkpt lat="44.7285636" lon="9.4708415"><ele>1048.0</ele><time>2026-04-18T07:46:37.369Z</time></trkpt><trkpt lat="44.7285452" lon="9.470709"><ele>1048.0</ele><time>2026-04-18T07:46:38.369Z</time></trkpt><trkpt lat="44.7285444" lon="9.4705647"><ele>1048.0</ele><time>2026-04-18T07:46:39.369Z</time></trkpt><trkpt lat="44.7285647" lon="9.4704171"><ele>1048.0</ele><time>2026-04-18T07:46:40.368Z</time></trkpt><trkpt lat="44.7285943" lon="9.4702681"><ele>1048.0</ele><time>2026-04-18T07:46:41.369Z</time></trkpt><trkpt lat="44.728609" lon="9.4701109"><ele>1048.0</ele><time>2026-04-18T07:46:42.369Z</time></trkpt><trkpt lat="44.7286158" lon="9.4699623"><ele>1049.25</ele><time>2026-04-18T07:46:43.37Z</time></trkpt><trkpt lat="44.7285922" lon="9.4698013"><ele>1050.5</ele><time>2026-04-18T07:46:44.37Z</time></trkpt><trkpt lat="44.7285702" lon="9.46963"><ele>1051.75</ele><time>2026-04-18T07:46:45.37Z</time></trkpt><trkpt lat="44.7285476" lon="9.469453"><ele>1053.0</ele><time>2026-04-18T07:46:46.37Z</time></trkpt><trkpt lat="44.7285245" lon="9.4692742"><ele>1055.25</ele><time>2026-04-18T07:46:47.37Z</time></trkpt><trkpt lat="44.7285028" lon="9.4690984"><ele>1057.5</ele><time>2026-04-18T07:46:48.369Z</time></trkpt><trkpt lat="44.7284753" lon="9.4689342"><ele>1059.75</ele><time>2026-04-18T07:46:49.37Z</time></trkpt><trkpt lat="44.728437" lon="9.4687873"><ele>1062.0</ele><time>2026-04-18T07:46:50.37Z</time></trkpt><trkpt lat="44.7283935" lon="9.4686521"><ele>1063.8</ele><time>2026-04-18T07:46:51.37Z</time></trkpt><trkpt lat="44.7283614" lon="9.4685253"><ele>1065.6</ele><time>2026-04-18T07:46:52.37Z</time></trkpt><trkpt lat="44.7283556" lon="9.4683959"><ele>1067.3999999999999</ele><time>2026-04-18T07:46:53.37Z</time></trkpt><trkpt lat="44.728373" lon="9.468258"><ele>1069.2</ele><time>2026-04-18T07:46:54.37Z</time></trkpt><trkpt lat="44.7284007" lon="9.4681098"><ele>1071.0</ele><time>2026-04-18T07:46:55.37Z</time></trkpt><trkpt lat="44.7284365" lon="9.4679776"><ele>1072.8333333333333</ele><time>2026-04-18T07:46:56.37Z</time></trkpt><trkpt lat="44.7284789" lon="9.4678522"><ele>1074.6666666666667</ele><time>2026-04-18T07:46:57.37Z</time></trkpt><trkpt lat="44.7285101" lon="9.4677215"><ele>1076.5</ele><time>2026-04-18T07:46:58.37Z</time></trkpt><trkpt lat="44.728534" lon="9.4676012"><ele>1078.3333333333335</ele><time>2026-04-18T07:46:59.37Z</time></trkpt><trkpt lat="44.7285274" lon="9.4674935"><ele>1080.1666666666667</ele><time>2026-04-18T07:47:00.37Z</time></trkpt><trkpt lat="44.7285288" lon="9.4674027"><ele>1082.0</ele><time>2026-04-18T07:47:01.37Z</time></trkpt><trkpt lat="44.7285509" lon="9.4673186"><ele>1083.2</ele><time>2026-04-18T07:47:02.37Z</time></trkpt><trkpt lat="44.7286594" lon="9.4672159"><ele>1084.4</ele><time>2026-04-18T07:47:04.37Z</time></trkpt><trkpt lat="44.7287511" lon="9.4671933"><ele>1085.6</ele><time>2026-04-18T07:47:05.37Z</time></trkpt><trkpt lat="44.7288483" lon="9.4671669"><ele>1086.8</ele><time>2026-04-18T07:47:06.37Z</time></trkpt><trkpt lat="44.7289436" lon="9.4671385"><ele>1088.0</ele><time>2026-04-18T07:47:07.37Z</time></trkpt><trkpt lat="44.7290344" lon="9.4671012"><ele>1088.6666666666667</ele><time>2026-04-18T07:47:08.37Z</time></trkpt><trkpt lat="44.7291158" lon="9.4670472"><ele>1089.3333333333335</ele><time>2026-04-18T07:47:09.37Z</time></trkpt><trkpt lat="44.7291802" lon="9.4670078"><ele>1090.0</ele><time>2026-04-18T07:47:10.37Z</time></trkpt><trkpt lat="44.7292443" lon="9.4669854"><ele>1090.6666666666667</ele><time>2026-04-18T07:47:11.37Z</time></trkpt><trkpt lat="44.729361" lon="9.4670567"><ele>1091.3333333333333</ele><time>2026-04-18T07:47:13.37Z</time></trkpt><trkpt lat="44.7293927" lon="9.4671497"><ele>1092.0</ele><time>2026-04-18T07:47:14.37Z</time></trkpt><trkpt lat="44.7294298" lon="9.4672251"><ele>1092.0</ele><time>2026-04-18T07:47:15.37Z</time></trkpt><trkpt lat="44.7295231" lon="9.4673231"><ele>1092.0</ele><time>2026-04-18T07:47:17.37Z</time></trkpt><trkpt lat="44.7295887" lon="9.4673458"><ele>1092.0</ele><time>2026-04-18T07:47:18.37Z</time></trkpt><trkpt lat="44.7296975" lon="9.4672919"><ele>1092.0</ele><time>2026-04-18T07:47:20.37Z</time></trkpt><trkpt lat="44.7297639" lon="9.4671398"><ele>1092.0</ele><time>2026-04-18T07:47:22.37Z</time></trkpt><trkpt lat="44.72978" lon="9.46704"><ele>1095.2</ele><time>2026-04-18T07:47:23.37Z</time></trkpt><trkpt lat="44.7298007" lon="9.4669461"><ele>1098.4</ele><time>2026-04-18T07:47:24.37Z</time></trkpt><trkpt lat="44.7298936" lon="9.466826"><ele>1101.6</ele><time>2026-04-18T07:47:26.37Z</time></trkpt><trkpt lat="44.7299687" lon="9.466783"><ele>1104.8</ele><time>2026-04-18T07:47:27.37Z</time></trkpt><trkpt lat="44.7300584" lon="9.4667443"><ele>1108.0</ele><time>2026-04-18T07:47:28.37Z</time></trkpt><trkpt lat="44.7301486" lon="9.4667289"><ele>1107.8333333333333</ele><time>2026-04-18T07:47:29.37Z</time></trkpt><trkpt lat="44.7302301" lon="9.4667497"><ele>1107.6666666666665</ele><time>2026-04-18T07:47:30.37Z</time></trkpt><trkpt lat="44.7303122" lon="9.4667664"><ele>1107.5</ele><time>2026-04-18T07:47:31.37Z</time></trkpt><trkpt lat="44.7303905" lon="9.4667729"><ele>1107.3333333333333</ele><time>2026-04-18T07:47:32.37Z</time></trkpt><trkpt lat="44.7304698" lon="9.4667418"><ele>1107.1666666666667</ele><time>2026-04-18T07:47:33.37Z</time></trkpt><trkpt lat="44.7305487" lon="9.4667043"><ele>1107.0</ele><time>2026-04-18T07:47:34.37Z</time></trkpt><trkpt lat="44.7306299" lon="9.4666713"><ele>1107.0</ele><time>2026-04-18T07:47:35.37Z</time></trkpt><trkpt lat="44.7307006" lon="9.4666459"><ele>1107.0</ele><time>2026-04-18T07:47:36.37Z</time></trkpt><trkpt lat="44.7307634" lon="9.4666015"><ele>1107.0</ele><time>2026-04-18T07:47:37.37Z</time></trkpt><trkpt lat="44.7308054" lon="9.4665092"><ele>1107.0</ele><time>2026-04-18T07:47:38.37Z</time></trkpt><trkpt lat="44.7308368" lon="9.4664027"><ele>1107.0</ele><time>2026-04-18T07:47:39.37Z</time></trkpt><trkpt lat="44.7308673" lon="9.4662888"><ele>1107.0</ele><time>2026-04-18T07:47:40.37Z</time></trkpt><trkpt lat="44.730887" lon="9.4661645"><ele>1108.3333333333333</ele><time>2026-04-18T07:47:41.37Z</time></trkpt><trkpt lat="44.7308963" lon="9.4660663"><ele>1109.6666666666667</ele><time>2026-04-18T07:47:42.37Z</time></trkpt><trkpt lat="44.7309" lon="9.465973"><ele>1111.0</ele><time>2026-04-18T07:47:43.37Z</time></trkpt><trkpt lat="44.7308744" lon="9.4658816"><ele>1112.3333333333335</ele><time>2026-04-18T07:47:44.37Z</time></trkpt><trkpt lat="44.7308418" lon="9.4657868"><ele>1113.6666666666667</ele><time>2026-04-18T07:47:45.37Z</time></trkpt><trkpt lat="44.7307789" lon="9.4656787"><ele>1115.0</ele><time>2026-04-18T07:47:46.37Z</time></trkpt><trkpt lat="44.7307158" lon="9.4655654"><ele>1115.0</ele><time>2026-04-18T07:47:47.37Z</time></trkpt><trkpt lat="44.7306737" lon="9.4654638"><ele>1115.0</ele><time>2026-04-18T07:47:48.37Z</time></trkpt><trkpt lat="44.7306399" lon="9.4653683"><ele>1115.0</ele><time>2026-04-18T07:47:49.37Z</time></trkpt><trkpt lat="44.7306182" lon="9.4652746"><ele>1115.0</ele><time>2026-04-18T07:47:50.37Z</time></trkpt><trkpt lat="44.7306134" lon="9.465157"><ele>1115.0</ele><time>2026-04-18T07:47:51.37Z</time></trkpt><trkpt lat="44.7306216" lon="9.4650149"><ele>1115.0</ele><time>2026-04-18T07:47:52.37Z</time></trkpt><trkpt lat="44.7306496" lon="9.4648679"><ele>1116.1666666666667</ele><time>2026-04-18T07:47:53.37Z</time></trkpt><trkpt lat="44.7306982" lon="9.4647515"><ele>1117.3333333333335</ele><time>2026-04-18T07:47:54.37Z</time></trkpt><trkpt lat="44.7307415" lon="9.4646425"><ele>1118.5</ele><time>2026-04-18T07:47:55.37Z</time></trkpt><trkpt lat="44.7307746" lon="9.4645334"><ele>1119.6666666666667</ele><time>2026-04-18T07:47:56.37Z</time></trkpt><trkpt lat="44.7307898" lon="9.4644155"><ele>1120.8333333333333</ele><time>2026-04-18T07:47:57.37Z</time></trkpt><trkpt lat="44.7307898" lon="9.4642837"><ele>1122.0</ele><time>2026-04-18T07:47:58.37Z</time></trkpt><trkpt lat="44.7307837" lon="9.4641384"><ele>1124.0</ele><time>2026-04-18T07:47:59.37Z</time></trkpt><trkpt lat="44.7307852" lon="9.4640015"><ele>1126.0</ele><time>2026-04-18T07:48:00.37Z</time></trkpt><trkpt lat="44.7308043" lon="9.4638684"><ele>1128.0</ele><time>2026-04-18T07:48:01.37Z</time></trkpt><trkpt lat="44.73084" lon="9.4637481"><ele>1130.0</ele><time>2026-04-18T07:48:02.37Z</time></trkpt><trkpt lat="44.730891" lon="9.4636339"><ele>1132.0</ele><time>2026-04-18T07:48:03.37Z</time></trkpt><trkpt lat="44.7309431" lon="9.4635215"><ele>1133.6666666666665</ele><time>2026-04-18T07:48:04.37Z</time></trkpt><trkpt lat="44.7309868" lon="9.4634248"><ele>1135.3333333333333</ele><time>2026-04-18T07:48:05.37Z</time></trkpt><trkpt lat="44.7310237" lon="9.4633292"><ele>1137.0</ele><time>2026-04-18T07:48:06.37Z</time></trkpt><trkpt lat="44.7310403" lon="9.4632223"><ele>1138.6666666666667</ele><time>2026-04-18T07:48:07.37Z</time></trkpt><trkpt lat="44.7310322" lon="9.4631074"><ele>1140.3333333333335</ele><time>2026-04-18T07:48:08.371Z</time></trkpt><trkpt lat="44.7309973" lon="9.4629969"><ele>1142.0</ele><time>2026-04-18T07:48:09.371Z</time></trkpt><trkpt lat="44.7309447" lon="9.4628867"><ele>1142.3333333333335</ele><time>2026-04-18T07:48:10.371Z</time></trkpt><trkpt lat="44.7308835" lon="9.462777"><ele>1142.6666666666667</ele><time>2026-04-18T07:48:11.371Z</time></trkpt><trkpt lat="44.7308205" lon="9.462671"><ele>1143.0</ele><time>2026-04-18T07:48:12.371Z</time></trkpt><trkpt lat="44.7307694" lon="9.4625733"><ele>1143.3333333333333</ele><time>2026-04-18T07:48:13.371Z</time></trkpt><trkpt lat="44.7307375" lon="9.4624692"><ele>1143.6666666666665</ele><time>2026-04-18T07:48:14.371Z</time></trkpt><trkpt lat="44.7307305" lon="9.4623624"><ele>1144.0</ele><time>2026-04-18T07:48:15.371Z</time></trkpt><trkpt lat="44.7307532" lon="9.4622585"><ele>1144.0</ele><time>2026-04-18T07:48:16.371Z</time></trkpt><trkpt lat="44.7308057" lon="9.46217"><ele>1144.0</ele><time>2026-04-18T07:48:17.37Z</time></trkpt><trkpt lat="44.7308756" lon="9.4620915"><ele>1144.0</ele><time>2026-04-18T07:48:18.371Z</time></trkpt><trkpt lat="44.7309525" lon="9.4620082"><ele>1144.0</ele><time>2026-04-18T07:48:19.371Z</time></trkpt><trkpt lat="44.7310239" lon="9.4619222"><ele>1144.0</ele><time>2026-04-18T07:48:20.371Z</time></trkpt><trkpt lat="44.7310895" lon="9.4618254"><ele>1144.0</ele><time>2026-04-18T07:48:21.371Z</time></trkpt><trkpt lat="44.7311429" lon="9.4617131"><ele>1144.0</ele><time>2026-04-18T07:48:22.371Z</time></trkpt><trkpt lat="44.7311768" lon="9.4615803"><ele>1144.0</ele><time>2026-04-18T07:48:23.371Z</time></trkpt><trkpt lat="44.7311926" lon="9.4614341"><ele>1144.0</ele><time>2026-04-18T07:48:24.371Z</time></trkpt><trkpt lat="44.7312003" lon="9.4612881"><ele>1144.0</ele><time>2026-04-18T07:48:25.371Z</time></trkpt><trkpt lat="44.7312057" lon="9.4611593"><ele>1144.3333333333333</ele><time>2026-04-18T07:48:26.371Z</time></trkpt><trkpt lat="44.7312132" lon="9.4610465"><ele>1144.6666666666665</ele><time>2026-04-18T07:48:27.371Z</time></trkpt><trkpt lat="44.7312242" lon="9.4609483"><ele>1145.0</ele><time>2026-04-18T07:48:28.371Z</time></trkpt><trkpt lat="44.7312457" lon="9.4607957"><ele>1145.3333333333333</ele><time>2026-04-18T07:48:30.371Z</time></trkpt><trkpt lat="44.7312672" lon="9.4606807"><ele>1145.6666666666667</ele><time>2026-04-18T07:48:32.371Z</time></trkpt><trkpt lat="44.7312746" lon="9.4605763"><ele>1146.0</ele><time>2026-04-18T07:48:34.371Z</time></trkpt><trkpt lat="44.7312463" lon="9.4604965"><ele>1146.0</ele><time>2026-04-18T07:48:36.371Z</time></trkpt><trkpt lat="44.7311833" lon="9.4604772"><ele>1146.0</ele><time>2026-04-18T07:48:38.371Z</time></trkpt><trkpt lat="44.7311067" lon="9.4604778"><ele>1146.0</ele><time>2026-04-18T07:48:40.371Z</time></trkpt><trkpt lat="44.7310547" lon="9.4603745"><ele>1146.0</ele><time>2026-04-18T07:48:42.371Z</time></trkpt><trkpt lat="44.7309911" lon="9.4602087"><ele>1146.0</ele><time>2026-04-18T07:48:44.371Z</time></trkpt><trkpt lat="44.7309466" lon="9.4601149"><ele>1146.0</ele><time>2026-04-18T07:48:45.371Z</time></trkpt><trkpt lat="44.7308947" lon="9.4600168"><ele>1147.0</ele><time>2026-04-18T07:48:46.37Z</time></trkpt><trkpt lat="44.7308377" lon="9.459916"><ele>1148.0</ele><time>2026-04-18T07:48:47.371Z</time></trkpt><trkpt lat="44.7307772" lon="9.4598095"><ele>1149.0</ele><time>2026-04-18T07:48:48.371Z</time></trkpt><trkpt lat="44.7307188" lon="9.459711"><ele>1150.0</ele><time>2026-04-18T07:48:49.371Z</time></trkpt><trkpt lat="44.7306626" lon="9.4596136"><ele>1151.0</ele><time>2026-04-18T07:48:50.371Z</time></trkpt><trkpt lat="44.7306062" lon="9.4595183"><ele>1151.0</ele><time>2026-04-18T07:48:51.371Z</time></trkpt><trkpt lat="44.7305453" lon="9.4594178"><ele>1151.0</ele><time>2026-04-18T07:48:52.37Z</time></trkpt><trkpt lat="44.7304884" lon="9.4593167"><ele>1151.0</ele><time>2026-04-18T07:48:53.371Z</time></trkpt><trkpt lat="44.7304364" lon="9.4592266"><ele>1151.0</ele><time>2026-04-18T07:48:54.371Z</time></trkpt><trkpt lat="44.7303883" lon="9.4591535"><ele>1151.0</ele><time>2026-04-18T07:48:55.371Z</time></trkpt><trkpt lat="44.7302718" lon="9.4591543"><ele>1153.8</ele><time>2026-04-18T07:48:57.37Z</time></trkpt><trkpt lat="44.7301962" lon="9.4593048"><ele>1156.6</ele><time>2026-04-18T07:48:59.371Z</time></trkpt><trkpt lat="44.7301743" lon="9.4594227"><ele>1159.4</ele><time>2026-04-18T07:49:00.371Z</time></trkpt><trkpt lat="44.7301359" lon="9.4595476"><ele>1162.2</ele><time>2026-04-18T07:49:01.371Z</time></trkpt><trkpt lat="44.7300863" lon="9.4596777"><ele>1165.0</ele><time>2026-04-18T07:49:02.371Z</time></trkpt><trkpt lat="44.7300391" lon="9.4598205"><ele>1165.0</ele><time>2026-04-18T07:49:03.371Z</time></trkpt><trkpt lat="44.7299973" lon="9.4599717"><ele>1165.0</ele><time>2026-04-18T07:49:04.371Z</time></trkpt><trkpt lat="44.7299617" lon="9.4601158"><ele>1165.0</ele><time>2026-04-18T07:49:05.371Z</time></trkpt><trkpt lat="44.7299239" lon="9.460246"><ele>1165.0</ele><time>2026-04-18T07:49:06.371Z</time></trkpt><trkpt lat="44.7298737" lon="9.4603688"><ele>1165.0</ele><time>2026-04-18T07:49:07.371Z</time></trkpt><trkpt lat="44.7298098" lon="9.4604838"><ele>1164.2</ele><time>2026-04-18T07:49:08.371Z</time></trkpt><trkpt lat="44.7297415" lon="9.4605908"><ele>1163.4</ele><time>2026-04-18T07:49:09.371Z</time></trkpt><trkpt lat="44.7296745" lon="9.4606948"><ele>1162.6</ele><time>2026-04-18T07:49:10.371Z</time></trkpt><trkpt lat="44.7296085" lon="9.4608038"><ele>1161.8</ele><time>2026-04-18T07:49:11.37Z</time></trkpt><trkpt lat="44.7295419" lon="9.460916"><ele>1161.0</ele><time>2026-04-18T07:49:12.371Z</time></trkpt><trkpt lat="44.7294718" lon="9.4610283"><ele>1161.0</ele><time>2026-04-18T07:49:13.371Z</time></trkpt><trkpt lat="44.7293982" lon="9.4611374"><ele>1161.0</ele><time>2026-04-18T07:49:14.371Z</time></trkpt><trkpt lat="44.729324" lon="9.4612307"><ele>1161.0</ele><time>2026-04-18T07:49:15.371Z</time></trkpt><trkpt lat="44.729245" lon="9.4613056"><ele>1161.0</ele><time>2026-04-18T07:49:16.371Z</time></trkpt><trkpt lat="44.7291548" lon="9.4613559"><ele>1161.0</ele><time>2026-04-18T07:49:17.371Z</time></trkpt><trkpt lat="44.7290582" lon="9.4613871"><ele>1161.0</ele><time>2026-04-18T07:49:18.371Z</time></trkpt><trkpt lat="44.7289595" lon="9.4614091"><ele>1161.0</ele><time>2026-04-18T07:49:19.371Z</time></trkpt><trkpt lat="44.7288594" lon="9.4614413"><ele>1161.0</ele><time>2026-04-18T07:49:20.371Z</time></trkpt><trkpt lat="44.7287585" lon="9.4614858"><ele>1161.0</ele><time>2026-04-18T07:49:21.371Z</time></trkpt><trkpt lat="44.7286548" lon="9.4615356"><ele>1161.0</ele><time>2026-04-18T07:49:22.37Z</time></trkpt><trkpt lat="44.7285475" lon="9.461583"><ele>1164.25</ele><time>2026-04-18T07:49:23.371Z</time></trkpt><trkpt lat="44.7284379" lon="9.4616291"><ele>1167.5</ele><time>2026-04-18T07:49:24.371Z</time></trkpt><trkpt lat="44.7283287" lon="9.4616724"><ele>1170.75</ele><time>2026-04-18T07:49:25.371Z</time></trkpt><trkpt lat="44.7282189" lon="9.4617263"><ele>1174.0</ele><time>2026-04-18T07:49:26.371Z</time></trkpt><trkpt lat="44.7281082" lon="9.4617845"><ele>1174.0</ele><time>2026-04-18T07:49:27.371Z</time></trkpt><trkpt lat="44.7280033" lon="9.4618495"><ele>1174.0</ele><time>2026-04-18T07:49:28.371Z</time></trkpt><trkpt lat="44.7279138" lon="9.4619195"><ele>1174.0</ele><time>2026-04-18T07:49:29.371Z</time></trkpt><trkpt lat="44.7278293" lon="9.4619915"><ele>1174.0</ele><time>2026-04-18T07:49:30.371Z</time></trkpt><trkpt lat="44.7277479" lon="9.4620563"><ele>1174.0</ele><time>2026-04-18T07:49:31.372Z</time></trkpt><trkpt lat="44.7276658" lon="9.4621039"><ele>1173.2</ele><time>2026-04-18T07:49:32.372Z</time></trkpt><trkpt lat="44.7275845" lon="9.4621412"><ele>1172.4</ele><time>2026-04-18T07:49:33.372Z</time></trkpt><trkpt lat="44.7275073" lon="9.4621362"><ele>1171.6</ele><time>2026-04-18T07:49:34.372Z</time></trkpt><trkpt lat="44.7274225" lon="9.4620958"><ele>1170.8</ele><time>2026-04-18T07:49:35.372Z</time></trkpt><trkpt lat="44.7273329" lon="9.4620293"><ele>1170.0</ele><time>2026-04-18T07:49:36.372Z</time></trkpt><trkpt lat="44.7272372" lon="9.4619508"><ele>1174.5</ele><time>2026-04-18T07:49:37.372Z</time></trkpt><trkpt lat="44.7271407" lon="9.461868"><ele>1179.0</ele><time>2026-04-18T07:49:38.372Z</time></trkpt><trkpt lat="44.7270429" lon="9.461779"><ele>1183.5</ele><time>2026-04-18T07:49:39.372Z</time></trkpt><trkpt lat="44.7269463" lon="9.4616862"><ele>1188.0</ele><time>2026-04-18T07:49:40.371Z</time></trkpt><trkpt lat="44.7268466" lon="9.4616082"><ele>1188.4</ele><time>2026-04-18T07:49:41.372Z</time></trkpt><trkpt lat="44.7267421" lon="9.461549"><ele>1188.8</ele><time>2026-04-18T07:49:42.372Z</time></trkpt><trkpt lat="44.7266361" lon="9.4614952"><ele>1189.2</ele><time>2026-04-18T07:49:43.372Z</time></trkpt><trkpt lat="44.7265332" lon="9.461438"><ele>1189.6</ele><time>2026-04-18T07:49:44.372Z</time></trkpt><trkpt lat="44.7264353" lon="9.4613718"><ele>1190.0</ele><time>2026-04-18T07:49:45.372Z</time></trkpt><trkpt lat="44.7263376" lon="9.4612973"><ele>1192.75</ele><time>2026-04-18T07:49:46.372Z</time></trkpt><trkpt lat="44.7262464" lon="9.461203"><ele>1195.5</ele><time>2026-04-18T07:49:47.372Z</time></trkpt><trkpt lat="44.7261562" lon="9.4610975"><ele>1198.25</ele><time>2026-04-18T07:49:48.372Z</time></trkpt><trkpt lat="44.7260691" lon="9.4609844"><ele>1201.0</ele><time>2026-04-18T07:49:49.372Z</time></trkpt><trkpt lat="44.7259822" lon="9.4608635"><ele>1201.0</ele><time>2026-04-18T07:49:50.372Z</time></trkpt><trkpt lat="44.7258937" lon="9.460741"><ele>1201.0</ele><time>2026-04-18T07:49:51.372Z</time></trkpt><trkpt lat="44.725808" lon="9.4606275"><ele>1201.0</ele><time>2026-04-18T07:49:52.372Z</time></trkpt><trkpt lat="44.725719" lon="9.460516"><ele>1201.0</ele><time>2026-04-18T07:49:53.372Z</time></trkpt><trkpt lat="44.7256267" lon="9.4604056"><ele>1204.25</ele><time>2026-04-18T07:49:54.372Z</time></trkpt><trkpt lat="44.7255313" lon="9.4602983"><ele>1207.5</ele><time>2026-04-18T07:49:55.372Z</time></trkpt><trkpt lat="44.7254236" lon="9.460211"><ele>1210.75</ele><time>2026-04-18T07:49:56.371Z</time></trkpt><trkpt lat="44.725305" lon="9.4601468"><ele>1214.0</ele><time>2026-04-18T07:49:57.372Z</time></trkpt><trkpt lat="44.7251806" lon="9.4600942"><ele>1214.0</ele><time>2026-04-18T07:49:58.372Z</time></trkpt><trkpt lat="44.7250549" lon="9.460044"><ele>1214.0</ele><time>2026-04-18T07:49:59.372Z</time></trkpt><trkpt lat="44.7249279" lon="9.460004"><ele>1214.0</ele><time>2026-04-18T07:50:00.372Z</time></trkpt><trkpt lat="44.724798" lon="9.4599692"><ele>1214.0</ele><time>2026-04-18T07:50:01.371Z</time></trkpt><trkpt lat="44.7246688" lon="9.4599337"><ele>1214.0</ele><time>2026-04-18T07:50:02.372Z</time></trkpt><trkpt lat="44.7245386" lon="9.4598932"><ele>1214.0</ele><time>2026-04-18T07:50:03.372Z</time></trkpt><trkpt lat="44.7244084" lon="9.4598459"><ele>1214.0</ele><time>2026-04-18T07:50:04.372Z</time></trkpt><trkpt lat="44.7242816" lon="9.4597829"><ele>1214.0</ele><time>2026-04-18T07:50:05.372Z</time></trkpt><trkpt lat="44.7241613" lon="9.4596982"><ele>1217.5</ele><time>2026-04-18T07:50:06.372Z</time></trkpt><trkpt lat="44.7240507" lon="9.4595946"><ele>1221.0</ele><time>2026-04-18T07:50:07.372Z</time></trkpt><trkpt lat="44.7239563" lon="9.4594752"><ele>1224.5</ele><time>2026-04-18T07:50:08.372Z</time></trkpt><trkpt lat="44.7238851" lon="9.4593413"><ele>1228.0</ele><time>2026-04-18T07:50:09.372Z</time></trkpt><trkpt lat="44.723827" lon="9.4592022"><ele>1228.0</ele><time>2026-04-18T07:50:10.372Z</time></trkpt><trkpt lat="44.723764" lon="9.4590749"><ele>1228.0</ele><time>2026-04-18T07:50:11.372Z</time></trkpt><trkpt lat="44.7236888" lon="9.458967"><ele>1228.0</ele><time>2026-04-18T07:50:12.372Z</time></trkpt><trkpt lat="44.7235985" lon="9.4588838"><ele>1228.0</ele><time>2026-04-18T07:50:13.372Z</time></trkpt><trkpt lat="44.7234973" lon="9.45883"><ele>1228.0</ele><time>2026-04-18T07:50:14.372Z</time></trkpt><trkpt lat="44.7233903" lon="9.4588097"><ele>1228.5</ele><time>2026-04-18T07:50:15.372Z</time></trkpt><trkpt lat="44.7232807" lon="9.4588196"><ele>1229.0</ele><time>2026-04-18T07:50:16.372Z</time></trkpt><trkpt lat="44.7231679" lon="9.4588461"><ele>1229.5</ele><time>2026-04-18T07:50:17.372Z</time></trkpt><trkpt lat="44.723053" lon="9.4588767"><ele>1230.0</ele><time>2026-04-18T07:50:18.371Z</time></trkpt><trkpt lat="44.7229397" lon="9.4589025"><ele>1230.0</ele><time>2026-04-18T07:50:19.372Z</time></trkpt><trkpt lat="44.7228274" lon="9.4589214"><ele>1230.0</ele><time>2026-04-18T07:50:20.371Z</time></trkpt><trkpt lat="44.7227184" lon="9.4589343"><ele>1230.0</ele><time>2026-04-18T07:50:21.371Z</time></trkpt><trkpt lat="44.7226064" lon="9.458945"><ele>1230.0</ele><time>2026-04-18T07:50:22.372Z</time></trkpt><trkpt lat="44.7224962" lon="9.4589631"><ele>1230.0</ele><time>2026-04-18T07:50:23.372Z</time></trkpt><trkpt lat="44.7223922" lon="9.4589947"><ele>1230.75</ele><time>2026-04-18T07:50:24.372Z</time></trkpt><trkpt lat="44.7222887" lon="9.4590346"><ele>1231.5</ele><time>2026-04-18T07:50:25.372Z</time></trkpt><trkpt lat="44.7221783" lon="9.4590758"><ele>1232.25</ele><time>2026-04-18T07:50:26.372Z</time></trkpt><trkpt lat="44.7220604" lon="9.4591103"><ele>1233.0</ele><time>2026-04-18T07:50:27.372Z</time></trkpt><trkpt lat="44.7219371" lon="9.4591327"><ele>1232.25</ele><time>2026-04-18T07:50:28.371Z</time></trkpt><trkpt lat="44.7218109" lon="9.4591466"><ele>1231.5</ele><time>2026-04-18T07:50:29.371Z</time></trkpt><trkpt lat="44.7216885" lon="9.4591569"><ele>1230.75</ele><time>2026-04-18T07:50:30.372Z</time></trkpt><trkpt lat="44.7215752" lon="9.459164"><ele>1230.0</ele><time>2026-04-18T07:50:31.372Z</time></trkpt><trkpt lat="44.7214707" lon="9.4591673"><ele>1230.0</ele><time>2026-04-18T07:50:32.372Z</time></trkpt><trkpt lat="44.7213704" lon="9.4591559"><ele>1230.0</ele><time>2026-04-18T07:50:33.372Z</time></trkpt><trkpt lat="44.7212742" lon="9.4591245"><ele>1230.0</ele><time>2026-04-18T07:50:34.372Z</time></trkpt><trkpt lat="44.7211836" lon="9.4590849"><ele>1230.0</ele><time>2026-04-18T07:50:35.372Z</time></trkpt><trkpt lat="44.7210903" lon="9.4590673"><ele>1230.0</ele><time>2026-04-18T07:50:36.372Z</time></trkpt><trkpt lat="44.7209953" lon="9.4590768"><ele>1228.4</ele><time>2026-04-18T07:50:37.371Z</time></trkpt><trkpt lat="44.7209032" lon="9.4590982"><ele>1226.8</ele><time>2026-04-18T07:50:38.372Z</time></trkpt><trkpt lat="44.7208144" lon="9.4591261"><ele>1225.2</ele><time>2026-04-18T07:50:39.372Z</time></trkpt><trkpt lat="44.7207323" lon="9.4591728"><ele>1223.6</ele><time>2026-04-18T07:50:40.372Z</time></trkpt><trkpt lat="44.7206588" lon="9.4592524"><ele>1222.0</ele><time>2026-04-18T07:50:41.372Z</time></trkpt><trkpt lat="44.7205996" lon="9.459356"><ele>1222.0</ele><time>2026-04-18T07:50:42.372Z</time></trkpt><trkpt lat="44.7205477" lon="9.4594564"><ele>1222.0</ele><time>2026-04-18T07:50:43.372Z</time></trkpt><trkpt lat="44.7204857" lon="9.4595344"><ele>1222.0</ele><time>2026-04-18T07:50:44.372Z</time></trkpt><trkpt lat="44.7204089" lon="9.4595915"><ele>1222.0</ele><time>2026-04-18T07:50:45.372Z</time></trkpt><trkpt lat="44.7203279" lon="9.4596281"><ele>1222.0</ele><time>2026-04-18T07:50:46.372Z</time></trkpt><trkpt lat="44.7202502" lon="9.4596493"><ele>1222.0</ele><time>2026-04-18T07:50:47.372Z</time></trkpt><trkpt lat="44.7201782" lon="9.4596504"><ele>1221.1666666666665</ele><time>2026-04-18T07:50:48.372Z</time></trkpt><trkpt lat="44.7201165" lon="9.459621"><ele>1220.3333333333333</ele><time>2026-04-18T07:50:49.372Z</time></trkpt><trkpt lat="44.7200452" lon="9.4595098"><ele>1219.5</ele><time>2026-04-18T07:50:51.373Z</time></trkpt><trkpt lat="44.7199855" lon="9.4594186"><ele>1218.6666666666667</ele><time>2026-04-18T07:50:54.373Z</time></trkpt><trkpt lat="44.7198998" lon="9.4594811"><ele>1217.8333333333335</ele><time>2026-04-18T07:50:57.373Z</time></trkpt><trkpt lat="44.7198282" lon="9.4595244"><ele>1217.0</ele><time>2026-04-18T07:50:59.373Z</time></trkpt><trkpt lat="44.7197341" lon="9.4595059"><ele>1216.2</ele><time>2026-04-18T07:51:01.373Z</time></trkpt><trkpt lat="44.719633" lon="9.4594281"><ele>1215.4</ele><time>2026-04-18T07:51:03.373Z</time></trkpt><trkpt lat="44.7195112" lon="9.4593985"><ele>1214.6</ele><time>2026-04-18T07:51:05.373Z</time></trkpt><trkpt lat="44.7194442" lon="9.4594311"><ele>1213.8</ele><time>2026-04-18T07:51:06.373Z</time></trkpt><trkpt lat="44.7193804" lon="9.459489"><ele>1213.0</ele><time>2026-04-18T07:51:07.373Z</time></trkpt><trkpt lat="44.7193144" lon="9.45956"><ele>1212.8</ele><time>2026-04-18T07:51:08.373Z</time></trkpt><trkpt lat="44.7192464" lon="9.4596473"><ele>1212.6</ele><time>2026-04-18T07:51:09.373Z</time></trkpt><trkpt lat="44.7191779" lon="9.4597494"><ele>1212.4</ele><time>2026-04-18T07:51:10.373Z</time></trkpt><trkpt lat="44.7191032" lon="9.4598575"><ele>1212.2</ele><time>2026-04-18T07:51:11.373Z</time></trkpt><trkpt lat="44.7190204" lon="9.4599589"><ele>1212.0</ele><time>2026-04-18T07:51:12.373Z</time></trkpt><trkpt lat="44.7189358" lon="9.4600476"><ele>1212.0</ele><time>2026-04-18T07:51:13.373Z</time></trkpt><trkpt lat="44.7188489" lon="9.4601351"><ele>1212.0</ele><time>2026-04-18T07:51:14.373Z</time></trkpt><trkpt lat="44.7187595" lon="9.4602224"><ele>1212.0</ele><time>2026-04-18T07:51:15.373Z</time></trkpt><trkpt lat="44.7186684" lon="9.4603027"><ele>1212.0</ele><time>2026-04-18T07:51:16.373Z</time></trkpt><trkpt lat="44.7185758" lon="9.4603758"><ele>1212.0</ele><time>2026-04-18T07:51:17.373Z</time></trkpt><trkpt lat="44.7184812" lon="9.4604384"><ele>1212.0</ele><time>2026-04-18T07:51:18.373Z</time></trkpt><trkpt lat="44.7183843" lon="9.460484"><ele>1212.0</ele><time>2026-04-18T07:51:19.373Z</time></trkpt><trkpt lat="44.7182868" lon="9.4605168"><ele>1212.0</ele><time>2026-04-18T07:51:20.373Z</time></trkpt><trkpt lat="44.7181893" lon="9.4605461"><ele>1212.0</ele><time>2026-04-18T07:51:21.373Z</time></trkpt><trkpt lat="44.7180929" lon="9.4605813"><ele>1212.0</ele><time>2026-04-18T07:51:22.373Z</time></trkpt><trkpt lat="44.7179967" lon="9.4606206"><ele>1212.0</ele><time>2026-04-18T07:51:23.373Z</time></trkpt><trkpt lat="44.7178983" lon="9.460655"><ele>1212.0</ele><time>2026-04-18T07:51:24.373Z</time></trkpt><trkpt lat="44.7177983" lon="9.4606764"><ele>1212.0</ele><time>2026-04-18T07:51:25.373Z</time></trkpt><trkpt lat="44.7176947" lon="9.4606916"><ele>1212.0</ele><time>2026-04-18T07:51:26.373Z</time></trkpt><trkpt lat="44.7175883" lon="9.4607028"><ele>1212.0</ele><time>2026-04-18T07:51:27.373Z</time></trkpt><trkpt lat="44.7174891" lon="9.4607087"><ele>1212.0</ele><time>2026-04-18T07:51:28.373Z</time></trkpt><trkpt lat="44.7173963" lon="9.4607084"><ele>1212.0</ele><time>2026-04-18T07:51:29.373Z</time></trkpt><trkpt lat="44.7173034" lon="9.4607131"><ele>1212.0</ele><time>2026-04-18T07:51:30.373Z</time></trkpt><trkpt lat="44.7172106" lon="9.4607338"><ele>1212.0</ele><time>2026-04-18T07:51:31.373Z</time></trkpt><trkpt lat="44.7171188" lon="9.4607752"><ele>1212.0</ele><time>2026-04-18T07:51:32.373Z</time></trkpt><trkpt lat="44.7170292" lon="9.460843"><ele>1212.0</ele><time>2026-04-18T07:51:33.373Z</time></trkpt><trkpt lat="44.7169408" lon="9.4609292"><ele>1212.0</ele><time>2026-04-18T07:51:34.373Z</time></trkpt><trkpt lat="44.7168497" lon="9.4610246"><ele>1212.0</ele><time>2026-04-18T07:51:35.373Z</time></trkpt><trkpt lat="44.7167541" lon="9.4611151"><ele>1212.0</ele><time>2026-04-18T07:51:36.373Z</time></trkpt><trkpt lat="44.716655" lon="9.4611907"><ele>1212.0</ele><time>2026-04-18T07:51:37.373Z</time></trkpt><trkpt lat="44.7165524" lon="9.4612592"><ele>1212.8</ele><time>2026-04-18T07:51:38.373Z</time></trkpt><trkpt lat="44.7164545" lon="9.4613301"><ele>1213.6</ele><time>2026-04-18T07:51:39.373Z</time></trkpt><trkpt lat="44.7163664" lon="9.4614061"><ele>1214.3999999999999</ele><time>2026-04-18T07:51:40.373Z</time></trkpt><trkpt lat="44.7162882" lon="9.4614843"><ele>1215.2</ele><time>2026-04-18T07:51:41.373Z</time></trkpt><trkpt lat="44.7162178" lon="9.4615544"><ele>1216.0</ele><time>2026-04-18T07:51:42.373Z</time></trkpt><trkpt lat="44.7161505" lon="9.4616077"><ele>1216.0</ele><time>2026-04-18T07:51:43.373Z</time></trkpt><trkpt lat="44.7160801" lon="9.4616418"><ele>1216.0</ele><time>2026-04-18T07:51:44.373Z</time></trkpt><trkpt lat="44.7160008" lon="9.4616549"><ele>1216.0</ele><time>2026-04-18T07:51:45.373Z</time></trkpt><trkpt lat="44.7159128" lon="9.4616508"><ele>1216.0</ele><time>2026-04-18T07:51:46.372Z</time></trkpt><trkpt lat="44.7158225" lon="9.4616353"><ele>1216.0</ele><time>2026-04-18T07:51:47.373Z</time></trkpt><trkpt lat="44.7157333" lon="9.461619"><ele>1216.0</ele><time>2026-04-18T07:51:48.373Z</time></trkpt><trkpt lat="44.7156488" lon="9.4616087"><ele>1214.5</ele><time>2026-04-18T07:51:49.373Z</time></trkpt><trkpt lat="44.7155683" lon="9.4616083"><ele>1213.0</ele><time>2026-04-18T07:51:50.373Z</time></trkpt><trkpt lat="44.7154914" lon="9.4616194"><ele>1211.5</ele><time>2026-04-18T07:51:51.373Z</time></trkpt><trkpt lat="44.7154138" lon="9.4616471"><ele>1210.0</ele><time>2026-04-18T07:51:52.373Z</time></trkpt><trkpt lat="44.7153413" lon="9.461696"><ele>1208.5</ele><time>2026-04-18T07:51:53.373Z</time></trkpt><trkpt lat="44.7152832" lon="9.4617657"><ele>1207.0</ele><time>2026-04-18T07:51:54.373Z</time></trkpt><trkpt lat="44.7152321" lon="9.4618461"><ele>1206.7142857142856</ele><time>2026-04-18T07:51:55.373Z</time></trkpt><trkpt lat="44.7152132" lon="9.4619585"><ele>1206.4285714285713</ele><time>2026-04-18T07:51:56.373Z</time></trkpt><trkpt lat="44.7152176" lon="9.4620672"><ele>1206.142857142857</ele><time>2026-04-18T07:51:57.373Z</time></trkpt><trkpt lat="44.7152348" lon="9.4621571"><ele>1205.8571428571427</ele><time>2026-04-18T07:51:58.373Z</time></trkpt><trkpt lat="44.7152615" lon="9.4622411"><ele>1205.5714285714284</ele><time>2026-04-18T07:51:59.373Z</time></trkpt><trkpt lat="44.7152993" lon="9.4623226"><ele>1205.2857142857142</ele><time>2026-04-18T07:52:00.373Z</time></trkpt><trkpt lat="44.7153482" lon="9.4623997"><ele>1205.0</ele><time>2026-04-18T07:52:01.373Z</time></trkpt><trkpt lat="44.7153931" lon="9.462478"><ele>1205.0</ele><time>2026-04-18T07:52:02.373Z</time></trkpt><trkpt lat="44.7154209" lon="9.4625642"><ele>1205.0</ele><time>2026-04-18T07:52:03.373Z</time></trkpt><trkpt lat="44.7154283" lon="9.4626565"><ele>1205.0</ele><time>2026-04-18T07:52:04.373Z</time></trkpt><trkpt lat="44.7154138" lon="9.4627465"><ele>1205.0</ele><time>2026-04-18T07:52:05.373Z</time></trkpt><trkpt lat="44.7153811" lon="9.4628307"><ele>1205.0</ele><time>2026-04-18T07:52:06.373Z</time></trkpt><trkpt lat="44.7153365" lon="9.4629078"><ele>1205.0</ele><time>2026-04-18T07:52:07.372Z</time></trkpt><trkpt lat="44.7152872" lon="9.4629834"><ele>1205.0</ele><time>2026-04-18T07:52:08.373Z</time></trkpt><trkpt lat="44.7152379" lon="9.4630601"><ele>1206.0</ele><time>2026-04-18T07:52:09.373Z</time></trkpt><trkpt lat="44.7151833" lon="9.4631304"><ele>1207.0</ele><time>2026-04-18T07:52:10.374Z</time></trkpt><trkpt lat="44.7151181" lon="9.4631872"><ele>1208.0</ele><time>2026-04-18T07:52:11.374Z</time></trkpt><trkpt lat="44.715046" lon="9.463224"><ele>1209.0</ele><time>2026-04-18T07:52:12.374Z</time></trkpt><trkpt lat="44.7149684" lon="9.4632382"><ele>1210.0</ele><time>2026-04-18T07:52:13.374Z</time></trkpt><trkpt lat="44.7148866" lon="9.4632386"><ele>1211.0</ele><time>2026-04-18T07:52:14.374Z</time></trkpt><trkpt lat="44.7148026" lon="9.4632261"><ele>1211.0</ele><time>2026-04-18T07:52:15.374Z</time></trkpt><trkpt lat="44.7147226" lon="9.4632079"><ele>1211.0</ele><time>2026-04-18T07:52:16.374Z</time></trkpt><trkpt lat="44.7146445" lon="9.4631843"><ele>1211.0</ele><time>2026-04-18T07:52:17.374Z</time></trkpt><trkpt lat="44.7145692" lon="9.463163"><ele>1211.0</ele><time>2026-04-18T07:52:18.374Z</time></trkpt><trkpt lat="44.7145019" lon="9.4631502"><ele>1211.0</ele><time>2026-04-18T07:52:19.374Z</time></trkpt><trkpt lat="44.7144361" lon="9.4631439"><ele>1211.0</ele><time>2026-04-18T07:52:20.374Z</time></trkpt><trkpt lat="44.7143669" lon="9.4631451"><ele>1211.0</ele><time>2026-04-18T07:52:21.374Z</time></trkpt><trkpt lat="44.7142948" lon="9.4631536"><ele>1211.5</ele><time>2026-04-18T07:52:22.374Z</time></trkpt><trkpt lat="44.7142183" lon="9.4631739"><ele>1212.0</ele><time>2026-04-18T07:52:23.374Z</time></trkpt><trkpt lat="44.7141411" lon="9.463212"><ele>1212.5</ele><time>2026-04-18T07:52:24.374Z</time></trkpt><trkpt lat="44.7140674" lon="9.4632697"><ele>1213.0</ele><time>2026-04-18T07:52:25.374Z</time></trkpt><trkpt lat="44.7139966" lon="9.4633405"><ele>1213.5</ele><time>2026-04-18T07:52:26.374Z</time></trkpt><trkpt lat="44.713927" lon="9.4634197"><ele>1214.0</ele><time>2026-04-18T07:52:27.374Z</time></trkpt><trkpt lat="44.7138597" lon="9.4635086"><ele>1214.0</ele><time>2026-04-18T07:52:28.374Z</time></trkpt><trkpt lat="44.7137968" lon="9.4636095"><ele>1214.0</ele><time>2026-04-18T07:52:29.374Z</time></trkpt><trkpt lat="44.713742" lon="9.4637202"><ele>1214.0</ele><time>2026-04-18T07:52:30.374Z</time></trkpt><trkpt lat="44.7137002" lon="9.4638434"><ele>1214.0</ele><time>2026-04-18T07:52:31.373Z</time></trkpt><trkpt lat="44.7136747" lon="9.4639787"><ele>1214.0</ele><time>2026-04-18T07:52:32.374Z</time></trkpt><trkpt lat="44.7136669" lon="9.4641195"><ele>1214.3333333333335</ele><time>2026-04-18T07:52:33.374Z</time></trkpt><trkpt lat="44.7136787" lon="9.4642557"><ele>1214.6666666666667</ele><time>2026-04-18T07:52:34.374Z</time></trkpt><trkpt lat="44.7137098" lon="9.4643741"><ele>1215.0</ele><time>2026-04-18T07:52:35.374Z</time></trkpt><trkpt lat="44.7137566" lon="9.4644666"><ele>1215.3333333333333</ele><time>2026-04-18T07:52:36.374Z</time></trkpt><trkpt lat="44.7138119" lon="9.4645461"><ele>1215.6666666666665</ele><time>2026-04-18T07:52:37.374Z</time></trkpt><trkpt lat="44.7138666" lon="9.4646278"><ele>1216.0</ele><time>2026-04-18T07:52:38.374Z</time></trkpt><trkpt lat="44.7139194" lon="9.4647188"><ele>1216.6</ele><time>2026-04-18T07:52:39.374Z</time></trkpt><trkpt lat="44.7139667" lon="9.4648215"><ele>1217.1999999999998</ele><time>2026-04-18T07:52:40.374Z</time></trkpt><trkpt lat="44.7140094" lon="9.464935"><ele>1217.8000000000002</ele><time>2026-04-18T07:52:41.374Z</time></trkpt><trkpt lat="44.714051" lon="9.4650566"><ele>1218.4</ele><time>2026-04-18T07:52:42.374Z</time></trkpt><trkpt lat="44.7140885" lon="9.4651801"><ele>1219.0</ele><time>2026-04-18T07:52:43.374Z</time></trkpt><trkpt lat="44.7141129" lon="9.4652973"><ele>1219.0</ele><time>2026-04-18T07:52:44.374Z</time></trkpt><trkpt lat="44.7141195" lon="9.4654105"><ele>1219.0</ele><time>2026-04-18T07:52:45.374Z</time></trkpt><trkpt lat="44.7141048" lon="9.4655217"><ele>1219.0</ele><time>2026-04-18T07:52:46.374Z</time></trkpt><trkpt lat="44.714068" lon="9.4656213"><ele>1219.0</ele><time>2026-04-18T07:52:47.374Z</time></trkpt><trkpt lat="44.714015" lon="9.465706"><ele>1219.0</ele><time>2026-04-18T07:52:48.374Z</time></trkpt><trkpt lat="44.7139523" lon="9.4657831"><ele>1219.0</ele><time>2026-04-18T07:52:49.374Z</time></trkpt><trkpt lat="44.7138836" lon="9.465858"><ele>1219.3333333333333</ele><time>2026-04-18T07:52:50.374Z</time></trkpt><trkpt lat="44.7138137" lon="9.4659352"><ele>1219.6666666666665</ele><time>2026-04-18T07:52:51.374Z</time></trkpt><trkpt lat="44.7137514" lon="9.4660169"><ele>1220.0</ele><time>2026-04-18T07:52:52.374Z</time></trkpt><trkpt lat="44.7136953" lon="9.4661019"><ele>1220.3333333333333</ele><time>2026-04-18T07:52:53.374Z</time></trkpt><trkpt lat="44.7136628" lon="9.4662108"><ele>1220.6666666666667</ele><time>2026-04-18T07:52:54.374Z</time></trkpt><trkpt lat="44.7136464" lon="9.4663334"><ele>1221.0</ele><time>2026-04-18T07:52:55.374Z</time></trkpt><trkpt lat="44.7136354" lon="9.4664667"><ele>1221.3999999999999</ele><time>2026-04-18T07:52:56.374Z</time></trkpt><trkpt lat="44.7136216" lon="9.4666033"><ele>1221.8</ele><time>2026-04-18T07:52:57.374Z</time></trkpt><trkpt lat="44.7136073" lon="9.4667377"><ele>1222.1999999999998</ele><time>2026-04-18T07:52:58.374Z</time></trkpt><trkpt lat="44.713593" lon="9.466871"><ele>1222.6</ele><time>2026-04-18T07:52:59.374Z</time></trkpt><trkpt lat="44.7135926" lon="9.4670029"><ele>1223.0</ele><time>2026-04-18T07:53:00.374Z</time></trkpt><trkpt lat="44.713603" lon="9.4671334"><ele>1223.0</ele><time>2026-04-18T07:53:01.374Z</time></trkpt><trkpt lat="44.7136491" lon="9.4672611"><ele>1223.0</ele><time>2026-04-18T07:53:02.374Z</time></trkpt><trkpt lat="44.7137124" lon="9.4673771"><ele>1223.0</ele><time>2026-04-18T07:53:03.374Z</time></trkpt><trkpt lat="44.7137915" lon="9.467485"><ele>1223.0</ele><time>2026-04-18T07:53:04.373Z</time></trkpt><trkpt lat="44.7138847" lon="9.4675784"><ele>1223.0</ele><time>2026-04-18T07:53:05.374Z</time></trkpt><trkpt lat="44.7139875" lon="9.4676534"><ele>1223.0</ele><time>2026-04-18T07:53:06.374Z</time></trkpt><trkpt lat="44.714094" lon="9.4677083"><ele>1223.0</ele><time>2026-04-18T07:53:07.374Z</time></trkpt><trkpt lat="44.7141958" lon="9.4677537"><ele>1223.0</ele><time>2026-04-18T07:53:08.374Z</time></trkpt><trkpt lat="44.7142782" lon="9.4678062"><ele>1223.0</ele><time>2026-04-18T07:53:09.374Z</time></trkpt><trkpt lat="44.7143437" lon="9.4678768"><ele>1223.0</ele><time>2026-04-18T07:53:10.374Z</time></trkpt><trkpt lat="44.7143963" lon="9.4679736"><ele>1220.8</ele><time>2026-04-18T07:53:11.374Z</time></trkpt><trkpt lat="44.7144375" lon="9.4680986"><ele>1218.6</ele><time>2026-04-18T07:53:12.374Z</time></trkpt><trkpt lat="44.7144756" lon="9.4682398"><ele>1216.4</ele><time>2026-04-18T07:53:13.373Z</time></trkpt><trkpt lat="44.7145144" lon="9.4683939"><ele>1214.2</ele><time>2026-04-18T07:53:14.374Z</time></trkpt><trkpt lat="44.7145553" lon="9.4685498"><ele>1212.0</ele><time>2026-04-18T07:53:15.374Z</time></trkpt><trkpt lat="44.7145918" lon="9.4686905"><ele>1211.6666666666667</ele><time>2026-04-18T07:53:16.374Z</time></trkpt><trkpt lat="44.7146168" lon="9.4688193"><ele>1211.3333333333333</ele><time>2026-04-18T07:53:17.374Z</time></trkpt><trkpt lat="44.7146247" lon="9.4689352"><ele>1211.0</ele><time>2026-04-18T07:53:18.374Z</time></trkpt><trkpt lat="44.7146126" lon="9.4690424"><ele>1210.6666666666665</ele><time>2026-04-18T07:53:19.374Z</time></trkpt><trkpt lat="44.7145745" lon="9.4691443"><ele>1210.3333333333333</ele><time>2026-04-18T07:53:20.374Z</time></trkpt><trkpt lat="44.714514" lon="9.469238"><ele>1210.0</ele><time>2026-04-18T07:53:21.374Z</time></trkpt><trkpt lat="44.7144403" lon="9.4693265"><ele>1212.8333333333333</ele><time>2026-04-18T07:53:22.374Z</time></trkpt><trkpt lat="44.7143547" lon="9.4694049"><ele>1215.6666666666665</ele><time>2026-04-18T07:53:23.374Z</time></trkpt><trkpt lat="44.714264" lon="9.4694596"><ele>1218.5</ele><time>2026-04-18T07:53:24.374Z</time></trkpt><trkpt lat="44.7141773" lon="9.4694918"><ele>1221.3333333333333</ele><time>2026-04-18T07:53:25.374Z</time></trkpt><trkpt lat="44.7141055" lon="9.4695252"><ele>1224.1666666666667</ele><time>2026-04-18T07:53:26.374Z</time></trkpt><trkpt lat="44.71405" lon="9.4695779"><ele>1227.0</ele><time>2026-04-18T07:53:27.374Z</time></trkpt><trkpt lat="44.7140188" lon="9.4696571"><ele>1227.0</ele><time>2026-04-18T07:53:28.374Z</time></trkpt><trkpt lat="44.7140231" lon="9.4697485"><ele>1227.0</ele><time>2026-04-18T07:53:29.374Z</time></trkpt><trkpt lat="44.7140572" lon="9.4698415"><ele>1227.0</ele><time>2026-04-18T07:53:30.373Z</time></trkpt><trkpt lat="44.7141046" lon="9.4699383"><ele>1227.0</ele><time>2026-04-18T07:53:31.374Z</time></trkpt><trkpt lat="44.7141482" lon="9.4700435"><ele>1227.0</ele><time>2026-04-18T07:53:32.375Z</time></trkpt><trkpt lat="44.7141748" lon="9.4701574"><ele>1227.0</ele><time>2026-04-18T07:53:33.375Z</time></trkpt><trkpt lat="44.7141828" lon="9.4702756"><ele>1227.0</ele><time>2026-04-18T07:53:34.375Z</time></trkpt><trkpt lat="44.7141696" lon="9.4703818"><ele>1227.0</ele><time>2026-04-18T07:53:35.375Z</time></trkpt><trkpt lat="44.7141362" lon="9.4704797"><ele>1227.0</ele><time>2026-04-18T07:53:36.375Z</time></trkpt><trkpt lat="44.7140838" lon="9.4705635"><ele>1227.0</ele><time>2026-04-18T07:53:37.375Z</time></trkpt><trkpt lat="44.7140126" lon="9.4706339"><ele>1227.0</ele><time>2026-04-18T07:53:38.375Z</time></trkpt><trkpt lat="44.7139289" lon="9.4706999"><ele>1227.0</ele><time>2026-04-18T07:53:39.375Z</time></trkpt><trkpt lat="44.7138443" lon="9.4707775"><ele>1225.8</ele><time>2026-04-18T07:53:40.375Z</time></trkpt><trkpt lat="44.713768" lon="9.4708809"><ele>1224.6</ele><time>2026-04-18T07:53:41.375Z</time></trkpt><trkpt lat="44.7137015" lon="9.4709981"><ele>1223.3999999999999</ele><time>2026-04-18T07:53:42.375Z</time></trkpt><trkpt lat="44.7136421" lon="9.471108"><ele>1222.2</ele><time>2026-04-18T07:53:43.375Z</time></trkpt><trkpt lat="44.7136105" lon="9.4712336"><ele>1221.0</ele><time>2026-04-18T07:53:44.375Z</time></trkpt><trkpt lat="44.7136034" lon="9.4713728"><ele>1219.6666666666667</ele><time>2026-04-18T07:53:45.375Z</time></trkpt><trkpt lat="44.7136148" lon="9.4715063"><ele>1218.3333333333333</ele><time>2026-04-18T07:53:46.375Z</time></trkpt><trkpt lat="44.7136215" lon="9.4716185"><ele>1217.0</ele><time>2026-04-18T07:53:47.375Z</time></trkpt><trkpt lat="44.7136128" lon="9.4717107"><ele>1215.6666666666665</ele><time>2026-04-18T07:53:48.375Z</time></trkpt><trkpt lat="44.7135323" lon="9.4718396"><ele>1214.3333333333333</ele><time>2026-04-18T07:53:50.375Z</time></trkpt><trkpt lat="44.7134666" lon="9.4718638"><ele>1213.0</ele><time>2026-04-18T07:53:51.375Z</time></trkpt><trkpt lat="44.7133808" lon="9.4718575"><ele>1216.4</ele><time>2026-04-18T07:53:52.375Z</time></trkpt><trkpt lat="44.7132817" lon="9.4718174"><ele>1219.8</ele><time>2026-04-18T07:53:53.375Z</time></trkpt><trkpt lat="44.7131759" lon="9.4717477"><ele>1223.2</ele><time>2026-04-18T07:53:54.375Z</time></trkpt><trkpt lat="44.7130764" lon="9.4716791"><ele>1226.6</ele><time>2026-04-18T07:53:55.375Z</time></trkpt><trkpt lat="44.7129809" lon="9.471622"><ele>1230.0</ele><time>2026-04-18T07:53:56.375Z</time></trkpt><trkpt lat="44.7128888" lon="9.4715796"><ele>1230.0</ele><time>2026-04-18T07:53:57.374Z</time></trkpt><trkpt lat="44.7127986" lon="9.4715521"><ele>1230.0</ele><time>2026-04-18T07:53:58.375Z</time></trkpt><trkpt lat="44.712716" lon="9.4715632"><ele>1230.0</ele><time>2026-04-18T07:53:59.375Z</time></trkpt><trkpt lat="44.7126451" lon="9.4716377"><ele>1230.0</ele><time>2026-04-18T07:54:00.375Z</time></trkpt><trkpt lat="44.712581" lon="9.4717374"><ele>1230.0</ele><time>2026-04-18T07:54:01.375Z</time></trkpt><trkpt lat="44.7125208" lon="9.4718476"><ele>1232.0</ele><time>2026-04-18T07:54:02.375Z</time></trkpt><trkpt lat="44.7124498" lon="9.4719522"><ele>1234.0</ele><time>2026-04-18T07:54:03.375Z</time></trkpt><trkpt lat="44.7123577" lon="9.4720391"><ele>1236.0</ele><time>2026-04-18T07:54:04.375Z</time></trkpt><trkpt lat="44.7122537" lon="9.4721266"><ele>1238.0</ele><time>2026-04-18T07:54:05.375Z</time></trkpt><trkpt lat="44.7121492" lon="9.4722247"><ele>1238.0</ele><time>2026-04-18T07:54:06.375Z</time></trkpt><trkpt lat="44.7120492" lon="9.4723205"><ele>1238.0</ele><time>2026-04-18T07:54:07.375Z</time></trkpt><trkpt lat="44.7119517" lon="9.4724104"><ele>1238.0</ele><time>2026-04-18T07:54:08.375Z</time></trkpt><trkpt lat="44.7118572" lon="9.472483"><ele>1238.0</ele><time>2026-04-18T07:54:09.375Z</time></trkpt><trkpt lat="44.7117739" lon="9.4725612"><ele>1238.0</ele><time>2026-04-18T07:54:10.375Z</time></trkpt><trkpt lat="44.7117075" lon="9.4726671"><ele>1238.0</ele><time>2026-04-18T07:54:11.375Z</time></trkpt><trkpt lat="44.7116505" lon="9.4727789"><ele>1238.0</ele><time>2026-04-18T07:54:12.375Z</time></trkpt><trkpt lat="44.7116173" lon="9.4728903"><ele>1238.0</ele><time>2026-04-18T07:54:13.374Z</time></trkpt><trkpt lat="44.7115364" lon="9.4730283"><ele>1238.0</ele><time>2026-04-18T07:54:15.375Z</time></trkpt><trkpt lat="44.7114711" lon="9.4730742"><ele>1238.0</ele><time>2026-04-18T07:54:16.375Z</time></trkpt><trkpt lat="44.7113911" lon="9.473096"><ele>1238.4</ele><time>2026-04-18T07:54:17.375Z</time></trkpt><trkpt lat="44.7112986" lon="9.473091"><ele>1238.8</ele><time>2026-04-18T07:54:18.375Z</time></trkpt><trkpt lat="44.7112022" lon="9.4730873"><ele>1239.2</ele><time>2026-04-18T07:54:19.375Z</time></trkpt><trkpt lat="44.7111066" lon="9.4731105"><ele>1239.6</ele><time>2026-04-18T07:54:20.375Z</time></trkpt><trkpt lat="44.7110159" lon="9.4731632"><ele>1240.0</ele><time>2026-04-18T07:54:21.375Z</time></trkpt><trkpt lat="44.7109359" lon="9.4732449"><ele>1240.0</ele><time>2026-04-18T07:54:22.375Z</time></trkpt><trkpt lat="44.7108705" lon="9.4733563"><ele>1240.0</ele><time>2026-04-18T07:54:23.375Z</time></trkpt><trkpt lat="44.7108139" lon="9.4734858"><ele>1240.0</ele><time>2026-04-18T07:54:24.375Z</time></trkpt><trkpt lat="44.7107598" lon="9.4736235"><ele>1240.0</ele><time>2026-04-18T07:54:25.375Z</time></trkpt><trkpt lat="44.7107049" lon="9.4737671"><ele>1240.0</ele><time>2026-04-18T07:54:26.375Z</time></trkpt><trkpt lat="44.7106491" lon="9.4739161"><ele>1237.0</ele><time>2026-04-18T07:54:27.375Z</time></trkpt><trkpt lat="44.7105925" lon="9.4740709"><ele>1234.0</ele><time>2026-04-18T07:54:28.375Z</time></trkpt><trkpt lat="44.710538" lon="9.4742137"><ele>1231.0</ele><time>2026-04-18T07:54:29.375Z</time></trkpt><trkpt lat="44.71048" lon="9.474349"><ele>1228.0</ele><time>2026-04-18T07:54:30.375Z</time></trkpt><trkpt lat="44.7104255" lon="9.474484"><ele>1229.4</ele><time>2026-04-18T07:54:31.375Z</time></trkpt><trkpt lat="44.7103793" lon="9.4746112"><ele>1230.8</ele><time>2026-04-18T07:54:32.375Z</time></trkpt><trkpt lat="44.7103403" lon="9.4747274"><ele>1232.2</ele><time>2026-04-18T07:54:33.375Z</time></trkpt><trkpt lat="44.7103042" lon="9.4748315"><ele>1233.6</ele><time>2026-04-18T07:54:34.375Z</time></trkpt><trkpt lat="44.7102596" lon="9.4749318"><ele>1235.0</ele><time>2026-04-18T07:54:35.375Z</time></trkpt><trkpt lat="44.7101967" lon="9.4750305"><ele>1235.0</ele><time>2026-04-18T07:54:36.375Z</time></trkpt><trkpt lat="44.710117" lon="9.4751138"><ele>1235.0</ele><time>2026-04-18T07:54:37.375Z</time></trkpt><trkpt lat="44.7100366" lon="9.4751876"><ele>1235.0</ele><time>2026-04-18T07:54:38.375Z</time></trkpt><trkpt lat="44.7099666" lon="9.4752668"><ele>1235.0</ele><time>2026-04-18T07:54:39.375Z</time></trkpt><trkpt lat="44.7099127" lon="9.4753624"><ele>1235.0</ele><time>2026-04-18T07:54:40.375Z</time></trkpt><trkpt lat="44.7098764" lon="9.4754749"><ele>1233.2</ele><time>2026-04-18T07:54:41.375Z</time></trkpt><trkpt lat="44.7098612" lon="9.4756006"><ele>1231.4</ele><time>2026-04-18T07:54:42.375Z</time></trkpt><trkpt lat="44.709856" lon="9.4757441"><ele>1229.6</ele><time>2026-04-18T07:54:43.375Z</time></trkpt><trkpt lat="44.7098524" lon="9.4759021"><ele>1227.8</ele><time>2026-04-18T07:54:44.375Z</time></trkpt><trkpt lat="44.7098586" lon="9.476071"><ele>1226.0</ele><time>2026-04-18T07:54:45.375Z</time></trkpt><trkpt lat="44.7098783" lon="9.4762346"><ele>1225.5</ele><time>2026-04-18T07:54:46.375Z</time></trkpt><trkpt lat="44.7099038" lon="9.4763935"><ele>1225.0</ele><time>2026-04-18T07:54:47.375Z</time></trkpt><trkpt lat="44.7099202" lon="9.4765465"><ele>1224.5</ele><time>2026-04-18T07:54:48.375Z</time></trkpt><trkpt lat="44.7099198" lon="9.4767029"><ele>1224.0</ele><time>2026-04-18T07:54:49.375Z</time></trkpt><trkpt lat="44.7099078" lon="9.4768631"><ele>1224.0</ele><time>2026-04-18T07:54:50.375Z</time></trkpt><trkpt lat="44.7098929" lon="9.4770164"><ele>1224.0</ele><time>2026-04-18T07:54:51.375Z</time></trkpt><trkpt lat="44.7098931" lon="9.4771623"><ele>1224.0</ele><time>2026-04-18T07:54:52.375Z</time></trkpt><trkpt lat="44.7099087" lon="9.4773051"><ele>1224.0</ele><time>2026-04-18T07:54:53.375Z</time></trkpt><trkpt lat="44.7099379" lon="9.4774417"><ele>1224.0</ele><time>2026-04-18T07:54:54.376Z</time></trkpt><trkpt lat="44.7099901" lon="9.4775701"><ele>1224.2</ele><time>2026-04-18T07:54:55.376Z</time></trkpt><trkpt lat="44.7100615" lon="9.4776897"><ele>1224.4</ele><time>2026-04-18T07:54:56.376Z</time></trkpt><trkpt lat="44.7101371" lon="9.4777963"><ele>1224.6</ele><time>2026-04-18T07:54:57.376Z</time></trkpt><trkpt lat="44.7102092" lon="9.4778935"><ele>1224.8</ele><time>2026-04-18T07:54:58.376Z</time></trkpt><trkpt lat="44.7102726" lon="9.4779843"><ele>1225.0</ele><time>2026-04-18T07:54:59.376Z</time></trkpt><trkpt lat="44.7103266" lon="9.4780756"><ele>1224.3333333333333</ele><time>2026-04-18T07:55:00.376Z</time></trkpt><trkpt lat="44.7103664" lon="9.4781647"><ele>1223.6666666666665</ele><time>2026-04-18T07:55:01.376Z</time></trkpt><trkpt lat="44.7103913" lon="9.4782473"><ele>1223.0</ele><time>2026-04-18T07:55:02.376Z</time></trkpt><trkpt lat="44.7104075" lon="9.4783918"><ele>1222.3333333333333</ele><time>2026-04-18T07:55:04.376Z</time></trkpt><trkpt lat="44.710317" lon="9.4784944"><ele>1221.6666666666667</ele><time>2026-04-18T07:55:06.376Z</time></trkpt><trkpt lat="44.7102389" lon="9.4785155"><ele>1221.0</ele><time>2026-04-18T07:55:07.376Z</time></trkpt><trkpt lat="44.7101541" lon="9.4785369"><ele>1221.0</ele><time>2026-04-18T07:55:08.376Z</time></trkpt><trkpt lat="44.7100586" lon="9.478593"><ele>1221.0</ele><time>2026-04-18T07:55:09.376Z</time></trkpt><trkpt lat="44.7099719" lon="9.478664"><ele>1221.0</ele><time>2026-04-18T07:55:10.376Z</time></trkpt><trkpt lat="44.7098824" lon="9.4787557"><ele>1221.0</ele><time>2026-04-18T07:55:11.376Z</time></trkpt><trkpt lat="44.7097916" lon="9.4788607"><ele>1221.0</ele><time>2026-04-18T07:55:12.376Z</time></trkpt><trkpt lat="44.7097053" lon="9.478966"><ele>1220.0</ele><time>2026-04-18T07:55:13.376Z</time></trkpt><trkpt lat="44.7096245" lon="9.4790681"><ele>1219.0</ele><time>2026-04-18T07:55:14.376Z</time></trkpt><trkpt lat="44.7095439" lon="9.4791591"><ele>1218.0</ele><time>2026-04-18T07:55:15.375Z</time></trkpt><trkpt lat="44.7094605" lon="9.4792316"><ele>1217.0</ele><time>2026-04-18T07:55:16.376Z</time></trkpt><trkpt lat="44.7093762" lon="9.4792934"><ele>1216.0</ele><time>2026-04-18T07:55:17.376Z</time></trkpt><trkpt lat="44.7092808" lon="9.4793205"><ele>1216.0</ele><time>2026-04-18T07:55:18.376Z</time></trkpt><trkpt lat="44.7091772" lon="9.4793212"><ele>1216.0</ele><time>2026-04-18T07:55:19.376Z</time></trkpt><trkpt lat="44.7090657" lon="9.4793121"><ele>1216.0</ele><time>2026-04-18T07:55:20.376Z</time></trkpt><trkpt lat="44.7089453" lon="9.4793031"><ele>1216.0</ele><time>2026-04-18T07:55:21.376Z</time></trkpt><trkpt lat="44.7088219" lon="9.4792949"><ele>1216.0</ele><time>2026-04-18T07:55:22.376Z</time></trkpt><trkpt lat="44.7087073" lon="9.4792853"><ele>1216.0</ele><time>2026-04-18T07:55:23.376Z</time></trkpt><trkpt lat="44.7085994" lon="9.4792765"><ele>1216.0</ele><time>2026-04-18T07:55:24.376Z</time></trkpt><trkpt lat="44.7084942" lon="9.4792715"><ele>1216.0</ele><time>2026-04-18T07:55:25.376Z</time></trkpt><trkpt lat="44.708399" lon="9.4792916"><ele>1216.0</ele><time>2026-04-18T07:55:26.376Z</time></trkpt><trkpt lat="44.7083113" lon="9.4793633"><ele>1216.2</ele><time>2026-04-18T07:55:27.376Z</time></trkpt><trkpt lat="44.7082337" lon="9.4794566"><ele>1216.3999999999999</ele><time>2026-04-18T07:55:28.376Z</time></trkpt><trkpt lat="44.7081659" lon="9.47957"><ele>1216.6</ele><time>2026-04-18T07:55:29.375Z</time></trkpt><trkpt lat="44.7081055" lon="9.4796869"><ele>1216.8</ele><time>2026-04-18T07:55:30.376Z</time></trkpt><trkpt lat="44.7080482" lon="9.4797946"><ele>1217.0</ele><time>2026-04-18T07:55:31.376Z</time></trkpt><trkpt lat="44.7079956" lon="9.479867"><ele>1213.8</ele><time>2026-04-18T07:55:32.376Z</time></trkpt><trkpt lat="44.7079341" lon="9.4799169"><ele>1210.6</ele><time>2026-04-18T07:55:33.376Z</time></trkpt><trkpt lat="44.7078607" lon="9.479946"><ele>1207.3999999999999</ele><time>2026-04-18T07:55:34.376Z</time></trkpt><trkpt lat="44.7077701" lon="9.4799533"><ele>1204.2</ele><time>2026-04-18T07:55:35.376Z</time></trkpt><trkpt lat="44.7076642" lon="9.4799479"><ele>1201.0</ele><time>2026-04-18T07:55:36.376Z</time></trkpt><trkpt lat="44.7075535" lon="9.4799359"><ele>1201.0</ele><time>2026-04-18T07:55:37.376Z</time></trkpt><trkpt lat="44.7074414" lon="9.4799046"><ele>1201.0</ele><time>2026-04-18T07:55:38.376Z</time></trkpt><trkpt lat="44.7073263" lon="9.4798508"><ele>1201.0</ele><time>2026-04-18T07:55:39.376Z</time></trkpt><trkpt lat="44.7072053" lon="9.4797897"><ele>1201.0</ele><time>2026-04-18T07:55:40.376Z</time></trkpt><trkpt lat="44.707085" lon="9.4797341"><ele>1201.0</ele><time>2026-04-18T07:55:41.376Z</time></trkpt><trkpt lat="44.7069709" lon="9.4796772"><ele>1201.0</ele><time>2026-04-18T07:55:42.376Z</time></trkpt><trkpt lat="44.7068625" lon="9.4796117"><ele>1201.0</ele><time>2026-04-18T07:55:43.376Z</time></trkpt><trkpt lat="44.7067654" lon="9.4795504"><ele>1201.0</ele><time>2026-04-18T07:55:44.376Z</time></trkpt><trkpt lat="44.7066694" lon="9.4795113"><ele>1201.0</ele><time>2026-04-18T07:55:45.375Z</time></trkpt><trkpt lat="44.7065744" lon="9.479499"><ele>1200.8</ele><time>2026-04-18T07:55:46.376Z</time></trkpt><trkpt lat="44.7064833" lon="9.4795152"><ele>1200.6</ele><time>2026-04-18T07:55:47.376Z</time></trkpt><trkpt lat="44.7063945" lon="9.4795456"><ele>1200.4</ele><time>2026-04-18T07:55:48.376Z</time></trkpt><trkpt lat="44.70632" lon="9.4796377"><ele>1200.2</ele><time>2026-04-18T07:55:49.376Z</time></trkpt><trkpt lat="44.7062574" lon="9.479754"><ele>1200.0</ele><time>2026-04-18T07:55:50.376Z</time></trkpt><trkpt lat="44.7062045" lon="9.4798872"><ele>1200.0</ele><time>2026-04-18T07:55:51.376Z</time></trkpt><trkpt lat="44.7061595" lon="9.4800314"><ele>1200.0</ele><time>2026-04-18T07:55:52.376Z</time></trkpt><trkpt lat="44.7061265" lon="9.4801892"><ele>1200.0</ele><time>2026-04-18T07:55:53.376Z</time></trkpt><trkpt lat="44.7061053" lon="9.4803434"><ele>1200.0</ele><time>2026-04-18T07:55:54.376Z</time></trkpt><trkpt lat="44.7060771" lon="9.4804875"><ele>1200.0</ele><time>2026-04-18T07:55:55.376Z</time></trkpt><trkpt lat="44.7060329" lon="9.4806225"><ele>1200.4</ele><time>2026-04-18T07:55:56.377Z</time></trkpt><trkpt lat="44.7059868" lon="9.4807537"><ele>1200.8</ele><time>2026-04-18T07:55:57.376Z</time></trkpt><trkpt lat="44.7059371" lon="9.4808774"><ele>1201.2</ele><time>2026-04-18T07:55:58.376Z</time></trkpt><trkpt lat="44.705915" lon="9.4810249"><ele>1201.6</ele><time>2026-04-18T07:55:59.376Z</time></trkpt><trkpt lat="44.7059015" lon="9.4811693"><ele>1202.0</ele><time>2026-04-18T07:56:00.376Z</time></trkpt><trkpt lat="44.7058955" lon="9.4813033"><ele>1202.0</ele><time>2026-04-18T07:56:01.376Z</time></trkpt><trkpt lat="44.7058752" lon="9.4814306"><ele>1202.0</ele><time>2026-04-18T07:56:02.376Z</time></trkpt><trkpt lat="44.7058369" lon="9.4815493"><ele>1202.0</ele><time>2026-04-18T07:56:03.376Z</time></trkpt><trkpt lat="44.7057789" lon="9.4816635"><ele>1202.0</ele><time>2026-04-18T07:56:04.376Z</time></trkpt><trkpt lat="44.7057009" lon="9.4817727"><ele>1202.0</ele><time>2026-04-18T07:56:05.376Z</time></trkpt><trkpt lat="44.705616" lon="9.4818815"><ele>1202.0</ele><time>2026-04-18T07:56:06.376Z</time></trkpt><trkpt lat="44.7055414" lon="9.4819938"><ele>1202.0</ele><time>2026-04-18T07:56:07.376Z</time></trkpt><trkpt lat="44.7054303" lon="9.482243"><ele>1202.0</ele><time>2026-04-18T07:56:09.376Z</time></trkpt><trkpt lat="44.7054052" lon="9.4823758"><ele>1202.0</ele><time>2026-04-18T07:56:10.376Z</time></trkpt><trkpt lat="44.7054083" lon="9.4825003"><ele>1201.1666666666667</ele><time>2026-04-18T07:56:11.376Z</time></trkpt><trkpt lat="44.7054389" lon="9.4826089"><ele>1200.3333333333335</ele><time>2026-04-18T07:56:12.376Z</time></trkpt><trkpt lat="44.7054768" lon="9.4827014"><ele>1199.5</ele><time>2026-04-18T07:56:13.377Z</time></trkpt><trkpt lat="44.7055542" lon="9.4827533"><ele>1198.6666666666667</ele><time>2026-04-18T07:56:14.377Z</time></trkpt><trkpt lat="44.7056429" lon="9.4827874"><ele>1197.8333333333333</ele><time>2026-04-18T07:56:15.377Z</time></trkpt><trkpt lat="44.705737" lon="9.4828094"><ele>1197.0</ele><time>2026-04-18T07:56:16.377Z</time></trkpt><trkpt lat="44.7058302" lon="9.4828319"><ele>1197.0</ele><time>2026-04-18T07:56:17.377Z</time></trkpt><trkpt lat="44.7059166" lon="9.4828563"><ele>1197.0</ele><time>2026-04-18T07:56:18.377Z</time></trkpt><trkpt lat="44.7059948" lon="9.482889"><ele>1197.0</ele><time>2026-04-18T07:56:19.377Z</time></trkpt><trkpt lat="44.7060645" lon="9.4829377"><ele>1197.0</ele><time>2026-04-18T07:56:20.377Z</time></trkpt><trkpt lat="44.7061254" lon="9.4830079"><ele>1197.0</ele><time>2026-04-18T07:56:21.377Z</time></trkpt><trkpt lat="44.706172" lon="9.4831005"><ele>1197.0</ele><time>2026-04-18T07:56:22.377Z</time></trkpt><trkpt lat="44.7061961" lon="9.4832061"><ele>1195.2</ele><time>2026-04-18T07:56:23.377Z</time></trkpt><trkpt lat="44.7061948" lon="9.4833209"><ele>1193.4</ele><time>2026-04-18T07:56:24.377Z</time></trkpt><trkpt lat="44.7061646" lon="9.4834403"><ele>1191.6</ele><time>2026-04-18T07:56:25.377Z</time></trkpt><trkpt lat="44.7061133" lon="9.4835614"><ele>1189.8</ele><time>2026-04-18T07:56:26.377Z</time></trkpt><trkpt lat="44.7060478" lon="9.4836866"><ele>1188.0</ele><time>2026-04-18T07:56:27.377Z</time></trkpt><trkpt lat="44.7059711" lon="9.4838158"><ele>1186.4</ele><time>2026-04-18T07:56:28.377Z</time></trkpt><trkpt lat="44.7058881" lon="9.483944"><ele>1184.8</ele><time>2026-04-18T07:56:29.377Z</time></trkpt><trkpt lat="44.7058063" lon="9.4840618"><ele>1183.2</ele><time>2026-04-18T07:56:30.377Z</time></trkpt><trkpt lat="44.7057277" lon="9.4841713"><ele>1181.6</ele><time>2026-04-18T07:56:31.377Z</time></trkpt><trkpt lat="44.705659" lon="9.4842651"><ele>1180.0</ele><time>2026-04-18T07:56:32.377Z</time></trkpt><trkpt lat="44.7055926" lon="9.4843392"><ele>1180.0</ele><time>2026-04-18T07:56:33.377Z</time></trkpt><trkpt lat="44.7055202" lon="9.4843841"><ele>1180.0</ele><time>2026-04-18T07:56:34.377Z</time></trkpt><trkpt lat="44.7054452" lon="9.4843902"><ele>1180.0</ele><time>2026-04-18T07:56:35.377Z</time></trkpt><trkpt lat="44.7053621" lon="9.484356"><ele>1180.0</ele><time>2026-04-18T07:56:36.377Z</time></trkpt><trkpt lat="44.7052777" lon="9.4842887"><ele>1180.0</ele><time>2026-04-18T07:56:37.377Z</time></trkpt><trkpt lat="44.7051943" lon="9.4842155"><ele>1180.0</ele><time>2026-04-18T07:56:38.377Z</time></trkpt><trkpt lat="44.7051141" lon="9.4841636"><ele>1179.2</ele><time>2026-04-18T07:56:39.377Z</time></trkpt><trkpt lat="44.7050367" lon="9.484137"><ele>1178.4</ele><time>2026-04-18T07:56:40.377Z</time></trkpt><trkpt lat="44.7049688" lon="9.4841303"><ele>1177.6</ele><time>2026-04-18T07:56:41.377Z</time></trkpt><trkpt lat="44.7048678" lon="9.4841709"><ele>1176.8</ele><time>2026-04-18T07:56:43.377Z</time></trkpt><trkpt lat="44.7048782" lon="9.4843044"><ele>1176.0</ele><time>2026-04-18T07:56:45.377Z</time></trkpt><trkpt lat="44.7049746" lon="9.4844012"><ele>1176.0</ele><time>2026-04-18T07:56:47.377Z</time></trkpt><trkpt lat="44.7050339" lon="9.4844531"><ele>1176.0</ele><time>2026-04-18T07:56:48.377Z</time></trkpt><trkpt lat="44.7050892" lon="9.4845146"><ele>1176.0</ele><time>2026-04-18T07:56:49.377Z</time></trkpt><trkpt lat="44.7051164" lon="9.4846147"><ele>1176.0</ele><time>2026-04-18T07:56:50.377Z</time></trkpt><trkpt lat="44.7051249" lon="9.4847254"><ele>1176.0</ele><time>2026-04-18T07:56:51.377Z</time></trkpt><trkpt lat="44.7051387" lon="9.4848384"><ele>1176.0</ele><time>2026-04-18T07:56:52.377Z</time></trkpt><trkpt lat="44.7051711" lon="9.4849349"><ele>1175.1666666666667</ele><time>2026-04-18T07:56:53.377Z</time></trkpt><trkpt lat="44.7052238" lon="9.4850116"><ele>1174.3333333333333</ele><time>2026-04-18T07:56:54.377Z</time></trkpt><trkpt lat="44.7052784" lon="9.4850756"><ele>1173.5</ele><time>2026-04-18T07:56:55.377Z</time></trkpt><trkpt lat="44.7053516" lon="9.4850837"><ele>1172.6666666666665</ele><time>2026-04-18T07:56:56.377Z</time></trkpt><trkpt lat="44.705431" lon="9.4850601"><ele>1171.8333333333333</ele><time>2026-04-18T07:56:57.377Z</time></trkpt><trkpt lat="44.7055208" lon="9.4850268"><ele>1171.0</ele><time>2026-04-18T07:56:58.377Z</time></trkpt><trkpt lat="44.7056197" lon="9.4850166"><ele>1170.2</ele><time>2026-04-18T07:56:59.376Z</time></trkpt><trkpt lat="44.7057234" lon="9.4850414"><ele>1169.3999999999999</ele><time>2026-04-18T07:57:00.377Z</time></trkpt><trkpt lat="44.7058289" lon="9.4850792"><ele>1168.6</ele><time>2026-04-18T07:57:01.377Z</time></trkpt><trkpt lat="44.7059246" lon="9.4850973"><ele>1167.8</ele><time>2026-04-18T07:57:02.377Z</time></trkpt><trkpt lat="44.7060183" lon="9.485107"><ele>1167.0</ele><time>2026-04-18T07:57:03.377Z</time></trkpt><trkpt lat="44.7060994" lon="9.4851203"><ele>1165.8333333333333</ele><time>2026-04-18T07:57:04.377Z</time></trkpt><trkpt lat="44.7061779" lon="9.4851582"><ele>1164.6666666666667</ele><time>2026-04-18T07:57:05.377Z</time></trkpt><trkpt lat="44.7062469" lon="9.4852101"><ele>1163.5</ele><time>2026-04-18T07:57:06.377Z</time></trkpt><trkpt lat="44.7063072" lon="9.485267"><ele>1162.3333333333335</ele><time>2026-04-18T07:57:07.377Z</time></trkpt><trkpt lat="44.7063703" lon="9.4854043"><ele>1161.1666666666667</ele><time>2026-04-18T07:57:09.377Z</time></trkpt><trkpt lat="44.7063569" lon="9.4855426"><ele>1160.0</ele><time>2026-04-18T07:57:11.377Z</time></trkpt><trkpt lat="44.7062889" lon="9.4855746"><ele>1157.6</ele><time>2026-04-18T07:57:12.377Z</time></trkpt><trkpt lat="44.7061973" lon="9.485588"><ele>1155.2</ele><time>2026-04-18T07:57:13.377Z</time></trkpt><trkpt lat="44.706086" lon="9.4855848"><ele>1152.8</ele><time>2026-04-18T07:57:14.377Z</time></trkpt><trkpt lat="44.7059805" lon="9.4855698"><ele>1150.4</ele><time>2026-04-18T07:57:15.377Z</time></trkpt><trkpt lat="44.7058779" lon="9.4855489"><ele>1148.0</ele><time>2026-04-18T07:57:16.377Z</time></trkpt><trkpt lat="44.7057898" lon="9.4855357"><ele>1148.0</ele><time>2026-04-18T07:57:17.377Z</time></trkpt><trkpt lat="44.7057135" lon="9.4855413"><ele>1148.0</ele><time>2026-04-18T07:57:18.377Z</time></trkpt><trkpt lat="44.7056405" lon="9.4855612"><ele>1148.0</ele><time>2026-04-18T07:57:19.377Z</time></trkpt><trkpt lat="44.7055932" lon="9.4856349"><ele>1148.0</ele><time>2026-04-18T07:57:20.376Z</time></trkpt><trkpt lat="44.7055746" lon="9.4857335"><ele>1148.0</ele><time>2026-04-18T07:57:21.376Z</time></trkpt><trkpt lat="44.7055854" lon="9.4858365"><ele>1148.0</ele><time>2026-04-18T07:57:22.377Z</time></trkpt><trkpt lat="44.7055731" lon="9.4860013"><ele>1148.0</ele><time>2026-04-18T07:57:24.377Z</time></trkpt><trkpt lat="44.7055309" lon="9.4860741"><ele>1148.0</ele><time>2026-04-18T07:57:25.377Z</time></trkpt><trkpt lat="44.7054819" lon="9.4861313"><ele>1148.0</ele><time>2026-04-18T07:57:26.377Z</time></trkpt><trkpt lat="44.7054247" lon="9.4861785"><ele>1148.0</ele><time>2026-04-18T07:57:27.377Z</time></trkpt><trkpt lat="44.7053861" lon="9.4863411"><ele>1148.0</ele><time>2026-04-18T07:57:29.378Z</time></trkpt><trkpt lat="44.7054124" lon="9.4864355"><ele>1148.0</ele><time>2026-04-18T07:57:30.377Z</time></trkpt><trkpt lat="44.7054439" lon="9.4865247"><ele>1146.6666666666667</ele><time>2026-04-18T07:57:31.378Z</time></trkpt><trkpt lat="44.7054941" lon="9.4866066"><ele>1145.3333333333335</ele><time>2026-04-18T07:57:32.378Z</time></trkpt><trkpt lat="44.7055338" lon="9.4866926"><ele>1144.0</ele><time>2026-04-18T07:57:33.378Z</time></trkpt><trkpt lat="44.705555" lon="9.4867958"><ele>1142.6666666666667</ele><time>2026-04-18T07:57:34.378Z</time></trkpt><trkpt lat="44.7055514" lon="9.4869126"><ele>1141.3333333333333</ele><time>2026-04-18T07:57:35.378Z</time></trkpt><trkpt lat="44.7055403" lon="9.4870347"><ele>1140.0</ele><time>2026-04-18T07:57:36.378Z</time></trkpt><trkpt lat="44.7055087" lon="9.4871644"><ele>1138.6</ele><time>2026-04-18T07:57:37.378Z</time></trkpt><trkpt lat="44.7054765" lon="9.4873039"><ele>1137.2</ele><time>2026-04-18T07:57:38.378Z</time></trkpt><trkpt lat="44.7054503" lon="9.4874455"><ele>1135.8</ele><time>2026-04-18T07:57:39.378Z</time></trkpt><trkpt lat="44.705437" lon="9.4875804"><ele>1134.4</ele><time>2026-04-18T07:57:40.378Z</time></trkpt><trkpt lat="44.705427" lon="9.487712"><ele>1133.0</ele><time>2026-04-18T07:57:41.378Z</time></trkpt><trkpt lat="44.7054534" lon="9.4878293"><ele>1131.3333333333335</ele><time>2026-04-18T07:57:42.378Z</time></trkpt><trkpt lat="44.7054891" lon="9.4879396"><ele>1129.6666666666667</ele><time>2026-04-18T07:57:43.378Z</time></trkpt><trkpt lat="44.7055507" lon="9.4880257"><ele>1128.0</ele><time>2026-04-18T07:57:44.378Z</time></trkpt><trkpt lat="44.7055925" lon="9.4881135"><ele>1126.3333333333333</ele><time>2026-04-18T07:57:45.378Z</time></trkpt><trkpt lat="44.7056138" lon="9.4882071"><ele>1124.6666666666665</ele><time>2026-04-18T07:57:46.378Z</time></trkpt><trkpt lat="44.7056069" lon="9.4883025"><ele>1123.0</ele><time>2026-04-18T07:57:47.378Z</time></trkpt><trkpt lat="44.7055542" lon="9.4884614"><ele>1122.9999999999998</ele><time>2026-04-18T07:57:49.378Z</time></trkpt><trkpt lat="44.7055426" lon="9.4885534"><ele>1123.0</ele><time>2026-04-18T07:57:50.378Z</time></trkpt><trkpt lat="44.7055424" lon="9.4886454"><ele>1123.0</ele><time>2026-04-18T07:57:51.378Z</time></trkpt><trkpt lat="44.705575" lon="9.4887389"><ele>1123.0</ele><time>2026-04-18T07:57:52.378Z</time></trkpt><trkpt lat="44.705592" lon="9.4888384"><ele>1123.0</ele><time>2026-04-18T07:57:53.378Z</time></trkpt><trkpt lat="44.7055921" lon="9.4889424"><ele>1122.9999999999998</ele><time>2026-04-18T07:57:54.378Z</time></trkpt><trkpt lat="44.7055852" lon="9.4890472"><ele>1123.0</ele><time>2026-04-18T07:57:55.378Z</time></trkpt><trkpt lat="44.7055553" lon="9.4891543"><ele>1122.2</ele><time>2026-04-18T07:57:56.378Z</time></trkpt><trkpt lat="44.7054914" lon="9.4892418"><ele>1121.4</ele><time>2026-04-18T07:57:57.378Z</time></trkpt><trkpt lat="44.7054154" lon="9.4893035"><ele>1120.6000000000001</ele><time>2026-04-18T07:57:58.378Z</time></trkpt><trkpt lat="44.7053165" lon="9.4893664"><ele>1119.8</ele><time>2026-04-18T07:57:59.378Z</time></trkpt><trkpt lat="44.7052163" lon="9.4894341"><ele>1119.0</ele><time>2026-04-18T07:58:00.378Z</time></trkpt><trkpt lat="44.705117" lon="9.4894977"><ele>1119.0</ele><time>2026-04-18T07:58:01.378Z</time></trkpt><trkpt lat="44.7050182" lon="9.4895518"><ele>1119.0</ele><time>2026-04-18T07:58:02.378Z</time></trkpt><trkpt lat="44.7049229" lon="9.4895758"><ele>1119.0</ele><time>2026-04-18T07:58:03.378Z</time></trkpt><trkpt lat="44.7048256" lon="9.489581"><ele>1119.0</ele><time>2026-04-18T07:58:04.378Z</time></trkpt><trkpt lat="44.704742" lon="9.4896112"><ele>1119.0</ele><time>2026-04-18T07:58:05.377Z</time></trkpt><trkpt lat="44.7046724" lon="9.4896782"><ele>1116.6000000000001</ele><time>2026-04-18T07:58:06.378Z</time></trkpt><trkpt lat="44.7046068" lon="9.4897582"><ele>1114.2</ele><time>2026-04-18T07:58:07.378Z</time></trkpt><trkpt lat="44.7045323" lon="9.4898316"><ele>1111.8000000000002</ele><time>2026-04-18T07:58:08.378Z</time></trkpt><trkpt lat="44.7044425" lon="9.4898861"><ele>1109.4</ele><time>2026-04-18T07:58:09.378Z</time></trkpt><trkpt lat="44.7043443" lon="9.4899345"><ele>1107.0</ele><time>2026-04-18T07:58:10.378Z</time></trkpt><trkpt lat="44.7042518" lon="9.489988"><ele>1107.0</ele><time>2026-04-18T07:58:11.378Z</time></trkpt><trkpt lat="44.704162" lon="9.4900448"><ele>1107.0</ele><time>2026-04-18T07:58:12.378Z</time></trkpt><trkpt lat="44.7040746" lon="9.4900855"><ele>1107.0</ele><time>2026-04-18T07:58:13.378Z</time></trkpt><trkpt lat="44.7039929" lon="9.4901135"><ele>1107.0</ele><time>2026-04-18T07:58:14.378Z</time></trkpt><trkpt lat="44.703917" lon="9.4901308"><ele>1107.0</ele><time>2026-04-18T07:58:15.378Z</time></trkpt><trkpt lat="44.7038483" lon="9.4901682"><ele>1107.0</ele><time>2026-04-18T07:58:16.378Z</time></trkpt><trkpt lat="44.7037893" lon="9.4902308"><ele>1107.0</ele><time>2026-04-18T07:58:17.378Z</time></trkpt><trkpt lat="44.7037544" lon="9.4903179"><ele>1107.0</ele><time>2026-04-18T07:58:18.378Z</time></trkpt><trkpt lat="44.7037349" lon="9.4904056"><ele>1107.0</ele><time>2026-04-18T07:58:19.378Z</time></trkpt><trkpt lat="44.7037732" lon="9.4904767"><ele>1107.0</ele><time>2026-04-18T07:58:20.378Z</time></trkpt><trkpt lat="44.703839" lon="9.4905215"><ele>1107.0</ele><time>2026-04-18T07:58:21.378Z</time></trkpt><trkpt lat="44.7039176" lon="9.4905555"><ele>1107.0</ele><time>2026-04-18T07:58:22.378Z</time></trkpt><trkpt lat="44.7040001" lon="9.49059"><ele>1107.0</ele><time>2026-04-18T07:58:23.378Z</time></trkpt><trkpt lat="44.7040786" lon="9.4906636"><ele>1107.6</ele><time>2026-04-18T07:58:24.378Z</time></trkpt><trkpt lat="44.7041496" lon="9.4907436"><ele>1108.2</ele><time>2026-04-18T07:58:25.377Z</time></trkpt><trkpt lat="44.7042077" lon="9.4908637"><ele>1108.8</ele><time>2026-04-18T07:58:26.377Z</time></trkpt><trkpt lat="44.7042688" lon="9.4909828"><ele>1109.4</ele><time>2026-04-18T07:58:27.378Z</time></trkpt><trkpt lat="44.7043424" lon="9.49109"><ele>1110.0</ele><time>2026-04-18T07:58:28.378Z</time></trkpt><trkpt lat="44.7044201" lon="9.4911977"><ele>1108.0</ele><time>2026-04-18T07:58:29.378Z</time></trkpt><trkpt lat="44.7044917" lon="9.4913098"><ele>1106.0</ele><time>2026-04-18T07:58:30.378Z</time></trkpt><trkpt lat="44.7045619" lon="9.4914325"><ele>1104.0</ele><time>2026-04-18T07:58:31.378Z</time></trkpt><trkpt lat="44.7046243" lon="9.4915641"><ele>1102.0</ele><time>2026-04-18T07:58:32.378Z</time></trkpt><trkpt lat="44.7046679" lon="9.491697"><ele>1100.0</ele><time>2026-04-18T07:58:33.378Z</time></trkpt><trkpt lat="44.7047002" lon="9.4918385"><ele>1100.0</ele><time>2026-04-18T07:58:34.378Z</time></trkpt><trkpt lat="44.7047206" lon="9.4919878"><ele>1100.0</ele><time>2026-04-18T07:58:35.378Z</time></trkpt><trkpt lat="44.7047383" lon="9.4921353"><ele>1100.0</ele><time>2026-04-18T07:58:36.378Z</time></trkpt><trkpt lat="44.7047205" lon="9.4923009"><ele>1100.0</ele><time>2026-04-18T07:58:37.378Z</time></trkpt><trkpt lat="44.7046976" lon="9.4924657"><ele>1099.0</ele><time>2026-04-18T07:58:38.378Z</time></trkpt><trkpt lat="44.7046829" lon="9.4926347"><ele>1098.0</ele><time>2026-04-18T07:58:39.378Z</time></trkpt><trkpt lat="44.7046793" lon="9.4928015"><ele>1097.0</ele><time>2026-04-18T07:58:40.378Z</time></trkpt><trkpt lat="44.7046886" lon="9.4929667"><ele>1096.0</ele><time>2026-04-18T07:58:41.378Z</time></trkpt><trkpt lat="44.7047076" lon="9.4931274"><ele>1095.0</ele><time>2026-04-18T07:58:42.377Z</time></trkpt><trkpt lat="44.7047323" lon="9.4932914"><ele>1094.0</ele><time>2026-04-18T07:58:43.378Z</time></trkpt><trkpt lat="44.7047605" lon="9.4934522"><ele>1093.0</ele><time>2026-04-18T07:58:44.378Z</time></trkpt><trkpt lat="44.7047898" lon="9.4936076"><ele>1092.0</ele><time>2026-04-18T07:58:45.378Z</time></trkpt><trkpt lat="44.7048269" lon="9.4937529"><ele>1090.8</ele><time>2026-04-18T07:58:46.378Z</time></trkpt><trkpt lat="44.7048625" lon="9.4938777"><ele>1089.6</ele><time>2026-04-18T07:58:47.378Z</time></trkpt><trkpt lat="44.7048882" lon="9.4940069"><ele>1088.3999999999999</ele><time>2026-04-18T07:58:48.379Z</time></trkpt><trkpt lat="44.7048956" lon="9.4941529"><ele>1087.2</ele><time>2026-04-18T07:58:49.379Z</time></trkpt><trkpt lat="44.7048979" lon="9.4942993"><ele>1086.0</ele><time>2026-04-18T07:58:50.379Z</time></trkpt><trkpt lat="44.704901" lon="9.4944404"><ele>1084.6</ele><time>2026-04-18T07:58:51.379Z</time></trkpt><trkpt lat="44.7049032" lon="9.4945891"><ele>1083.1999999999998</ele><time>2026-04-18T07:58:52.379Z</time></trkpt><trkpt lat="44.7049039" lon="9.4947283"><ele>1081.8000000000002</ele><time>2026-04-18T07:58:53.379Z</time></trkpt><trkpt lat="44.7048963" lon="9.4948609"><ele>1080.4</ele><time>2026-04-18T07:58:54.379Z</time></trkpt><trkpt lat="44.7048858" lon="9.494986"><ele>1079.0</ele><time>2026-04-18T07:58:55.379Z</time></trkpt><trkpt lat="44.7048587" lon="9.4950984"><ele>1079.0</ele><time>2026-04-18T07:58:56.379Z</time></trkpt><trkpt lat="44.704818" lon="9.4952072"><ele>1079.0</ele><time>2026-04-18T07:58:57.379Z</time></trkpt><trkpt lat="44.7047613" lon="9.4953155"><ele>1079.0</ele><time>2026-04-18T07:58:58.379Z</time></trkpt><trkpt lat="44.704691" lon="9.4954056"><ele>1079.0</ele><time>2026-04-18T07:58:59.379Z</time></trkpt><trkpt lat="44.704611" lon="9.4954706"><ele>1079.0</ele><time>2026-04-18T07:59:00.379Z</time></trkpt><trkpt lat="44.704528" lon="9.4955063"><ele>1079.1666666666667</ele><time>2026-04-18T07:59:01.379Z</time></trkpt><trkpt lat="44.7044416" lon="9.4955101"><ele>1079.3333333333335</ele><time>2026-04-18T07:59:02.379Z</time></trkpt><trkpt lat="44.7043576" lon="9.4954999"><ele>1079.5</ele><time>2026-04-18T07:59:03.379Z</time></trkpt><trkpt lat="44.7042864" lon="9.4954345"><ele>1079.6666666666667</ele><time>2026-04-18T07:59:04.379Z</time></trkpt><trkpt lat="44.7042323" lon="9.4953481"><ele>1079.8333333333333</ele><time>2026-04-18T07:59:05.379Z</time></trkpt><trkpt lat="44.704184" lon="9.4952693"><ele>1080.0</ele><time>2026-04-18T07:59:06.379Z</time></trkpt><trkpt lat="44.7041407" lon="9.4952015"><ele>1080.0</ele><time>2026-04-18T07:59:07.379Z</time></trkpt><trkpt lat="44.7040402" lon="9.4952181"><ele>1080.0</ele><time>2026-04-18T07:59:09.379Z</time></trkpt><trkpt lat="44.7040107" lon="9.495297"><ele>1080.0</ele><time>2026-04-18T07:59:10.379Z</time></trkpt><trkpt lat="44.7040058" lon="9.4954028"><ele>1080.0</ele><time>2026-04-18T07:59:11.379Z</time></trkpt><trkpt lat="44.7040145" lon="9.4955159"><ele>1080.0</ele><time>2026-04-18T07:59:12.379Z</time></trkpt><trkpt lat="44.7040137" lon="9.49562"><ele>1080.0</ele><time>2026-04-18T07:59:13.379Z</time></trkpt><trkpt lat="44.7039972" lon="9.4957262"><ele>1078.5714285714284</ele><time>2026-04-18T07:59:14.379Z</time></trkpt><trkpt lat="44.7039682" lon="9.4958164"><ele>1077.142857142857</ele><time>2026-04-18T07:59:15.379Z</time></trkpt><trkpt lat="44.703929" lon="9.4958999"><ele>1075.7142857142858</ele><time>2026-04-18T07:59:16.378Z</time></trkpt><trkpt lat="44.7038788" lon="9.4959778"><ele>1074.2857142857142</ele><time>2026-04-18T07:59:17.379Z</time></trkpt><trkpt lat="44.7038194" lon="9.4960475"><ele>1072.857142857143</ele><time>2026-04-18T07:59:18.379Z</time></trkpt><trkpt lat="44.7037622" lon="9.4961157"><ele>1071.4285714285713</ele><time>2026-04-18T07:59:19.379Z</time></trkpt><trkpt lat="44.7037257" lon="9.4962021"><ele>1070.0</ele><time>2026-04-18T07:59:20.379Z</time></trkpt><trkpt lat="44.7037102" lon="9.4963023"><ele>1068.1666666666667</ele><time>2026-04-18T07:59:21.379Z</time></trkpt><trkpt lat="44.7037115" lon="9.4964164"><ele>1066.3333333333335</ele><time>2026-04-18T07:59:22.378Z</time></trkpt><trkpt lat="44.703728" lon="9.4965322"><ele>1064.5</ele><time>2026-04-18T07:59:23.379Z</time></trkpt><trkpt lat="44.7037605" lon="9.4966401"><ele>1062.6666666666667</ele><time>2026-04-18T07:59:24.379Z</time></trkpt><trkpt lat="44.7038102" lon="9.4967382"><ele>1060.8333333333333</ele><time>2026-04-18T07:59:25.379Z</time></trkpt><trkpt lat="44.7038678" lon="9.4968285"><ele>1059.0</ele><time>2026-04-18T07:59:26.379Z</time></trkpt><trkpt lat="44.7039247" lon="9.4969097"><ele>1059.0</ele><time>2026-04-18T07:59:27.379Z</time></trkpt><trkpt lat="44.7039764" lon="9.4969853"><ele>1059.0</ele><time>2026-04-18T07:59:28.379Z</time></trkpt><trkpt lat="44.7040139" lon="9.4970744"><ele>1059.0</ele><time>2026-04-18T07:59:29.379Z</time></trkpt><trkpt lat="44.7040276" lon="9.4971964"><ele>1059.0</ele><time>2026-04-18T07:59:30.379Z</time></trkpt><trkpt lat="44.7040382" lon="9.4973419"><ele>1059.0</ele><time>2026-04-18T07:59:31.379Z</time></trkpt><trkpt lat="44.7040418" lon="9.4975277"><ele>1055.75</ele><time>2026-04-18T07:59:32.379Z</time></trkpt><trkpt lat="44.7040519" lon="9.4977206"><ele>1052.5</ele><time>2026-04-18T07:59:33.379Z</time></trkpt><trkpt lat="44.7040658" lon="9.4979236"><ele>1049.25</ele><time>2026-04-18T07:59:34.379Z</time></trkpt><trkpt lat="44.7040751" lon="9.4981254"><ele>1046.0</ele><time>2026-04-18T07:59:35.379Z</time></trkpt><trkpt lat="44.7040715" lon="9.498319"><ele>1044.0</ele><time>2026-04-18T07:59:36.379Z</time></trkpt><trkpt lat="44.704067" lon="9.4984988"><ele>1042.0</ele><time>2026-04-18T07:59:37.379Z</time></trkpt><trkpt lat="44.7040764" lon="9.4986752"><ele>1040.0</ele><time>2026-04-18T07:59:38.379Z</time></trkpt><trkpt lat="44.7040863" lon="9.4988363"><ele>1038.0</ele><time>2026-04-18T07:59:39.379Z</time></trkpt><trkpt lat="44.7040816" lon="9.4989808"><ele>1036.1666666666667</ele><time>2026-04-18T07:59:40.379Z</time></trkpt><trkpt lat="44.704063" lon="9.4990965"><ele>1034.3333333333333</ele><time>2026-04-18T07:59:41.379Z</time></trkpt><trkpt lat="44.7040466" lon="9.4991903"><ele>1032.5</ele><time>2026-04-18T07:59:42.379Z</time></trkpt><trkpt lat="44.7040726" lon="9.4993288"><ele>1030.6666666666665</ele><time>2026-04-18T07:59:44.379Z</time></trkpt><trkpt lat="44.7041701" lon="9.4993709"><ele>1028.8333333333333</ele><time>2026-04-18T07:59:46.379Z</time></trkpt><trkpt lat="44.7042338" lon="9.4993714"><ele>1027.0</ele><time>2026-04-18T07:59:47.379Z</time></trkpt><trkpt lat="44.704307" lon="9.4993725"><ele>1027.0</ele><time>2026-04-18T07:59:48.379Z</time></trkpt><trkpt lat="44.7043773" lon="9.4993808"><ele>1027.0</ele><time>2026-04-18T07:59:49.379Z</time></trkpt><trkpt lat="44.7044528" lon="9.4994355"><ele>1027.0</ele><time>2026-04-18T07:59:50.379Z</time></trkpt><trkpt lat="44.7045218" lon="9.4995182"><ele>1027.0</ele><time>2026-04-18T07:59:51.379Z</time></trkpt><trkpt lat="44.7045814" lon="9.4996286"><ele>1027.0</ele><time>2026-04-18T07:59:52.379Z</time></trkpt><trkpt lat="44.7046297" lon="9.499763"><ele>1024.4</ele><time>2026-04-18T07:59:53.379Z</time></trkpt><trkpt lat="44.7046679" lon="9.4999086"><ele>1021.8000000000001</ele><time>2026-04-18T07:59:54.379Z</time></trkpt><trkpt lat="44.7046978" lon="9.5000575"><ele>1019.2</ele><time>2026-04-18T07:59:55.378Z</time></trkpt><trkpt lat="44.7047222" lon="9.5002063"><ele>1016.6</ele><time>2026-04-18T07:59:56.378Z</time></trkpt><trkpt lat="44.7047434" lon="9.5003566"><ele>1014.0</ele><time>2026-04-18T07:59:57.379Z</time></trkpt><trkpt lat="44.7047539" lon="9.5005001"><ele>1011.6</ele><time>2026-04-18T07:59:58.379Z</time></trkpt><trkpt lat="44.7047572" lon="9.5006338"><ele>1009.2</ele><time>2026-04-18T07:59:59.379Z</time></trkpt><trkpt lat="44.7047738" lon="9.5007601"><ele>1006.8000000000001</ele><time>2026-04-18T08:00:00.379Z</time></trkpt><trkpt lat="44.7048111" lon="9.5008786"><ele>1004.4000000000001</ele><time>2026-04-18T08:00:01.379Z</time></trkpt><trkpt lat="44.704848" lon="9.5009873"><ele>1002.0</ele><time>2026-04-18T08:00:02.379Z</time></trkpt><trkpt lat="44.7048693" lon="9.5011051"><ele>1002.0</ele><time>2026-04-18T08:00:03.379Z</time></trkpt><trkpt lat="44.704875" lon="9.5012442"><ele>1002.0</ele><time>2026-04-18T08:00:04.379Z</time></trkpt><trkpt lat="44.7048694" lon="9.5013788"><ele>1002.0</ele><time>2026-04-18T08:00:05.379Z</time></trkpt><trkpt lat="44.7048523" lon="9.5014998"><ele>1002.0</ele><time>2026-04-18T08:00:06.379Z</time></trkpt><trkpt lat="44.7048164" lon="9.5016094"><ele>1002.0</ele><time>2026-04-18T08:00:07.38Z</time></trkpt><trkpt lat="44.7047576" lon="9.5017111"><ele>1000.6</ele><time>2026-04-18T08:00:08.38Z</time></trkpt><trkpt lat="44.7046792" lon="9.5018041"><ele>999.2</ele><time>2026-04-18T08:00:09.38Z</time></trkpt><trkpt lat="44.7045883" lon="9.5018969"><ele>997.8</ele><time>2026-04-18T08:00:10.38Z</time></trkpt><trkpt lat="44.7044954" lon="9.5019908"><ele>996.4</ele><time>2026-04-18T08:00:11.38Z</time></trkpt><trkpt lat="44.7044026" lon="9.5020807"><ele>995.0</ele><time>2026-04-18T08:00:12.38Z</time></trkpt><trkpt lat="44.704313" lon="9.502175"><ele>993.0</ele><time>2026-04-18T08:00:13.38Z</time></trkpt><trkpt lat="44.704224" lon="9.50228"><ele>991.0</ele><time>2026-04-18T08:00:14.38Z</time></trkpt><trkpt lat="44.704136" lon="9.5023997"><ele>989.0</ele><time>2026-04-18T08:00:15.379Z</time></trkpt><trkpt lat="44.7040549" lon="9.5025334"><ele>987.0</ele><time>2026-04-18T08:00:16.38Z</time></trkpt><trkpt lat="44.7039841" lon="9.5026636"><ele>987.0</ele><time>2026-04-18T08:00:17.38Z</time></trkpt><trkpt lat="44.7039145" lon="9.5027828"><ele>987.0</ele><time>2026-04-18T08:00:18.38Z</time></trkpt><trkpt lat="44.7038384" lon="9.5028899"><ele>987.0</ele><time>2026-04-18T08:00:19.38Z</time></trkpt><trkpt lat="44.7037586" lon="9.5029895"><ele>987.0</ele><time>2026-04-18T08:00:20.38Z</time></trkpt><trkpt lat="44.7036859" lon="9.5030863"><ele>987.0</ele><time>2026-04-18T08:00:21.38Z</time></trkpt><trkpt lat="44.7036193" lon="9.503184"><ele>985.1666666666666</ele><time>2026-04-18T08:00:22.379Z</time></trkpt><trkpt lat="44.7035605" lon="9.5032946"><ele>983.3333333333333</ele><time>2026-04-18T08:00:23.38Z</time></trkpt><trkpt lat="44.7035097" lon="9.503409"><ele>981.5</ele><time>2026-04-18T08:00:24.38Z</time></trkpt><trkpt lat="44.7034572" lon="9.5035054"><ele>979.6666666666666</ele><time>2026-04-18T08:00:25.38Z</time></trkpt><trkpt lat="44.7034008" lon="9.5035821"><ele>977.8333333333333</ele><time>2026-04-18T08:00:26.38Z</time></trkpt><trkpt lat="44.7033498" lon="9.5036485"><ele>976.0</ele><time>2026-04-18T08:00:27.379Z</time></trkpt><trkpt lat="44.7032761" lon="9.5037691"><ele>975.142857142857</ele><time>2026-04-18T08:00:29.38Z</time></trkpt><trkpt lat="44.7032363" lon="9.5038515"><ele>974.2857142857142</ele><time>2026-04-18T08:00:31.38Z</time></trkpt><trkpt lat="44.703161" lon="9.5039302"><ele>973.4285714285714</ele><time>2026-04-18T08:00:33.38Z</time></trkpt><trkpt lat="44.703103" lon="9.5039667"><ele>972.5714285714286</ele><time>2026-04-18T08:00:34.38Z</time></trkpt><trkpt lat="44.7030404" lon="9.5040117"><ele>971.7142857142858</ele><time>2026-04-18T08:00:35.38Z</time></trkpt><trkpt lat="44.7029752" lon="9.5040644"><ele>970.857142857143</ele><time>2026-04-18T08:00:36.38Z</time></trkpt><trkpt lat="44.7029143" lon="9.5041197"><ele>970.0000000000001</ele><time>2026-04-18T08:00:37.38Z</time></trkpt><trkpt lat="44.7028564" lon="9.5041746"><ele>970.0000000000001</ele><time>2026-04-18T08:00:38.38Z</time></trkpt><trkpt lat="44.7028019" lon="9.5042315"><ele>970.0</ele><time>2026-04-18T08:00:39.38Z</time></trkpt><trkpt lat="44.7027423" lon="9.5042872"><ele>970.0000000000001</ele><time>2026-04-18T08:00:40.38Z</time></trkpt><trkpt lat="44.7026817" lon="9.5043355"><ele>970.0000000000001</ele><time>2026-04-18T08:00:41.38Z</time></trkpt><trkpt lat="44.7026134" lon="9.5043704"><ele>970.0</ele><time>2026-04-18T08:00:42.38Z</time></trkpt><trkpt lat="44.702536" lon="9.5043839"><ele>970.0000000000001</ele><time>2026-04-18T08:00:43.38Z</time></trkpt><trkpt lat="44.7024527" lon="9.5043676"><ele>970.0000000000001</ele><time>2026-04-18T08:00:44.38Z</time></trkpt><trkpt lat="44.7023718" lon="9.5043346"><ele>969.6666666666666</ele><time>2026-04-18T08:00:45.38Z</time></trkpt><trkpt lat="44.7022917" lon="9.5042879"><ele>969.3333333333333</ele><time>2026-04-18T08:00:46.38Z</time></trkpt><trkpt lat="44.7022188" lon="9.5042257"><ele>969.0</ele><time>2026-04-18T08:00:47.38Z</time></trkpt><trkpt lat="44.7021536" lon="9.5041563"><ele>968.6666666666667</ele><time>2026-04-18T08:00:48.379Z</time></trkpt><trkpt lat="44.7020855" lon="9.5040859"><ele>968.3333333333334</ele><time>2026-04-18T08:00:49.38Z</time></trkpt><trkpt lat="44.7020165" lon="9.5040245"><ele>968.0</ele><time>2026-04-18T08:00:50.379Z</time></trkpt><trkpt lat="44.7019448" lon="9.5039762"><ele>967.5714285714286</ele><time>2026-04-18T08:00:51.38Z</time></trkpt><trkpt lat="44.7018717" lon="9.5039605"><ele>967.1428571428571</ele><time>2026-04-18T08:00:52.38Z</time></trkpt><trkpt lat="44.7018037" lon="9.503974"><ele>966.7142857142857</ele><time>2026-04-18T08:00:53.38Z</time></trkpt><trkpt lat="44.7017396" lon="9.5040198"><ele>966.2857142857142</ele><time>2026-04-18T08:00:54.38Z</time></trkpt><trkpt lat="44.7016859" lon="9.5040927"><ele>965.8571428571429</ele><time>2026-04-18T08:00:55.38Z</time></trkpt><trkpt lat="44.7016404" lon="9.5041825"><ele>965.4285714285713</ele><time>2026-04-18T08:00:56.38Z</time></trkpt><trkpt lat="44.7016174" lon="9.5042874"><ele>965.0</ele><time>2026-04-18T08:00:57.38Z</time></trkpt><trkpt lat="44.7016058" lon="9.5043798"><ele>965.0</ele><time>2026-04-18T08:00:58.38Z</time></trkpt><trkpt lat="44.7015992" lon="9.504468"><ele>965.0</ele><time>2026-04-18T08:00:59.38Z</time></trkpt><trkpt lat="44.7016381" lon="9.5046325"><ele>965.0</ele><time>2026-04-18T08:01:01.38Z</time></trkpt><trkpt lat="44.7016933" lon="9.5047692"><ele>965.0</ele><time>2026-04-18T08:01:03.38Z</time></trkpt><trkpt lat="44.7017143" lon="9.5049017"><ele>965.0</ele><time>2026-04-18T08:01:05.38Z</time></trkpt><trkpt lat="44.7016974" lon="9.5050456"><ele>964.4285714285713</ele><time>2026-04-18T08:01:07.38Z</time></trkpt><trkpt lat="44.701664" lon="9.5051218"><ele>963.8571428571429</ele><time>2026-04-18T08:01:08.38Z</time></trkpt><trkpt lat="44.7016284" lon="9.5051982"><ele>963.2857142857142</ele><time>2026-04-18T08:01:09.38Z</time></trkpt><trkpt lat="44.7015914" lon="9.5052775"><ele>962.7142857142857</ele><time>2026-04-18T08:01:10.38Z</time></trkpt><trkpt lat="44.7015646" lon="9.5053596"><ele>962.1428571428571</ele><time>2026-04-18T08:01:11.38Z</time></trkpt><trkpt lat="44.7015339" lon="9.5054412"><ele>961.5714285714286</ele><time>2026-04-18T08:01:12.38Z</time></trkpt><trkpt lat="44.7014948" lon="9.505518"><ele>961.0</ele><time>2026-04-18T08:01:13.38Z</time></trkpt><trkpt lat="44.701446" lon="9.5055989"><ele>960.3333333333333</ele><time>2026-04-18T08:01:14.38Z</time></trkpt><trkpt lat="44.7014004" lon="9.5056924"><ele>959.6666666666666</ele><time>2026-04-18T08:01:15.38Z</time></trkpt><trkpt lat="44.7013555" lon="9.5057838"><ele>959.0</ele><time>2026-04-18T08:01:16.38Z</time></trkpt><trkpt lat="44.7013172" lon="9.5058747"><ele>958.3333333333333</ele><time>2026-04-18T08:01:17.38Z</time></trkpt><trkpt lat="44.701281" lon="9.5059666"><ele>957.6666666666666</ele><time>2026-04-18T08:01:18.38Z</time></trkpt><trkpt lat="44.7012474" lon="9.5060644"><ele>957.0</ele><time>2026-04-18T08:01:19.38Z</time></trkpt><trkpt lat="44.7012103" lon="9.506159"><ele>955.3333333333334</ele><time>2026-04-18T08:01:20.38Z</time></trkpt><trkpt lat="44.7011711" lon="9.5062494"><ele>953.6666666666667</ele><time>2026-04-18T08:01:21.38Z</time></trkpt><trkpt lat="44.7011263" lon="9.5063371"><ele>952.0</ele><time>2026-04-18T08:01:22.38Z</time></trkpt><trkpt lat="44.7010779" lon="9.5064245"><ele>950.3333333333334</ele><time>2026-04-18T08:01:23.38Z</time></trkpt><trkpt lat="44.7010232" lon="9.5065022"><ele>948.6666666666667</ele><time>2026-04-18T08:01:24.38Z</time></trkpt><trkpt lat="44.7009693" lon="9.5065652"><ele>947.0</ele><time>2026-04-18T08:01:25.38Z</time></trkpt><trkpt lat="44.7008801" lon="9.5066494"><ele>947.0</ele><time>2026-04-18T08:01:27.381Z</time></trkpt><trkpt lat="44.7008065" lon="9.506701"><ele>947.0</ele><time>2026-04-18T08:01:30.381Z</time></trkpt><trkpt lat="44.7006543" lon="9.5066498"><ele>947.0</ele><time>2026-04-18T08:01:57.381Z</time></trkpt><trkpt lat="44.7005846" lon="9.5066216"><ele>947.0</ele><time>2026-04-18T08:01:59.381Z</time></trkpt><trkpt lat="44.7005131" lon="9.5065978"><ele>947.0</ele><time>2026-04-18T08:02:01.381Z</time></trkpt><trkpt lat="44.7004235" lon="9.5065743"><ele>947.0000000000001</ele><time>2026-04-18T08:02:03.381Z</time></trkpt><trkpt lat="44.7003046" lon="9.5065407"><ele>947.0</ele><time>2026-04-18T08:02:05.381Z</time></trkpt><trkpt lat="44.7002478" lon="9.5065017"><ele>947.0</ele><time>2026-04-18T08:02:06.381Z</time></trkpt><trkpt lat="44.7001979" lon="9.5064444"><ele>947.0</ele><time>2026-04-18T08:02:07.381Z</time></trkpt><trkpt lat="44.7001483" lon="9.5063786"><ele>947.0000000000001</ele><time>2026-04-18T08:02:08.381Z</time></trkpt><trkpt lat="44.7001019" lon="9.5063013"><ele>947.0</ele><time>2026-04-18T08:02:09.38Z</time></trkpt><trkpt lat="44.7000628" lon="9.5062227"><ele>946.8333333333334</ele><time>2026-04-18T08:02:10.381Z</time></trkpt><trkpt lat="44.7000354" lon="9.5061418"><ele>946.6666666666667</ele><time>2026-04-18T08:02:11.381Z</time></trkpt><trkpt lat="44.7000052" lon="9.5059785"><ele>946.5</ele><time>2026-04-18T08:02:13.381Z</time></trkpt><trkpt lat="44.6999849" lon="9.5058159"><ele>946.3333333333333</ele><time>2026-04-18T08:02:15.381Z</time></trkpt><trkpt lat="44.6999594" lon="9.5057332"><ele>946.1666666666666</ele><time>2026-04-18T08:02:16.381Z</time></trkpt><trkpt lat="44.6999154" lon="9.505669"><ele>946.0</ele><time>2026-04-18T08:02:17.381Z</time></trkpt><trkpt lat="44.699798" lon="9.5056445"><ele>945.9999999999999</ele><time>2026-04-18T08:02:19.381Z</time></trkpt><trkpt lat="44.6997418" lon="9.5056929"><ele>946.0</ele><time>2026-04-18T08:02:20.381Z</time></trkpt><trkpt lat="44.6996967" lon="9.5057683"><ele>946.0</ele><time>2026-04-18T08:02:21.381Z</time></trkpt><trkpt lat="44.6996495" lon="9.505849"><ele>946.0</ele><time>2026-04-18T08:02:22.381Z</time></trkpt><trkpt lat="44.6995903" lon="9.5059197"><ele>945.9999999999999</ele><time>2026-04-18T08:02:23.381Z</time></trkpt><trkpt lat="44.6995205" lon="9.5059786"><ele>946.0</ele><time>2026-04-18T08:02:24.381Z</time></trkpt><trkpt lat="44.6994431" lon="9.5060306"><ele>946.0</ele><time>2026-04-18T08:02:25.38Z</time></trkpt><trkpt lat="44.6993596" lon="9.5060759"><ele>945.9999999999999</ele><time>2026-04-18T08:02:26.381Z</time></trkpt><trkpt lat="44.6992703" lon="9.5061219"><ele>945.9999999999999</ele><time>2026-04-18T08:02:27.381Z</time></trkpt><trkpt lat="44.6991631" lon="9.5061752"><ele>946.0</ele><time>2026-04-18T08:02:28.381Z</time></trkpt><trkpt lat="44.6990257" lon="9.5062391"><ele>946.0</ele><time>2026-04-18T08:02:29.381Z</time></trkpt><trkpt lat="44.698878" lon="9.5063058"><ele>945.5</ele><time>2026-04-18T08:02:30.381Z</time></trkpt><trkpt lat="44.6987317" lon="9.5063689"><ele>945.0</ele><time>2026-04-18T08:02:31.381Z</time></trkpt><trkpt lat="44.6985969" lon="9.5064227"><ele>944.5</ele><time>2026-04-18T08:02:32.381Z</time></trkpt><trkpt lat="44.6984716" lon="9.5064668"><ele>944.0</ele><time>2026-04-18T08:02:33.381Z</time></trkpt><trkpt lat="44.698356" lon="9.5065034"><ele>944.0</ele><time>2026-04-18T08:02:34.381Z</time></trkpt><trkpt lat="44.6982451" lon="9.5065275"><ele>944.0</ele><time>2026-04-18T08:02:35.381Z</time></trkpt><trkpt lat="44.6981358" lon="9.5065349"><ele>944.0</ele><time>2026-04-18T08:02:36.381Z</time></trkpt><trkpt lat="44.6980234" lon="9.5065314"><ele>944.0</ele><time>2026-04-18T08:02:37.381Z</time></trkpt><trkpt lat="44.6979046" lon="9.5065192"><ele>944.0</ele><time>2026-04-18T08:02:38.381Z</time></trkpt><trkpt lat="44.6977825" lon="9.5064978"><ele>944.0</ele><time>2026-04-18T08:02:39.381Z</time></trkpt><trkpt lat="44.6976622" lon="9.5064766"><ele>944.0</ele><time>2026-04-18T08:02:40.381Z</time></trkpt><trkpt lat="44.6975455" lon="9.5064735"><ele>944.0</ele><time>2026-04-18T08:02:41.381Z</time></trkpt><trkpt lat="44.6974302" lon="9.5064937"><ele>945.0</ele><time>2026-04-18T08:02:42.381Z</time></trkpt><trkpt lat="44.6973274" lon="9.5065266"><ele>946.0000000000001</ele><time>2026-04-18T08:02:43.381Z</time></trkpt><trkpt lat="44.6972296" lon="9.5065577"><ele>947.0000000000001</ele><time>2026-04-18T08:02:44.382Z</time></trkpt><trkpt lat="44.6971238" lon="9.5065836"><ele>948.0</ele><time>2026-04-18T08:02:45.381Z</time></trkpt><trkpt lat="44.6970073" lon="9.5066043"><ele>949.0</ele><time>2026-04-18T08:02:46.382Z</time></trkpt><trkpt lat="44.6968808" lon="9.5066245"><ele>949.0</ele><time>2026-04-18T08:02:47.382Z</time></trkpt><trkpt lat="44.6967478" lon="9.5066406"><ele>949.0</ele><time>2026-04-18T08:02:48.382Z</time></trkpt><trkpt lat="44.6966121" lon="9.5066427"><ele>949.0</ele><time>2026-04-18T08:02:49.382Z</time></trkpt><trkpt lat="44.6964807" lon="9.5066303"><ele>949.0</ele><time>2026-04-18T08:02:50.382Z</time></trkpt><trkpt lat="44.6963499" lon="9.5066091"><ele>949.0</ele><time>2026-04-18T08:02:51.382Z</time></trkpt><trkpt lat="44.6962259" lon="9.506564"><ele>949.0</ele><time>2026-04-18T08:02:52.382Z</time></trkpt><trkpt lat="44.6961017" lon="9.506507"><ele>949.0</ele><time>2026-04-18T08:02:53.382Z</time></trkpt><trkpt lat="44.6959855" lon="9.5064341"><ele>949.0</ele><time>2026-04-18T08:02:54.382Z</time></trkpt><trkpt lat="44.6958669" lon="9.5063533"><ele>948.25</ele><time>2026-04-18T08:02:55.382Z</time></trkpt><trkpt lat="44.6957483" lon="9.5062823"><ele>947.5</ele><time>2026-04-18T08:02:56.381Z</time></trkpt><trkpt lat="44.6956305" lon="9.5062267"><ele>946.75</ele><time>2026-04-18T08:02:57.382Z</time></trkpt><trkpt lat="44.6955118" lon="9.5061828"><ele>946.0</ele><time>2026-04-18T08:02:58.382Z</time></trkpt><trkpt lat="44.6953971" lon="9.5061446"><ele>948.4</ele><time>2026-04-18T08:02:59.382Z</time></trkpt><trkpt lat="44.6952888" lon="9.5061125"><ele>950.8</ele><time>2026-04-18T08:03:00.382Z</time></trkpt><trkpt lat="44.6951904" lon="9.5060857"><ele>953.1999999999999</ele><time>2026-04-18T08:03:01.382Z</time></trkpt><trkpt lat="44.6951038" lon="9.5060696"><ele>955.5999999999999</ele><time>2026-04-18T08:03:02.382Z</time></trkpt><trkpt lat="44.6950175" lon="9.5060588"><ele>958.0</ele><time>2026-04-18T08:03:03.382Z</time></trkpt><trkpt lat="44.6949423" lon="9.506056"><ele>958.6666666666666</ele><time>2026-04-18T08:03:04.382Z</time></trkpt><trkpt lat="44.6948769" lon="9.5060553"><ele>959.3333333333333</ele><time>2026-04-18T08:03:05.382Z</time></trkpt><trkpt lat="44.6947864" lon="9.5060592"><ele>960.0</ele><time>2026-04-18T08:03:07.382Z</time></trkpt><trkpt lat="44.6947286" lon="9.5060131"><ele>960.6666666666667</ele><time>2026-04-18T08:03:10.382Z</time></trkpt><trkpt lat="44.6947581" lon="9.5058785"><ele>961.3333333333334</ele><time>2026-04-18T08:03:13.382Z</time></trkpt><trkpt lat="44.694811" lon="9.50574"><ele>962.0</ele><time>2026-04-18T08:03:15.382Z</time></trkpt><trkpt lat="44.694839" lon="9.5056498"><ele>961.9999999999999</ele><time>2026-04-18T08:03:16.382Z</time></trkpt><trkpt lat="44.6948698" lon="9.505556"><ele>962.0</ele><time>2026-04-18T08:03:17.382Z</time></trkpt><trkpt lat="44.6948969" lon="9.5054588"><ele>961.9999999999999</ele><time>2026-04-18T08:03:18.382Z</time></trkpt><trkpt lat="44.694922" lon="9.5053635"><ele>961.9999999999999</ele><time>2026-04-18T08:03:19.382Z</time></trkpt><trkpt lat="44.6949436" lon="9.5052732"><ele>962.0</ele><time>2026-04-18T08:03:20.382Z</time></trkpt><trkpt lat="44.6949678" lon="9.5051825"><ele>961.9999999999999</ele><time>2026-04-18T08:03:21.382Z</time></trkpt><trkpt lat="44.6949938" lon="9.5050944"><ele>961.9999999999999</ele><time>2026-04-18T08:03:22.382Z</time></trkpt><trkpt lat="44.6950245" lon="9.5050115"><ele>962.8</ele><time>2026-04-18T08:03:23.382Z</time></trkpt><trkpt lat="44.6950548" lon="9.5049311"><ele>963.6</ele><time>2026-04-18T08:03:24.382Z</time></trkpt><trkpt lat="44.6951121" lon="9.5047923"><ele>964.3999999999999</ele><time>2026-04-18T08:03:26.382Z</time></trkpt><trkpt lat="44.6951748" lon="9.5046668"><ele>965.1999999999999</ele><time>2026-04-18T08:03:28.382Z</time></trkpt><trkpt lat="44.6952302" lon="9.5045365"><ele>966.0</ele><time>2026-04-18T08:03:30.382Z</time></trkpt><trkpt lat="44.6952746" lon="9.5043995"><ele>968.8</ele><time>2026-04-18T08:03:32.382Z</time></trkpt><trkpt lat="44.6953335" lon="9.5042519"><ele>971.5999999999999</ele><time>2026-04-18T08:03:34.382Z</time></trkpt><trkpt lat="44.6953645" lon="9.5041746"><ele>974.4</ele><time>2026-04-18T08:03:35.382Z</time></trkpt><trkpt lat="44.6954397" lon="9.5040488"><ele>977.2</ele><time>2026-04-18T08:03:37.382Z</time></trkpt><trkpt lat="44.6955224" lon="9.5039429"><ele>980.0</ele><time>2026-04-18T08:03:39.382Z</time></trkpt><trkpt lat="44.6955915" lon="9.5038127"><ele>982.25</ele><time>2026-04-18T08:03:41.382Z</time></trkpt><trkpt lat="44.6956413" lon="9.5036586"><ele>984.5</ele><time>2026-04-18T08:03:43.382Z</time></trkpt><trkpt lat="44.6956605" lon="9.503496"><ele>986.75</ele><time>2026-04-18T08:03:45.381Z</time></trkpt><trkpt lat="44.6956793" lon="9.5033261"><ele>989.0</ele><time>2026-04-18T08:03:47.382Z</time></trkpt><trkpt lat="44.695704" lon="9.5031682"><ele>989.0</ele><time>2026-04-18T08:03:49.382Z</time></trkpt><trkpt lat="44.6957147" lon="9.5030083"><ele>989.0000000000001</ele><time>2026-04-18T08:03:51.382Z</time></trkpt><trkpt lat="44.6957277" lon="9.502845"><ele>989.0000000000001</ele><time>2026-04-18T08:03:53.382Z</time></trkpt><trkpt lat="44.6957243" lon="9.5027347"><ele>989.0</ele><time>2026-04-18T08:03:55.382Z</time></trkpt><trkpt lat="44.6956585" lon="9.5026831"><ele>989.0</ele><time>2026-04-18T08:03:58.382Z</time></trkpt><trkpt lat="44.6955505" lon="9.5027014"><ele>990.0000000000001</ele><time>2026-04-18T08:04:00.382Z</time></trkpt><trkpt lat="44.6954854" lon="9.502721"><ele>991.0</ele><time>2026-04-18T08:04:01.382Z</time></trkpt><trkpt lat="44.6954155" lon="9.5027455"><ele>992.0</ele><time>2026-04-18T08:04:02.382Z</time></trkpt><trkpt lat="44.6953418" lon="9.5027674"><ele>993.0</ele><time>2026-04-18T08:04:03.382Z</time></trkpt><trkpt lat="44.6952691" lon="9.5027748"><ele>994.0000000000001</ele><time>2026-04-18T08:04:04.383Z</time></trkpt><trkpt lat="44.6951879" lon="9.5027618"><ele>995.0</ele><time>2026-04-18T08:04:05.382Z</time></trkpt><trkpt lat="44.6951034" lon="9.5027234"><ele>995.0</ele><time>2026-04-18T08:04:06.382Z</time></trkpt><trkpt lat="44.695025" lon="9.5026694"><ele>995.0</ele><time>2026-04-18T08:04:07.383Z</time></trkpt><trkpt lat="44.6949461" lon="9.5026103"><ele>995.0</ele><time>2026-04-18T08:04:08.383Z</time></trkpt><trkpt lat="44.6948648" lon="9.5025436"><ele>995.0</ele><time>2026-04-18T08:04:09.383Z</time></trkpt><trkpt lat="44.6947821" lon="9.5024734"><ele>995.0</ele><time>2026-04-18T08:04:10.383Z</time></trkpt><trkpt lat="44.6946965" lon="9.5024046"><ele>995.0</ele><time>2026-04-18T08:04:11.383Z</time></trkpt><trkpt lat="44.6946086" lon="9.5023361"><ele>995.0</ele><time>2026-04-18T08:04:12.383Z</time></trkpt><trkpt lat="44.6945188" lon="9.502268"><ele>995.0</ele><time>2026-04-18T08:04:13.383Z</time></trkpt><trkpt lat="44.6944283" lon="9.5021985"><ele>995.0</ele><time>2026-04-18T08:04:14.383Z</time></trkpt><trkpt lat="44.6943359" lon="9.5021355"><ele>995.0</ele><time>2026-04-18T08:04:15.383Z</time></trkpt><trkpt lat="44.6942409" lon="9.5020879"><ele>997.0</ele><time>2026-04-18T08:04:16.383Z</time></trkpt><trkpt lat="44.6941443" lon="9.5020494"><ele>999.0</ele><time>2026-04-18T08:04:17.383Z</time></trkpt><trkpt lat="44.694046" lon="9.5020163"><ele>1001.0</ele><time>2026-04-18T08:04:18.383Z</time></trkpt><trkpt lat="44.6939483" lon="9.5019865"><ele>1003.0</ele><time>2026-04-18T08:04:19.383Z</time></trkpt><trkpt lat="44.6938479" lon="9.5019521"><ele>1005.0</ele><time>2026-04-18T08:04:20.383Z</time></trkpt><trkpt lat="44.6937446" lon="9.501909"><ele>1005.0</ele><time>2026-04-18T08:04:21.383Z</time></trkpt><trkpt lat="44.6936454" lon="9.5018605"><ele>1005.0</ele><time>2026-04-18T08:04:22.383Z</time></trkpt><trkpt lat="44.6935434" lon="9.5018088"><ele>1005.0</ele><time>2026-04-18T08:04:23.383Z</time></trkpt><trkpt lat="44.6934478" lon="9.5017507"><ele>1005.0</ele><time>2026-04-18T08:04:24.383Z</time></trkpt><trkpt lat="44.693353" lon="9.5016949"><ele>1005.0</ele><time>2026-04-18T08:04:25.383Z</time></trkpt><trkpt lat="44.6932593" lon="9.501646"><ele>1005.3333333333334</ele><time>2026-04-18T08:04:26.383Z</time></trkpt><trkpt lat="44.6931733" lon="9.5016115"><ele>1005.6666666666667</ele><time>2026-04-18T08:04:27.383Z</time></trkpt><trkpt lat="44.6930871" lon="9.5015913"><ele>1006.0</ele><time>2026-04-18T08:04:28.383Z</time></trkpt><trkpt lat="44.6930057" lon="9.5015863"><ele>1006.3333333333334</ele><time>2026-04-18T08:04:29.383Z</time></trkpt><trkpt lat="44.692926" lon="9.5015867"><ele>1006.6666666666667</ele><time>2026-04-18T08:04:30.383Z</time></trkpt><trkpt lat="44.6928489" lon="9.501586"><ele>1007.0</ele><time>2026-04-18T08:04:31.383Z</time></trkpt><trkpt lat="44.6927624" lon="9.5015594"><ele>1006.8</ele><time>2026-04-18T08:04:32.383Z</time></trkpt><trkpt lat="44.6926768" lon="9.5015186"><ele>1006.6</ele><time>2026-04-18T08:04:33.383Z</time></trkpt><trkpt lat="44.6925894" lon="9.5014495"><ele>1006.3999999999999</ele><time>2026-04-18T08:04:34.383Z</time></trkpt><trkpt lat="44.6925068" lon="9.5013707"><ele>1006.1999999999999</ele><time>2026-04-18T08:04:35.383Z</time></trkpt><trkpt lat="44.6924269" lon="9.5012765"><ele>1006.0</ele><time>2026-04-18T08:04:36.383Z</time></trkpt><trkpt lat="44.692353" lon="9.5011815"><ele>1007.6666666666666</ele><time>2026-04-18T08:04:37.383Z</time></trkpt><trkpt lat="44.6922921" lon="9.5010596"><ele>1009.3333333333333</ele><time>2026-04-18T08:04:38.383Z</time></trkpt><trkpt lat="44.6922437" lon="9.5009388"><ele>1011.0</ele><time>2026-04-18T08:04:39.383Z</time></trkpt><trkpt lat="44.6922089" lon="9.5008298"><ele>1012.6666666666667</ele><time>2026-04-18T08:04:40.383Z</time></trkpt><trkpt lat="44.6921798" lon="9.5007433"><ele>1014.3333333333334</ele><time>2026-04-18T08:04:41.383Z</time></trkpt><trkpt lat="44.6921396" lon="9.5006609"><ele>1016.0</ele><time>2026-04-18T08:04:42.383Z</time></trkpt><trkpt lat="44.692095" lon="9.5005815"><ele>1016.0000000000001</ele><time>2026-04-18T08:04:43.383Z</time></trkpt><trkpt lat="44.6920492" lon="9.5005038"><ele>1016.0</ele><time>2026-04-18T08:04:44.383Z</time></trkpt><trkpt lat="44.6919981" lon="9.5004237"><ele>1016.0</ele><time>2026-04-18T08:04:45.383Z</time></trkpt><trkpt lat="44.6919498" lon="9.500336"><ele>1016.0</ele><time>2026-04-18T08:04:46.383Z</time></trkpt><trkpt lat="44.6919116" lon="9.5002497"><ele>1016.0000000000001</ele><time>2026-04-18T08:04:47.382Z</time></trkpt><trkpt lat="44.6918743" lon="9.5001711"><ele>1016.0</ele><time>2026-04-18T08:04:48.383Z</time></trkpt><trkpt lat="44.6917935" lon="9.5000711"><ele>1016.0</ele><time>2026-04-18T08:04:50.383Z</time></trkpt><trkpt lat="44.6917724" lon="9.4999593"><ele>1015.9999999999999</ele><time>2026-04-18T08:04:53.383Z</time></trkpt><trkpt lat="44.6918134" lon="9.4998323"><ele>1015.9999999999999</ele><time>2026-04-18T08:04:55.383Z</time></trkpt><trkpt lat="44.6918316" lon="9.499721"><ele>1016.0</ele><time>2026-04-18T08:04:57.383Z</time></trkpt><trkpt lat="44.6918113" lon="9.499577"><ele>1016.0</ele><time>2026-04-18T08:04:59.383Z</time></trkpt><trkpt lat="44.6917845" lon="9.4994361"><ele>1016.0</ele><time>2026-04-18T08:05:01.383Z</time></trkpt><trkpt lat="44.6917578" lon="9.4992864"><ele>1015.9999999999999</ele><time>2026-04-18T08:05:03.383Z</time></trkpt><trkpt lat="44.6917298" lon="9.4991312"><ele>1015.9999999999999</ele><time>2026-04-18T08:05:05.383Z</time></trkpt><trkpt lat="44.6917019" lon="9.4989833"><ele>1016.0</ele><time>2026-04-18T08:05:07.383Z</time></trkpt><trkpt lat="44.6916726" lon="9.4988246"><ele>1016.0</ele><time>2026-04-18T08:05:09.383Z</time></trkpt><trkpt lat="44.6916561" lon="9.498739"><ele>1017.0000000000001</ele><time>2026-04-18T08:05:10.383Z</time></trkpt><trkpt lat="44.6916373" lon="9.4986519"><ele>1018.0</ele><time>2026-04-18T08:05:11.383Z</time></trkpt><trkpt lat="44.6916193" lon="9.4985644"><ele>1019.0</ele><time>2026-04-18T08:05:12.383Z</time></trkpt><trkpt lat="44.6915861" lon="9.4984028"><ele>1020.0</ele><time>2026-04-18T08:05:14.382Z</time></trkpt><trkpt lat="44.6915519" lon="9.4982302"><ele>1021.0000000000001</ele><time>2026-04-18T08:05:16.383Z</time></trkpt><trkpt lat="44.6915342" lon="9.4981381"><ele>1022.0</ele><time>2026-04-18T08:05:17.383Z</time></trkpt><trkpt lat="44.6915162" lon="9.4980451"><ele>1022.0</ele><time>2026-04-18T08:05:18.383Z</time></trkpt><trkpt lat="44.6914983" lon="9.4979537"><ele>1022.0</ele><time>2026-04-18T08:05:19.383Z</time></trkpt><trkpt lat="44.6914793" lon="9.4978651"><ele>1022.0</ele><time>2026-04-18T08:05:20.383Z</time></trkpt><trkpt lat="44.6914633" lon="9.4977754"><ele>1022.0</ele><time>2026-04-18T08:05:21.383Z</time></trkpt><trkpt lat="44.6914467" lon="9.4976864"><ele>1022.0</ele><time>2026-04-18T08:05:22.383Z</time></trkpt><trkpt lat="44.6914301" lon="9.4975931"><ele>1022.0</ele><time>2026-04-18T08:05:23.383Z</time></trkpt><trkpt lat="44.6914135" lon="9.4974999"><ele>1022.0</ele><time>2026-04-18T08:05:24.383Z</time></trkpt><trkpt lat="44.691394" lon="9.497415"><ele>1021.6</ele><time>2026-04-18T08:05:25.383Z</time></trkpt><trkpt lat="44.6913373" lon="9.4972858"><ele>1021.2</ele><time>2026-04-18T08:05:27.383Z</time></trkpt><trkpt lat="44.6912539" lon="9.4972075"><ele>1020.8</ele><time>2026-04-18T08:05:29.384Z</time></trkpt><trkpt lat="44.6911497" lon="9.4971853"><ele>1020.4</ele><time>2026-04-18T08:05:31.384Z</time></trkpt><trkpt lat="44.6910473" lon="9.4972154"><ele>1020.0</ele><time>2026-04-18T08:05:33.384Z</time></trkpt><trkpt lat="44.6909475" lon="9.4972635"><ele>1020.0</ele><time>2026-04-18T08:05:35.383Z</time></trkpt><trkpt lat="44.6908484" lon="9.497329"><ele>1020.0</ele><time>2026-04-18T08:05:37.384Z</time></trkpt><trkpt lat="44.6907503" lon="9.4974218"><ele>1020.0</ele><time>2026-04-18T08:05:39.384Z</time></trkpt><trkpt lat="44.6906953" lon="9.4974685"><ele>1020.0</ele><time>2026-04-18T08:05:40.384Z</time></trkpt><trkpt lat="44.6906345" lon="9.4975113"><ele>1020.0</ele><time>2026-04-18T08:05:41.384Z</time></trkpt><trkpt lat="44.6905701" lon="9.497549"><ele>1020.0</ele><time>2026-04-18T08:05:42.384Z</time></trkpt><trkpt lat="44.6905082" lon="9.4975867"><ele>1020.0</ele><time>2026-04-18T08:05:43.384Z</time></trkpt><trkpt lat="44.6904474" lon="9.4976237"><ele>1020.0000000000001</ele><time>2026-04-18T08:05:44.384Z</time></trkpt><trkpt lat="44.690385" lon="9.4976603"><ele>1020.0</ele><time>2026-04-18T08:05:45.383Z</time></trkpt><trkpt lat="44.6903227" lon="9.497695"><ele>1020.0</ele><time>2026-04-18T08:05:46.384Z</time></trkpt><trkpt lat="44.6902619" lon="9.4977296"><ele>1020.0000000000001</ele><time>2026-04-18T08:05:47.384Z</time></trkpt><trkpt lat="44.690203" lon="9.4977677"><ele>1020.0</ele><time>2026-04-18T08:05:48.384Z</time></trkpt><trkpt lat="44.6901453" lon="9.4978087"><ele>1020.0</ele><time>2026-04-18T08:05:49.384Z</time></trkpt><trkpt lat="44.6900454" lon="9.4979104"><ele>1019.3333333333334</ele><time>2026-04-18T08:05:51.384Z</time></trkpt><trkpt lat="44.6899995" lon="9.4979795"><ele>1018.6666666666667</ele><time>2026-04-18T08:05:52.384Z</time></trkpt><trkpt lat="44.6899513" lon="9.4980519"><ele>1018.0</ele><time>2026-04-18T08:05:53.384Z</time></trkpt><trkpt lat="44.6899067" lon="9.4981176"><ele>1017.3333333333334</ele><time>2026-04-18T08:05:54.384Z</time></trkpt><trkpt lat="44.6898202" lon="9.498239"><ele>1016.6666666666667</ele><time>2026-04-18T08:05:56.384Z</time></trkpt><trkpt lat="44.6897726" lon="9.4983068"><ele>1016.0</ele><time>2026-04-18T08:05:57.384Z</time></trkpt><trkpt lat="44.6897168" lon="9.4983761"><ele>1016.0</ele><time>2026-04-18T08:05:58.383Z</time></trkpt><trkpt lat="44.6896604" lon="9.4984428"><ele>1016.0</ele><time>2026-04-18T08:05:59.384Z</time></trkpt><trkpt lat="44.6895982" lon="9.4985122"><ele>1016.0</ele><time>2026-04-18T08:06:00.384Z</time></trkpt><trkpt lat="44.6895364" lon="9.4985772"><ele>1016.0</ele><time>2026-04-18T08:06:01.384Z</time></trkpt><trkpt lat="44.689476" lon="9.4986419"><ele>1016.0</ele><time>2026-04-18T08:06:02.384Z</time></trkpt><trkpt lat="44.6894212" lon="9.4986986"><ele>1016.0</ele><time>2026-04-18T08:06:03.384Z</time></trkpt><trkpt lat="44.689365" lon="9.4987488"><ele>1016.0</ele><time>2026-04-18T08:06:04.384Z</time></trkpt><trkpt lat="44.6893056" lon="9.4987945"><ele>1015.1666666666667</ele><time>2026-04-18T08:06:05.384Z</time></trkpt><trkpt lat="44.6892453" lon="9.4988374"><ele>1014.3333333333334</ele><time>2026-04-18T08:06:06.384Z</time></trkpt><trkpt lat="44.6891872" lon="9.4988793"><ele>1013.5</ele><time>2026-04-18T08:06:07.384Z</time></trkpt><trkpt lat="44.6890707" lon="9.4989516"><ele>1012.6666666666667</ele><time>2026-04-18T08:06:09.384Z</time></trkpt><trkpt lat="44.6890111" lon="9.4989951"><ele>1011.8333333333334</ele><time>2026-04-18T08:06:10.384Z</time></trkpt><trkpt lat="44.6889506" lon="9.4990465"><ele>1011.0</ele><time>2026-04-18T08:06:11.384Z</time></trkpt><trkpt lat="44.6888522" lon="9.4991559"><ele>1011.0</ele><time>2026-04-18T08:06:13.384Z</time></trkpt><trkpt lat="44.6888063" lon="9.499217"><ele>1011.0</ele><time>2026-04-18T08:06:14.384Z</time></trkpt><trkpt lat="44.6887599" lon="9.4992861"><ele>1011.0</ele><time>2026-04-18T08:06:15.384Z</time></trkpt><trkpt lat="44.6886883" lon="9.4994292"><ele>1011.0</ele><time>2026-04-18T08:06:17.384Z</time></trkpt><trkpt lat="44.6886647" lon="9.4995272"><ele>1011.0</ele><time>2026-04-18T08:06:18.384Z</time></trkpt><trkpt lat="44.6886461" lon="9.4996266"><ele>1011.0</ele><time>2026-04-18T08:06:19.384Z</time></trkpt><trkpt lat="44.6886369" lon="9.4997241"><ele>1012.0</ele><time>2026-04-18T08:06:20.384Z</time></trkpt><trkpt lat="44.6886392" lon="9.4998968"><ele>1012.9999999999999</ele><time>2026-04-18T08:06:22.383Z</time></trkpt><trkpt lat="44.6886382" lon="9.5000289"><ele>1013.9999999999999</ele><time>2026-04-18T08:06:24.384Z</time></trkpt><trkpt lat="44.6885988" lon="9.5001562"><ele>1015.0</ele><time>2026-04-18T08:06:26.384Z</time></trkpt><trkpt lat="44.688523" lon="9.5002504"><ele>1016.0</ele><time>2026-04-18T08:06:28.384Z</time></trkpt><trkpt lat="44.6884269" lon="9.5003214"><ele>1016.0</ele><time>2026-04-18T08:06:30.384Z</time></trkpt><trkpt lat="44.6883284" lon="9.5003471"><ele>1016.0</ele><time>2026-04-18T08:06:32.384Z</time></trkpt><trkpt lat="44.6882116" lon="9.5003124"><ele>1016.0</ele><time>2026-04-18T08:06:34.384Z</time></trkpt><trkpt lat="44.6880939" lon="9.5002637"><ele>1016.0</ele><time>2026-04-18T08:06:36.384Z</time></trkpt><trkpt lat="44.6879816" lon="9.5002423"><ele>1016.0</ele><time>2026-04-18T08:06:38.384Z</time></trkpt><trkpt lat="44.6878769" lon="9.5001959"><ele>1015.9999999999999</ele><time>2026-04-18T08:06:40.384Z</time></trkpt><trkpt lat="44.6877815" lon="9.5001343"><ele>1015.9999999999999</ele><time>2026-04-18T08:06:42.385Z</time></trkpt><trkpt lat="44.6876902" lon="9.5000956"><ele>1016.0</ele><time>2026-04-18T08:06:44.384Z</time></trkpt><trkpt lat="44.6876023" lon="9.5001193"><ele>1016.0</ele><time>2026-04-18T08:06:46.384Z</time></trkpt><trkpt lat="44.6875359" lon="9.5002291"><ele>1016.0</ele><time>2026-04-18T08:06:48.385Z</time></trkpt><trkpt lat="44.6874757" lon="9.500354"><ele>1015.9999999999999</ele><time>2026-04-18T08:06:50.385Z</time></trkpt><trkpt lat="44.6874246" lon="9.5004798"><ele>1015.9999999999999</ele><time>2026-04-18T08:06:52.385Z</time></trkpt><trkpt lat="44.6873738" lon="9.5006163"><ele>1016.0</ele><time>2026-04-18T08:06:54.385Z</time></trkpt><trkpt lat="44.6873151" lon="9.5007126"><ele>1016.0</ele><time>2026-04-18T08:06:56.385Z</time></trkpt><trkpt lat="44.6872303" lon="9.5007542"><ele>1016.0</ele><time>2026-04-18T08:06:58.385Z</time></trkpt><trkpt lat="44.6871343" lon="9.5007652"><ele>1015.9999999999999</ele><time>2026-04-18T08:07:00.385Z</time></trkpt><trkpt lat="44.6870435" lon="9.5007513"><ele>1015.9999999999999</ele><time>2026-04-18T08:07:02.385Z</time></trkpt><trkpt lat="44.6869575" lon="9.5007327"><ele>1016.0</ele><time>2026-04-18T08:07:04.385Z</time></trkpt><trkpt lat="44.6868701" lon="9.5007121"><ele>1016.0</ele><time>2026-04-18T08:07:06.385Z</time></trkpt><trkpt lat="44.6867806" lon="9.5007169"><ele>1017.1999999999999</ele><time>2026-04-18T08:07:08.385Z</time></trkpt><trkpt lat="44.6866904" lon="9.5007384"><ele>1018.3999999999999</ele><time>2026-04-18T08:07:10.385Z</time></trkpt><trkpt lat="44.6866036" lon="9.5007739"><ele>1019.6</ele><time>2026-04-18T08:07:12.385Z</time></trkpt><trkpt lat="44.6865446" lon="9.500866"><ele>1020.8</ele><time>2026-04-18T08:07:14.385Z</time></trkpt><trkpt lat="44.6865264" lon="9.5010048"><ele>1022.0</ele><time>2026-04-18T08:07:16.385Z</time></trkpt><trkpt lat="44.6865255" lon="9.5011535"><ele>1021.6</ele><time>2026-04-18T08:07:18.385Z</time></trkpt><trkpt lat="44.686533" lon="9.5013073"><ele>1021.2</ele><time>2026-04-18T08:07:20.385Z</time></trkpt><trkpt lat="44.6865676" lon="9.5014658"><ele>1020.8</ele><time>2026-04-18T08:07:22.385Z</time></trkpt><trkpt lat="44.6865992" lon="9.5016007"><ele>1020.4</ele><time>2026-04-18T08:07:24.385Z</time></trkpt><trkpt lat="44.6866412" lon="9.5017201"><ele>1020.0</ele><time>2026-04-18T08:07:26.385Z</time></trkpt><trkpt lat="44.6866558" lon="9.5018287"><ele>1020.0</ele><time>2026-04-18T08:07:28.385Z</time></trkpt><trkpt lat="44.6866565" lon="9.5019248"><ele>1020.0000000000001</ele><time>2026-04-18T08:08:37.386Z</time></trkpt><trkpt lat="44.6866377" lon="9.5020252"><ele>1020.0</ele><time>2026-04-18T08:08:52.386Z</time></trkpt><trkpt lat="44.6866295" lon="9.5021452"><ele>1020.0</ele><time>2026-04-18T08:09:15.386Z</time></trkpt><trkpt lat="44.6866217" lon="9.5022584"><ele>1020.0000000000001</ele><time>2026-04-18T08:09:17.386Z</time></trkpt><trkpt lat="44.686605" lon="9.5023469"><ele>1020.0</ele><time>2026-04-18T08:09:19.386Z</time></trkpt><trkpt lat="44.6865926" lon="9.5024376"><ele>1020.0</ele><time>2026-04-18T08:15:07.391Z</time></trkpt><trkpt lat="44.6865729" lon="9.5025344"><ele>1019.5</ele><time>2026-04-18T08:15:09.391Z</time></trkpt><trkpt lat="44.6865474" lon="9.502616"><ele>1019.0</ele><time>2026-04-18T08:15:12.391Z</time></trkpt><trkpt lat="44.6865226" lon="9.5027295"><ele>1018.5</ele><time>2026-04-18T08:15:16.391Z</time></trkpt><trkpt lat="44.6864999" lon="9.5028125"><ele>1018.0</ele><time>2026-04-18T08:15:18.391Z</time></trkpt><trkpt lat="44.6864498" lon="9.5029189"><ele>1017.5</ele><time>2026-04-18T08:15:21.391Z</time></trkpt><trkpt lat="44.6863849" lon="9.5030143"><ele>1017.0</ele><time>2026-04-18T08:15:24.391Z</time></trkpt><trkpt lat="44.686316" lon="9.5030966"><ele>1016.6666666666666</ele><time>2026-04-18T08:15:27.391Z</time></trkpt><trkpt lat="44.6862639" lon="9.503152"><ele>1016.3333333333333</ele><time>2026-04-18T08:15:29.391Z</time></trkpt><trkpt lat="44.6862054" lon="9.5032068"><ele>1016.0</ele><time>2026-04-18T08:15:31.391Z</time></trkpt><trkpt lat="44.686148" lon="9.503253"><ele>1015.6666666666666</ele><time>2026-04-18T08:15:33.391Z</time></trkpt><trkpt lat="44.686082" lon="9.5033055"><ele>1015.3333333333333</ele><time>2026-04-18T08:15:35.391Z</time></trkpt><trkpt lat="44.6860171" lon="9.5033602"><ele>1015.0</ele><time>2026-04-18T08:15:37.391Z</time></trkpt><trkpt lat="44.6859318" lon="9.5034313"><ele>1013.8</ele><time>2026-04-18T08:15:39.391Z</time></trkpt><trkpt lat="44.6858493" lon="9.5035216"><ele>1012.6</ele><time>2026-04-18T08:15:41.391Z</time></trkpt><trkpt lat="44.6857792" lon="9.5036156"><ele>1011.4000000000001</ele><time>2026-04-18T08:15:43.391Z</time></trkpt><trkpt lat="44.6856927" lon="9.5036865"><ele>1010.2</ele><time>2026-04-18T08:15:45.391Z</time></trkpt><trkpt lat="44.6856092" lon="9.5037493"><ele>1009.0</ele><time>2026-04-18T08:15:47.391Z</time></trkpt><trkpt lat="44.6855326" lon="9.5038337"><ele>1008.9999999999999</ele><time>2026-04-18T08:15:49.391Z</time></trkpt><trkpt lat="44.6854776" lon="9.5039313"><ele>1009.0</ele><time>2026-04-18T08:15:51.391Z</time></trkpt><trkpt lat="44.6854234" lon="9.5040438"><ele>1009.0</ele><time>2026-04-18T08:15:53.391Z</time></trkpt><trkpt lat="44.6853761" lon="9.5041503"><ele>1009.0</ele><time>2026-04-18T08:15:55.391Z</time></trkpt><trkpt lat="44.6853317" lon="9.5042541"><ele>1008.9999999999999</ele><time>2026-04-18T08:15:57.391Z</time></trkpt><trkpt lat="44.6852813" lon="9.5043446"><ele>1009.0</ele><time>2026-04-18T08:15:59.391Z</time></trkpt><trkpt lat="44.6852239" lon="9.5044112"><ele>1011.6666666666666</ele><time>2026-04-18T08:16:02.391Z</time></trkpt><trkpt lat="44.6851688" lon="9.5044776"><ele>1014.3333333333333</ele><time>2026-04-18T08:16:04.392Z</time></trkpt><trkpt lat="44.685107" lon="9.5045749"><ele>1017.0</ele><time>2026-04-18T08:16:06.392Z</time></trkpt><trkpt lat="44.6850526" lon="9.5046826"><ele>1019.6666666666667</ele><time>2026-04-18T08:16:08.392Z</time></trkpt><trkpt lat="44.6850278" lon="9.5048108"><ele>1022.3333333333334</ele><time>2026-04-18T08:16:10.392Z</time></trkpt><trkpt lat="44.6850186" lon="9.5049435"><ele>1025.0</ele><time>2026-04-18T08:16:12.392Z</time></trkpt><trkpt lat="44.6850107" lon="9.5050885"><ele>1024.9999999999998</ele><time>2026-04-18T08:16:14.391Z</time></trkpt><trkpt lat="44.6849982" lon="9.5052166"><ele>1025.0</ele><time>2026-04-18T08:16:16.392Z</time></trkpt><trkpt lat="44.6849609" lon="9.5053102"><ele>1025.0</ele><time>2026-04-18T08:16:18.392Z</time></trkpt><trkpt lat="44.6849072" lon="9.5053697"><ele>1025.0</ele><time>2026-04-18T08:16:20.392Z</time></trkpt><trkpt lat="44.6848529" lon="9.5054249"><ele>1025.0</ele><time>2026-04-18T08:16:22.392Z</time></trkpt><trkpt lat="44.6847968" lon="9.5054715"><ele>1024.9999999999998</ele><time>2026-04-18T08:16:24.392Z</time></trkpt><trkpt lat="44.6847377" lon="9.5055179"><ele>1025.0</ele><time>2026-04-18T08:16:26.392Z</time></trkpt><trkpt lat="44.6846753" lon="9.5055623"><ele>1025.5</ele><time>2026-04-18T08:16:28.392Z</time></trkpt><trkpt lat="44.6846001" lon="9.5056118"><ele>1026.0</ele><time>2026-04-18T08:16:30.392Z</time></trkpt><trkpt lat="44.684524" lon="9.5056716"><ele>1026.5</ele><time>2026-04-18T08:16:32.392Z</time></trkpt><trkpt lat="44.6844528" lon="9.5057493"><ele>1027.0</ele><time>2026-04-18T08:16:34.392Z</time></trkpt><trkpt lat="44.6844195" lon="9.5058414"><ele>1027.5</ele><time>2026-04-18T08:16:36.392Z</time></trkpt><trkpt lat="44.6844291" lon="9.5059377"><ele>1028.0</ele><time>2026-04-18T08:16:38.392Z</time></trkpt><trkpt lat="44.6844747" lon="9.5060567"><ele>1024.6</ele><time>2026-04-18T08:16:40.392Z</time></trkpt><trkpt lat="44.6845042" lon="9.5061867"><ele>1021.1999999999999</ele><time>2026-04-18T08:16:42.392Z</time></trkpt><trkpt lat="44.6844966" lon="9.5063247"><ele>1017.8</ele><time>2026-04-18T08:16:44.392Z</time></trkpt><trkpt lat="44.6844917" lon="9.5064787"><ele>1014.4</ele><time>2026-04-18T08:16:46.392Z</time></trkpt><trkpt lat="44.6844962" lon="9.5065813"><ele>1011.0</ele><time>2026-04-18T08:16:48.392Z</time></trkpt><trkpt lat="44.6845169" lon="9.5066832"><ele>1010.8333333333334</ele><time>2026-04-18T08:17:21.392Z</time></trkpt><trkpt lat="44.6845508" lon="9.5067807"><ele>1010.6666666666667</ele><time>2026-04-18T08:17:23.392Z</time></trkpt><trkpt lat="44.684574" lon="9.5068803"><ele>1010.5</ele><time>2026-04-18T08:17:25.391Z</time></trkpt><trkpt lat="44.6845869" lon="9.506974"><ele>1010.3333333333334</ele><time>2026-04-18T08:17:27.392Z</time></trkpt><trkpt lat="44.6845944" lon="9.507075"><ele>1010.1666666666667</ele><time>2026-04-18T08:17:29.393Z</time></trkpt><trkpt lat="44.6845989" lon="9.5072103"><ele>1010.0</ele><time>2026-04-18T08:17:32.393Z</time></trkpt><trkpt lat="44.6845921" lon="9.5073031"><ele>1010.0000000000001</ele><time>2026-04-18T08:17:34.393Z</time></trkpt><trkpt lat="44.6845626" lon="9.5073898"><ele>1010.0</ele><time>2026-04-18T08:17:39.393Z</time></trkpt><trkpt lat="44.6845297" lon="9.5074688"><ele>1010.0</ele><time>2026-04-18T08:18:07.393Z</time></trkpt><trkpt lat="44.6844739" lon="9.5075197"><ele>1010.0</ele><time>2026-04-18T08:18:09.393Z</time></trkpt><trkpt lat="44.6843916" lon="9.5075773"><ele>1010.0000000000001</ele><time>2026-04-18T08:18:11.393Z</time></trkpt><trkpt lat="44.6843175" lon="9.507631"><ele>1010.0</ele><time>2026-04-18T08:18:13.392Z</time></trkpt><trkpt lat="44.6842342" lon="9.5076916"><ele>1012.5000000000001</ele><time>2026-04-18T08:18:15.393Z</time></trkpt><trkpt lat="44.6841671" lon="9.5077595"><ele>1015.0</ele><time>2026-04-18T08:18:17.393Z</time></trkpt><trkpt lat="44.6841082" lon="9.5078389"><ele>1017.5</ele><time>2026-04-18T08:18:19.393Z</time></trkpt><trkpt lat="44.684073" lon="9.507919"><ele>1020.0</ele><time>2026-04-18T08:18:21.393Z</time></trkpt><trkpt lat="44.6840754" lon="9.5080233"><ele>1022.5000000000001</ele><time>2026-04-18T08:19:17.394Z</time></trkpt><trkpt lat="44.6840837" lon="9.5081155"><ele>1025.0</ele><time>2026-04-18T08:19:20.394Z</time></trkpt><trkpt lat="44.6840788" lon="9.508242"><ele>1024.9999999999998</ele><time>2026-04-18T08:19:23.394Z</time></trkpt><trkpt lat="44.6840571" lon="9.5083322"><ele>1025.0</ele><time>2026-04-18T08:19:25.394Z</time></trkpt><trkpt lat="44.684009" lon="9.5084117"><ele>1025.0</ele><time>2026-04-18T08:19:27.394Z</time></trkpt><trkpt lat="44.6839608" lon="9.5084829"><ele>1025.0</ele><time>2026-04-18T08:19:29.394Z</time></trkpt><trkpt lat="44.6839103" lon="9.5085505"><ele>1025.0</ele><time>2026-04-18T08:19:31.394Z</time></trkpt><trkpt lat="44.6838577" lon="9.508605"><ele>1024.9999999999998</ele><time>2026-04-18T08:19:33.394Z</time></trkpt><trkpt lat="44.6838012" lon="9.5086549"><ele>1025.0</ele><time>2026-04-18T08:19:35.394Z</time></trkpt><trkpt lat="44.6837412" lon="9.5087003"><ele>1025.0</ele><time>2026-04-18T08:19:37.394Z</time></trkpt><trkpt lat="44.6836806" lon="9.5087405"><ele>1025.0</ele><time>2026-04-18T08:19:39.394Z</time></trkpt><trkpt lat="44.6836128" lon="9.5087924"><ele>1025.0</ele><time>2026-04-18T08:19:41.394Z</time></trkpt><trkpt lat="44.6835494" lon="9.5088655"><ele>1025.0</ele><time>2026-04-18T08:19:43.394Z</time></trkpt><trkpt lat="44.6834992" lon="9.5089432"><ele>1025.0</ele><time>2026-04-18T08:19:45.394Z</time></trkpt><trkpt lat="44.6834574" lon="9.5090685"><ele>1025.0</ele><time>2026-04-18T08:19:48.394Z</time></trkpt><trkpt lat="44.6834423" lon="9.5091638"><ele>1025.5</ele><time>2026-04-18T08:19:50.394Z</time></trkpt><trkpt lat="44.6834431" lon="9.5092896"><ele>1026.0</ele><time>2026-04-18T08:19:52.394Z</time></trkpt><trkpt lat="44.6834543" lon="9.5093815"><ele>1026.5</ele><time>2026-04-18T08:19:54.394Z</time></trkpt><trkpt lat="44.6834921" lon="9.5095027"><ele>1027.0</ele><time>2026-04-18T08:19:57.394Z</time></trkpt><trkpt lat="44.6835272" lon="9.5096092"><ele>1027.5</ele><time>2026-04-18T08:19:59.394Z</time></trkpt><trkpt lat="44.683554" lon="9.5097164"><ele>1028.0</ele><time>2026-04-18T08:20:01.394Z</time></trkpt><trkpt lat="44.6835435" lon="9.5098512"><ele>1028.3333333333335</ele><time>2026-04-18T08:20:03.394Z</time></trkpt><trkpt lat="44.6835265" lon="9.5099727"><ele>1028.6666666666667</ele><time>2026-04-18T08:20:05.394Z</time></trkpt><trkpt lat="44.6835148" lon="9.5101011"><ele>1029.0</ele><time>2026-04-18T08:20:07.394Z</time></trkpt><trkpt lat="44.6835148" lon="9.510207"><ele>1029.3333333333333</ele><time>2026-04-18T08:20:09.394Z</time></trkpt><trkpt lat="44.6835484" lon="9.5103172"><ele>1029.6666666666665</ele><time>2026-04-18T08:20:11.394Z</time></trkpt><trkpt lat="44.6836022" lon="9.510399"><ele>1030.0</ele><time>2026-04-18T08:20:13.394Z</time></trkpt><trkpt lat="44.683675" lon="9.5104782"><ele>1030.0</ele><time>2026-04-18T08:20:15.395Z</time></trkpt><trkpt lat="44.6837418" lon="9.510562"><ele>1030.0</ele><time>2026-04-18T08:20:17.395Z</time></trkpt><trkpt lat="44.6837979" lon="9.5106469"><ele>1030.0</ele><time>2026-04-18T08:20:19.395Z</time></trkpt><trkpt lat="44.6838407" lon="9.5107312"><ele>1030.0</ele><time>2026-04-18T08:20:21.395Z</time></trkpt><trkpt lat="44.6838575" lon="9.5108331"><ele>1030.0</ele><time>2026-04-18T08:20:23.395Z</time></trkpt><trkpt lat="44.6838624" lon="9.5109359"><ele>1030.0</ele><time>2026-04-18T08:20:25.394Z</time></trkpt><trkpt lat="44.6838416" lon="9.5110393"><ele>1030.0</ele><time>2026-04-18T08:20:27.395Z</time></trkpt><trkpt lat="44.6838007" lon="9.5111269"><ele>1030.0</ele><time>2026-04-18T08:20:29.395Z</time></trkpt><trkpt lat="44.6837521" lon="9.5112073"><ele>1030.0</ele><time>2026-04-18T08:20:31.395Z</time></trkpt><trkpt lat="44.6837054" lon="9.5112943"><ele>1030.0</ele><time>2026-04-18T08:20:33.395Z</time></trkpt><trkpt lat="44.6836732" lon="9.5113818"><ele>1030.0</ele><time>2026-04-18T08:20:35.395Z</time></trkpt><trkpt lat="44.6836472" lon="9.511475"><ele>1030.0</ele><time>2026-04-18T08:20:37.394Z</time></trkpt><trkpt lat="44.6836327" lon="9.5115742"><ele>1030.0</ele><time>2026-04-18T08:20:39.395Z</time></trkpt><trkpt lat="44.6836305" lon="9.5116804"><ele>1029.8333333333333</ele><time>2026-04-18T08:20:41.395Z</time></trkpt><trkpt lat="44.6836299" lon="9.5117873"><ele>1029.6666666666665</ele><time>2026-04-18T08:20:43.395Z</time></trkpt><trkpt lat="44.6836266" lon="9.5118849"><ele>1029.5</ele><time>2026-04-18T08:20:45.395Z</time></trkpt><trkpt lat="44.6836186" lon="9.5120075"><ele>1029.3333333333333</ele><time>2026-04-18T08:20:48.395Z</time></trkpt><trkpt lat="44.683598" lon="9.5121235"><ele>1029.1666666666667</ele><time>2026-04-18T08:20:51.395Z</time></trkpt><trkpt lat="44.6835839" lon="9.5122142"><ele>1029.0</ele><time>2026-04-18T08:21:01.395Z</time></trkpt><trkpt lat="44.6836055" lon="9.5123294"><ele>1027.5714285714287</ele><time>2026-04-18T08:21:27.395Z</time></trkpt><trkpt lat="44.6836409" lon="9.5124181"><ele>1026.142857142857</ele><time>2026-04-18T08:21:43.396Z</time></trkpt><trkpt lat="44.6836796" lon="9.5124997"><ele>1024.7142857142858</ele><time>2026-04-18T08:21:48.396Z</time></trkpt><trkpt lat="44.6837037" lon="9.5125971"><ele>1023.2857142857143</ele><time>2026-04-18T08:22:01.396Z</time></trkpt><trkpt lat="44.6837316" lon="9.5127135"><ele>1021.8571428571429</ele><time>2026-04-18T08:22:05.396Z</time></trkpt><trkpt lat="44.6837329" lon="9.5128134"><ele>1020.4285714285716</ele><time>2026-04-18T08:22:07.396Z</time></trkpt><trkpt lat="44.6837112" lon="9.5129012"><ele>1019.0000000000001</ele><time>2026-04-18T08:22:09.396Z</time></trkpt><trkpt lat="44.6836891" lon="9.513015"><ele>1020.0000000000001</ele><time>2026-04-18T08:22:12.396Z</time></trkpt><trkpt lat="44.6836665" lon="9.5131271"><ele>1021.0</ele><time>2026-04-18T08:22:15.396Z</time></trkpt><trkpt lat="44.683658" lon="9.5132389"><ele>1022.0</ele><time>2026-04-18T08:22:18.396Z</time></trkpt><trkpt lat="44.6836415" lon="9.513328"><ele>1023.0</ele><time>2026-04-18T08:22:20.396Z</time></trkpt><trkpt lat="44.6836075" lon="9.5134049"><ele>1024.0</ele><time>2026-04-18T08:22:22.396Z</time></trkpt><trkpt lat="44.6835651" lon="9.5135155"><ele>1025.0</ele><time>2026-04-18T08:22:25.396Z</time></trkpt><trkpt lat="44.6835465" lon="9.5136235"><ele>1025.0</ele><time>2026-04-18T08:22:28.396Z</time></trkpt><trkpt lat="44.6835438" lon="9.5137259"><ele>1025.0</ele><time>2026-04-18T08:22:30.396Z</time></trkpt><trkpt lat="44.6835689" lon="9.513868"><ele>1025.0</ele><time>2026-04-18T08:22:32.396Z</time></trkpt><trkpt lat="44.6835986" lon="9.5140017"><ele>1025.0</ele><time>2026-04-18T08:22:34.396Z</time></trkpt><trkpt lat="44.6835978" lon="9.5141184"><ele>1025.0</ele><time>2026-04-18T08:22:36.396Z</time></trkpt><trkpt lat="44.6835826" lon="9.5142377"><ele>1025.0</ele><time>2026-04-18T08:22:39.396Z</time></trkpt><trkpt lat="44.6835284" lon="9.5143308"><ele>1024.3333333333335</ele><time>2026-04-18T08:22:42.396Z</time></trkpt><trkpt lat="44.6834762" lon="9.5144"><ele>1023.6666666666667</ele><time>2026-04-18T08:22:45.396Z</time></trkpt><trkpt lat="44.6834127" lon="9.5144512"><ele>1023.0</ele><time>2026-04-18T08:22:48.396Z</time></trkpt><trkpt lat="44.683349" lon="9.5145192"><ele>1022.3333333333333</ele><time>2026-04-18T08:22:51.396Z</time></trkpt><trkpt lat="44.683311" lon="9.5146263"><ele>1021.6666666666666</ele><time>2026-04-18T08:22:54.396Z</time></trkpt><trkpt lat="44.6833163" lon="9.5147463"><ele>1021.0</ele><time>2026-04-18T08:22:57.396Z</time></trkpt><trkpt lat="44.6833506" lon="9.5148512"><ele>1021.0</ele><time>2026-04-18T08:22:59.396Z</time></trkpt><trkpt lat="44.6833812" lon="9.5149877"><ele>1020.9999999999999</ele><time>2026-04-18T08:23:01.397Z</time></trkpt><trkpt lat="44.6834019" lon="9.5151035"><ele>1020.9999999999999</ele><time>2026-04-18T08:23:03.397Z</time></trkpt><trkpt lat="44.6834276" lon="9.5152397"><ele>1021.0</ele><time>2026-04-18T08:23:05.397Z</time></trkpt><trkpt lat="44.6834324" lon="9.5153778"><ele>1021.0</ele><time>2026-04-18T08:23:07.397Z</time></trkpt><trkpt lat="44.6834277" lon="9.5155064"><ele>1021.9999999999999</ele><time>2026-04-18T08:23:09.397Z</time></trkpt><trkpt lat="44.6834262" lon="9.5156371"><ele>1023.0</ele><time>2026-04-18T08:23:11.397Z</time></trkpt><trkpt lat="44.6834048" lon="9.5157567"><ele>1024.0</ele><time>2026-04-18T08:23:13.397Z</time></trkpt><trkpt lat="44.6833748" lon="9.5158489"><ele>1025.0</ele><time>2026-04-18T08:23:15.397Z</time></trkpt><trkpt lat="44.6833404" lon="9.5159312"><ele>1026.0</ele><time>2026-04-18T08:23:18.397Z</time></trkpt><trkpt lat="44.6833059" lon="9.5160279"><ele>1027.0</ele><time>2026-04-18T08:23:21.397Z</time></trkpt><trkpt lat="44.683272" lon="9.5161031"><ele>1027.0</ele><time>2026-04-18T08:24:49.398Z</time></trkpt><trkpt lat="44.6832553" lon="9.5162106"><ele>1027.0</ele><time>2026-04-18T08:26:28.399Z</time></trkpt><trkpt lat="44.6832947" lon="9.5162917"><ele>1027.0</ele><time>2026-04-18T08:26:32.399Z</time></trkpt><trkpt lat="44.6833626" lon="9.5163693"><ele>1027.0</ele><time>2026-04-18T08:26:35.399Z</time></trkpt><trkpt lat="44.683423" lon="9.5164025"><ele>1027.0</ele><time>2026-04-18T08:26:37.399Z</time></trkpt><trkpt lat="44.6834721" lon="9.5164917"><ele>1027.0</ele><time>2026-04-18T08:26:40.399Z</time></trkpt><trkpt lat="44.6834801" lon="9.51661"><ele>1027.4285714285716</ele><time>2026-04-18T08:26:43.399Z</time></trkpt><trkpt lat="44.6834764" lon="9.5167191"><ele>1027.857142857143</ele><time>2026-04-18T08:26:45.399Z</time></trkpt><trkpt lat="44.6834576" lon="9.5168208"><ele>1028.2857142857142</ele><time>2026-04-18T08:26:47.399Z</time></trkpt><trkpt lat="44.6834389" lon="9.5169088"><ele>1028.7142857142858</ele><time>2026-04-18T08:26:49.399Z</time></trkpt><trkpt lat="44.6834119" lon="9.5170281"><ele>1029.142857142857</ele><time>2026-04-18T08:26:52.399Z</time></trkpt><trkpt lat="44.6833879" lon="9.5171129"><ele>1029.5714285714287</ele><time>2026-04-18T08:26:54.399Z</time></trkpt><trkpt lat="44.6833601" lon="9.5171988"><ele>1030.0</ele><time>2026-04-18T08:26:57.399Z</time></trkpt><trkpt lat="44.6833352" lon="9.5173025"><ele>1028.7142857142858</ele><time>2026-04-18T08:27:13.4Z</time></trkpt><trkpt lat="44.6832878" lon="9.5173929"><ele>1027.4285714285713</ele><time>2026-04-18T08:27:17.4Z</time></trkpt><trkpt lat="44.6832405" lon="9.5174836"><ele>1026.142857142857</ele><time>2026-04-18T08:27:20.4Z</time></trkpt><trkpt lat="44.6831988" lon="9.5175565"><ele>1024.857142857143</ele><time>2026-04-18T08:27:24.4Z</time></trkpt><trkpt lat="44.6831578" lon="9.5176241"><ele>1023.5714285714287</ele><time>2026-04-18T08:27:32.4Z</time></trkpt><trkpt lat="44.6831035" lon="9.5177009"><ele>1022.2857142857142</ele><time>2026-04-18T08:27:36.4Z</time></trkpt><trkpt lat="44.683034" lon="9.5177309"><ele>1021.0</ele><time>2026-04-18T08:27:40.4Z</time></trkpt><trkpt lat="44.6829613" lon="9.5177575"><ele>1020.9999999999999</ele><time>2026-04-18T08:27:44.4Z</time></trkpt><trkpt lat="44.6828806" lon="9.5178071"><ele>1021.0</ele><time>2026-04-18T08:27:48.399Z</time></trkpt><trkpt lat="44.6828289" lon="9.517883"><ele>1021.0</ele><time>2026-04-18T08:27:51.4Z</time></trkpt><trkpt lat="44.6827939" lon="9.5179661"><ele>1021.0</ele><time>2026-04-18T08:27:54.4Z</time></trkpt><trkpt lat="44.6827571" lon="9.5180616"><ele>1020.9999999999999</ele><time>2026-04-18T08:27:57.4Z</time></trkpt><trkpt lat="44.6827232" lon="9.5181411"><ele>1021.0</ele><time>2026-04-18T08:27:59.4Z</time></trkpt><trkpt lat="44.6826855" lon="9.5182341"><ele>1019.1666666666666</ele><time>2026-04-18T08:28:01.4Z</time></trkpt><trkpt lat="44.6826218" lon="9.5183236"><ele>1017.3333333333333</ele><time>2026-04-18T08:28:04.399Z</time></trkpt><trkpt lat="44.6825385" lon="9.5183804"><ele>1015.5</ele><time>2026-04-18T08:28:07.4Z</time></trkpt><trkpt lat="44.6824745" lon="9.5184099"><ele>1013.6666666666667</ele><time>2026-04-18T08:28:09.4Z</time></trkpt><trkpt lat="44.6824119" lon="9.518465"><ele>1011.8333333333334</ele><time>2026-04-18T08:28:12.4Z</time></trkpt><trkpt lat="44.6823592" lon="9.5185347"><ele>1010.0</ele><time>2026-04-18T08:28:15.4Z</time></trkpt><trkpt lat="44.6823298" lon="9.518622"><ele>1010.0000000000001</ele><time>2026-04-18T08:28:18.4Z</time></trkpt><trkpt lat="44.6823062" lon="9.5187169"><ele>1010.0</ele><time>2026-04-18T08:28:20.4Z</time></trkpt><trkpt lat="44.6822631" lon="9.5188236"><ele>1010.0</ele><time>2026-04-18T08:28:23.4Z</time></trkpt><trkpt lat="44.6822166" lon="9.518922"><ele>1010.0</ele><time>2026-04-18T08:28:26.4Z</time></trkpt><trkpt lat="44.682163" lon="9.5190241"><ele>1010.0000000000001</ele><time>2026-04-18T08:28:29.4Z</time></trkpt><trkpt lat="44.6821222" lon="9.5191007"><ele>1010.0</ele><time>2026-04-18T08:28:44.401Z</time></trkpt><trkpt lat="44.6820825" lon="9.5191889"><ele>1008.6666666666667</ele><time>2026-04-18T08:28:47.401Z</time></trkpt><trkpt lat="44.6820491" lon="9.5192718"><ele>1007.3333333333334</ele><time>2026-04-18T08:28:49.401Z</time></trkpt><trkpt lat="44.6820075" lon="9.5193732"><ele>1006.0</ele><time>2026-04-18T08:28:52.401Z</time></trkpt><trkpt lat="44.6819666" lon="9.5194786"><ele>1004.6666666666667</ele><time>2026-04-18T08:28:55.401Z</time></trkpt><trkpt lat="44.6819259" lon="9.5195924"><ele>1003.3333333333334</ele><time>2026-04-18T08:28:58.401Z</time></trkpt><trkpt lat="44.6818911" lon="9.5196782"><ele>1002.0</ele><time>2026-04-18T08:34:45.405Z</time></trkpt><trkpt lat="44.6818662" lon="9.5197815"><ele>1002.0</ele><time>2026-04-18T08:34:50.405Z</time></trkpt><trkpt lat="44.6818621" lon="9.51987"><ele>1002.0</ele><time>2026-04-18T08:34:53.405Z</time></trkpt><trkpt lat="44.6818566" lon="9.5199693"><ele>1002.0</ele><time>2026-04-18T08:34:57.405Z</time></trkpt><trkpt lat="44.6818468" lon="9.5200607"><ele>1002.0</ele><time>2026-04-18T08:35:00.405Z</time></trkpt><trkpt lat="44.6818233" lon="9.5201579"><ele>1002.0</ele><time>2026-04-18T08:35:03.405Z</time></trkpt><trkpt lat="44.6817859" lon="9.5202411"><ele>1002.0</ele><time>2026-04-18T08:35:06.405Z</time></trkpt><trkpt lat="44.681736" lon="9.5203239"><ele>1002.0</ele><time>2026-04-18T08:35:09.405Z</time></trkpt><trkpt lat="44.6816963" lon="9.520403"><ele>1000.2857142857143</ele><time>2026-04-18T08:35:12.405Z</time></trkpt><trkpt lat="44.6816449" lon="9.5204882"><ele>998.5714285714284</ele><time>2026-04-18T08:35:15.405Z</time></trkpt><trkpt lat="44.6816129" lon="9.5205723"><ele>996.8571428571428</ele><time>2026-04-18T08:35:20.405Z</time></trkpt><trkpt lat="44.6815725" lon="9.5206405"><ele>995.1428571428571</ele><time>2026-04-18T08:35:44.406Z</time></trkpt><trkpt lat="44.6815155" lon="9.5207072"><ele>993.4285714285713</ele><time>2026-04-18T08:35:48.406Z</time></trkpt><trkpt lat="44.6814439" lon="9.5207529"><ele>991.7142857142856</ele><time>2026-04-18T08:35:52.406Z</time></trkpt><trkpt lat="44.681367" lon="9.5207984"><ele>989.9999999999999</ele><time>2026-04-18T08:35:55.406Z</time></trkpt><trkpt lat="44.6812925" lon="9.5208129"><ele>989.9999999999999</ele><time>2026-04-18T08:35:58.406Z</time></trkpt><trkpt lat="44.6812206" lon="9.5207868"><ele>990.0</ele><time>2026-04-18T08:36:01.406Z</time></trkpt><trkpt lat="44.6811571" lon="9.5207454"><ele>989.9999999999999</ele><time>2026-04-18T08:36:05.406Z</time></trkpt><trkpt lat="44.681096" lon="9.5207193"><ele>989.9999999999999</ele><time>2026-04-18T08:36:09.406Z</time></trkpt><trkpt lat="44.6810313" lon="9.5207759"><ele>990.0</ele><time>2026-04-18T08:36:21.406Z</time></trkpt><trkpt lat="44.6809657" lon="9.520863"><ele>989.9999999999999</ele><time>2026-04-18T08:36:24.406Z</time></trkpt><trkpt lat="44.6808935" lon="9.5208839"><ele>989.9999999999999</ele><time>2026-04-18T08:36:27.406Z</time></trkpt><trkpt lat="44.6808151" lon="9.5209392"><ele>989.5714285714284</ele><time>2026-04-18T08:36:35.406Z</time></trkpt><trkpt lat="44.6807706" lon="9.5210255"><ele>989.1428571428571</ele><time>2026-04-18T08:36:37.406Z</time></trkpt><trkpt lat="44.6807237" lon="9.5211017"><ele>988.7142857142857</ele><time>2026-04-18T08:36:39.406Z</time></trkpt><trkpt lat="44.6806938" lon="9.5211884"><ele>988.2857142857142</ele><time>2026-04-18T08:36:51.406Z</time></trkpt><trkpt lat="44.6806474" lon="9.5212683"><ele>987.8571428571429</ele><time>2026-04-18T08:37:01.406Z</time></trkpt><trkpt lat="44.6805999" lon="9.5213481"><ele>987.4285714285714</ele><time>2026-04-18T08:37:05.407Z</time></trkpt><trkpt lat="44.6805514" lon="9.5214296"><ele>987.0</ele><time>2026-04-18T08:37:08.407Z</time></trkpt><trkpt lat="44.6805171" lon="9.5215042"><ele>987.0</ele><time>2026-04-18T08:37:10.407Z</time></trkpt><trkpt lat="44.6804777" lon="9.5215818"><ele>987.0</ele><time>2026-04-18T08:37:13.406Z</time></trkpt><trkpt lat="44.6804305" lon="9.5216935"><ele>987.0</ele><time>2026-04-18T08:37:33.407Z</time></trkpt><trkpt lat="44.6803868" lon="9.5217579"><ele>987.0</ele><time>2026-04-18T08:37:35.407Z</time></trkpt><trkpt lat="44.6803456" lon="9.5218454"><ele>987.0</ele><time>2026-04-18T08:37:37.407Z</time></trkpt><trkpt lat="44.6803189" lon="9.5219296"><ele>987.0</ele><time>2026-04-18T08:37:39.407Z</time></trkpt><trkpt lat="44.6802657" lon="9.5219992"><ele>987.0</ele><time>2026-04-18T08:37:55.407Z</time></trkpt><trkpt lat="44.6802007" lon="9.522036"><ele>987.5</ele><time>2026-04-18T08:37:58.407Z</time></trkpt><trkpt lat="44.6801285" lon="9.5220547"><ele>988.0</ele><time>2026-04-18T08:38:01.407Z</time></trkpt><trkpt lat="44.6800471" lon="9.5220993"><ele>988.5</ele><time>2026-04-18T08:38:04.407Z</time></trkpt><trkpt lat="44.6799805" lon="9.5221506"><ele>989.0</ele><time>2026-04-18T08:38:06.407Z</time></trkpt><trkpt lat="44.67991" lon="9.5222031"><ele>989.5</ele><time>2026-04-18T08:38:09.407Z</time></trkpt><trkpt lat="44.6798517" lon="9.522253"><ele>990.0</ele><time>2026-04-18T08:38:11.407Z</time></trkpt><trkpt lat="44.6797949" lon="9.5222983"><ele>989.9999999999999</ele><time>2026-04-18T08:38:13.407Z</time></trkpt><trkpt lat="44.6797289" lon="9.5223388"><ele>990.0</ele><time>2026-04-18T08:38:15.407Z</time></trkpt><trkpt lat="44.6796536" lon="9.5223853"><ele>989.9999999999999</ele><time>2026-04-18T08:38:17.407Z</time></trkpt><trkpt lat="44.6795855" lon="9.5224221"><ele>989.9999999999999</ele><time>2026-04-18T08:38:19.407Z</time></trkpt><trkpt lat="44.6795268" lon="9.5224692"><ele>990.0</ele><time>2026-04-18T08:39:28.408Z</time></trkpt><trkpt lat="44.6794662" lon="9.522507"><ele>989.9999999999999</ele><time>2026-04-18T08:40:38.409Z</time></trkpt><trkpt lat="44.6794016" lon="9.5225529"><ele>989.9999999999999</ele><time>2026-04-18T08:40:45.409Z</time></trkpt><trkpt lat="44.6793356" lon="9.5225863"><ele>991.1666666666666</ele><time>2026-04-18T08:40:50.409Z</time></trkpt><trkpt lat="44.6792635" lon="9.5226383"><ele>992.3333333333333</ele><time>2026-04-18T08:40:53.409Z</time></trkpt><trkpt lat="44.679193" lon="9.5227017"><ele>993.5</ele><time>2026-04-18T08:42:39.41Z</time></trkpt><trkpt lat="44.6791112" lon="9.522757"><ele>994.6666666666666</ele><time>2026-04-18T08:42:43.411Z</time></trkpt><trkpt lat="44.6790476" lon="9.5227807"><ele>995.8333333333333</ele><time>2026-04-18T08:42:45.411Z</time></trkpt><trkpt lat="44.6789824" lon="9.5227817"><ele>997.0</ele><time>2026-04-18T08:42:47.411Z</time></trkpt><trkpt lat="44.6788958" lon="9.5227732"><ele>996.9999999999999</ele><time>2026-04-18T08:42:50.411Z</time></trkpt><trkpt lat="44.6788288" lon="9.5227607"><ele>997.0</ele><time>2026-04-18T08:42:52.411Z</time></trkpt><trkpt lat="44.6787648" lon="9.5227455"><ele>996.9999999999999</ele><time>2026-04-18T08:42:54.411Z</time></trkpt><trkpt lat="44.6786963" lon="9.5227352"><ele>996.9999999999999</ele><time>2026-04-18T08:42:56.411Z</time></trkpt><trkpt lat="44.6786201" lon="9.5227415"><ele>997.0</ele><time>2026-04-18T08:42:58.411Z</time></trkpt><trkpt lat="44.6785548" lon="9.5227565"><ele>996.9999999999999</ele><time>2026-04-18T08:43:00.411Z</time></trkpt><trkpt lat="44.678481" lon="9.522774"><ele>996.9999999999999</ele><time>2026-04-18T08:43:02.411Z</time></trkpt><trkpt lat="44.6784116" lon="9.5228245"><ele>996.5714285714284</ele><time>2026-04-18T08:43:04.411Z</time></trkpt><trkpt lat="44.6783754" lon="9.5229"><ele>996.1428571428571</ele><time>2026-04-18T08:43:06.411Z</time></trkpt><trkpt lat="44.678346" lon="9.5230183"><ele>995.7142857142857</ele><time>2026-04-18T08:43:09.41Z</time></trkpt><trkpt lat="44.6782992" lon="9.5230979"><ele>995.2857142857142</ele><time>2026-04-18T08:43:32.411Z</time></trkpt><trkpt lat="44.6782722" lon="9.5231943"><ele>994.8571428571429</ele><time>2026-04-18T08:43:44.411Z</time></trkpt><trkpt lat="44.6782286" lon="9.5232739"><ele>994.4285714285714</ele><time>2026-04-18T08:43:49.411Z</time></trkpt><trkpt lat="44.678194" lon="9.5233483"><ele>994.0</ele><time>2026-04-18T08:43:53.411Z</time></trkpt><trkpt lat="44.6781374" lon="9.5233936"><ele>993.9999999999999</ele><time>2026-04-18T08:43:57.411Z</time></trkpt><trkpt lat="44.6780576" lon="9.5233678"><ele>994.0</ele><time>2026-04-18T08:44:01.411Z</time></trkpt><trkpt lat="44.6779966" lon="9.5233047"><ele>994.0</ele><time>2026-04-18T08:44:04.411Z</time></trkpt><trkpt lat="44.6779271" lon="9.5232161"><ele>994.0</ele><time>2026-04-18T08:44:07.411Z</time></trkpt><trkpt lat="44.6778703" lon="9.5231406"><ele>993.9999999999999</ele><time>2026-04-18T08:44:10.412Z</time></trkpt><trkpt lat="44.6777991" lon="9.5231254"><ele>994.0</ele><time>2026-04-18T08:44:13.412Z</time></trkpt><trkpt lat="44.6777467" lon="9.5231764"><ele>991.4999999999999</ele><time>2026-04-18T08:44:16.412Z</time></trkpt><trkpt lat="44.6777175" lon="9.5232802"><ele>989.0</ele><time>2026-04-18T08:44:19.412Z</time></trkpt><trkpt lat="44.6776877" lon="9.5233934"><ele>986.5</ele><time>2026-04-18T08:44:22.412Z</time></trkpt><trkpt lat="44.6776627" lon="9.5234878"><ele>984.0</ele><time>2026-04-18T08:44:25.412Z</time></trkpt><trkpt lat="44.677612" lon="9.523569"><ele>981.4999999999999</ele><time>2026-04-18T08:44:29.412Z</time></trkpt><trkpt lat="44.6775514" lon="9.5236132"><ele>979.0</ele><time>2026-04-18T08:44:32.412Z</time></trkpt><trkpt lat="44.6774637" lon="9.5236315"><ele>978.9999999999999</ele><time>2026-04-18T08:44:35.412Z</time></trkpt><trkpt lat="44.677388" lon="9.5236492"><ele>979.0</ele><time>2026-04-18T08:44:37.411Z</time></trkpt><trkpt lat="44.6773219" lon="9.5236708"><ele>979.0</ele><time>2026-04-18T08:44:39.412Z</time></trkpt><trkpt lat="44.6772436" lon="9.5236993"><ele>979.0</ele><time>2026-04-18T08:44:41.412Z</time></trkpt><trkpt lat="44.6771722" lon="9.5237228"><ele>978.9999999999999</ele><time>2026-04-18T08:44:43.412Z</time></trkpt><trkpt lat="44.6771007" lon="9.5237423"><ele>979.0</ele><time>2026-04-18T08:44:45.412Z</time></trkpt><trkpt lat="44.6770232" lon="9.5237531"><ele>977.6666666666666</ele><time>2026-04-18T08:44:47.412Z</time></trkpt><trkpt lat="44.6769565" lon="9.523747"><ele>976.3333333333333</ele><time>2026-04-18T08:44:49.412Z</time></trkpt><trkpt lat="44.6768847" lon="9.5237469"><ele>975.0</ele><time>2026-04-18T08:44:51.412Z</time></trkpt><trkpt lat="44.676788" lon="9.5237618"><ele>973.6666666666667</ele><time>2026-04-18T08:44:54.412Z</time></trkpt><trkpt lat="44.6767152" lon="9.5237861"><ele>972.3333333333334</ele><time>2026-04-18T08:44:56.412Z</time></trkpt><trkpt lat="44.6766407" lon="9.5238456"><ele>971.0</ele><time>2026-04-18T08:44:59.412Z</time></trkpt><trkpt lat="44.6765823" lon="9.5239652"><ele>968.8333333333334</ele><time>2026-04-18T08:45:02.412Z</time></trkpt><trkpt lat="44.6765364" lon="9.5240813"><ele>966.6666666666667</ele><time>2026-04-18T08:45:04.412Z</time></trkpt><trkpt lat="44.6765012" lon="9.5241884"><ele>964.5</ele><time>2026-04-18T08:45:06.412Z</time></trkpt><trkpt lat="44.676471" lon="9.5243045"><ele>962.3333333333333</ele><time>2026-04-18T08:45:08.412Z</time></trkpt><trkpt lat="44.6764666" lon="9.5244168"><ele>960.1666666666666</ele><time>2026-04-18T08:45:10.412Z</time></trkpt><trkpt lat="44.6764857" lon="9.5245398"><ele>958.0</ele><time>2026-04-18T08:45:12.412Z</time></trkpt><trkpt lat="44.6765174" lon="9.5246555"><ele>957.1666666666666</ele><time>2026-04-18T08:45:14.412Z</time></trkpt><trkpt lat="44.6765506" lon="9.5247461"><ele>956.3333333333333</ele><time>2026-04-18T08:45:16.412Z</time></trkpt><trkpt lat="44.6766009" lon="9.5248431"><ele>955.5</ele><time>2026-04-18T08:45:19.412Z</time></trkpt><trkpt lat="44.6766514" lon="9.5249267"><ele>954.6666666666667</ele><time>2026-04-18T08:45:22.412Z</time></trkpt><trkpt lat="44.6766902" lon="9.5250159"><ele>953.8333333333334</ele><time>2026-04-18T08:45:26.412Z</time></trkpt><trkpt lat="44.676709" lon="9.5251346"><ele>953.0</ele><time>2026-04-18T08:45:30.412Z</time></trkpt><trkpt lat="44.6766999" lon="9.5252259"><ele>953.0000000000001</ele><time>2026-04-18T08:45:32.412Z</time></trkpt><trkpt lat="44.6766759" lon="9.52535"><ele>953.0</ele><time>2026-04-18T08:45:35.413Z</time></trkpt><trkpt lat="44.6766598" lon="9.5254496"><ele>953.0</ele><time>2026-04-18T08:45:37.412Z</time></trkpt><trkpt lat="44.6766505" lon="9.5255658"><ele>953.0</ele><time>2026-04-18T08:45:39.412Z</time></trkpt><trkpt lat="44.6766399" lon="9.5256872"><ele>953.0000000000001</ele><time>2026-04-18T08:45:41.413Z</time></trkpt><trkpt lat="44.6766256" lon="9.5257926"><ele>953.0</ele><time>2026-04-18T08:45:43.413Z</time></trkpt><trkpt lat="44.6766006" lon="9.5259033"><ele>952.5000000000001</ele><time>2026-04-18T08:45:45.413Z</time></trkpt><trkpt lat="44.6765631" lon="9.5260223"><ele>952.0</ele><time>2026-04-18T08:45:47.413Z</time></trkpt><trkpt lat="44.6765299" lon="9.5261174"><ele>951.5</ele><time>2026-04-18T08:45:49.413Z</time></trkpt><trkpt lat="44.6765092" lon="9.5262339"><ele>951.0</ele><time>2026-04-18T08:45:52.412Z</time></trkpt><trkpt lat="44.6765036" lon="9.5263346"><ele>950.5000000000001</ele><time>2026-04-18T08:46:10.413Z</time></trkpt><trkpt lat="44.6764933" lon="9.5264526"><ele>950.0</ele><time>2026-04-18T08:46:14.413Z</time></trkpt><trkpt lat="44.6765428" lon="9.5265271"><ele>950.1666666666667</ele><time>2026-04-18T08:46:19.413Z</time></trkpt><trkpt lat="44.6766067" lon="9.5265745"><ele>950.3333333333334</ele><time>2026-04-18T08:46:23.413Z</time></trkpt><trkpt lat="44.6766864" lon="9.526602"><ele>950.5</ele><time>2026-04-18T08:46:26.413Z</time></trkpt><trkpt lat="44.6767528" lon="9.5266252"><ele>950.6666666666667</ele><time>2026-04-18T08:46:28.413Z</time></trkpt><trkpt lat="44.6768378" lon="9.5266653"><ele>950.8333333333334</ele><time>2026-04-18T08:46:30.413Z</time></trkpt><trkpt lat="44.6769029" lon="9.5266968"><ele>951.0</ele><time>2026-04-18T08:46:32.413Z</time></trkpt><trkpt lat="44.6769761" lon="9.526724"><ele>951.0</ele><time>2026-04-18T08:46:34.413Z</time></trkpt><trkpt lat="44.6770622" lon="9.5267596"><ele>951.0</ele><time>2026-04-18T08:46:37.413Z</time></trkpt><trkpt lat="44.6771294" lon="9.5267952"><ele>951.0</ele><time>2026-04-18T08:46:40.413Z</time></trkpt><trkpt lat="44.6771906" lon="9.5268326"><ele>951.0</ele><time>2026-04-18T08:46:43.413Z</time></trkpt><trkpt lat="44.6772565" lon="9.5268889"><ele>951.0</ele><time>2026-04-18T08:46:47.413Z</time></trkpt></trkseg></trk></gpx>